<?xml version="1.0" encoding="UTF-8" standalone="no" ?>
<gpx xmlns="http://www.topografix.com/GPX/1/1" xmlns:xsi="http://www.w3.org/2001/XMLSchema-instance" xsi:schemaLocation="http://www.topografix.com/GPX/1/1 http://www.topografix.com/GPX/1/1/gpx.xsd" version="1.1" creator="VisuGPX - https://www.visugpx.com">
  <metadata>
    <name>Collines du Royans</name>
    <desc><![CDATA[Boucle de 42km à VTT sur les collines du Royans avec de beaux points de vue sur le Vercors]]></desc>
  </metadata>
  <trk>
    <name><![CDATA[Move]]></name>
    <trkseg>
      <trkpt lat="45.04407" lon="5.34235">
        <ele>317.10000610352</ele>
        <time>2019-12-31T11:41:22.007Z</time>
      </trkpt>
      <trkpt lat="45.04399" lon="5.34234">
        <ele>319</ele>
        <time>2019-12-31T11:41:25.007Z</time>
      </trkpt>
      <trkpt lat="45.04391" lon="5.34234">
        <ele>319</ele>
        <time>2019-12-31T11:41:28.007Z</time>
      </trkpt>
      <trkpt lat="45.04378" lon="5.34232">
        <ele>322</ele>
        <time>2019-12-31T11:41:32.007Z</time>
      </trkpt>
      <trkpt lat="45.04365" lon="5.34231">
        <ele>324</ele>
        <time>2019-12-31T11:41:36.007Z</time>
      </trkpt>
      <trkpt lat="45.04353" lon="5.34229">
        <ele>324.23465598743</ele>
        <time>2019-12-31T11:41:40.007Z</time>
      </trkpt>
      <trkpt lat="45.04343" lon="5.34225">
        <ele>325</ele>
        <time>2019-12-31T11:41:43.007Z</time>
      </trkpt>
      <trkpt lat="45.04334" lon="5.34216">
        <ele>325</ele>
        <time>2019-12-31T11:41:46.007Z</time>
      </trkpt>
      <trkpt lat="45.04327" lon="5.34209">
        <ele>325</ele>
        <time>2019-12-31T11:41:48.007Z</time>
      </trkpt>
      <trkpt lat="45.04317" lon="5.34195">
        <ele>324</ele>
        <time>2019-12-31T11:41:51.007Z</time>
      </trkpt>
      <trkpt lat="45.04314" lon="5.3418">
        <ele>324</ele>
        <time>2019-12-31T11:41:53.007Z</time>
      </trkpt>
      <trkpt lat="45.04313" lon="5.34171">
        <ele>324</ele>
        <time>2019-12-31T11:41:54.007Z</time>
      </trkpt>
      <trkpt lat="45.04314" lon="5.34161">
        <ele>324</ele>
        <time>2019-12-31T11:41:55.007Z</time>
      </trkpt>
      <trkpt lat="45.04317" lon="5.34139">
        <ele>324</ele>
        <time>2019-12-31T11:41:57.007Z</time>
      </trkpt>
      <trkpt lat="45.04322" lon="5.34126">
        <ele>324</ele>
        <time>2019-12-31T11:41:58.007Z</time>
      </trkpt>
      <trkpt lat="45.04327" lon="5.34112">
        <ele>324</ele>
        <time>2019-12-31T11:41:59.007Z</time>
      </trkpt>
      <trkpt lat="45.04334" lon="5.34099">
        <ele>321.3929472</ele>
        <time>2019-12-31T11:42:00.007Z</time>
      </trkpt>
      <trkpt lat="45.04341" lon="5.34085">
        <ele>313</ele>
        <time>2019-12-31T11:42:01.007Z</time>
      </trkpt>
      <trkpt lat="45.04347" lon="5.3407">
        <ele>312.7629952</ele>
        <time>2019-12-31T11:42:02.007Z</time>
      </trkpt>
      <trkpt lat="45.04354" lon="5.34056">
        <ele>312</ele>
        <time>2019-12-31T11:42:03.007Z</time>
      </trkpt>
      <trkpt lat="45.0436" lon="5.34041">
        <ele>311.76534401257</ele>
        <time>2019-12-31T11:42:04.007Z</time>
      </trkpt>
      <trkpt lat="45.04366" lon="5.34026">
        <ele>310.77070969577</ele>
        <time>2019-12-31T11:42:05.007Z</time>
      </trkpt>
      <trkpt lat="45.04372" lon="5.34012">
        <ele>309.7629952</ele>
        <time>2019-12-31T11:42:06.007Z</time>
      </trkpt>
      <trkpt lat="45.04378" lon="5.33997">
        <ele>309</ele>
        <time>2019-12-31T11:42:07.007Z</time>
      </trkpt>
      <trkpt lat="45.04383" lon="5.33983">
        <ele>308.7629952</ele>
        <time>2019-12-31T11:42:08.007Z</time>
      </trkpt>
      <trkpt lat="45.04388" lon="5.33968">
        <ele>308</ele>
        <time>2019-12-31T11:42:09.007Z</time>
      </trkpt>
      <trkpt lat="45.04392" lon="5.33955">
        <ele>308</ele>
        <time>2019-12-31T11:42:10.007Z</time>
      </trkpt>
      <trkpt lat="45.04397" lon="5.33941">
        <ele>308</ele>
        <time>2019-12-31T11:42:11.007Z</time>
      </trkpt>
      <trkpt lat="45.04401" lon="5.33928">
        <ele>307.5259904</ele>
        <time>2019-12-31T11:42:12.007Z</time>
      </trkpt>
      <trkpt lat="45.04405" lon="5.33917">
        <ele>305.7629952</ele>
        <time>2019-12-31T11:42:13.007Z</time>
      </trkpt>
      <trkpt lat="45.04409" lon="5.33908">
        <ele>305</ele>
        <time>2019-12-31T11:42:14.007Z</time>
      </trkpt>
      <trkpt lat="45.04412" lon="5.33899">
        <ele>305</ele>
        <time>2019-12-31T11:42:15.007Z</time>
      </trkpt>
      <trkpt lat="45.04416" lon="5.33886">
        <ele>305</ele>
        <time>2019-12-31T11:42:17.007Z</time>
      </trkpt>
      <trkpt lat="45.0442" lon="5.33881">
        <ele>305</ele>
        <time>2019-12-31T11:42:20.007Z</time>
      </trkpt>
      <trkpt lat="45.04428" lon="5.3388">
        <ele>305</ele>
        <time>2019-12-31T11:42:23.007Z</time>
      </trkpt>
      <trkpt lat="45.04436" lon="5.33883">
        <ele>305</ele>
        <time>2019-12-31T11:42:25.007Z</time>
      </trkpt>
      <trkpt lat="45.04445" lon="5.33886">
        <ele>305</ele>
        <time>2019-12-31T11:42:27.007Z</time>
      </trkpt>
      <trkpt lat="45.0445" lon="5.33888">
        <ele>305</ele>
        <time>2019-12-31T11:42:28.007Z</time>
      </trkpt>
      <trkpt lat="45.04456" lon="5.3389">
        <ele>305</ele>
        <time>2019-12-31T11:42:29.007Z</time>
      </trkpt>
      <trkpt lat="45.04461" lon="5.33892">
        <ele>305.2370048</ele>
        <time>2019-12-31T11:42:30.007Z</time>
      </trkpt>
      <trkpt lat="45.04467" lon="5.33894">
        <ele>306</ele>
        <time>2019-12-31T11:42:31.007Z</time>
      </trkpt>
      <trkpt lat="45.04472" lon="5.33896">
        <ele>306</ele>
        <time>2019-12-31T11:42:32.007Z</time>
      </trkpt>
      <trkpt lat="45.04477" lon="5.33897">
        <ele>306</ele>
        <time>2019-12-31T11:42:33.007Z</time>
      </trkpt>
      <trkpt lat="45.04482" lon="5.33896">
        <ele>306</ele>
        <time>2019-12-31T11:42:34.007Z</time>
      </trkpt>
      <trkpt lat="45.04487" lon="5.33893">
        <ele>306</ele>
        <time>2019-12-31T11:42:35.007Z</time>
      </trkpt>
      <trkpt lat="45.04491" lon="5.33888">
        <ele>306</ele>
        <time>2019-12-31T11:42:36.007Z</time>
      </trkpt>
      <trkpt lat="45.04495" lon="5.33883">
        <ele>306</ele>
        <time>2019-12-31T11:42:37.007Z</time>
      </trkpt>
      <trkpt lat="45.045" lon="5.33878">
        <ele>306</ele>
        <time>2019-12-31T11:42:38.007Z</time>
      </trkpt>
      <trkpt lat="45.04504" lon="5.33873">
        <ele>306</ele>
        <time>2019-12-31T11:42:39.007Z</time>
      </trkpt>
      <trkpt lat="45.04508" lon="5.33868">
        <ele>305.76534401257</ele>
        <time>2019-12-31T11:42:40.007Z</time>
      </trkpt>
      <trkpt lat="45.04513" lon="5.33863">
        <ele>305</ele>
        <time>2019-12-31T11:42:41.007Z</time>
      </trkpt>
      <trkpt lat="45.04517" lon="5.33858">
        <ele>305</ele>
        <time>2019-12-31T11:42:42.007Z</time>
      </trkpt>
      <trkpt lat="45.04522" lon="5.33853">
        <ele>305</ele>
        <time>2019-12-31T11:42:43.007Z</time>
      </trkpt>
      <trkpt lat="45.04527" lon="5.33848">
        <ele>305</ele>
        <time>2019-12-31T11:42:44.007Z</time>
      </trkpt>
      <trkpt lat="45.04532" lon="5.33844">
        <ele>305</ele>
        <time>2019-12-31T11:42:45.007Z</time>
      </trkpt>
      <trkpt lat="45.04537" lon="5.33839">
        <ele>305</ele>
        <time>2019-12-31T11:42:46.007Z</time>
      </trkpt>
      <trkpt lat="45.04542" lon="5.33833">
        <ele>305</ele>
        <time>2019-12-31T11:42:47.007Z</time>
      </trkpt>
      <trkpt lat="45.04547" lon="5.33827">
        <ele>305</ele>
        <time>2019-12-31T11:42:48.007Z</time>
      </trkpt>
      <trkpt lat="45.04552" lon="5.33821">
        <ele>305</ele>
        <time>2019-12-31T11:42:49.007Z</time>
      </trkpt>
      <trkpt lat="45.04557" lon="5.33815">
        <ele>305</ele>
        <time>2019-12-31T11:42:50.007Z</time>
      </trkpt>
      <trkpt lat="45.04563" lon="5.33809">
        <ele>305</ele>
        <time>2019-12-31T11:42:51.007Z</time>
      </trkpt>
      <trkpt lat="45.04569" lon="5.33804">
        <ele>305</ele>
        <time>2019-12-31T11:42:52.007Z</time>
      </trkpt>
      <trkpt lat="45.0458" lon="5.33795">
        <ele>305</ele>
        <time>2019-12-31T11:42:54.007Z</time>
      </trkpt>
      <trkpt lat="45.04593" lon="5.33787">
        <ele>305</ele>
        <time>2019-12-31T11:42:56.007Z</time>
      </trkpt>
      <trkpt lat="45.04605" lon="5.3378">
        <ele>305</ele>
        <time>2019-12-31T11:42:58.007Z</time>
      </trkpt>
      <trkpt lat="45.04611" lon="5.33776">
        <ele>305</ele>
        <time>2019-12-31T11:42:59.007Z</time>
      </trkpt>
      <trkpt lat="45.04622" lon="5.33771">
        <ele>304</ele>
        <time>2019-12-31T11:43:01.007Z</time>
      </trkpt>
      <trkpt lat="45.04628" lon="5.33768">
        <ele>304</ele>
        <time>2019-12-31T11:43:02.007Z</time>
      </trkpt>
      <trkpt lat="45.04633" lon="5.33765">
        <ele>304</ele>
        <time>2019-12-31T11:43:03.007Z</time>
      </trkpt>
      <trkpt lat="45.04639" lon="5.33762">
        <ele>304</ele>
        <time>2019-12-31T11:43:04.007Z</time>
      </trkpt>
      <trkpt lat="45.04645" lon="5.3376">
        <ele>304</ele>
        <time>2019-12-31T11:43:05.007Z</time>
      </trkpt>
      <trkpt lat="45.04651" lon="5.33757">
        <ele>304</ele>
        <time>2019-12-31T11:43:06.007Z</time>
      </trkpt>
      <trkpt lat="45.04657" lon="5.33755">
        <ele>304</ele>
        <time>2019-12-31T11:43:07.007Z</time>
      </trkpt>
      <trkpt lat="45.04668" lon="5.33751">
        <ele>304</ele>
        <time>2019-12-31T11:43:09.007Z</time>
      </trkpt>
      <trkpt lat="45.04673" lon="5.33749">
        <ele>304.23465598743</ele>
        <time>2019-12-31T11:43:10.007Z</time>
      </trkpt>
      <trkpt lat="45.04679" lon="5.33746">
        <ele>305</ele>
        <time>2019-12-31T11:43:11.007Z</time>
      </trkpt>
      <trkpt lat="45.04685" lon="5.33744">
        <ele>305</ele>
        <time>2019-12-31T11:43:12.007Z</time>
      </trkpt>
      <trkpt lat="45.04691" lon="5.33741">
        <ele>305</ele>
        <time>2019-12-31T11:43:13.007Z</time>
      </trkpt>
      <trkpt lat="45.04697" lon="5.33739">
        <ele>305</ele>
        <time>2019-12-31T11:43:14.007Z</time>
      </trkpt>
      <trkpt lat="45.04703" lon="5.33736">
        <ele>305</ele>
        <time>2019-12-31T11:43:15.007Z</time>
      </trkpt>
      <trkpt lat="45.04709" lon="5.33734">
        <ele>305</ele>
        <time>2019-12-31T11:43:16.007Z</time>
      </trkpt>
      <trkpt lat="45.04715" lon="5.33732">
        <ele>305</ele>
        <time>2019-12-31T11:43:17.007Z</time>
      </trkpt>
      <trkpt lat="45.04721" lon="5.33729">
        <ele>305</ele>
        <time>2019-12-31T11:43:18.007Z</time>
      </trkpt>
      <trkpt lat="45.04727" lon="5.33727">
        <ele>305</ele>
        <time>2019-12-31T11:43:19.007Z</time>
      </trkpt>
      <trkpt lat="45.04733" lon="5.33725">
        <ele>305</ele>
        <time>2019-12-31T11:43:20.007Z</time>
      </trkpt>
      <trkpt lat="45.0474" lon="5.33722">
        <ele>305</ele>
        <time>2019-12-31T11:43:21.007Z</time>
      </trkpt>
      <trkpt lat="45.04746" lon="5.3372">
        <ele>305</ele>
        <time>2019-12-31T11:43:22.007Z</time>
      </trkpt>
      <trkpt lat="45.04753" lon="5.33717">
        <ele>305</ele>
        <time>2019-12-31T11:43:23.007Z</time>
      </trkpt>
      <trkpt lat="45.04759" lon="5.33715">
        <ele>305</ele>
        <time>2019-12-31T11:43:24.007Z</time>
      </trkpt>
      <trkpt lat="45.04772" lon="5.33711">
        <ele>305</ele>
        <time>2019-12-31T11:43:26.007Z</time>
      </trkpt>
      <trkpt lat="45.04783" lon="5.33709">
        <ele>305</ele>
        <time>2019-12-31T11:43:28.007Z</time>
      </trkpt>
      <trkpt lat="45.04795" lon="5.33711">
        <ele>304.7629952</ele>
        <time>2019-12-31T11:43:30.007Z</time>
      </trkpt>
      <trkpt lat="45.04807" lon="5.33715">
        <ele>304</ele>
        <time>2019-12-31T11:43:32.007Z</time>
      </trkpt>
      <trkpt lat="45.04817" lon="5.3372">
        <ele>304</ele>
        <time>2019-12-31T11:43:34.007Z</time>
      </trkpt>
      <trkpt lat="45.04828" lon="5.33723">
        <ele>304</ele>
        <time>2019-12-31T11:43:36.007Z</time>
      </trkpt>
      <trkpt lat="45.04835" lon="5.3372">
        <ele>304</ele>
        <time>2019-12-31T11:43:38.007Z</time>
      </trkpt>
      <trkpt lat="45.04839" lon="5.33708">
        <ele>304</ele>
        <time>2019-12-31T11:43:40.007Z</time>
      </trkpt>
      <trkpt lat="45.0484" lon="5.33701">
        <ele>304</ele>
        <time>2019-12-31T11:43:41.007Z</time>
      </trkpt>
      <trkpt lat="45.04841" lon="5.33693">
        <ele>304</ele>
        <time>2019-12-31T11:43:42.007Z</time>
      </trkpt>
      <trkpt lat="45.04842" lon="5.33686">
        <ele>304</ele>
        <time>2019-12-31T11:43:43.007Z</time>
      </trkpt>
      <trkpt lat="45.04843" lon="5.33678">
        <ele>304</ele>
        <time>2019-12-31T11:43:44.007Z</time>
      </trkpt>
      <trkpt lat="45.04844" lon="5.3367">
        <ele>304</ele>
        <time>2019-12-31T11:43:45.007Z</time>
      </trkpt>
      <trkpt lat="45.04845" lon="5.33661">
        <ele>304</ele>
        <time>2019-12-31T11:43:46.007Z</time>
      </trkpt>
      <trkpt lat="45.04846" lon="5.33653">
        <ele>304</ele>
        <time>2019-12-31T11:43:47.007Z</time>
      </trkpt>
      <trkpt lat="45.04848" lon="5.33644">
        <ele>304</ele>
        <time>2019-12-31T11:43:48.007Z</time>
      </trkpt>
      <trkpt lat="45.04849" lon="5.33636">
        <ele>304</ele>
        <time>2019-12-31T11:43:49.007Z</time>
      </trkpt>
      <trkpt lat="45.04851" lon="5.33627">
        <ele>303.5259904</ele>
        <time>2019-12-31T11:43:50.007Z</time>
      </trkpt>
      <trkpt lat="45.04853" lon="5.33618">
        <ele>302</ele>
        <time>2019-12-31T11:43:51.007Z</time>
      </trkpt>
      <trkpt lat="45.04854" lon="5.3361">
        <ele>302</ele>
        <time>2019-12-31T11:43:52.007Z</time>
      </trkpt>
      <trkpt lat="45.04856" lon="5.33601">
        <ele>302</ele>
        <time>2019-12-31T11:43:53.007Z</time>
      </trkpt>
      <trkpt lat="45.04858" lon="5.33592">
        <ele>302</ele>
        <time>2019-12-31T11:43:54.007Z</time>
      </trkpt>
      <trkpt lat="45.0486" lon="5.33584">
        <ele>302</ele>
        <time>2019-12-31T11:43:55.007Z</time>
      </trkpt>
      <trkpt lat="45.04862" lon="5.33575">
        <ele>302</ele>
        <time>2019-12-31T11:43:56.007Z</time>
      </trkpt>
      <trkpt lat="45.04865" lon="5.33567">
        <ele>302</ele>
        <time>2019-12-31T11:43:57.007Z</time>
      </trkpt>
      <trkpt lat="45.04868" lon="5.33559">
        <ele>302</ele>
        <time>2019-12-31T11:43:58.007Z</time>
      </trkpt>
      <trkpt lat="45.0487" lon="5.3355">
        <ele>302</ele>
        <time>2019-12-31T11:43:59.007Z</time>
      </trkpt>
      <trkpt lat="45.04873" lon="5.33542">
        <ele>301.7629952</ele>
        <time>2019-12-31T11:44:00.007Z</time>
      </trkpt>
      <trkpt lat="45.04876" lon="5.33535">
        <ele>301</ele>
        <time>2019-12-31T11:44:01.007Z</time>
      </trkpt>
      <trkpt lat="45.04879" lon="5.33527">
        <ele>301</ele>
        <time>2019-12-31T11:44:02.007Z</time>
      </trkpt>
      <trkpt lat="45.04882" lon="5.33519">
        <ele>301</ele>
        <time>2019-12-31T11:44:03.007Z</time>
      </trkpt>
      <trkpt lat="45.04886" lon="5.33511">
        <ele>301</ele>
        <time>2019-12-31T11:44:04.007Z</time>
      </trkpt>
      <trkpt lat="45.04889" lon="5.33503">
        <ele>301</ele>
        <time>2019-12-31T11:44:05.007Z</time>
      </trkpt>
      <trkpt lat="45.04892" lon="5.33496">
        <ele>301</ele>
        <time>2019-12-31T11:44:06.007Z</time>
      </trkpt>
      <trkpt lat="45.04896" lon="5.33488">
        <ele>301</ele>
        <time>2019-12-31T11:44:07.007Z</time>
      </trkpt>
      <trkpt lat="45.049" lon="5.33481">
        <ele>301</ele>
        <time>2019-12-31T11:44:08.007Z</time>
      </trkpt>
      <trkpt lat="45.04904" lon="5.33473">
        <ele>301</ele>
        <time>2019-12-31T11:44:09.007Z</time>
      </trkpt>
      <trkpt lat="45.04908" lon="5.33466">
        <ele>300.77299490566</ele>
        <time>2019-12-31T11:44:10.007Z</time>
      </trkpt>
      <trkpt lat="45.04912" lon="5.33458">
        <ele>300</ele>
        <time>2019-12-31T11:44:11.007Z</time>
      </trkpt>
      <trkpt lat="45.04915" lon="5.3345">
        <ele>300</ele>
        <time>2019-12-31T11:44:12.007Z</time>
      </trkpt>
      <trkpt lat="45.04918" lon="5.33443">
        <ele>300</ele>
        <time>2019-12-31T11:44:13.007Z</time>
      </trkpt>
      <trkpt lat="45.04921" lon="5.33435">
        <ele>300</ele>
        <time>2019-12-31T11:44:14.007Z</time>
      </trkpt>
      <trkpt lat="45.0492" lon="5.33418">
        <ele>300</ele>
        <time>2019-12-31T11:44:16.007Z</time>
      </trkpt>
      <trkpt lat="45.04916" lon="5.3341">
        <ele>300</ele>
        <time>2019-12-31T11:44:17.007Z</time>
      </trkpt>
      <trkpt lat="45.04912" lon="5.33402">
        <ele>300</ele>
        <time>2019-12-31T11:44:18.007Z</time>
      </trkpt>
      <trkpt lat="45.04908" lon="5.33394">
        <ele>300</ele>
        <time>2019-12-31T11:44:19.007Z</time>
      </trkpt>
      <trkpt lat="45.04904" lon="5.33387">
        <ele>299.7629952</ele>
        <time>2019-12-31T11:44:20.007Z</time>
      </trkpt>
      <trkpt lat="45.049" lon="5.33379">
        <ele>299</ele>
        <time>2019-12-31T11:44:21.007Z</time>
      </trkpt>
      <trkpt lat="45.04896" lon="5.33373">
        <ele>299</ele>
        <time>2019-12-31T11:44:22.007Z</time>
      </trkpt>
      <trkpt lat="45.04891" lon="5.33366">
        <ele>299</ele>
        <time>2019-12-31T11:44:23.007Z</time>
      </trkpt>
      <trkpt lat="45.04886" lon="5.33361">
        <ele>299</ele>
        <time>2019-12-31T11:44:24.007Z</time>
      </trkpt>
      <trkpt lat="45.04881" lon="5.33356">
        <ele>299</ele>
        <time>2019-12-31T11:44:25.007Z</time>
      </trkpt>
      <trkpt lat="45.04875" lon="5.33351">
        <ele>299</ele>
        <time>2019-12-31T11:44:26.007Z</time>
      </trkpt>
      <trkpt lat="45.0487" lon="5.33346">
        <ele>299</ele>
        <time>2019-12-31T11:44:27.007Z</time>
      </trkpt>
      <trkpt lat="45.04864" lon="5.33342">
        <ele>299</ele>
        <time>2019-12-31T11:44:28.007Z</time>
      </trkpt>
      <trkpt lat="45.04859" lon="5.33338">
        <ele>299</ele>
        <time>2019-12-31T11:44:29.007Z</time>
      </trkpt>
      <trkpt lat="45.04853" lon="5.33333">
        <ele>299</ele>
        <time>2019-12-31T11:44:30.007Z</time>
      </trkpt>
      <trkpt lat="45.04842" lon="5.33325">
        <ele>299</ele>
        <time>2019-12-31T11:44:32.007Z</time>
      </trkpt>
      <trkpt lat="45.04837" lon="5.33321">
        <ele>299</ele>
        <time>2019-12-31T11:44:33.007Z</time>
      </trkpt>
      <trkpt lat="45.04832" lon="5.33317">
        <ele>299</ele>
        <time>2019-12-31T11:44:34.007Z</time>
      </trkpt>
      <trkpt lat="45.04826" lon="5.33313">
        <ele>299</ele>
        <time>2019-12-31T11:44:35.007Z</time>
      </trkpt>
      <trkpt lat="45.04821" lon="5.33309">
        <ele>299</ele>
        <time>2019-12-31T11:44:36.007Z</time>
      </trkpt>
      <trkpt lat="45.04816" lon="5.33304">
        <ele>299</ele>
        <time>2019-12-31T11:44:37.007Z</time>
      </trkpt>
      <trkpt lat="45.04811" lon="5.333">
        <ele>299</ele>
        <time>2019-12-31T11:44:38.007Z</time>
      </trkpt>
      <trkpt lat="45.04805" lon="5.33296">
        <ele>299</ele>
        <time>2019-12-31T11:44:39.007Z</time>
      </trkpt>
      <trkpt lat="45.04799" lon="5.33293">
        <ele>298.76534401257</ele>
        <time>2019-12-31T11:44:40.007Z</time>
      </trkpt>
      <trkpt lat="45.04794" lon="5.3329">
        <ele>298</ele>
        <time>2019-12-31T11:44:41.007Z</time>
      </trkpt>
      <trkpt lat="45.04788" lon="5.33287">
        <ele>298</ele>
        <time>2019-12-31T11:44:42.007Z</time>
      </trkpt>
      <trkpt lat="45.04782" lon="5.33285">
        <ele>298</ele>
        <time>2019-12-31T11:44:43.007Z</time>
      </trkpt>
      <trkpt lat="45.04776" lon="5.33284">
        <ele>298</ele>
        <time>2019-12-31T11:44:44.007Z</time>
      </trkpt>
      <trkpt lat="45.0477" lon="5.33281">
        <ele>298</ele>
        <time>2019-12-31T11:44:45.007Z</time>
      </trkpt>
      <trkpt lat="45.04765" lon="5.33279">
        <ele>298</ele>
        <time>2019-12-31T11:44:46.007Z</time>
      </trkpt>
      <trkpt lat="45.04759" lon="5.33276">
        <ele>298</ele>
        <time>2019-12-31T11:44:47.007Z</time>
      </trkpt>
      <trkpt lat="45.04753" lon="5.33273">
        <ele>298</ele>
        <time>2019-12-31T11:44:48.007Z</time>
      </trkpt>
      <trkpt lat="45.04747" lon="5.3327">
        <ele>298</ele>
        <time>2019-12-31T11:44:49.007Z</time>
      </trkpt>
      <trkpt lat="45.04741" lon="5.33267">
        <ele>298</ele>
        <time>2019-12-31T11:44:50.007Z</time>
      </trkpt>
      <trkpt lat="45.04735" lon="5.33263">
        <ele>298</ele>
        <time>2019-12-31T11:44:51.007Z</time>
      </trkpt>
      <trkpt lat="45.04728" lon="5.3326">
        <ele>298</ele>
        <time>2019-12-31T11:44:52.007Z</time>
      </trkpt>
      <trkpt lat="45.04722" lon="5.33257">
        <ele>298</ele>
        <time>2019-12-31T11:44:53.007Z</time>
      </trkpt>
      <trkpt lat="45.04716" lon="5.33255">
        <ele>298</ele>
        <time>2019-12-31T11:44:54.007Z</time>
      </trkpt>
      <trkpt lat="45.0471" lon="5.33252">
        <ele>298</ele>
        <time>2019-12-31T11:44:55.007Z</time>
      </trkpt>
      <trkpt lat="45.04704" lon="5.33248">
        <ele>298</ele>
        <time>2019-12-31T11:44:56.007Z</time>
      </trkpt>
      <trkpt lat="45.04698" lon="5.33245">
        <ele>298</ele>
        <time>2019-12-31T11:44:57.007Z</time>
      </trkpt>
      <trkpt lat="45.04692" lon="5.33241">
        <ele>298</ele>
        <time>2019-12-31T11:44:58.007Z</time>
      </trkpt>
      <trkpt lat="45.04687" lon="5.33238">
        <ele>298</ele>
        <time>2019-12-31T11:44:59.007Z</time>
      </trkpt>
      <trkpt lat="45.04682" lon="5.33234">
        <ele>297.5259904</ele>
        <time>2019-12-31T11:45:00.007Z</time>
      </trkpt>
      <trkpt lat="45.04676" lon="5.3323">
        <ele>296</ele>
        <time>2019-12-31T11:45:01.007Z</time>
      </trkpt>
      <trkpt lat="45.04671" lon="5.33227">
        <ele>296</ele>
        <time>2019-12-31T11:45:02.007Z</time>
      </trkpt>
      <trkpt lat="45.04666" lon="5.33223">
        <ele>296</ele>
        <time>2019-12-31T11:45:03.007Z</time>
      </trkpt>
      <trkpt lat="45.04661" lon="5.3322">
        <ele>296</ele>
        <time>2019-12-31T11:45:04.007Z</time>
      </trkpt>
      <trkpt lat="45.04655" lon="5.33217">
        <ele>296</ele>
        <time>2019-12-31T11:45:05.007Z</time>
      </trkpt>
      <trkpt lat="45.0465" lon="5.33214">
        <ele>296</ele>
        <time>2019-12-31T11:45:06.007Z</time>
      </trkpt>
      <trkpt lat="45.04646" lon="5.33211">
        <ele>296</ele>
        <time>2019-12-31T11:45:07.007Z</time>
      </trkpt>
      <trkpt lat="45.04641" lon="5.33207">
        <ele>296</ele>
        <time>2019-12-31T11:45:08.007Z</time>
      </trkpt>
      <trkpt lat="45.04637" lon="5.33204">
        <ele>296</ele>
        <time>2019-12-31T11:45:09.007Z</time>
      </trkpt>
      <trkpt lat="45.04632" lon="5.33201">
        <ele>296</ele>
        <time>2019-12-31T11:45:10.007Z</time>
      </trkpt>
      <trkpt lat="45.04628" lon="5.33198">
        <ele>296</ele>
        <time>2019-12-31T11:45:11.007Z</time>
      </trkpt>
      <trkpt lat="45.04623" lon="5.33195">
        <ele>296</ele>
        <time>2019-12-31T11:45:12.007Z</time>
      </trkpt>
      <trkpt lat="45.04619" lon="5.33192">
        <ele>296</ele>
        <time>2019-12-31T11:45:13.007Z</time>
      </trkpt>
      <trkpt lat="45.04615" lon="5.33189">
        <ele>296</ele>
        <time>2019-12-31T11:45:14.007Z</time>
      </trkpt>
      <trkpt lat="45.04611" lon="5.33186">
        <ele>296</ele>
        <time>2019-12-31T11:45:15.007Z</time>
      </trkpt>
      <trkpt lat="45.04607" lon="5.33183">
        <ele>296</ele>
        <time>2019-12-31T11:45:16.007Z</time>
      </trkpt>
      <trkpt lat="45.04602" lon="5.3318">
        <ele>296</ele>
        <time>2019-12-31T11:45:17.007Z</time>
      </trkpt>
      <trkpt lat="45.04598" lon="5.33177">
        <ele>296</ele>
        <time>2019-12-31T11:45:18.007Z</time>
      </trkpt>
      <trkpt lat="45.04594" lon="5.33174">
        <ele>296</ele>
        <time>2019-12-31T11:45:19.007Z</time>
      </trkpt>
      <trkpt lat="45.04589" lon="5.33171">
        <ele>296</ele>
        <time>2019-12-31T11:45:20.007Z</time>
      </trkpt>
      <trkpt lat="45.04585" lon="5.33167">
        <ele>296</ele>
        <time>2019-12-31T11:45:21.007Z</time>
      </trkpt>
      <trkpt lat="45.04581" lon="5.33163">
        <ele>296</ele>
        <time>2019-12-31T11:45:22.007Z</time>
      </trkpt>
      <trkpt lat="45.04576" lon="5.3316">
        <ele>296</ele>
        <time>2019-12-31T11:45:23.007Z</time>
      </trkpt>
      <trkpt lat="45.04572" lon="5.33156">
        <ele>296</ele>
        <time>2019-12-31T11:45:24.007Z</time>
      </trkpt>
      <trkpt lat="45.04569" lon="5.33153">
        <ele>296</ele>
        <time>2019-12-31T11:45:25.007Z</time>
      </trkpt>
      <trkpt lat="45.04565" lon="5.3315">
        <ele>296</ele>
        <time>2019-12-31T11:45:26.007Z</time>
      </trkpt>
      <trkpt lat="45.04562" lon="5.33146">
        <ele>296</ele>
        <time>2019-12-31T11:45:27.007Z</time>
      </trkpt>
      <trkpt lat="45.04557" lon="5.33142">
        <ele>296</ele>
        <time>2019-12-31T11:45:28.007Z</time>
      </trkpt>
      <trkpt lat="45.04551" lon="5.33138">
        <ele>296</ele>
        <time>2019-12-31T11:45:29.007Z</time>
      </trkpt>
      <trkpt lat="45.04546" lon="5.33134">
        <ele>294.5779712</ele>
        <time>2019-12-31T11:45:30.007Z</time>
      </trkpt>
      <trkpt lat="45.04541" lon="5.33129">
        <ele>288.82670519352</ele>
        <time>2019-12-31T11:45:31.007Z</time>
      </trkpt>
      <trkpt lat="45.0453" lon="5.33122">
        <ele>282.7629952</ele>
        <time>2019-12-31T11:45:33.007Z</time>
      </trkpt>
      <trkpt lat="45.04525" lon="5.33118">
        <ele>281.76534401257</ele>
        <time>2019-12-31T11:45:34.007Z</time>
      </trkpt>
      <trkpt lat="45.04521" lon="5.33113">
        <ele>280.54141939154</ele>
        <time>2019-12-31T11:45:35.007Z</time>
      </trkpt>
      <trkpt lat="45.04514" lon="5.33098">
        <ele>277.5259904</ele>
        <time>2019-12-31T11:45:37.007Z</time>
      </trkpt>
      <trkpt lat="45.0451" lon="5.33081">
        <ele>274.7668931625</ele>
        <time>2019-12-31T11:45:39.007Z</time>
      </trkpt>
      <trkpt lat="45.04506" lon="5.33061">
        <ele>272.5239936</ele>
        <time>2019-12-31T11:45:41.007Z</time>
      </trkpt>
      <trkpt lat="45.04503" lon="5.33042">
        <ele>268.7619968</ele>
        <time>2019-12-31T11:45:43.007Z</time>
      </trkpt>
      <trkpt lat="45.04502" lon="5.33023">
        <ele>266.7629952</ele>
        <time>2019-12-31T11:45:45.007Z</time>
      </trkpt>
      <trkpt lat="45.04502" lon="5.33006">
        <ele>264.5259904</ele>
        <time>2019-12-31T11:45:47.007Z</time>
      </trkpt>
      <trkpt lat="45.04504" lon="5.32991">
        <ele>262</ele>
        <time>2019-12-31T11:45:49.007Z</time>
      </trkpt>
      <trkpt lat="45.0451" lon="5.3298">
        <ele>260</ele>
        <time>2019-12-31T11:45:53.007Z</time>
      </trkpt>
      <trkpt lat="45.04499" lon="5.32985">
        <ele>258</ele>
        <time>2019-12-31T11:45:59.007Z</time>
      </trkpt>
      <trkpt lat="45.04494" lon="5.32975">
        <ele>257</ele>
        <time>2019-12-31T11:46:03.007Z</time>
      </trkpt>
      <trkpt lat="45.04494" lon="5.32961">
        <ele>257</ele>
        <time>2019-12-31T11:47:00.007Z</time>
      </trkpt>
      <trkpt lat="45.04491" lon="5.32946">
        <ele>257</ele>
        <time>2019-12-31T11:47:05.007Z</time>
      </trkpt>
      <trkpt lat="45.04486" lon="5.32931">
        <ele>257</ele>
        <time>2019-12-31T11:47:09.007Z</time>
      </trkpt>
      <trkpt lat="45.04487" lon="5.32916">
        <ele>259</ele>
        <time>2019-12-31T11:47:13.007Z</time>
      </trkpt>
      <trkpt lat="45.0449" lon="5.329">
        <ele>259</ele>
        <time>2019-12-31T11:47:18.007Z</time>
      </trkpt>
      <trkpt lat="45.04495" lon="5.32884">
        <ele>259</ele>
        <time>2019-12-31T11:47:22.007Z</time>
      </trkpt>
      <trkpt lat="45.04502" lon="5.32869">
        <ele>259</ele>
        <time>2019-12-31T11:47:25.007Z</time>
      </trkpt>
      <trkpt lat="45.04511" lon="5.32862">
        <ele>259</ele>
        <time>2019-12-31T11:47:27.007Z</time>
      </trkpt>
      <trkpt lat="45.04516" lon="5.32848">
        <ele>259.2370048</ele>
        <time>2019-12-31T11:47:31.007Z</time>
      </trkpt>
      <trkpt lat="45.04515" lon="5.32832">
        <ele>260</ele>
        <time>2019-12-31T11:47:36.007Z</time>
      </trkpt>
      <trkpt lat="45.04511" lon="5.32818">
        <ele>260</ele>
        <time>2019-12-31T11:47:40.007Z</time>
      </trkpt>
      <trkpt lat="45.04508" lon="5.32806">
        <ele>262</ele>
        <time>2019-12-31T11:47:43.007Z</time>
      </trkpt>
      <trkpt lat="45.04506" lon="5.32791">
        <ele>264</ele>
        <time>2019-12-31T11:47:47.007Z</time>
      </trkpt>
      <trkpt lat="45.04503" lon="5.32777">
        <ele>264.2370048</ele>
        <time>2019-12-31T11:47:51.007Z</time>
      </trkpt>
      <trkpt lat="45.04498" lon="5.32765">
        <ele>265</ele>
        <time>2019-12-31T11:47:55.007Z</time>
      </trkpt>
      <trkpt lat="45.04494" lon="5.32757">
        <ele>267</ele>
        <time>2019-12-31T11:47:58.007Z</time>
      </trkpt>
      <trkpt lat="45.0449" lon="5.32752">
        <ele>267</ele>
        <time>2019-12-31T11:48:00.007Z</time>
      </trkpt>
      <trkpt lat="45.04487" lon="5.32747">
        <ele>268</ele>
        <time>2019-12-31T11:48:02.007Z</time>
      </trkpt>
      <trkpt lat="45.04482" lon="5.32736">
        <ele>268.4740096</ele>
        <time>2019-12-31T11:48:06.007Z</time>
      </trkpt>
      <trkpt lat="45.04476" lon="5.32727">
        <ele>270</ele>
        <time>2019-12-31T11:48:10.007Z</time>
      </trkpt>
      <trkpt lat="45.0447" lon="5.32718">
        <ele>273</ele>
        <time>2019-12-31T11:48:14.007Z</time>
      </trkpt>
      <trkpt lat="45.04463" lon="5.32713">
        <ele>274</ele>
        <time>2019-12-31T11:48:18.007Z</time>
      </trkpt>
      <trkpt lat="45.04454" lon="5.32708">
        <ele>276</ele>
        <time>2019-12-31T11:48:22.007Z</time>
      </trkpt>
      <trkpt lat="45.04448" lon="5.32704">
        <ele>276</ele>
        <time>2019-12-31T11:48:25.007Z</time>
      </trkpt>
      <trkpt lat="45.0444" lon="5.32699">
        <ele>277</ele>
        <time>2019-12-31T11:48:29.007Z</time>
      </trkpt>
      <trkpt lat="45.04434" lon="5.32694">
        <ele>279</ele>
        <time>2019-12-31T11:48:32.007Z</time>
      </trkpt>
      <trkpt lat="45.04428" lon="5.3269">
        <ele>279</ele>
        <time>2019-12-31T11:48:35.007Z</time>
      </trkpt>
      <trkpt lat="45.04421" lon="5.32684">
        <ele>281</ele>
        <time>2019-12-31T11:48:39.007Z</time>
      </trkpt>
      <trkpt lat="45.04414" lon="5.32677">
        <ele>281</ele>
        <time>2019-12-31T11:48:43.007Z</time>
      </trkpt>
      <trkpt lat="45.04407" lon="5.3267">
        <ele>282</ele>
        <time>2019-12-31T11:48:47.007Z</time>
      </trkpt>
      <trkpt lat="45.04399" lon="5.32663">
        <ele>282</ele>
        <time>2019-12-31T11:48:51.007Z</time>
      </trkpt>
      <trkpt lat="45.04392" lon="5.32658">
        <ele>282</ele>
        <time>2019-12-31T11:48:54.007Z</time>
      </trkpt>
      <trkpt lat="45.04386" lon="5.32653">
        <ele>282</ele>
        <time>2019-12-31T11:48:57.007Z</time>
      </trkpt>
      <trkpt lat="45.04379" lon="5.32649">
        <ele>282</ele>
        <time>2019-12-31T11:49:00.007Z</time>
      </trkpt>
      <trkpt lat="45.04373" lon="5.32645">
        <ele>285</ele>
        <time>2019-12-31T11:49:03.007Z</time>
      </trkpt>
      <trkpt lat="45.04367" lon="5.32642">
        <ele>285.45860053786</ele>
        <time>2019-12-31T11:49:06.007Z</time>
      </trkpt>
      <trkpt lat="45.04362" lon="5.3264">
        <ele>287</ele>
        <time>2019-12-31T11:49:08.007Z</time>
      </trkpt>
      <trkpt lat="45.04358" lon="5.32638">
        <ele>287</ele>
        <time>2019-12-31T11:49:10.007Z</time>
      </trkpt>
      <trkpt lat="45.04354" lon="5.32636">
        <ele>287</ele>
        <time>2019-12-31T11:49:12.007Z</time>
      </trkpt>
      <trkpt lat="45.0435" lon="5.32633">
        <ele>287</ele>
        <time>2019-12-31T11:49:14.007Z</time>
      </trkpt>
      <trkpt lat="45.04346" lon="5.3263">
        <ele>287.4740096</ele>
        <time>2019-12-31T11:49:16.007Z</time>
      </trkpt>
      <trkpt lat="45.04342" lon="5.32627">
        <ele>289</ele>
        <time>2019-12-31T11:49:18.007Z</time>
      </trkpt>
      <trkpt lat="45.04338" lon="5.32624">
        <ele>289</ele>
        <time>2019-12-31T11:49:20.007Z</time>
      </trkpt>
      <trkpt lat="45.04334" lon="5.32622">
        <ele>291</ele>
        <time>2019-12-31T11:49:22.007Z</time>
      </trkpt>
      <trkpt lat="45.04329" lon="5.3262">
        <ele>291</ele>
        <time>2019-12-31T11:49:24.007Z</time>
      </trkpt>
      <trkpt lat="45.04324" lon="5.32619">
        <ele>291</ele>
        <time>2019-12-31T11:49:26.007Z</time>
      </trkpt>
      <trkpt lat="45.0432" lon="5.32617">
        <ele>291</ele>
        <time>2019-12-31T11:49:28.007Z</time>
      </trkpt>
      <trkpt lat="45.04318" lon="5.32616">
        <ele>291</ele>
        <time>2019-12-31T11:49:29.007Z</time>
      </trkpt>
      <trkpt lat="45.04313" lon="5.32613">
        <ele>291.2370048</ele>
        <time>2019-12-31T11:49:31.007Z</time>
      </trkpt>
      <trkpt lat="45.0431" lon="5.32611">
        <ele>292</ele>
        <time>2019-12-31T11:49:32.007Z</time>
      </trkpt>
      <trkpt lat="45.04308" lon="5.32609">
        <ele>292</ele>
        <time>2019-12-31T11:49:33.007Z</time>
      </trkpt>
      <trkpt lat="45.04306" lon="5.32607">
        <ele>292</ele>
        <time>2019-12-31T11:49:34.007Z</time>
      </trkpt>
      <trkpt lat="45.04303" lon="5.32605">
        <ele>292</ele>
        <time>2019-12-31T11:49:35.007Z</time>
      </trkpt>
      <trkpt lat="45.043" lon="5.32603">
        <ele>292</ele>
        <time>2019-12-31T11:49:36.007Z</time>
      </trkpt>
      <trkpt lat="45.04298" lon="5.326">
        <ele>292</ele>
        <time>2019-12-31T11:49:37.007Z</time>
      </trkpt>
      <trkpt lat="45.04295" lon="5.32597">
        <ele>292</ele>
        <time>2019-12-31T11:49:38.007Z</time>
      </trkpt>
      <trkpt lat="45.04292" lon="5.32595">
        <ele>292</ele>
        <time>2019-12-31T11:49:39.007Z</time>
      </trkpt>
      <trkpt lat="45.04289" lon="5.32591">
        <ele>292</ele>
        <time>2019-12-31T11:49:40.007Z</time>
      </trkpt>
      <trkpt lat="45.04286" lon="5.32588">
        <ele>291.7629952</ele>
        <time>2019-12-31T11:49:41.007Z</time>
      </trkpt>
      <trkpt lat="45.04282" lon="5.32585">
        <ele>291</ele>
        <time>2019-12-31T11:49:42.007Z</time>
      </trkpt>
      <trkpt lat="45.04279" lon="5.32581">
        <ele>291</ele>
        <time>2019-12-31T11:49:43.007Z</time>
      </trkpt>
      <trkpt lat="45.04275" lon="5.32577">
        <ele>291</ele>
        <time>2019-12-31T11:49:44.007Z</time>
      </trkpt>
      <trkpt lat="45.04272" lon="5.32573">
        <ele>291</ele>
        <time>2019-12-31T11:49:45.007Z</time>
      </trkpt>
      <trkpt lat="45.04268" lon="5.32568">
        <ele>291</ele>
        <time>2019-12-31T11:49:46.007Z</time>
      </trkpt>
      <trkpt lat="45.04264" lon="5.32562">
        <ele>291</ele>
        <time>2019-12-31T11:49:47.007Z</time>
      </trkpt>
      <trkpt lat="45.04261" lon="5.32556">
        <ele>291</ele>
        <time>2019-12-31T11:49:48.007Z</time>
      </trkpt>
      <trkpt lat="45.04257" lon="5.32549">
        <ele>291</ele>
        <time>2019-12-31T11:49:49.007Z</time>
      </trkpt>
      <trkpt lat="45.04254" lon="5.32542">
        <ele>291</ele>
        <time>2019-12-31T11:49:50.007Z</time>
      </trkpt>
      <trkpt lat="45.0425" lon="5.32536">
        <ele>290.2889856</ele>
        <time>2019-12-31T11:49:51.007Z</time>
      </trkpt>
      <trkpt lat="45.04246" lon="5.32529">
        <ele>288</ele>
        <time>2019-12-31T11:49:52.007Z</time>
      </trkpt>
      <trkpt lat="45.04242" lon="5.32524">
        <ele>288</ele>
        <time>2019-12-31T11:49:53.007Z</time>
      </trkpt>
      <trkpt lat="45.04238" lon="5.32519">
        <ele>288</ele>
        <time>2019-12-31T11:49:54.007Z</time>
      </trkpt>
      <trkpt lat="45.04235" lon="5.32515">
        <ele>288</ele>
        <time>2019-12-31T11:49:55.007Z</time>
      </trkpt>
      <trkpt lat="45.04231" lon="5.32511">
        <ele>287.7629952</ele>
        <time>2019-12-31T11:49:56.007Z</time>
      </trkpt>
      <trkpt lat="45.04228" lon="5.32506">
        <ele>287</ele>
        <time>2019-12-31T11:49:57.007Z</time>
      </trkpt>
      <trkpt lat="45.04225" lon="5.32501">
        <ele>287</ele>
        <time>2019-12-31T11:49:58.007Z</time>
      </trkpt>
      <trkpt lat="45.04221" lon="5.32492">
        <ele>287</ele>
        <time>2019-12-31T11:50:00.007Z</time>
      </trkpt>
      <trkpt lat="45.04217" lon="5.32479">
        <ele>289</ele>
        <time>2019-12-31T11:50:03.007Z</time>
      </trkpt>
      <trkpt lat="45.04213" lon="5.32466">
        <ele>289</ele>
        <time>2019-12-31T11:50:07.007Z</time>
      </trkpt>
      <trkpt lat="45.04203" lon="5.3246">
        <ele>289</ele>
        <time>2019-12-31T11:50:10.007Z</time>
      </trkpt>
      <trkpt lat="45.04194" lon="5.32454">
        <ele>292</ele>
        <time>2019-12-31T11:50:14.007Z</time>
      </trkpt>
      <trkpt lat="45.04186" lon="5.3244">
        <ele>294</ele>
        <time>2019-12-31T11:50:19.007Z</time>
      </trkpt>
      <trkpt lat="45.04181" lon="5.32429">
        <ele>296</ele>
        <time>2019-12-31T11:50:23.007Z</time>
      </trkpt>
      <trkpt lat="45.04176" lon="5.32415">
        <ele>296</ele>
        <time>2019-12-31T11:50:28.007Z</time>
      </trkpt>
      <trkpt lat="45.0417" lon="5.32403">
        <ele>297</ele>
        <time>2019-12-31T11:50:32.007Z</time>
      </trkpt>
      <trkpt lat="45.04165" lon="5.32394">
        <ele>297</ele>
        <time>2019-12-31T11:50:35.007Z</time>
      </trkpt>
      <trkpt lat="45.04159" lon="5.32386">
        <ele>297</ele>
        <time>2019-12-31T11:50:38.007Z</time>
      </trkpt>
      <trkpt lat="45.04152" lon="5.32377">
        <ele>297.4740096</ele>
        <time>2019-12-31T11:50:41.007Z</time>
      </trkpt>
      <trkpt lat="45.04147" lon="5.32368">
        <ele>299</ele>
        <time>2019-12-31T11:50:44.007Z</time>
      </trkpt>
      <trkpt lat="45.04142" lon="5.32359">
        <ele>299</ele>
        <time>2019-12-31T11:50:47.007Z</time>
      </trkpt>
      <trkpt lat="45.04138" lon="5.32349">
        <ele>299</ele>
        <time>2019-12-31T11:50:50.007Z</time>
      </trkpt>
      <trkpt lat="45.04133" lon="5.3234">
        <ele>300</ele>
        <time>2019-12-31T11:50:53.007Z</time>
      </trkpt>
      <trkpt lat="45.04129" lon="5.32333">
        <ele>300</ele>
        <time>2019-12-31T11:50:56.007Z</time>
      </trkpt>
      <trkpt lat="45.04122" lon="5.32325">
        <ele>300</ele>
        <time>2019-12-31T11:50:59.007Z</time>
      </trkpt>
      <trkpt lat="45.04118" lon="5.3232">
        <ele>300.4740096</ele>
        <time>2019-12-31T11:51:01.007Z</time>
      </trkpt>
      <trkpt lat="45.04114" lon="5.32314">
        <ele>302</ele>
        <time>2019-12-31T11:51:03.007Z</time>
      </trkpt>
      <trkpt lat="45.04115" lon="5.32308">
        <ele>302</ele>
        <time>2019-12-31T11:51:05.007Z</time>
      </trkpt>
      <trkpt lat="45.04121" lon="5.32306">
        <ele>302</ele>
        <time>2019-12-31T11:51:08.007Z</time>
      </trkpt>
      <trkpt lat="45.04127" lon="5.32306">
        <ele>302</ele>
        <time>2019-12-31T11:51:10.007Z</time>
      </trkpt>
      <trkpt lat="45.04135" lon="5.32306">
        <ele>304</ele>
        <time>2019-12-31T11:51:13.007Z</time>
      </trkpt>
      <trkpt lat="45.04143" lon="5.32305">
        <ele>304</ele>
        <time>2019-12-31T11:51:16.007Z</time>
      </trkpt>
      <trkpt lat="45.0415" lon="5.32303">
        <ele>304</ele>
        <time>2019-12-31T11:51:19.007Z</time>
      </trkpt>
      <trkpt lat="45.04159" lon="5.32301">
        <ele>306</ele>
        <time>2019-12-31T11:51:22.007Z</time>
      </trkpt>
      <trkpt lat="45.04166" lon="5.32301">
        <ele>306</ele>
        <time>2019-12-31T11:51:25.007Z</time>
      </trkpt>
      <trkpt lat="45.04174" lon="5.32303">
        <ele>309</ele>
        <time>2019-12-31T11:51:28.007Z</time>
      </trkpt>
      <trkpt lat="45.04178" lon="5.32305">
        <ele>309</ele>
        <time>2019-12-31T11:51:30.007Z</time>
      </trkpt>
      <trkpt lat="45.04183" lon="5.32309">
        <ele>311</ele>
        <time>2019-12-31T11:51:32.007Z</time>
      </trkpt>
      <trkpt lat="45.04188" lon="5.32312">
        <ele>311</ele>
        <time>2019-12-31T11:51:34.007Z</time>
      </trkpt>
      <trkpt lat="45.04193" lon="5.32315">
        <ele>311</ele>
        <time>2019-12-31T11:51:36.007Z</time>
      </trkpt>
      <trkpt lat="45.04201" lon="5.32318">
        <ele>311</ele>
        <time>2019-12-31T11:51:39.007Z</time>
      </trkpt>
      <trkpt lat="45.04207" lon="5.32318">
        <ele>311.4740096</ele>
        <time>2019-12-31T11:51:41.007Z</time>
      </trkpt>
      <trkpt lat="45.04213" lon="5.32317">
        <ele>313</ele>
        <time>2019-12-31T11:51:43.007Z</time>
      </trkpt>
      <trkpt lat="45.04221" lon="5.32313">
        <ele>313.2370048</ele>
        <time>2019-12-31T11:51:46.007Z</time>
      </trkpt>
      <trkpt lat="45.04227" lon="5.32307">
        <ele>314</ele>
        <time>2019-12-31T11:51:49.007Z</time>
      </trkpt>
      <trkpt lat="45.04233" lon="5.323">
        <ele>315</ele>
        <time>2019-12-31T11:51:52.007Z</time>
      </trkpt>
      <trkpt lat="45.04237" lon="5.32296">
        <ele>315</ele>
        <time>2019-12-31T11:51:54.007Z</time>
      </trkpt>
      <trkpt lat="45.04244" lon="5.32292">
        <ele>315</ele>
        <time>2019-12-31T11:51:57.007Z</time>
      </trkpt>
      <trkpt lat="45.04252" lon="5.3229">
        <ele>315</ele>
        <time>2019-12-31T11:52:00.007Z</time>
      </trkpt>
      <trkpt lat="45.04259" lon="5.32288">
        <ele>318</ele>
        <time>2019-12-31T11:52:03.007Z</time>
      </trkpt>
      <trkpt lat="45.04266" lon="5.32287">
        <ele>318.4740096</ele>
        <time>2019-12-31T11:52:06.007Z</time>
      </trkpt>
      <trkpt lat="45.04273" lon="5.32286">
        <ele>320</ele>
        <time>2019-12-31T11:52:09.007Z</time>
      </trkpt>
      <trkpt lat="45.04282" lon="5.32285">
        <ele>321</ele>
        <time>2019-12-31T11:52:12.007Z</time>
      </trkpt>
      <trkpt lat="45.04291" lon="5.32284">
        <ele>321</ele>
        <time>2019-12-31T11:52:15.007Z</time>
      </trkpt>
      <trkpt lat="45.04301" lon="5.32283">
        <ele>322</ele>
        <time>2019-12-31T11:52:19.007Z</time>
      </trkpt>
      <trkpt lat="45.04312" lon="5.32283">
        <ele>324</ele>
        <time>2019-12-31T11:52:23.007Z</time>
      </trkpt>
      <trkpt lat="45.04321" lon="5.32284">
        <ele>324</ele>
        <time>2019-12-31T11:52:26.007Z</time>
      </trkpt>
      <trkpt lat="45.04331" lon="5.32285">
        <ele>324.4740096</ele>
        <time>2019-12-31T11:52:31.007Z</time>
      </trkpt>
      <trkpt lat="45.0434" lon="5.32286">
        <ele>326</ele>
        <time>2019-12-31T11:52:35.007Z</time>
      </trkpt>
      <trkpt lat="45.04347" lon="5.32286">
        <ele>328</ele>
        <time>2019-12-31T11:52:38.007Z</time>
      </trkpt>
      <trkpt lat="45.04354" lon="5.32286">
        <ele>328.2370048</ele>
        <time>2019-12-31T11:52:41.007Z</time>
      </trkpt>
      <trkpt lat="45.0436" lon="5.32285">
        <ele>329</ele>
        <time>2019-12-31T11:52:44.007Z</time>
      </trkpt>
      <trkpt lat="45.04356" lon="5.3228">
        <ele>329</ele>
        <time>2019-12-31T11:52:50.007Z</time>
      </trkpt>
      <trkpt lat="45.0435" lon="5.32277">
        <ele>330</ele>
        <time>2019-12-31T11:52:53.007Z</time>
      </trkpt>
      <trkpt lat="45.04345" lon="5.32275">
        <ele>330</ele>
        <time>2019-12-31T11:52:56.007Z</time>
      </trkpt>
      <trkpt lat="45.04339" lon="5.32272">
        <ele>330</ele>
        <time>2019-12-31T11:53:00.007Z</time>
      </trkpt>
      <trkpt lat="45.04332" lon="5.32271">
        <ele>333</ele>
        <time>2019-12-31T11:53:04.007Z</time>
      </trkpt>
      <trkpt lat="45.04323" lon="5.3227">
        <ele>335</ele>
        <time>2019-12-31T11:53:09.007Z</time>
      </trkpt>
      <trkpt lat="45.04315" lon="5.32269">
        <ele>333</ele>
        <time>2019-12-31T11:53:12.007Z</time>
      </trkpt>
      <trkpt lat="45.04307" lon="5.32268">
        <ele>333</ele>
        <time>2019-12-31T11:53:14.007Z</time>
      </trkpt>
      <trkpt lat="45.043" lon="5.32266">
        <ele>333</ele>
        <time>2019-12-31T11:53:16.007Z</time>
      </trkpt>
      <trkpt lat="45.04292" lon="5.32263">
        <ele>333</ele>
        <time>2019-12-31T11:53:19.007Z</time>
      </trkpt>
      <trkpt lat="45.04287" lon="5.32259">
        <ele>333</ele>
        <time>2019-12-31T11:53:21.007Z</time>
      </trkpt>
      <trkpt lat="45.04278" lon="5.32254">
        <ele>333</ele>
        <time>2019-12-31T11:53:24.007Z</time>
      </trkpt>
      <trkpt lat="45.04274" lon="5.32249">
        <ele>333</ele>
        <time>2019-12-31T11:53:26.007Z</time>
      </trkpt>
      <trkpt lat="45.04269" lon="5.32245">
        <ele>333</ele>
        <time>2019-12-31T11:53:28.007Z</time>
      </trkpt>
      <trkpt lat="45.04264" lon="5.3224">
        <ele>333</ele>
        <time>2019-12-31T11:53:30.007Z</time>
      </trkpt>
      <trkpt lat="45.04259" lon="5.32235">
        <ele>333</ele>
        <time>2019-12-31T11:53:32.007Z</time>
      </trkpt>
      <trkpt lat="45.04254" lon="5.32233">
        <ele>333</ele>
        <time>2019-12-31T11:53:34.007Z</time>
      </trkpt>
      <trkpt lat="45.04249" lon="5.32231">
        <ele>333</ele>
        <time>2019-12-31T11:53:36.007Z</time>
      </trkpt>
      <trkpt lat="45.04244" lon="5.3223">
        <ele>333</ele>
        <time>2019-12-31T11:53:38.007Z</time>
      </trkpt>
      <trkpt lat="45.04237" lon="5.32225">
        <ele>333</ele>
        <time>2019-12-31T11:53:41.007Z</time>
      </trkpt>
      <trkpt lat="45.0423" lon="5.32219">
        <ele>333</ele>
        <time>2019-12-31T11:53:45.007Z</time>
      </trkpt>
      <trkpt lat="45.04224" lon="5.32215">
        <ele>333</ele>
        <time>2019-12-31T11:53:48.007Z</time>
      </trkpt>
      <trkpt lat="45.04219" lon="5.32208">
        <ele>333.7110144</ele>
        <time>2019-12-31T11:53:51.007Z</time>
      </trkpt>
      <trkpt lat="45.04213" lon="5.32201">
        <ele>336</ele>
        <time>2019-12-31T11:53:55.007Z</time>
      </trkpt>
      <trkpt lat="45.04207" lon="5.32195">
        <ele>338</ele>
        <time>2019-12-31T11:54:00.007Z</time>
      </trkpt>
      <trkpt lat="45.042" lon="5.32186">
        <ele>339.2370048</ele>
        <time>2019-12-31T11:54:06.007Z</time>
      </trkpt>
      <trkpt lat="45.04194" lon="5.32181">
        <ele>341.2370048</ele>
        <time>2019-12-31T11:54:31.007Z</time>
      </trkpt>
      <trkpt lat="45.04188" lon="5.32174">
        <ele>342</ele>
        <time>2019-12-31T11:54:57.007Z</time>
      </trkpt>
      <trkpt lat="45.04184" lon="5.32163">
        <ele>344</ele>
        <time>2019-12-31T11:55:02.007Z</time>
      </trkpt>
      <trkpt lat="45.04183" lon="5.32155">
        <ele>344</ele>
        <time>2019-12-31T11:55:05.007Z</time>
      </trkpt>
      <trkpt lat="45.04179" lon="5.32146">
        <ele>344</ele>
        <time>2019-12-31T11:55:10.007Z</time>
      </trkpt>
      <trkpt lat="45.04175" lon="5.32139">
        <ele>344</ele>
        <time>2019-12-31T11:55:19.007Z</time>
      </trkpt>
      <trkpt lat="45.0417" lon="5.32136">
        <ele>344</ele>
        <time>2019-12-31T11:55:26.007Z</time>
      </trkpt>
      <trkpt lat="45.04166" lon="5.3213">
        <ele>344</ele>
        <time>2019-12-31T11:55:30.007Z</time>
      </trkpt>
      <trkpt lat="45.04162" lon="5.32122">
        <ele>345</ele>
        <time>2019-12-31T11:55:33.007Z</time>
      </trkpt>
      <trkpt lat="45.04157" lon="5.32115">
        <ele>345</ele>
        <time>2019-12-31T11:55:36.007Z</time>
      </trkpt>
      <trkpt lat="45.04153" lon="5.32109">
        <ele>345</ele>
        <time>2019-12-31T11:55:39.007Z</time>
      </trkpt>
      <trkpt lat="45.04149" lon="5.32103">
        <ele>348</ele>
        <time>2019-12-31T11:55:42.007Z</time>
      </trkpt>
      <trkpt lat="45.04146" lon="5.32097">
        <ele>348</ele>
        <time>2019-12-31T11:55:45.007Z</time>
      </trkpt>
      <trkpt lat="45.04147" lon="5.32088">
        <ele>349</ele>
        <time>2019-12-31T11:55:56.007Z</time>
      </trkpt>
      <trkpt lat="45.04141" lon="5.32086">
        <ele>350</ele>
        <time>2019-12-31T11:56:08.007Z</time>
      </trkpt>
      <trkpt lat="45.04138" lon="5.32079">
        <ele>351</ele>
        <time>2019-12-31T11:56:13.007Z</time>
      </trkpt>
      <trkpt lat="45.04135" lon="5.32072">
        <ele>351</ele>
        <time>2019-12-31T11:56:16.007Z</time>
      </trkpt>
      <trkpt lat="45.04133" lon="5.32065">
        <ele>351</ele>
        <time>2019-12-31T11:56:19.007Z</time>
      </trkpt>
      <trkpt lat="45.04132" lon="5.32058">
        <ele>354</ele>
        <time>2019-12-31T11:56:22.007Z</time>
      </trkpt>
      <trkpt lat="45.04129" lon="5.3205">
        <ele>354</ele>
        <time>2019-12-31T11:56:25.007Z</time>
      </trkpt>
      <trkpt lat="45.04122" lon="5.32041">
        <ele>354</ele>
        <time>2019-12-31T11:56:28.007Z</time>
      </trkpt>
      <trkpt lat="45.04114" lon="5.32033">
        <ele>354</ele>
        <time>2019-12-31T11:56:30.007Z</time>
      </trkpt>
      <trkpt lat="45.04106" lon="5.32024">
        <ele>352</ele>
        <time>2019-12-31T11:56:32.007Z</time>
      </trkpt>
      <trkpt lat="45.04102" lon="5.32019">
        <ele>352</ele>
        <time>2019-12-31T11:56:33.007Z</time>
      </trkpt>
      <trkpt lat="45.04099" lon="5.32014">
        <ele>352</ele>
        <time>2019-12-31T11:56:34.007Z</time>
      </trkpt>
      <trkpt lat="45.04095" lon="5.3201">
        <ele>352</ele>
        <time>2019-12-31T11:56:35.007Z</time>
      </trkpt>
      <trkpt lat="45.04091" lon="5.32002">
        <ele>352</ele>
        <time>2019-12-31T11:56:37.007Z</time>
      </trkpt>
      <trkpt lat="45.04089" lon="5.31998">
        <ele>352</ele>
        <time>2019-12-31T11:56:39.007Z</time>
      </trkpt>
      <trkpt lat="45.04085" lon="5.31995">
        <ele>350</ele>
        <time>2019-12-31T11:56:42.007Z</time>
      </trkpt>
      <trkpt lat="45.04081" lon="5.31992">
        <ele>350</ele>
        <time>2019-12-31T11:56:45.007Z</time>
      </trkpt>
      <trkpt lat="45.04078" lon="5.31989">
        <ele>350</ele>
        <time>2019-12-31T11:56:48.007Z</time>
      </trkpt>
      <trkpt lat="45.04075" lon="5.31987">
        <ele>349.7629952</ele>
        <time>2019-12-31T11:56:51.007Z</time>
      </trkpt>
      <trkpt lat="45.04071" lon="5.31984">
        <ele>349</ele>
        <time>2019-12-31T11:56:53.007Z</time>
      </trkpt>
      <trkpt lat="45.04067" lon="5.31981">
        <ele>349</ele>
        <time>2019-12-31T11:56:55.007Z</time>
      </trkpt>
      <trkpt lat="45.04063" lon="5.31979">
        <ele>349</ele>
        <time>2019-12-31T11:56:57.007Z</time>
      </trkpt>
      <trkpt lat="45.04058" lon="5.31976">
        <ele>349</ele>
        <time>2019-12-31T11:56:59.007Z</time>
      </trkpt>
      <trkpt lat="45.04056" lon="5.31974">
        <ele>349</ele>
        <time>2019-12-31T11:57:00.007Z</time>
      </trkpt>
      <trkpt lat="45.04053" lon="5.31972">
        <ele>349.2370048</ele>
        <time>2019-12-31T11:57:01.007Z</time>
      </trkpt>
      <trkpt lat="45.04051" lon="5.31971">
        <ele>350</ele>
        <time>2019-12-31T11:57:02.007Z</time>
      </trkpt>
      <trkpt lat="45.04048" lon="5.31969">
        <ele>350</ele>
        <time>2019-12-31T11:57:03.007Z</time>
      </trkpt>
      <trkpt lat="45.04044" lon="5.31967">
        <ele>350</ele>
        <time>2019-12-31T11:57:04.007Z</time>
      </trkpt>
      <trkpt lat="45.04041" lon="5.31965">
        <ele>350</ele>
        <time>2019-12-31T11:57:05.007Z</time>
      </trkpt>
      <trkpt lat="45.04038" lon="5.31963">
        <ele>350</ele>
        <time>2019-12-31T11:57:06.007Z</time>
      </trkpt>
      <trkpt lat="45.04035" lon="5.31961">
        <ele>350</ele>
        <time>2019-12-31T11:57:07.007Z</time>
      </trkpt>
      <trkpt lat="45.04031" lon="5.31959">
        <ele>350</ele>
        <time>2019-12-31T11:57:08.007Z</time>
      </trkpt>
      <trkpt lat="45.04027" lon="5.31957">
        <ele>350</ele>
        <time>2019-12-31T11:57:09.007Z</time>
      </trkpt>
      <trkpt lat="45.04024" lon="5.31956">
        <ele>350</ele>
        <time>2019-12-31T11:57:10.007Z</time>
      </trkpt>
      <trkpt lat="45.0402" lon="5.31954">
        <ele>349.7629952</ele>
        <time>2019-12-31T11:57:11.007Z</time>
      </trkpt>
      <trkpt lat="45.04016" lon="5.31952">
        <ele>349</ele>
        <time>2019-12-31T11:57:12.007Z</time>
      </trkpt>
      <trkpt lat="45.04012" lon="5.3195">
        <ele>349</ele>
        <time>2019-12-31T11:57:13.007Z</time>
      </trkpt>
      <trkpt lat="45.04007" lon="5.31948">
        <ele>349</ele>
        <time>2019-12-31T11:57:14.007Z</time>
      </trkpt>
      <trkpt lat="45.03998" lon="5.31943">
        <ele>349</ele>
        <time>2019-12-31T11:57:16.007Z</time>
      </trkpt>
      <trkpt lat="45.03994" lon="5.31939">
        <ele>349</ele>
        <time>2019-12-31T11:57:17.007Z</time>
      </trkpt>
      <trkpt lat="45.0399" lon="5.31935">
        <ele>349</ele>
        <time>2019-12-31T11:57:18.007Z</time>
      </trkpt>
      <trkpt lat="45.03986" lon="5.31929">
        <ele>349</ele>
        <time>2019-12-31T11:57:19.007Z</time>
      </trkpt>
      <trkpt lat="45.03984" lon="5.31923">
        <ele>349</ele>
        <time>2019-12-31T11:57:20.007Z</time>
      </trkpt>
      <trkpt lat="45.03983" lon="5.31914">
        <ele>348.5259904</ele>
        <time>2019-12-31T11:57:21.007Z</time>
      </trkpt>
      <trkpt lat="45.03981" lon="5.31905">
        <ele>347</ele>
        <time>2019-12-31T11:57:22.007Z</time>
      </trkpt>
      <trkpt lat="45.03977" lon="5.31889">
        <ele>347</ele>
        <time>2019-12-31T11:57:24.007Z</time>
      </trkpt>
      <trkpt lat="45.03975" lon="5.31872">
        <ele>346</ele>
        <time>2019-12-31T11:57:27.007Z</time>
      </trkpt>
      <trkpt lat="45.03979" lon="5.31858">
        <ele>346</ele>
        <time>2019-12-31T11:57:30.007Z</time>
      </trkpt>
      <trkpt lat="45.03986" lon="5.31842">
        <ele>345</ele>
        <time>2019-12-31T11:57:33.007Z</time>
      </trkpt>
      <trkpt lat="45.03991" lon="5.31824">
        <ele>345</ele>
        <time>2019-12-31T11:57:36.007Z</time>
      </trkpt>
      <trkpt lat="45.03992" lon="5.31811">
        <ele>345</ele>
        <time>2019-12-31T11:57:38.007Z</time>
      </trkpt>
      <trkpt lat="45.03994" lon="5.31799">
        <ele>345</ele>
        <time>2019-12-31T11:57:40.007Z</time>
      </trkpt>
      <trkpt lat="45.03997" lon="5.31787">
        <ele>346</ele>
        <time>2019-12-31T11:57:42.007Z</time>
      </trkpt>
      <trkpt lat="45.04002" lon="5.31775">
        <ele>346</ele>
        <time>2019-12-31T11:57:44.007Z</time>
      </trkpt>
      <trkpt lat="45.04007" lon="5.31766">
        <ele>346</ele>
        <time>2019-12-31T11:57:46.007Z</time>
      </trkpt>
      <trkpt lat="45.04014" lon="5.31758">
        <ele>346</ele>
        <time>2019-12-31T11:57:48.007Z</time>
      </trkpt>
      <trkpt lat="45.04021" lon="5.31753">
        <ele>346</ele>
        <time>2019-12-31T11:57:50.007Z</time>
      </trkpt>
      <trkpt lat="45.04026" lon="5.3175">
        <ele>346.4740096</ele>
        <time>2019-12-31T11:57:51.007Z</time>
      </trkpt>
      <trkpt lat="45.0403" lon="5.31747">
        <ele>348</ele>
        <time>2019-12-31T11:57:52.007Z</time>
      </trkpt>
      <trkpt lat="45.04035" lon="5.31745">
        <ele>348</ele>
        <time>2019-12-31T11:57:53.007Z</time>
      </trkpt>
      <trkpt lat="45.04044" lon="5.3174">
        <ele>348</ele>
        <time>2019-12-31T11:57:55.007Z</time>
      </trkpt>
      <trkpt lat="45.04053" lon="5.31735">
        <ele>348</ele>
        <time>2019-12-31T11:57:57.007Z</time>
      </trkpt>
      <trkpt lat="45.04062" lon="5.31729">
        <ele>348</ele>
        <time>2019-12-31T11:57:59.007Z</time>
      </trkpt>
      <trkpt lat="45.0407" lon="5.31724">
        <ele>348.2370048</ele>
        <time>2019-12-31T11:58:01.007Z</time>
      </trkpt>
      <trkpt lat="45.04078" lon="5.31718">
        <ele>349</ele>
        <time>2019-12-31T11:58:03.007Z</time>
      </trkpt>
      <trkpt lat="45.04086" lon="5.31713">
        <ele>349</ele>
        <time>2019-12-31T11:58:05.007Z</time>
      </trkpt>
      <trkpt lat="45.04094" lon="5.31708">
        <ele>349</ele>
        <time>2019-12-31T11:58:07.007Z</time>
      </trkpt>
      <trkpt lat="45.04103" lon="5.31703">
        <ele>349</ele>
        <time>2019-12-31T11:58:09.007Z</time>
      </trkpt>
      <trkpt lat="45.0411" lon="5.31699">
        <ele>349.2370048</ele>
        <time>2019-12-31T11:58:11.007Z</time>
      </trkpt>
      <trkpt lat="45.04119" lon="5.31694">
        <ele>350</ele>
        <time>2019-12-31T11:58:13.007Z</time>
      </trkpt>
      <trkpt lat="45.04127" lon="5.3169">
        <ele>350</ele>
        <time>2019-12-31T11:58:15.007Z</time>
      </trkpt>
      <trkpt lat="45.04134" lon="5.31684">
        <ele>350</ele>
        <time>2019-12-31T11:58:17.007Z</time>
      </trkpt>
      <trkpt lat="45.04134" lon="5.31676">
        <ele>350</ele>
        <time>2019-12-31T11:58:19.007Z</time>
      </trkpt>
      <trkpt lat="45.04128" lon="5.31673">
        <ele>350.4740096</ele>
        <time>2019-12-31T11:58:21.007Z</time>
      </trkpt>
      <trkpt lat="45.04123" lon="5.31674">
        <ele>352</ele>
        <time>2019-12-31T11:58:23.007Z</time>
      </trkpt>
      <trkpt lat="45.04117" lon="5.31676">
        <ele>352</ele>
        <time>2019-12-31T11:58:25.007Z</time>
      </trkpt>
      <trkpt lat="45.04112" lon="5.31679">
        <ele>352</ele>
        <time>2019-12-31T11:58:27.007Z</time>
      </trkpt>
      <trkpt lat="45.04106" lon="5.3168">
        <ele>352</ele>
        <time>2019-12-31T11:58:29.007Z</time>
      </trkpt>
      <trkpt lat="45.04101" lon="5.31679">
        <ele>352.4740096</ele>
        <time>2019-12-31T11:58:31.007Z</time>
      </trkpt>
      <trkpt lat="45.04096" lon="5.31681">
        <ele>354</ele>
        <time>2019-12-31T11:58:33.007Z</time>
      </trkpt>
      <trkpt lat="45.0409" lon="5.31682">
        <ele>354</ele>
        <time>2019-12-31T11:58:35.007Z</time>
      </trkpt>
      <trkpt lat="45.04085" lon="5.31683">
        <ele>354</ele>
        <time>2019-12-31T11:58:37.007Z</time>
      </trkpt>
      <trkpt lat="45.0408" lon="5.31684">
        <ele>354</ele>
        <time>2019-12-31T11:58:39.007Z</time>
      </trkpt>
      <trkpt lat="45.04075" lon="5.31685">
        <ele>354</ele>
        <time>2019-12-31T11:58:41.007Z</time>
      </trkpt>
      <trkpt lat="45.04069" lon="5.31686">
        <ele>354</ele>
        <time>2019-12-31T11:58:44.007Z</time>
      </trkpt>
      <trkpt lat="45.04062" lon="5.31687">
        <ele>354</ele>
        <time>2019-12-31T11:58:47.007Z</time>
      </trkpt>
      <trkpt lat="45.04055" lon="5.31689">
        <ele>354</ele>
        <time>2019-12-31T11:58:50.007Z</time>
      </trkpt>
      <trkpt lat="45.04051" lon="5.31689">
        <ele>358</ele>
        <time>2019-12-31T11:58:52.007Z</time>
      </trkpt>
      <trkpt lat="45.04047" lon="5.3169">
        <ele>358</ele>
        <time>2019-12-31T11:58:54.007Z</time>
      </trkpt>
      <trkpt lat="45.04042" lon="5.3169">
        <ele>358.4740096</ele>
        <time>2019-12-31T11:58:56.007Z</time>
      </trkpt>
      <trkpt lat="45.04038" lon="5.31691">
        <ele>360</ele>
        <time>2019-12-31T11:58:58.007Z</time>
      </trkpt>
      <trkpt lat="45.04034" lon="5.31692">
        <ele>360</ele>
        <time>2019-12-31T11:59:00.007Z</time>
      </trkpt>
      <trkpt lat="45.04028" lon="5.31694">
        <ele>362</ele>
        <time>2019-12-31T11:59:03.007Z</time>
      </trkpt>
      <trkpt lat="45.04022" lon="5.31696">
        <ele>362.4740096</ele>
        <time>2019-12-31T11:59:06.007Z</time>
      </trkpt>
      <trkpt lat="45.04018" lon="5.31698">
        <ele>364</ele>
        <time>2019-12-31T11:59:08.007Z</time>
      </trkpt>
      <trkpt lat="45.04014" lon="5.317">
        <ele>364</ele>
        <time>2019-12-31T11:59:10.007Z</time>
      </trkpt>
      <trkpt lat="45.04009" lon="5.31702">
        <ele>365</ele>
        <time>2019-12-31T11:59:12.007Z</time>
      </trkpt>
      <trkpt lat="45.04005" lon="5.31704">
        <ele>365</ele>
        <time>2019-12-31T11:59:14.007Z</time>
      </trkpt>
      <trkpt lat="45.04002" lon="5.31706">
        <ele>365</ele>
        <time>2019-12-31T11:59:16.007Z</time>
      </trkpt>
      <trkpt lat="45.03998" lon="5.31708">
        <ele>365</ele>
        <time>2019-12-31T11:59:18.007Z</time>
      </trkpt>
      <trkpt lat="45.03994" lon="5.3171">
        <ele>365</ele>
        <time>2019-12-31T11:59:20.007Z</time>
      </trkpt>
      <trkpt lat="45.0399" lon="5.31711">
        <ele>366</ele>
        <time>2019-12-31T11:59:22.007Z</time>
      </trkpt>
      <trkpt lat="45.03985" lon="5.31713">
        <ele>366</ele>
        <time>2019-12-31T11:59:25.007Z</time>
      </trkpt>
      <trkpt lat="45.03981" lon="5.31712">
        <ele>366</ele>
        <time>2019-12-31T11:59:28.007Z</time>
      </trkpt>
      <trkpt lat="45.03977" lon="5.31707">
        <ele>367</ele>
        <time>2019-12-31T12:00:38.007Z</time>
      </trkpt>
      <trkpt lat="45.03975" lon="5.317">
        <ele>367</ele>
        <time>2019-12-31T12:00:44.007Z</time>
      </trkpt>
      <trkpt lat="45.03975" lon="5.31693">
        <ele>367</ele>
        <time>2019-12-31T12:00:48.007Z</time>
      </trkpt>
      <trkpt lat="45.03969" lon="5.3169">
        <ele>369</ele>
        <time>2019-12-31T12:00:57.007Z</time>
      </trkpt>
      <trkpt lat="45.03975" lon="5.31695">
        <ele>369</ele>
        <time>2019-12-31T12:01:34.007Z</time>
      </trkpt>
      <trkpt lat="45.03972" lon="5.31693">
        <ele>369</ele>
        <time>2019-12-31T12:01:40.007Z</time>
      </trkpt>
      <trkpt lat="45.03978" lon="5.3169">
        <ele>368</ele>
        <time>2019-12-31T12:02:05.007Z</time>
      </trkpt>
      <trkpt lat="45.03976" lon="5.31695">
        <ele>368</ele>
        <time>2019-12-31T12:02:13.007Z</time>
      </trkpt>
      <trkpt lat="45.03979" lon="5.31703">
        <ele>368</ele>
        <time>2019-12-31T12:02:30.007Z</time>
      </trkpt>
      <trkpt lat="45.03982" lon="5.31711">
        <ele>367</ele>
        <time>2019-12-31T12:02:39.007Z</time>
      </trkpt>
      <trkpt lat="45.0398" lon="5.31716">
        <ele>365</ele>
        <time>2019-12-31T12:02:48.007Z</time>
      </trkpt>
      <trkpt lat="45.03977" lon="5.31713">
        <ele>364</ele>
        <time>2019-12-31T12:03:41.007Z</time>
      </trkpt>
      <trkpt lat="45.03982" lon="5.31711">
        <ele>364</ele>
        <time>2019-12-31T12:04:33.007Z</time>
      </trkpt>
      <trkpt lat="45.03986" lon="5.31712">
        <ele>364</ele>
        <time>2019-12-31T12:04:38.007Z</time>
      </trkpt>
      <trkpt lat="45.03991" lon="5.31711">
        <ele>364.2370048</ele>
        <time>2019-12-31T12:04:41.007Z</time>
      </trkpt>
      <trkpt lat="45.03996" lon="5.31708">
        <ele>365</ele>
        <time>2019-12-31T12:04:43.007Z</time>
      </trkpt>
      <trkpt lat="45.04004" lon="5.31704">
        <ele>365</ele>
        <time>2019-12-31T12:04:45.007Z</time>
      </trkpt>
      <trkpt lat="45.04017" lon="5.31697">
        <ele>365</ele>
        <time>2019-12-31T12:04:48.007Z</time>
      </trkpt>
      <trkpt lat="45.04028" lon="5.31692">
        <ele>365</ele>
        <time>2019-12-31T12:04:50.007Z</time>
      </trkpt>
      <trkpt lat="45.04043" lon="5.31688">
        <ele>362</ele>
        <time>2019-12-31T12:04:52.007Z</time>
      </trkpt>
      <trkpt lat="45.04052" lon="5.31687">
        <ele>362</ele>
        <time>2019-12-31T12:04:53.007Z</time>
      </trkpt>
      <trkpt lat="45.04061" lon="5.31686">
        <ele>362</ele>
        <time>2019-12-31T12:04:54.007Z</time>
      </trkpt>
      <trkpt lat="45.04071" lon="5.31684">
        <ele>362</ele>
        <time>2019-12-31T12:04:55.007Z</time>
      </trkpt>
      <trkpt lat="45.04081" lon="5.31683">
        <ele>360.5779712</ele>
        <time>2019-12-31T12:04:56.007Z</time>
      </trkpt>
      <trkpt lat="45.0409" lon="5.31681">
        <ele>356</ele>
        <time>2019-12-31T12:04:57.007Z</time>
      </trkpt>
      <trkpt lat="45.04099" lon="5.31679">
        <ele>356</ele>
        <time>2019-12-31T12:04:58.007Z</time>
      </trkpt>
      <trkpt lat="45.04108" lon="5.31677">
        <ele>356</ele>
        <time>2019-12-31T12:04:59.007Z</time>
      </trkpt>
      <trkpt lat="45.04115" lon="5.31676">
        <ele>356</ele>
        <time>2019-12-31T12:05:00.007Z</time>
      </trkpt>
      <trkpt lat="45.04127" lon="5.31675">
        <ele>349</ele>
        <time>2019-12-31T12:05:02.007Z</time>
      </trkpt>
      <trkpt lat="45.04136" lon="5.31675">
        <ele>348.76534401257</ele>
        <time>2019-12-31T12:05:04.007Z</time>
      </trkpt>
      <trkpt lat="45.04132" lon="5.31688">
        <ele>348</ele>
        <time>2019-12-31T12:05:09.007Z</time>
      </trkpt>
      <trkpt lat="45.04125" lon="5.31691">
        <ele>348</ele>
        <time>2019-12-31T12:05:12.007Z</time>
      </trkpt>
      <trkpt lat="45.04118" lon="5.31695">
        <ele>348</ele>
        <time>2019-12-31T12:05:15.007Z</time>
      </trkpt>
      <trkpt lat="45.04108" lon="5.31703">
        <ele>348</ele>
        <time>2019-12-31T12:05:20.007Z</time>
      </trkpt>
      <trkpt lat="45.041" lon="5.3171">
        <ele>348</ele>
        <time>2019-12-31T12:05:23.007Z</time>
      </trkpt>
      <trkpt lat="45.04087" lon="5.31718">
        <ele>348</ele>
        <time>2019-12-31T12:05:26.007Z</time>
      </trkpt>
      <trkpt lat="45.04079" lon="5.31724">
        <ele>348</ele>
        <time>2019-12-31T12:05:28.007Z</time>
      </trkpt>
      <trkpt lat="45.0407" lon="5.3173">
        <ele>348</ele>
        <time>2019-12-31T12:05:30.007Z</time>
      </trkpt>
      <trkpt lat="45.04056" lon="5.31738">
        <ele>346</ele>
        <time>2019-12-31T12:05:33.007Z</time>
      </trkpt>
      <trkpt lat="45.04042" lon="5.31746">
        <ele>346</ele>
        <time>2019-12-31T12:05:36.007Z</time>
      </trkpt>
      <trkpt lat="45.0403" lon="5.31754">
        <ele>346</ele>
        <time>2019-12-31T12:05:38.007Z</time>
      </trkpt>
      <trkpt lat="45.04019" lon="5.31761">
        <ele>346</ele>
        <time>2019-12-31T12:05:40.007Z</time>
      </trkpt>
      <trkpt lat="45.04014" lon="5.31766">
        <ele>345.7629952</ele>
        <time>2019-12-31T12:05:41.007Z</time>
      </trkpt>
      <trkpt lat="45.04009" lon="5.3177">
        <ele>345</ele>
        <time>2019-12-31T12:05:42.007Z</time>
      </trkpt>
      <trkpt lat="45.04004" lon="5.31776">
        <ele>345</ele>
        <time>2019-12-31T12:05:43.007Z</time>
      </trkpt>
      <trkpt lat="45.04" lon="5.31783">
        <ele>345</ele>
        <time>2019-12-31T12:05:44.007Z</time>
      </trkpt>
      <trkpt lat="45.03997" lon="5.31791">
        <ele>345</ele>
        <time>2019-12-31T12:05:45.007Z</time>
      </trkpt>
      <trkpt lat="45.03995" lon="5.31799">
        <ele>345</ele>
        <time>2019-12-31T12:05:46.007Z</time>
      </trkpt>
      <trkpt lat="45.03994" lon="5.31808">
        <ele>345</ele>
        <time>2019-12-31T12:05:47.007Z</time>
      </trkpt>
      <trkpt lat="45.03992" lon="5.31816">
        <ele>345</ele>
        <time>2019-12-31T12:05:48.007Z</time>
      </trkpt>
      <trkpt lat="45.03991" lon="5.31825">
        <ele>345</ele>
        <time>2019-12-31T12:05:49.007Z</time>
      </trkpt>
      <trkpt lat="45.0399" lon="5.31833">
        <ele>345</ele>
        <time>2019-12-31T12:05:50.007Z</time>
      </trkpt>
      <trkpt lat="45.03987" lon="5.31848">
        <ele>343</ele>
        <time>2019-12-31T12:05:52.007Z</time>
      </trkpt>
      <trkpt lat="45.03982" lon="5.31862">
        <ele>343</ele>
        <time>2019-12-31T12:05:54.007Z</time>
      </trkpt>
      <trkpt lat="45.03978" lon="5.31869">
        <ele>343</ele>
        <time>2019-12-31T12:05:55.007Z</time>
      </trkpt>
      <trkpt lat="45.03971" lon="5.31878">
        <ele>343</ele>
        <time>2019-12-31T12:05:57.007Z</time>
      </trkpt>
      <trkpt lat="45.03965" lon="5.31883">
        <ele>343</ele>
        <time>2019-12-31T12:05:59.007Z</time>
      </trkpt>
      <trkpt lat="45.03959" lon="5.31888">
        <ele>342.2889856</ele>
        <time>2019-12-31T12:06:01.007Z</time>
      </trkpt>
      <trkpt lat="45.03951" lon="5.31893">
        <ele>340</ele>
        <time>2019-12-31T12:06:03.007Z</time>
      </trkpt>
      <trkpt lat="45.03947" lon="5.31898">
        <ele>340</ele>
        <time>2019-12-31T12:06:04.007Z</time>
      </trkpt>
      <trkpt lat="45.03943" lon="5.31902">
        <ele>340</ele>
        <time>2019-12-31T12:06:05.007Z</time>
      </trkpt>
      <trkpt lat="45.03938" lon="5.31906">
        <ele>339.7629952</ele>
        <time>2019-12-31T12:06:06.007Z</time>
      </trkpt>
      <trkpt lat="45.03929" lon="5.31911">
        <ele>339</ele>
        <time>2019-12-31T12:06:08.007Z</time>
      </trkpt>
      <trkpt lat="45.03924" lon="5.31912">
        <ele>339</ele>
        <time>2019-12-31T12:06:09.007Z</time>
      </trkpt>
      <trkpt lat="45.03917" lon="5.31913">
        <ele>339</ele>
        <time>2019-12-31T12:06:10.007Z</time>
      </trkpt>
      <trkpt lat="45.03911" lon="5.31913">
        <ele>338.08283878308</ele>
        <time>2019-12-31T12:06:11.007Z</time>
      </trkpt>
      <trkpt lat="45.03904" lon="5.31912">
        <ele>334.7629952</ele>
        <time>2019-12-31T12:06:12.007Z</time>
      </trkpt>
      <trkpt lat="45.03896" lon="5.31912">
        <ele>334</ele>
        <time>2019-12-31T12:06:13.007Z</time>
      </trkpt>
      <trkpt lat="45.03888" lon="5.31912">
        <ele>333.7629952</ele>
        <time>2019-12-31T12:06:14.007Z</time>
      </trkpt>
      <trkpt lat="45.03879" lon="5.31911">
        <ele>332.7629952</ele>
        <time>2019-12-31T12:06:15.007Z</time>
      </trkpt>
      <trkpt lat="45.03871" lon="5.3191">
        <ele>331.76534401257</ele>
        <time>2019-12-31T12:06:16.007Z</time>
      </trkpt>
      <trkpt lat="45.03863" lon="5.31909">
        <ele>330.77070969577</ele>
        <time>2019-12-31T12:06:17.007Z</time>
      </trkpt>
      <trkpt lat="45.03854" lon="5.31906">
        <ele>329.7629952</ele>
        <time>2019-12-31T12:06:18.007Z</time>
      </trkpt>
      <trkpt lat="45.03846" lon="5.31903">
        <ele>328.7629952</ele>
        <time>2019-12-31T12:06:19.007Z</time>
      </trkpt>
      <trkpt lat="45.03837" lon="5.31898">
        <ele>328</ele>
        <time>2019-12-31T12:06:20.007Z</time>
      </trkpt>
      <trkpt lat="45.03829" lon="5.31894">
        <ele>328</ele>
        <time>2019-12-31T12:06:21.007Z</time>
      </trkpt>
      <trkpt lat="45.03821" lon="5.31888">
        <ele>327.76534401257</ele>
        <time>2019-12-31T12:06:22.007Z</time>
      </trkpt>
      <trkpt lat="45.03814" lon="5.31882">
        <ele>326.77070969577</ele>
        <time>2019-12-31T12:06:23.007Z</time>
      </trkpt>
      <trkpt lat="45.03808" lon="5.31876">
        <ele>326</ele>
        <time>2019-12-31T12:06:24.007Z</time>
      </trkpt>
      <trkpt lat="45.03801" lon="5.31869">
        <ele>325.7629952</ele>
        <time>2019-12-31T12:06:25.007Z</time>
      </trkpt>
      <trkpt lat="45.03793" lon="5.31862">
        <ele>324.7629952</ele>
        <time>2019-12-31T12:06:26.007Z</time>
      </trkpt>
      <trkpt lat="45.03786" lon="5.31855">
        <ele>324</ele>
        <time>2019-12-31T12:06:27.007Z</time>
      </trkpt>
      <trkpt lat="45.03779" lon="5.31848">
        <ele>324</ele>
        <time>2019-12-31T12:06:28.007Z</time>
      </trkpt>
      <trkpt lat="45.03772" lon="5.31841">
        <ele>323.7629952</ele>
        <time>2019-12-31T12:06:29.007Z</time>
      </trkpt>
      <trkpt lat="45.03764" lon="5.31835">
        <ele>323</ele>
        <time>2019-12-31T12:06:30.007Z</time>
      </trkpt>
      <trkpt lat="45.03757" lon="5.31829">
        <ele>323</ele>
        <time>2019-12-31T12:06:31.007Z</time>
      </trkpt>
      <trkpt lat="45.0375" lon="5.31822">
        <ele>323</ele>
        <time>2019-12-31T12:06:32.007Z</time>
      </trkpt>
      <trkpt lat="45.03743" lon="5.31815">
        <ele>323</ele>
        <time>2019-12-31T12:06:33.007Z</time>
      </trkpt>
      <trkpt lat="45.03737" lon="5.31807">
        <ele>323</ele>
        <time>2019-12-31T12:06:34.007Z</time>
      </trkpt>
      <trkpt lat="45.0373" lon="5.31799">
        <ele>323</ele>
        <time>2019-12-31T12:06:35.007Z</time>
      </trkpt>
      <trkpt lat="45.03723" lon="5.31792">
        <ele>322.5259904</ele>
        <time>2019-12-31T12:06:36.007Z</time>
      </trkpt>
      <trkpt lat="45.03717" lon="5.31785">
        <ele>321</ele>
        <time>2019-12-31T12:06:37.007Z</time>
      </trkpt>
      <trkpt lat="45.03711" lon="5.31779">
        <ele>321</ele>
        <time>2019-12-31T12:06:38.007Z</time>
      </trkpt>
      <trkpt lat="45.03706" lon="5.31774">
        <ele>321</ele>
        <time>2019-12-31T12:06:39.007Z</time>
      </trkpt>
      <trkpt lat="45.03702" lon="5.31769">
        <ele>321</ele>
        <time>2019-12-31T12:06:40.007Z</time>
      </trkpt>
      <trkpt lat="45.03701" lon="5.31759">
        <ele>319</ele>
        <time>2019-12-31T12:06:42.007Z</time>
      </trkpt>
      <trkpt lat="45.03704" lon="5.31752">
        <ele>319</ele>
        <time>2019-12-31T12:06:44.007Z</time>
      </trkpt>
      <trkpt lat="45.03711" lon="5.31737">
        <ele>319</ele>
        <time>2019-12-31T12:06:48.007Z</time>
      </trkpt>
      <trkpt lat="45.03718" lon="5.31725">
        <ele>319.2370048</ele>
        <time>2019-12-31T12:06:51.007Z</time>
      </trkpt>
      <trkpt lat="45.03722" lon="5.31716">
        <ele>320</ele>
        <time>2019-12-31T12:06:53.007Z</time>
      </trkpt>
      <trkpt lat="45.03725" lon="5.31708">
        <ele>320</ele>
        <time>2019-12-31T12:06:55.007Z</time>
      </trkpt>
      <trkpt lat="45.03731" lon="5.31695">
        <ele>320</ele>
        <time>2019-12-31T12:06:58.007Z</time>
      </trkpt>
      <trkpt lat="45.03735" lon="5.31687">
        <ele>320</ele>
        <time>2019-12-31T12:07:00.007Z</time>
      </trkpt>
      <trkpt lat="45.0374" lon="5.31677">
        <ele>319</ele>
        <time>2019-12-31T12:07:02.007Z</time>
      </trkpt>
      <trkpt lat="45.03743" lon="5.31671">
        <ele>319</ele>
        <time>2019-12-31T12:07:03.007Z</time>
      </trkpt>
      <trkpt lat="45.03746" lon="5.31665">
        <ele>319</ele>
        <time>2019-12-31T12:07:04.007Z</time>
      </trkpt>
      <trkpt lat="45.03748" lon="5.31658">
        <ele>319</ele>
        <time>2019-12-31T12:07:05.007Z</time>
      </trkpt>
      <trkpt lat="45.03752" lon="5.3165">
        <ele>319</ele>
        <time>2019-12-31T12:07:06.007Z</time>
      </trkpt>
      <trkpt lat="45.03755" lon="5.31642">
        <ele>319</ele>
        <time>2019-12-31T12:07:07.007Z</time>
      </trkpt>
      <trkpt lat="45.03758" lon="5.31633">
        <ele>319</ele>
        <time>2019-12-31T12:07:08.007Z</time>
      </trkpt>
      <trkpt lat="45.03762" lon="5.31623">
        <ele>319</ele>
        <time>2019-12-31T12:07:09.007Z</time>
      </trkpt>
      <trkpt lat="45.03767" lon="5.316">
        <ele>318.08283878308</ele>
        <time>2019-12-31T12:07:11.007Z</time>
      </trkpt>
      <trkpt lat="45.0377" lon="5.31574">
        <ele>315</ele>
        <time>2019-12-31T12:07:13.007Z</time>
      </trkpt>
      <trkpt lat="45.0377" lon="5.3156">
        <ele>315</ele>
        <time>2019-12-31T12:07:14.007Z</time>
      </trkpt>
      <trkpt lat="45.03769" lon="5.31546">
        <ele>315</ele>
        <time>2019-12-31T12:07:15.007Z</time>
      </trkpt>
      <trkpt lat="45.03769" lon="5.31531">
        <ele>314.06137605029</ele>
        <time>2019-12-31T12:07:16.007Z</time>
      </trkpt>
      <trkpt lat="45.03768" lon="5.31516">
        <ele>311</ele>
        <time>2019-12-31T12:07:17.007Z</time>
      </trkpt>
      <trkpt lat="45.03766" lon="5.31501">
        <ele>311</ele>
        <time>2019-12-31T12:07:18.007Z</time>
      </trkpt>
      <trkpt lat="45.03765" lon="5.31486">
        <ele>311</ele>
        <time>2019-12-31T12:07:19.007Z</time>
      </trkpt>
      <trkpt lat="45.03764" lon="5.31472">
        <ele>311</ele>
        <time>2019-12-31T12:07:20.007Z</time>
      </trkpt>
      <trkpt lat="45.03763" lon="5.31458">
        <ele>309.814976</ele>
        <time>2019-12-31T12:07:21.007Z</time>
      </trkpt>
      <trkpt lat="45.0376" lon="5.31433">
        <ele>303</ele>
        <time>2019-12-31T12:07:23.007Z</time>
      </trkpt>
      <trkpt lat="45.03758" lon="5.31409">
        <ele>301.7629952</ele>
        <time>2019-12-31T12:07:25.007Z</time>
      </trkpt>
      <trkpt lat="45.0376" lon="5.31385">
        <ele>298.7629952</ele>
        <time>2019-12-31T12:07:27.007Z</time>
      </trkpt>
      <trkpt lat="45.03768" lon="5.31363">
        <ele>297</ele>
        <time>2019-12-31T12:07:29.007Z</time>
      </trkpt>
      <trkpt lat="45.03779" lon="5.31343">
        <ele>295.5259904</ele>
        <time>2019-12-31T12:07:31.007Z</time>
      </trkpt>
      <trkpt lat="45.03785" lon="5.31333">
        <ele>293.7629952</ele>
        <time>2019-12-31T12:07:32.007Z</time>
      </trkpt>
      <trkpt lat="45.03791" lon="5.31323">
        <ele>293</ele>
        <time>2019-12-31T12:07:33.007Z</time>
      </trkpt>
      <trkpt lat="45.03797" lon="5.31312">
        <ele>292.53068802514</ele>
        <time>2019-12-31T12:07:34.007Z</time>
      </trkpt>
      <trkpt lat="45.03803" lon="5.31301">
        <ele>290.77070969577</ele>
        <time>2019-12-31T12:07:35.007Z</time>
      </trkpt>
      <trkpt lat="45.03809" lon="5.31289">
        <ele>290</ele>
        <time>2019-12-31T12:07:36.007Z</time>
      </trkpt>
      <trkpt lat="45.03815" lon="5.31277">
        <ele>290</ele>
        <time>2019-12-31T12:07:37.007Z</time>
      </trkpt>
      <trkpt lat="45.03827" lon="5.31252">
        <ele>289</ele>
        <time>2019-12-31T12:07:39.007Z</time>
      </trkpt>
      <trkpt lat="45.03832" lon="5.3124">
        <ele>289</ele>
        <time>2019-12-31T12:07:40.007Z</time>
      </trkpt>
      <trkpt lat="45.03838" lon="5.31228">
        <ele>288.77070969577</ele>
        <time>2019-12-31T12:07:41.007Z</time>
      </trkpt>
      <trkpt lat="45.03843" lon="5.31216">
        <ele>287.7629952</ele>
        <time>2019-12-31T12:07:42.007Z</time>
      </trkpt>
      <trkpt lat="45.03849" lon="5.31205">
        <ele>287</ele>
        <time>2019-12-31T12:07:43.007Z</time>
      </trkpt>
      <trkpt lat="45.03854" lon="5.31193">
        <ele>286.7629952</ele>
        <time>2019-12-31T12:07:44.007Z</time>
      </trkpt>
      <trkpt lat="45.03858" lon="5.31181">
        <ele>286</ele>
        <time>2019-12-31T12:07:45.007Z</time>
      </trkpt>
      <trkpt lat="45.03862" lon="5.31169">
        <ele>286</ele>
        <time>2019-12-31T12:07:46.007Z</time>
      </trkpt>
      <trkpt lat="45.03866" lon="5.31157">
        <ele>285.7629952</ele>
        <time>2019-12-31T12:07:47.007Z</time>
      </trkpt>
      <trkpt lat="45.0387" lon="5.31146">
        <ele>284.7629952</ele>
        <time>2019-12-31T12:07:48.007Z</time>
      </trkpt>
      <trkpt lat="45.03873" lon="5.31134">
        <ele>284</ele>
        <time>2019-12-31T12:07:49.007Z</time>
      </trkpt>
      <trkpt lat="45.03876" lon="5.31121">
        <ele>284</ele>
        <time>2019-12-31T12:07:50.007Z</time>
      </trkpt>
      <trkpt lat="45.03879" lon="5.31109">
        <ele>283.7629952</ele>
        <time>2019-12-31T12:07:51.007Z</time>
      </trkpt>
      <trkpt lat="45.03882" lon="5.31096">
        <ele>282.76534401257</ele>
        <time>2019-12-31T12:07:52.007Z</time>
      </trkpt>
      <trkpt lat="45.03885" lon="5.31083">
        <ele>281.77070969577</ele>
        <time>2019-12-31T12:07:53.007Z</time>
      </trkpt>
      <trkpt lat="45.03888" lon="5.31071">
        <ele>280.7629952</ele>
        <time>2019-12-31T12:07:54.007Z</time>
      </trkpt>
      <trkpt lat="45.03898" lon="5.31049">
        <ele>278.77069973107</ele>
        <time>2019-12-31T12:07:56.007Z</time>
      </trkpt>
      <trkpt lat="45.03905" lon="5.31039">
        <ele>278</ele>
        <time>2019-12-31T12:07:57.007Z</time>
      </trkpt>
      <trkpt lat="45.03912" lon="5.3103">
        <ele>278</ele>
        <time>2019-12-31T12:07:58.007Z</time>
      </trkpt>
      <trkpt lat="45.0392" lon="5.31021">
        <ele>277.7629952</ele>
        <time>2019-12-31T12:07:59.007Z</time>
      </trkpt>
      <trkpt lat="45.03933" lon="5.31004">
        <ele>276.7629952</ele>
        <time>2019-12-31T12:08:01.007Z</time>
      </trkpt>
      <trkpt lat="45.03939" lon="5.30996">
        <ele>276</ele>
        <time>2019-12-31T12:08:02.007Z</time>
      </trkpt>
      <trkpt lat="45.03945" lon="5.30988">
        <ele>275.7629952</ele>
        <time>2019-12-31T12:08:03.007Z</time>
      </trkpt>
      <trkpt lat="45.03952" lon="5.3098">
        <ele>275</ele>
        <time>2019-12-31T12:08:04.007Z</time>
      </trkpt>
      <trkpt lat="45.03958" lon="5.30972">
        <ele>275</ele>
        <time>2019-12-31T12:08:05.007Z</time>
      </trkpt>
      <trkpt lat="45.03964" lon="5.30965">
        <ele>275</ele>
        <time>2019-12-31T12:08:06.007Z</time>
      </trkpt>
      <trkpt lat="45.03971" lon="5.30959">
        <ele>274.7629952</ele>
        <time>2019-12-31T12:08:07.007Z</time>
      </trkpt>
      <trkpt lat="45.03977" lon="5.30954">
        <ele>274.2370048</ele>
        <time>2019-12-31T12:08:08.007Z</time>
      </trkpt>
      <trkpt lat="45.03984" lon="5.3095">
        <ele>275</ele>
        <time>2019-12-31T12:08:09.007Z</time>
      </trkpt>
      <trkpt lat="45.0399" lon="5.30948">
        <ele>275</ele>
        <time>2019-12-31T12:08:10.007Z</time>
      </trkpt>
      <trkpt lat="45.04002" lon="5.30945">
        <ele>275</ele>
        <time>2019-12-31T12:08:12.007Z</time>
      </trkpt>
      <trkpt lat="45.04011" lon="5.30945">
        <ele>275</ele>
        <time>2019-12-31T12:08:14.007Z</time>
      </trkpt>
      <trkpt lat="45.0402" lon="5.30947">
        <ele>275</ele>
        <time>2019-12-31T12:08:16.007Z</time>
      </trkpt>
      <trkpt lat="45.04029" lon="5.3095">
        <ele>275</ele>
        <time>2019-12-31T12:08:18.007Z</time>
      </trkpt>
      <trkpt lat="45.04039" lon="5.30954">
        <ele>275</ele>
        <time>2019-12-31T12:08:20.007Z</time>
      </trkpt>
      <trkpt lat="45.04048" lon="5.30956">
        <ele>277</ele>
        <time>2019-12-31T12:08:22.007Z</time>
      </trkpt>
      <trkpt lat="45.04058" lon="5.30958">
        <ele>277</ele>
        <time>2019-12-31T12:08:24.007Z</time>
      </trkpt>
      <trkpt lat="45.04068" lon="5.3096">
        <ele>277</ele>
        <time>2019-12-31T12:08:26.007Z</time>
      </trkpt>
      <trkpt lat="45.04078" lon="5.30961">
        <ele>277</ele>
        <time>2019-12-31T12:08:28.007Z</time>
      </trkpt>
      <trkpt lat="45.04089" lon="5.30961">
        <ele>277</ele>
        <time>2019-12-31T12:08:30.007Z</time>
      </trkpt>
      <trkpt lat="45.041" lon="5.30961">
        <ele>278</ele>
        <time>2019-12-31T12:08:32.007Z</time>
      </trkpt>
      <trkpt lat="45.04111" lon="5.30961">
        <ele>278</ele>
        <time>2019-12-31T12:08:34.007Z</time>
      </trkpt>
      <trkpt lat="45.04122" lon="5.30962">
        <ele>278</ele>
        <time>2019-12-31T12:08:36.007Z</time>
      </trkpt>
      <trkpt lat="45.04134" lon="5.30962">
        <ele>278</ele>
        <time>2019-12-31T12:08:38.007Z</time>
      </trkpt>
      <trkpt lat="45.04145" lon="5.30962">
        <ele>278</ele>
        <time>2019-12-31T12:08:40.007Z</time>
      </trkpt>
      <trkpt lat="45.04158" lon="5.30963">
        <ele>277</ele>
        <time>2019-12-31T12:08:42.007Z</time>
      </trkpt>
      <trkpt lat="45.0417" lon="5.30963">
        <ele>277</ele>
        <time>2019-12-31T12:08:44.007Z</time>
      </trkpt>
      <trkpt lat="45.04177" lon="5.30963">
        <ele>277</ele>
        <time>2019-12-31T12:08:45.007Z</time>
      </trkpt>
      <trkpt lat="45.04189" lon="5.30964">
        <ele>277</ele>
        <time>2019-12-31T12:08:47.007Z</time>
      </trkpt>
      <trkpt lat="45.04196" lon="5.30965">
        <ele>277</ele>
        <time>2019-12-31T12:08:48.007Z</time>
      </trkpt>
      <trkpt lat="45.04208" lon="5.30965">
        <ele>277</ele>
        <time>2019-12-31T12:08:50.007Z</time>
      </trkpt>
      <trkpt lat="45.04222" lon="5.30967">
        <ele>276</ele>
        <time>2019-12-31T12:08:52.007Z</time>
      </trkpt>
      <trkpt lat="45.04235" lon="5.30968">
        <ele>276</ele>
        <time>2019-12-31T12:08:54.007Z</time>
      </trkpt>
      <trkpt lat="45.04248" lon="5.30969">
        <ele>276</ele>
        <time>2019-12-31T12:08:56.007Z</time>
      </trkpt>
      <trkpt lat="45.0426" lon="5.3097">
        <ele>276</ele>
        <time>2019-12-31T12:08:58.007Z</time>
      </trkpt>
      <trkpt lat="45.04266" lon="5.30971">
        <ele>276</ele>
        <time>2019-12-31T12:08:59.007Z</time>
      </trkpt>
      <trkpt lat="45.04278" lon="5.3097">
        <ele>275.5259904</ele>
        <time>2019-12-31T12:09:01.007Z</time>
      </trkpt>
      <trkpt lat="45.04286" lon="5.30961">
        <ele>274</ele>
        <time>2019-12-31T12:09:03.007Z</time>
      </trkpt>
      <trkpt lat="45.04288" lon="5.30945">
        <ele>274</ele>
        <time>2019-12-31T12:09:05.007Z</time>
      </trkpt>
      <trkpt lat="45.0429" lon="5.30928">
        <ele>274</ele>
        <time>2019-12-31T12:09:07.007Z</time>
      </trkpt>
      <trkpt lat="45.04291" lon="5.30919">
        <ele>274</ele>
        <time>2019-12-31T12:09:08.007Z</time>
      </trkpt>
      <trkpt lat="45.04292" lon="5.30909">
        <ele>274</ele>
        <time>2019-12-31T12:09:09.007Z</time>
      </trkpt>
      <trkpt lat="45.04294" lon="5.30899">
        <ele>274</ele>
        <time>2019-12-31T12:09:10.007Z</time>
      </trkpt>
      <trkpt lat="45.04297" lon="5.30891">
        <ele>273.2889856</ele>
        <time>2019-12-31T12:09:11.007Z</time>
      </trkpt>
      <trkpt lat="45.04301" lon="5.30885">
        <ele>271</ele>
        <time>2019-12-31T12:09:12.007Z</time>
      </trkpt>
      <trkpt lat="45.04306" lon="5.30883">
        <ele>271</ele>
        <time>2019-12-31T12:09:13.007Z</time>
      </trkpt>
      <trkpt lat="45.04312" lon="5.30884">
        <ele>271</ele>
        <time>2019-12-31T12:09:14.007Z</time>
      </trkpt>
      <trkpt lat="45.04318" lon="5.30885">
        <ele>271</ele>
        <time>2019-12-31T12:09:15.007Z</time>
      </trkpt>
      <trkpt lat="45.04324" lon="5.30886">
        <ele>270.53068802514</ele>
        <time>2019-12-31T12:09:16.007Z</time>
      </trkpt>
      <trkpt lat="45.0433" lon="5.30887">
        <ele>269</ele>
        <time>2019-12-31T12:09:17.007Z</time>
      </trkpt>
      <trkpt lat="45.04342" lon="5.3089">
        <ele>269</ele>
        <time>2019-12-31T12:09:19.007Z</time>
      </trkpt>
      <trkpt lat="45.04353" lon="5.30892">
        <ele>268.7629952</ele>
        <time>2019-12-31T12:09:21.007Z</time>
      </trkpt>
      <trkpt lat="45.04364" lon="5.3089">
        <ele>268</ele>
        <time>2019-12-31T12:09:23.007Z</time>
      </trkpt>
      <trkpt lat="45.04375" lon="5.30883">
        <ele>268</ele>
        <time>2019-12-31T12:09:25.007Z</time>
      </trkpt>
      <trkpt lat="45.04386" lon="5.30876">
        <ele>268</ele>
        <time>2019-12-31T12:09:27.007Z</time>
      </trkpt>
      <trkpt lat="45.04398" lon="5.30871">
        <ele>268</ele>
        <time>2019-12-31T12:09:29.007Z</time>
      </trkpt>
      <trkpt lat="45.0441" lon="5.30867">
        <ele>267.7629952</ele>
        <time>2019-12-31T12:09:31.007Z</time>
      </trkpt>
      <trkpt lat="45.04421" lon="5.3086">
        <ele>267</ele>
        <time>2019-12-31T12:09:33.007Z</time>
      </trkpt>
      <trkpt lat="45.04426" lon="5.30857">
        <ele>267</ele>
        <time>2019-12-31T12:09:34.007Z</time>
      </trkpt>
      <trkpt lat="45.04437" lon="5.3085">
        <ele>267</ele>
        <time>2019-12-31T12:09:36.007Z</time>
      </trkpt>
      <trkpt lat="45.04449" lon="5.30841">
        <ele>267</ele>
        <time>2019-12-31T12:09:38.007Z</time>
      </trkpt>
      <trkpt lat="45.04462" lon="5.30834">
        <ele>267</ele>
        <time>2019-12-31T12:09:40.007Z</time>
      </trkpt>
      <trkpt lat="45.04477" lon="5.30827">
        <ele>263</ele>
        <time>2019-12-31T12:09:42.007Z</time>
      </trkpt>
      <trkpt lat="45.04492" lon="5.3082">
        <ele>263</ele>
        <time>2019-12-31T12:09:44.007Z</time>
      </trkpt>
      <trkpt lat="45.04507" lon="5.30812">
        <ele>262.06137605029</ele>
        <time>2019-12-31T12:09:46.007Z</time>
      </trkpt>
      <trkpt lat="45.04515" lon="5.3081">
        <ele>259</ele>
        <time>2019-12-31T12:09:47.007Z</time>
      </trkpt>
      <trkpt lat="45.04529" lon="5.30809">
        <ele>259</ele>
        <time>2019-12-31T12:09:49.007Z</time>
      </trkpt>
      <trkpt lat="45.04539" lon="5.30804">
        <ele>257.814976</ele>
        <time>2019-12-31T12:09:51.007Z</time>
      </trkpt>
      <trkpt lat="45.04532" lon="5.30792">
        <ele>249.7629952</ele>
        <time>2019-12-31T12:09:56.007Z</time>
      </trkpt>
      <trkpt lat="45.04524" lon="5.30793">
        <ele>249</ele>
        <time>2019-12-31T12:10:00.007Z</time>
      </trkpt>
      <trkpt lat="45.04514" lon="5.30792">
        <ele>248.76534401257</ele>
        <time>2019-12-31T12:10:08.007Z</time>
      </trkpt>
      <trkpt lat="45.04504" lon="5.30789">
        <ele>247.76534401257</ele>
        <time>2019-12-31T12:10:10.007Z</time>
      </trkpt>
      <trkpt lat="45.04494" lon="5.30781">
        <ele>247</ele>
        <time>2019-12-31T12:10:12.007Z</time>
      </trkpt>
      <trkpt lat="45.04485" lon="5.30767">
        <ele>247</ele>
        <time>2019-12-31T12:10:14.007Z</time>
      </trkpt>
      <trkpt lat="45.04482" lon="5.30746">
        <ele>247</ele>
        <time>2019-12-31T12:10:16.007Z</time>
      </trkpt>
      <trkpt lat="45.04484" lon="5.30725">
        <ele>247</ele>
        <time>2019-12-31T12:10:18.007Z</time>
      </trkpt>
      <trkpt lat="45.04486" lon="5.30706">
        <ele>247</ele>
        <time>2019-12-31T12:10:20.007Z</time>
      </trkpt>
      <trkpt lat="45.04487" lon="5.30697">
        <ele>245.3409664</ele>
        <time>2019-12-31T12:10:21.007Z</time>
      </trkpt>
      <trkpt lat="45.04488" lon="5.30682">
        <ele>235.77070969577</ele>
        <time>2019-12-31T12:10:23.007Z</time>
      </trkpt>
      <trkpt lat="45.04491" lon="5.30668">
        <ele>234</ele>
        <time>2019-12-31T12:10:26.007Z</time>
      </trkpt>
      <trkpt lat="45.04496" lon="5.30655">
        <ele>234</ele>
        <time>2019-12-31T12:10:31.007Z</time>
      </trkpt>
      <trkpt lat="45.04499" lon="5.30649">
        <ele>235</ele>
        <time>2019-12-31T12:10:33.007Z</time>
      </trkpt>
      <trkpt lat="45.04503" lon="5.30641">
        <ele>235.2370048</ele>
        <time>2019-12-31T12:10:35.007Z</time>
      </trkpt>
      <trkpt lat="45.04507" lon="5.3063">
        <ele>238</ele>
        <time>2019-12-31T12:10:38.007Z</time>
      </trkpt>
      <trkpt lat="45.04511" lon="5.30616">
        <ele>238</ele>
        <time>2019-12-31T12:10:42.007Z</time>
      </trkpt>
      <trkpt lat="45.04513" lon="5.30603">
        <ele>238</ele>
        <time>2019-12-31T12:10:45.007Z</time>
      </trkpt>
      <trkpt lat="45.04514" lon="5.30595">
        <ele>239</ele>
        <time>2019-12-31T12:10:47.007Z</time>
      </trkpt>
      <trkpt lat="45.04515" lon="5.30583">
        <ele>239</ele>
        <time>2019-12-31T12:10:50.007Z</time>
      </trkpt>
      <trkpt lat="45.04516" lon="5.30568">
        <ele>239</ele>
        <time>2019-12-31T12:10:53.007Z</time>
      </trkpt>
      <trkpt lat="45.04516" lon="5.30557">
        <ele>239</ele>
        <time>2019-12-31T12:10:55.007Z</time>
      </trkpt>
      <trkpt lat="45.04517" lon="5.30546">
        <ele>239</ele>
        <time>2019-12-31T12:10:57.007Z</time>
      </trkpt>
      <trkpt lat="45.04518" lon="5.30535">
        <ele>239</ele>
        <time>2019-12-31T12:10:59.007Z</time>
      </trkpt>
      <trkpt lat="45.0452" lon="5.30523">
        <ele>239.2370048</ele>
        <time>2019-12-31T12:11:01.007Z</time>
      </trkpt>
      <trkpt lat="45.04521" lon="5.30511">
        <ele>240</ele>
        <time>2019-12-31T12:11:03.007Z</time>
      </trkpt>
      <trkpt lat="45.04523" lon="5.30499">
        <ele>240</ele>
        <time>2019-12-31T12:11:05.007Z</time>
      </trkpt>
      <trkpt lat="45.04524" lon="5.30486">
        <ele>240</ele>
        <time>2019-12-31T12:11:07.007Z</time>
      </trkpt>
      <trkpt lat="45.04526" lon="5.30474">
        <ele>240</ele>
        <time>2019-12-31T12:11:09.007Z</time>
      </trkpt>
      <trkpt lat="45.04528" lon="5.30462">
        <ele>240.2370048</ele>
        <time>2019-12-31T12:11:11.007Z</time>
      </trkpt>
      <trkpt lat="45.0453" lon="5.30449">
        <ele>241</ele>
        <time>2019-12-31T12:11:13.007Z</time>
      </trkpt>
      <trkpt lat="45.04532" lon="5.30437">
        <ele>241</ele>
        <time>2019-12-31T12:11:15.007Z</time>
      </trkpt>
      <trkpt lat="45.04534" lon="5.30425">
        <ele>241</ele>
        <time>2019-12-31T12:11:17.007Z</time>
      </trkpt>
      <trkpt lat="45.04536" lon="5.30413">
        <ele>241</ele>
        <time>2019-12-31T12:11:19.007Z</time>
      </trkpt>
      <trkpt lat="45.04538" lon="5.304">
        <ele>241</ele>
        <time>2019-12-31T12:11:21.007Z</time>
      </trkpt>
      <trkpt lat="45.0454" lon="5.30388">
        <ele>241</ele>
        <time>2019-12-31T12:11:23.007Z</time>
      </trkpt>
      <trkpt lat="45.04543" lon="5.30377">
        <ele>241</ele>
        <time>2019-12-31T12:11:25.007Z</time>
      </trkpt>
      <trkpt lat="45.04545" lon="5.30365">
        <ele>241</ele>
        <time>2019-12-31T12:11:27.007Z</time>
      </trkpt>
      <trkpt lat="45.04547" lon="5.30354">
        <ele>241</ele>
        <time>2019-12-31T12:11:29.007Z</time>
      </trkpt>
      <trkpt lat="45.04548" lon="5.30343">
        <ele>240.7629952</ele>
        <time>2019-12-31T12:11:31.007Z</time>
      </trkpt>
      <trkpt lat="45.04551" lon="5.30331">
        <ele>240</ele>
        <time>2019-12-31T12:11:33.007Z</time>
      </trkpt>
      <trkpt lat="45.04553" lon="5.30325">
        <ele>240</ele>
        <time>2019-12-31T12:11:34.007Z</time>
      </trkpt>
      <trkpt lat="45.04557" lon="5.3032">
        <ele>240</ele>
        <time>2019-12-31T12:11:35.007Z</time>
      </trkpt>
      <trkpt lat="45.04567" lon="5.3031">
        <ele>240</ele>
        <time>2019-12-31T12:11:37.007Z</time>
      </trkpt>
      <trkpt lat="45.04573" lon="5.30305">
        <ele>240</ele>
        <time>2019-12-31T12:11:38.007Z</time>
      </trkpt>
      <trkpt lat="45.04579" lon="5.303">
        <ele>240</ele>
        <time>2019-12-31T12:11:39.007Z</time>
      </trkpt>
      <trkpt lat="45.04586" lon="5.30295">
        <ele>240</ele>
        <time>2019-12-31T12:11:40.007Z</time>
      </trkpt>
      <trkpt lat="45.04602" lon="5.30285">
        <ele>231.0519808</ele>
        <time>2019-12-31T12:11:42.007Z</time>
      </trkpt>
      <trkpt lat="45.04618" lon="5.30277">
        <ele>227.7629952</ele>
        <time>2019-12-31T12:11:44.007Z</time>
      </trkpt>
      <trkpt lat="45.04634" lon="5.30268">
        <ele>225.29603203772</ele>
        <time>2019-12-31T12:11:46.007Z</time>
      </trkpt>
      <trkpt lat="45.04647" lon="5.3026">
        <ele>221.7629952</ele>
        <time>2019-12-31T12:11:48.007Z</time>
      </trkpt>
      <trkpt lat="45.04658" lon="5.3025">
        <ele>219.53068802514</ele>
        <time>2019-12-31T12:11:50.007Z</time>
      </trkpt>
      <trkpt lat="45.04667" lon="5.30237">
        <ele>216.76534401257</ele>
        <time>2019-12-31T12:11:52.007Z</time>
      </trkpt>
      <trkpt lat="45.0467" lon="5.3022">
        <ele>214.7629952</ele>
        <time>2019-12-31T12:11:54.007Z</time>
      </trkpt>
      <trkpt lat="45.04671" lon="5.30199">
        <ele>212.5259904</ele>
        <time>2019-12-31T12:11:56.007Z</time>
      </trkpt>
      <trkpt lat="45.04665" lon="5.30186">
        <ele>210.76534401257</ele>
        <time>2019-12-31T12:11:58.007Z</time>
      </trkpt>
      <trkpt lat="45.04659" lon="5.30172">
        <ele>209.7629952</ele>
        <time>2019-12-31T12:12:00.007Z</time>
      </trkpt>
      <trkpt lat="45.04658" lon="5.30157">
        <ele>209</ele>
        <time>2019-12-31T12:12:02.007Z</time>
      </trkpt>
      <trkpt lat="45.04652" lon="5.30148">
        <ele>205</ele>
        <time>2019-12-31T12:12:10.007Z</time>
      </trkpt>
      <trkpt lat="45.04643" lon="5.3014">
        <ele>205</ele>
        <time>2019-12-31T12:12:41.007Z</time>
      </trkpt>
      <trkpt lat="45.04629" lon="5.30136">
        <ele>205</ele>
        <time>2019-12-31T12:12:44.007Z</time>
      </trkpt>
      <trkpt lat="45.04616" lon="5.30134">
        <ele>205</ele>
        <time>2019-12-31T12:12:46.007Z</time>
      </trkpt>
      <trkpt lat="45.04605" lon="5.30133">
        <ele>205</ele>
        <time>2019-12-31T12:12:48.007Z</time>
      </trkpt>
      <trkpt lat="45.04595" lon="5.30131">
        <ele>205</ele>
        <time>2019-12-31T12:12:50.007Z</time>
      </trkpt>
      <trkpt lat="45.04582" lon="5.30133">
        <ele>202</ele>
        <time>2019-12-31T12:12:53.007Z</time>
      </trkpt>
      <trkpt lat="45.0457" lon="5.30136">
        <ele>201.5259904</ele>
        <time>2019-12-31T12:12:56.007Z</time>
      </trkpt>
      <trkpt lat="45.0456" lon="5.30137">
        <ele>200</ele>
        <time>2019-12-31T12:12:58.007Z</time>
      </trkpt>
      <trkpt lat="45.04552" lon="5.30138">
        <ele>200</ele>
        <time>2019-12-31T12:13:00.007Z</time>
      </trkpt>
      <trkpt lat="45.04541" lon="5.30142">
        <ele>200</ele>
        <time>2019-12-31T12:13:02.007Z</time>
      </trkpt>
      <trkpt lat="45.04532" lon="5.30143">
        <ele>200</ele>
        <time>2019-12-31T12:13:04.007Z</time>
      </trkpt>
      <trkpt lat="45.04522" lon="5.30144">
        <ele>200</ele>
        <time>2019-12-31T12:13:06.007Z</time>
      </trkpt>
      <trkpt lat="45.04517" lon="5.30145">
        <ele>200</ele>
        <time>2019-12-31T12:13:07.007Z</time>
      </trkpt>
      <trkpt lat="45.04512" lon="5.30147">
        <ele>200</ele>
        <time>2019-12-31T12:13:08.007Z</time>
      </trkpt>
      <trkpt lat="45.04504" lon="5.30148">
        <ele>200</ele>
        <time>2019-12-31T12:13:10.007Z</time>
      </trkpt>
      <trkpt lat="45.04497" lon="5.3015">
        <ele>201</ele>
        <time>2019-12-31T12:13:12.007Z</time>
      </trkpt>
      <trkpt lat="45.04491" lon="5.30152">
        <ele>201</ele>
        <time>2019-12-31T12:13:14.007Z</time>
      </trkpt>
      <trkpt lat="45.04483" lon="5.30155">
        <ele>201</ele>
        <time>2019-12-31T12:13:16.007Z</time>
      </trkpt>
      <trkpt lat="45.04474" lon="5.30159">
        <ele>201</ele>
        <time>2019-12-31T12:13:18.007Z</time>
      </trkpt>
      <trkpt lat="45.04467" lon="5.30165">
        <ele>201</ele>
        <time>2019-12-31T12:13:20.007Z</time>
      </trkpt>
      <trkpt lat="45.04462" lon="5.30171">
        <ele>202</ele>
        <time>2019-12-31T12:13:22.007Z</time>
      </trkpt>
      <trkpt lat="45.04457" lon="5.30179">
        <ele>202</ele>
        <time>2019-12-31T12:13:24.007Z</time>
      </trkpt>
      <trkpt lat="45.04454" lon="5.30183">
        <ele>202</ele>
        <time>2019-12-31T12:13:25.007Z</time>
      </trkpt>
      <trkpt lat="45.04451" lon="5.30188">
        <ele>202</ele>
        <time>2019-12-31T12:13:26.007Z</time>
      </trkpt>
      <trkpt lat="45.04449" lon="5.30192">
        <ele>202</ele>
        <time>2019-12-31T12:13:27.007Z</time>
      </trkpt>
      <trkpt lat="45.04447" lon="5.30197">
        <ele>202</ele>
        <time>2019-12-31T12:13:28.007Z</time>
      </trkpt>
      <trkpt lat="45.04445" lon="5.30202">
        <ele>202</ele>
        <time>2019-12-31T12:13:29.007Z</time>
      </trkpt>
      <trkpt lat="45.04443" lon="5.30206">
        <ele>202</ele>
        <time>2019-12-31T12:13:30.007Z</time>
      </trkpt>
      <trkpt lat="45.04438" lon="5.30215">
        <ele>203</ele>
        <time>2019-12-31T12:13:32.007Z</time>
      </trkpt>
      <trkpt lat="45.04436" lon="5.30219">
        <ele>203</ele>
        <time>2019-12-31T12:13:33.007Z</time>
      </trkpt>
      <trkpt lat="45.04433" lon="5.30223">
        <ele>203</ele>
        <time>2019-12-31T12:13:34.007Z</time>
      </trkpt>
      <trkpt lat="45.0443" lon="5.30226">
        <ele>203</ele>
        <time>2019-12-31T12:13:35.007Z</time>
      </trkpt>
      <trkpt lat="45.04426" lon="5.3023">
        <ele>203</ele>
        <time>2019-12-31T12:13:36.007Z</time>
      </trkpt>
      <trkpt lat="45.04423" lon="5.30233">
        <ele>203</ele>
        <time>2019-12-31T12:13:37.007Z</time>
      </trkpt>
      <trkpt lat="45.0442" lon="5.30237">
        <ele>203</ele>
        <time>2019-12-31T12:13:38.007Z</time>
      </trkpt>
      <trkpt lat="45.04416" lon="5.30241">
        <ele>203</ele>
        <time>2019-12-31T12:13:39.007Z</time>
      </trkpt>
      <trkpt lat="45.04413" lon="5.30244">
        <ele>203</ele>
        <time>2019-12-31T12:13:40.007Z</time>
      </trkpt>
      <trkpt lat="45.0441" lon="5.30248">
        <ele>203</ele>
        <time>2019-12-31T12:13:41.007Z</time>
      </trkpt>
      <trkpt lat="45.04406" lon="5.3025">
        <ele>203</ele>
        <time>2019-12-31T12:13:42.007Z</time>
      </trkpt>
      <trkpt lat="45.04402" lon="5.30251">
        <ele>203</ele>
        <time>2019-12-31T12:13:43.007Z</time>
      </trkpt>
      <trkpt lat="45.04393" lon="5.30251">
        <ele>203</ele>
        <time>2019-12-31T12:13:45.007Z</time>
      </trkpt>
      <trkpt lat="45.04389" lon="5.3025">
        <ele>203</ele>
        <time>2019-12-31T12:13:46.007Z</time>
      </trkpt>
      <trkpt lat="45.04385" lon="5.30249">
        <ele>203</ele>
        <time>2019-12-31T12:13:47.007Z</time>
      </trkpt>
      <trkpt lat="45.0438" lon="5.30248">
        <ele>203</ele>
        <time>2019-12-31T12:13:48.007Z</time>
      </trkpt>
      <trkpt lat="45.04376" lon="5.30247">
        <ele>203</ele>
        <time>2019-12-31T12:13:49.007Z</time>
      </trkpt>
      <trkpt lat="45.04371" lon="5.30246">
        <ele>203</ele>
        <time>2019-12-31T12:13:50.007Z</time>
      </trkpt>
      <trkpt lat="45.04361" lon="5.30244">
        <ele>204</ele>
        <time>2019-12-31T12:13:52.007Z</time>
      </trkpt>
      <trkpt lat="45.04356" lon="5.30243">
        <ele>204</ele>
        <time>2019-12-31T12:13:53.007Z</time>
      </trkpt>
      <trkpt lat="45.04351" lon="5.30241">
        <ele>204</ele>
        <time>2019-12-31T12:13:54.007Z</time>
      </trkpt>
      <trkpt lat="45.04346" lon="5.3024">
        <ele>204</ele>
        <time>2019-12-31T12:13:55.007Z</time>
      </trkpt>
      <trkpt lat="45.04341" lon="5.30239">
        <ele>204</ele>
        <time>2019-12-31T12:13:56.007Z</time>
      </trkpt>
      <trkpt lat="45.04335" lon="5.30237">
        <ele>204</ele>
        <time>2019-12-31T12:13:57.007Z</time>
      </trkpt>
      <trkpt lat="45.04324" lon="5.30235">
        <ele>204</ele>
        <time>2019-12-31T12:13:59.007Z</time>
      </trkpt>
      <trkpt lat="45.04319" lon="5.30233">
        <ele>204</ele>
        <time>2019-12-31T12:14:00.007Z</time>
      </trkpt>
      <trkpt lat="45.04314" lon="5.30231">
        <ele>204</ele>
        <time>2019-12-31T12:14:01.007Z</time>
      </trkpt>
      <trkpt lat="45.04309" lon="5.30229">
        <ele>204</ele>
        <time>2019-12-31T12:14:02.007Z</time>
      </trkpt>
      <trkpt lat="45.04304" lon="5.30226">
        <ele>204</ele>
        <time>2019-12-31T12:14:03.007Z</time>
      </trkpt>
      <trkpt lat="45.04299" lon="5.30224">
        <ele>204</ele>
        <time>2019-12-31T12:14:04.007Z</time>
      </trkpt>
      <trkpt lat="45.0429" lon="5.3022">
        <ele>204</ele>
        <time>2019-12-31T12:14:06.007Z</time>
      </trkpt>
      <trkpt lat="45.04283" lon="5.30217">
        <ele>204</ele>
        <time>2019-12-31T12:14:08.007Z</time>
      </trkpt>
      <trkpt lat="45.04279" lon="5.30214">
        <ele>204</ele>
        <time>2019-12-31T12:14:16.007Z</time>
      </trkpt>
      <trkpt lat="45.04277" lon="5.30208">
        <ele>204</ele>
        <time>2019-12-31T12:14:18.007Z</time>
      </trkpt>
      <trkpt lat="45.04275" lon="5.30198">
        <ele>204</ele>
        <time>2019-12-31T12:14:20.007Z</time>
      </trkpt>
      <trkpt lat="45.04273" lon="5.30187">
        <ele>203</ele>
        <time>2019-12-31T12:14:22.007Z</time>
      </trkpt>
      <trkpt lat="45.04271" lon="5.30176">
        <ele>203</ele>
        <time>2019-12-31T12:14:24.007Z</time>
      </trkpt>
      <trkpt lat="45.04269" lon="5.3017">
        <ele>203</ele>
        <time>2019-12-31T12:14:25.007Z</time>
      </trkpt>
      <trkpt lat="45.04266" lon="5.30158">
        <ele>203</ele>
        <time>2019-12-31T12:14:27.007Z</time>
      </trkpt>
      <trkpt lat="45.04265" lon="5.30152">
        <ele>203</ele>
        <time>2019-12-31T12:14:28.007Z</time>
      </trkpt>
      <trkpt lat="45.04263" lon="5.30146">
        <ele>203</ele>
        <time>2019-12-31T12:14:29.007Z</time>
      </trkpt>
      <trkpt lat="45.0426" lon="5.30141">
        <ele>203</ele>
        <time>2019-12-31T12:14:30.007Z</time>
      </trkpt>
      <trkpt lat="45.04256" lon="5.30136">
        <ele>203</ele>
        <time>2019-12-31T12:14:31.007Z</time>
      </trkpt>
      <trkpt lat="45.04253" lon="5.30132">
        <ele>203</ele>
        <time>2019-12-31T12:14:32.007Z</time>
      </trkpt>
      <trkpt lat="45.04249" lon="5.30128">
        <ele>203</ele>
        <time>2019-12-31T12:14:33.007Z</time>
      </trkpt>
      <trkpt lat="45.04244" lon="5.30125">
        <ele>203</ele>
        <time>2019-12-31T12:14:34.007Z</time>
      </trkpt>
      <trkpt lat="45.0424" lon="5.30123">
        <ele>203</ele>
        <time>2019-12-31T12:14:35.007Z</time>
      </trkpt>
      <trkpt lat="45.04235" lon="5.30121">
        <ele>203</ele>
        <time>2019-12-31T12:14:36.007Z</time>
      </trkpt>
      <trkpt lat="45.0423" lon="5.30119">
        <ele>203</ele>
        <time>2019-12-31T12:14:37.007Z</time>
      </trkpt>
      <trkpt lat="45.04224" lon="5.30118">
        <ele>203</ele>
        <time>2019-12-31T12:14:38.007Z</time>
      </trkpt>
      <trkpt lat="45.04219" lon="5.30117">
        <ele>203</ele>
        <time>2019-12-31T12:14:39.007Z</time>
      </trkpt>
      <trkpt lat="45.04213" lon="5.30116">
        <ele>203</ele>
        <time>2019-12-31T12:14:40.007Z</time>
      </trkpt>
      <trkpt lat="45.04208" lon="5.30115">
        <ele>203.2370048</ele>
        <time>2019-12-31T12:14:41.007Z</time>
      </trkpt>
      <trkpt lat="45.04202" lon="5.30113">
        <ele>204</ele>
        <time>2019-12-31T12:14:42.007Z</time>
      </trkpt>
      <trkpt lat="45.04197" lon="5.30111">
        <ele>204</ele>
        <time>2019-12-31T12:14:43.007Z</time>
      </trkpt>
      <trkpt lat="45.0419" lon="5.30108">
        <ele>204</ele>
        <time>2019-12-31T12:14:45.007Z</time>
      </trkpt>
      <trkpt lat="45.04186" lon="5.30105">
        <ele>204</ele>
        <time>2019-12-31T12:14:47.007Z</time>
      </trkpt>
      <trkpt lat="45.04182" lon="5.30102">
        <ele>203</ele>
        <time>2019-12-31T12:14:53.007Z</time>
      </trkpt>
      <trkpt lat="45.04177" lon="5.30105">
        <ele>203</ele>
        <time>2019-12-31T12:14:56.007Z</time>
      </trkpt>
      <trkpt lat="45.04171" lon="5.3011">
        <ele>203</ele>
        <time>2019-12-31T12:14:59.007Z</time>
      </trkpt>
      <trkpt lat="45.04167" lon="5.30112">
        <ele>203.7110144</ele>
        <time>2019-12-31T12:15:01.007Z</time>
      </trkpt>
      <trkpt lat="45.04161" lon="5.30107">
        <ele>206</ele>
        <time>2019-12-31T12:15:04.007Z</time>
      </trkpt>
      <trkpt lat="45.04157" lon="5.30101">
        <ele>207</ele>
        <time>2019-12-31T12:15:07.007Z</time>
      </trkpt>
      <trkpt lat="45.04155" lon="5.30093">
        <ele>207</ele>
        <time>2019-12-31T12:15:10.007Z</time>
      </trkpt>
      <trkpt lat="45.04156" lon="5.30085">
        <ele>209</ele>
        <time>2019-12-31T12:15:13.007Z</time>
      </trkpt>
      <trkpt lat="45.04157" lon="5.30077">
        <ele>209.4740096</ele>
        <time>2019-12-31T12:15:16.007Z</time>
      </trkpt>
      <trkpt lat="45.04158" lon="5.30069">
        <ele>211</ele>
        <time>2019-12-31T12:15:19.007Z</time>
      </trkpt>
      <trkpt lat="45.0416" lon="5.30061">
        <ele>212</ele>
        <time>2019-12-31T12:15:22.007Z</time>
      </trkpt>
      <trkpt lat="45.04162" lon="5.30053">
        <ele>212</ele>
        <time>2019-12-31T12:15:25.007Z</time>
      </trkpt>
      <trkpt lat="45.04162" lon="5.30045">
        <ele>215</ele>
        <time>2019-12-31T12:15:28.007Z</time>
      </trkpt>
      <trkpt lat="45.04162" lon="5.30037">
        <ele>215.2370048</ele>
        <time>2019-12-31T12:15:31.007Z</time>
      </trkpt>
      <trkpt lat="45.04162" lon="5.30032">
        <ele>216</ele>
        <time>2019-12-31T12:15:33.007Z</time>
      </trkpt>
      <trkpt lat="45.04161" lon="5.30026">
        <ele>216</ele>
        <time>2019-12-31T12:15:35.007Z</time>
      </trkpt>
      <trkpt lat="45.04158" lon="5.30012">
        <ele>217</ele>
        <time>2019-12-31T12:15:39.007Z</time>
      </trkpt>
      <trkpt lat="45.04156" lon="5.30001">
        <ele>217</ele>
        <time>2019-12-31T12:15:42.007Z</time>
      </trkpt>
      <trkpt lat="45.04153" lon="5.29989">
        <ele>217</ele>
        <time>2019-12-31T12:15:45.007Z</time>
      </trkpt>
      <trkpt lat="45.04152" lon="5.29982">
        <ele>217</ele>
        <time>2019-12-31T12:15:47.007Z</time>
      </trkpt>
      <trkpt lat="45.0415" lon="5.29974">
        <ele>217</ele>
        <time>2019-12-31T12:15:49.007Z</time>
      </trkpt>
      <trkpt lat="45.0415" lon="5.2997">
        <ele>217</ele>
        <time>2019-12-31T12:15:50.007Z</time>
      </trkpt>
      <trkpt lat="45.04149" lon="5.29967">
        <ele>217</ele>
        <time>2019-12-31T12:15:51.007Z</time>
      </trkpt>
      <trkpt lat="45.04148" lon="5.29962">
        <ele>217</ele>
        <time>2019-12-31T12:15:53.007Z</time>
      </trkpt>
      <trkpt lat="45.04147" lon="5.29967">
        <ele>217</ele>
        <time>2019-12-31T12:17:07.007Z</time>
      </trkpt>
      <trkpt lat="45.04147" lon="5.29962">
        <ele>218</ele>
        <time>2019-12-31T12:17:48.007Z</time>
      </trkpt>
      <trkpt lat="45.04146" lon="5.29957">
        <ele>218</ele>
        <time>2019-12-31T12:17:50.007Z</time>
      </trkpt>
      <trkpt lat="45.04145" lon="5.29951">
        <ele>219</ele>
        <time>2019-12-31T12:17:52.007Z</time>
      </trkpt>
      <trkpt lat="45.04143" lon="5.29943">
        <ele>219</ele>
        <time>2019-12-31T12:17:54.007Z</time>
      </trkpt>
      <trkpt lat="45.04141" lon="5.29935">
        <ele>219</ele>
        <time>2019-12-31T12:17:56.007Z</time>
      </trkpt>
      <trkpt lat="45.04138" lon="5.29928">
        <ele>219</ele>
        <time>2019-12-31T12:17:58.007Z</time>
      </trkpt>
      <trkpt lat="45.04136" lon="5.29919">
        <ele>219</ele>
        <time>2019-12-31T12:18:00.007Z</time>
      </trkpt>
      <trkpt lat="45.04134" lon="5.29911">
        <ele>220</ele>
        <time>2019-12-31T12:18:02.007Z</time>
      </trkpt>
      <trkpt lat="45.04132" lon="5.29903">
        <ele>220</ele>
        <time>2019-12-31T12:18:04.007Z</time>
      </trkpt>
      <trkpt lat="45.0413" lon="5.29896">
        <ele>220</ele>
        <time>2019-12-31T12:18:06.007Z</time>
      </trkpt>
      <trkpt lat="45.04128" lon="5.29888">
        <ele>220</ele>
        <time>2019-12-31T12:18:08.007Z</time>
      </trkpt>
      <trkpt lat="45.04127" lon="5.2988">
        <ele>220</ele>
        <time>2019-12-31T12:18:10.007Z</time>
      </trkpt>
      <trkpt lat="45.04125" lon="5.29873">
        <ele>221</ele>
        <time>2019-12-31T12:18:12.007Z</time>
      </trkpt>
      <trkpt lat="45.04124" lon="5.29866">
        <ele>221</ele>
        <time>2019-12-31T12:18:14.007Z</time>
      </trkpt>
      <trkpt lat="45.04123" lon="5.2986">
        <ele>221</ele>
        <time>2019-12-31T12:18:16.007Z</time>
      </trkpt>
      <trkpt lat="45.04123" lon="5.29854">
        <ele>221</ele>
        <time>2019-12-31T12:18:18.007Z</time>
      </trkpt>
      <trkpt lat="45.04122" lon="5.29848">
        <ele>221</ele>
        <time>2019-12-31T12:18:20.007Z</time>
      </trkpt>
      <trkpt lat="45.04122" lon="5.2984">
        <ele>223</ele>
        <time>2019-12-31T12:18:23.007Z</time>
      </trkpt>
      <trkpt lat="45.04122" lon="5.29832">
        <ele>223.7110144</ele>
        <time>2019-12-31T12:18:26.007Z</time>
      </trkpt>
      <trkpt lat="45.04123" lon="5.29824">
        <ele>226</ele>
        <time>2019-12-31T12:18:29.007Z</time>
      </trkpt>
      <trkpt lat="45.04123" lon="5.29818">
        <ele>226.4740096</ele>
        <time>2019-12-31T12:18:31.007Z</time>
      </trkpt>
      <trkpt lat="45.04122" lon="5.2981">
        <ele>228</ele>
        <time>2019-12-31T12:18:34.007Z</time>
      </trkpt>
      <trkpt lat="45.04119" lon="5.29795">
        <ele>229</ele>
        <time>2019-12-31T12:18:40.007Z</time>
      </trkpt>
      <trkpt lat="45.04116" lon="5.29781">
        <ele>229</ele>
        <time>2019-12-31T12:18:46.007Z</time>
      </trkpt>
      <trkpt lat="45.04112" lon="5.29767">
        <ele>231</ele>
        <time>2019-12-31T12:18:52.007Z</time>
      </trkpt>
      <trkpt lat="45.04111" lon="5.29756">
        <ele>231</ele>
        <time>2019-12-31T12:18:56.007Z</time>
      </trkpt>
      <trkpt lat="45.0411" lon="5.29747">
        <ele>231</ele>
        <time>2019-12-31T12:18:59.007Z</time>
      </trkpt>
      <trkpt lat="45.04107" lon="5.29736">
        <ele>234</ele>
        <time>2019-12-31T12:19:03.007Z</time>
      </trkpt>
      <trkpt lat="45.04106" lon="5.29724">
        <ele>236</ele>
        <time>2019-12-31T12:19:07.007Z</time>
      </trkpt>
      <trkpt lat="45.04105" lon="5.29716">
        <ele>236</ele>
        <time>2019-12-31T12:19:10.007Z</time>
      </trkpt>
      <trkpt lat="45.04105" lon="5.29712">
        <ele>236</ele>
        <time>2019-12-31T12:19:20.007Z</time>
      </trkpt>
      <trkpt lat="45.04103" lon="5.29707">
        <ele>236</ele>
        <time>2019-12-31T12:19:25.007Z</time>
      </trkpt>
      <trkpt lat="45.04099" lon="5.29705">
        <ele>236</ele>
        <time>2019-12-31T12:19:27.007Z</time>
      </trkpt>
      <trkpt lat="45.04094" lon="5.29704">
        <ele>236</ele>
        <time>2019-12-31T12:19:29.007Z</time>
      </trkpt>
      <trkpt lat="45.04088" lon="5.29703">
        <ele>236</ele>
        <time>2019-12-31T12:19:31.007Z</time>
      </trkpt>
      <trkpt lat="45.04082" lon="5.297">
        <ele>236</ele>
        <time>2019-12-31T12:19:33.007Z</time>
      </trkpt>
      <trkpt lat="45.04078" lon="5.29692">
        <ele>236</ele>
        <time>2019-12-31T12:19:35.007Z</time>
      </trkpt>
      <trkpt lat="45.04077" lon="5.29684">
        <ele>236</ele>
        <time>2019-12-31T12:19:37.007Z</time>
      </trkpt>
      <trkpt lat="45.04075" lon="5.29677">
        <ele>236</ele>
        <time>2019-12-31T12:19:39.007Z</time>
      </trkpt>
      <trkpt lat="45.04074" lon="5.29669">
        <ele>236.7110144</ele>
        <time>2019-12-31T12:19:41.007Z</time>
      </trkpt>
      <trkpt lat="45.04074" lon="5.29662">
        <ele>239</ele>
        <time>2019-12-31T12:19:43.007Z</time>
      </trkpt>
      <trkpt lat="45.04072" lon="5.29655">
        <ele>239</ele>
        <time>2019-12-31T12:19:45.007Z</time>
      </trkpt>
      <trkpt lat="45.04071" lon="5.29648">
        <ele>241</ele>
        <time>2019-12-31T12:19:47.007Z</time>
      </trkpt>
      <trkpt lat="45.04072" lon="5.29641">
        <ele>241</ele>
        <time>2019-12-31T12:19:49.007Z</time>
      </trkpt>
      <trkpt lat="45.04079" lon="5.29641">
        <ele>242</ele>
        <time>2019-12-31T12:19:52.007Z</time>
      </trkpt>
      <trkpt lat="45.04084" lon="5.29649">
        <ele>242</ele>
        <time>2019-12-31T12:19:55.007Z</time>
      </trkpt>
      <trkpt lat="45.04085" lon="5.29657">
        <ele>244</ele>
        <time>2019-12-31T12:19:57.007Z</time>
      </trkpt>
      <trkpt lat="45.04087" lon="5.29663">
        <ele>244</ele>
        <time>2019-12-31T12:19:59.007Z</time>
      </trkpt>
      <trkpt lat="45.0409" lon="5.29669">
        <ele>244.2370048</ele>
        <time>2019-12-31T12:20:01.007Z</time>
      </trkpt>
      <trkpt lat="45.04093" lon="5.29674">
        <ele>245</ele>
        <time>2019-12-31T12:20:03.007Z</time>
      </trkpt>
      <trkpt lat="45.041" lon="5.29677">
        <ele>245.2370048</ele>
        <time>2019-12-31T12:20:06.007Z</time>
      </trkpt>
      <trkpt lat="45.04108" lon="5.29677">
        <ele>246</ele>
        <time>2019-12-31T12:20:09.007Z</time>
      </trkpt>
      <trkpt lat="45.04115" lon="5.29676">
        <ele>247</ele>
        <time>2019-12-31T12:20:12.007Z</time>
      </trkpt>
      <trkpt lat="45.04123" lon="5.29675">
        <ele>247</ele>
        <time>2019-12-31T12:20:15.007Z</time>
      </trkpt>
      <trkpt lat="45.04131" lon="5.29673">
        <ele>247</ele>
        <time>2019-12-31T12:20:18.007Z</time>
      </trkpt>
      <trkpt lat="45.04139" lon="5.29673">
        <ele>247.2370048</ele>
        <time>2019-12-31T12:20:21.007Z</time>
      </trkpt>
      <trkpt lat="45.04148" lon="5.29672">
        <ele>248</ele>
        <time>2019-12-31T12:20:24.007Z</time>
      </trkpt>
      <trkpt lat="45.04157" lon="5.2967">
        <ele>248</ele>
        <time>2019-12-31T12:20:27.007Z</time>
      </trkpt>
      <trkpt lat="45.04167" lon="5.29664">
        <ele>248.7110144</ele>
        <time>2019-12-31T12:20:31.007Z</time>
      </trkpt>
      <trkpt lat="45.04171" lon="5.29652">
        <ele>251</ele>
        <time>2019-12-31T12:20:35.007Z</time>
      </trkpt>
      <trkpt lat="45.04166" lon="5.2964">
        <ele>254</ele>
        <time>2019-12-31T12:20:39.007Z</time>
      </trkpt>
      <trkpt lat="45.04163" lon="5.29635">
        <ele>254</ele>
        <time>2019-12-31T12:20:41.007Z</time>
      </trkpt>
      <trkpt lat="45.04162" lon="5.29628">
        <ele>254</ele>
        <time>2019-12-31T12:20:43.007Z</time>
      </trkpt>
      <trkpt lat="45.04162" lon="5.29621">
        <ele>254</ele>
        <time>2019-12-31T12:20:45.007Z</time>
      </trkpt>
      <trkpt lat="45.04163" lon="5.29615">
        <ele>255</ele>
        <time>2019-12-31T12:20:47.007Z</time>
      </trkpt>
      <trkpt lat="45.04164" lon="5.29608">
        <ele>255</ele>
        <time>2019-12-31T12:20:49.007Z</time>
      </trkpt>
      <trkpt lat="45.04165" lon="5.29602">
        <ele>255.4740096</ele>
        <time>2019-12-31T12:20:51.007Z</time>
      </trkpt>
      <trkpt lat="45.04166" lon="5.29596">
        <ele>257</ele>
        <time>2019-12-31T12:20:53.007Z</time>
      </trkpt>
      <trkpt lat="45.04167" lon="5.2959">
        <ele>257</ele>
        <time>2019-12-31T12:20:55.007Z</time>
      </trkpt>
      <trkpt lat="45.04168" lon="5.29584">
        <ele>259</ele>
        <time>2019-12-31T12:20:57.007Z</time>
      </trkpt>
      <trkpt lat="45.04169" lon="5.29579">
        <ele>259</ele>
        <time>2019-12-31T12:20:59.007Z</time>
      </trkpt>
      <trkpt lat="45.04169" lon="5.29573">
        <ele>259.2370048</ele>
        <time>2019-12-31T12:21:01.007Z</time>
      </trkpt>
      <trkpt lat="45.0417" lon="5.29568">
        <ele>260</ele>
        <time>2019-12-31T12:21:03.007Z</time>
      </trkpt>
      <trkpt lat="45.04171" lon="5.29563">
        <ele>260</ele>
        <time>2019-12-31T12:21:05.007Z</time>
      </trkpt>
      <trkpt lat="45.04172" lon="5.29558">
        <ele>262</ele>
        <time>2019-12-31T12:21:07.007Z</time>
      </trkpt>
      <trkpt lat="45.04172" lon="5.29554">
        <ele>262</ele>
        <time>2019-12-31T12:21:09.007Z</time>
      </trkpt>
      <trkpt lat="45.04174" lon="5.29549">
        <ele>262.4740096</ele>
        <time>2019-12-31T12:21:11.007Z</time>
      </trkpt>
      <trkpt lat="45.04175" lon="5.29544">
        <ele>264</ele>
        <time>2019-12-31T12:21:14.007Z</time>
      </trkpt>
      <trkpt lat="45.04177" lon="5.29538">
        <ele>265</ele>
        <time>2019-12-31T12:21:17.007Z</time>
      </trkpt>
      <trkpt lat="45.04178" lon="5.29532">
        <ele>265</ele>
        <time>2019-12-31T12:21:20.007Z</time>
      </trkpt>
      <trkpt lat="45.04176" lon="5.29525">
        <ele>266</ele>
        <time>2019-12-31T12:21:23.007Z</time>
      </trkpt>
      <trkpt lat="45.04176" lon="5.2952">
        <ele>266</ele>
        <time>2019-12-31T12:21:25.007Z</time>
      </trkpt>
      <trkpt lat="45.04176" lon="5.29514">
        <ele>268</ele>
        <time>2019-12-31T12:21:28.007Z</time>
      </trkpt>
      <trkpt lat="45.04176" lon="5.29508">
        <ele>268.4740096</ele>
        <time>2019-12-31T12:21:31.007Z</time>
      </trkpt>
      <trkpt lat="45.04176" lon="5.29502">
        <ele>270</ele>
        <time>2019-12-31T12:21:34.007Z</time>
      </trkpt>
      <trkpt lat="45.04176" lon="5.29496">
        <ele>272</ele>
        <time>2019-12-31T12:21:37.007Z</time>
      </trkpt>
      <trkpt lat="45.04176" lon="5.29492">
        <ele>272</ele>
        <time>2019-12-31T12:21:40.007Z</time>
      </trkpt>
      <trkpt lat="45.04177" lon="5.29487">
        <ele>273</ele>
        <time>2019-12-31T12:21:43.007Z</time>
      </trkpt>
      <trkpt lat="45.04178" lon="5.29482">
        <ele>273.2370048</ele>
        <time>2019-12-31T12:21:46.007Z</time>
      </trkpt>
      <trkpt lat="45.04178" lon="5.29478">
        <ele>274</ele>
        <time>2019-12-31T12:21:49.007Z</time>
      </trkpt>
      <trkpt lat="45.04178" lon="5.29473">
        <ele>276</ele>
        <time>2019-12-31T12:21:52.007Z</time>
      </trkpt>
      <trkpt lat="45.04177" lon="5.29468">
        <ele>276</ele>
        <time>2019-12-31T12:21:55.007Z</time>
      </trkpt>
      <trkpt lat="45.04177" lon="5.29462">
        <ele>276</ele>
        <time>2019-12-31T12:21:58.007Z</time>
      </trkpt>
      <trkpt lat="45.04177" lon="5.29456">
        <ele>276.7110144</ele>
        <time>2019-12-31T12:22:01.007Z</time>
      </trkpt>
      <trkpt lat="45.04177" lon="5.29451">
        <ele>279</ele>
        <time>2019-12-31T12:22:04.007Z</time>
      </trkpt>
      <trkpt lat="45.04177" lon="5.29446">
        <ele>279</ele>
        <time>2019-12-31T12:22:07.007Z</time>
      </trkpt>
      <trkpt lat="45.04177" lon="5.2944">
        <ele>279</ele>
        <time>2019-12-31T12:22:14.007Z</time>
      </trkpt>
      <trkpt lat="45.04177" lon="5.29433">
        <ele>279</ele>
        <time>2019-12-31T12:22:20.007Z</time>
      </trkpt>
      <trkpt lat="45.04175" lon="5.29426">
        <ele>281</ele>
        <time>2019-12-31T12:22:26.007Z</time>
      </trkpt>
      <trkpt lat="45.04175" lon="5.29419">
        <ele>284</ele>
        <time>2019-12-31T12:22:32.007Z</time>
      </trkpt>
      <trkpt lat="45.04175" lon="5.29412">
        <ele>285</ele>
        <time>2019-12-31T12:22:38.007Z</time>
      </trkpt>
      <trkpt lat="45.04174" lon="5.29405">
        <ele>286</ele>
        <time>2019-12-31T12:22:44.007Z</time>
      </trkpt>
      <trkpt lat="45.04173" lon="5.29398">
        <ele>287</ele>
        <time>2019-12-31T12:22:50.007Z</time>
      </trkpt>
      <trkpt lat="45.04173" lon="5.29392">
        <ele>288</ele>
        <time>2019-12-31T12:22:55.007Z</time>
      </trkpt>
      <trkpt lat="45.04174" lon="5.29386">
        <ele>288</ele>
        <time>2019-12-31T12:23:00.007Z</time>
      </trkpt>
      <trkpt lat="45.04173" lon="5.29379">
        <ele>290</ele>
        <time>2019-12-31T12:23:05.007Z</time>
      </trkpt>
      <trkpt lat="45.04172" lon="5.29373">
        <ele>290</ele>
        <time>2019-12-31T12:23:10.007Z</time>
      </trkpt>
      <trkpt lat="45.04173" lon="5.29366">
        <ele>291</ele>
        <time>2019-12-31T12:23:15.007Z</time>
      </trkpt>
      <trkpt lat="45.04172" lon="5.2936">
        <ele>291</ele>
        <time>2019-12-31T12:23:19.007Z</time>
      </trkpt>
      <trkpt lat="45.04172" lon="5.29355">
        <ele>293</ele>
        <time>2019-12-31T12:23:23.007Z</time>
      </trkpt>
      <trkpt lat="45.04171" lon="5.29347">
        <ele>293</ele>
        <time>2019-12-31T12:23:28.007Z</time>
      </trkpt>
      <trkpt lat="45.04171" lon="5.29341">
        <ele>295</ele>
        <time>2019-12-31T12:23:32.007Z</time>
      </trkpt>
      <trkpt lat="45.0417" lon="5.29333">
        <ele>295</ele>
        <time>2019-12-31T12:23:38.007Z</time>
      </trkpt>
      <trkpt lat="45.0417" lon="5.29326">
        <ele>297</ele>
        <time>2019-12-31T12:23:44.007Z</time>
      </trkpt>
      <trkpt lat="45.0417" lon="5.29318">
        <ele>297</ele>
        <time>2019-12-31T12:23:50.007Z</time>
      </trkpt>
      <trkpt lat="45.04166" lon="5.29312">
        <ele>298</ele>
        <time>2019-12-31T12:23:57.007Z</time>
      </trkpt>
      <trkpt lat="45.04162" lon="5.29308">
        <ele>298.2346589613</ele>
        <time>2019-12-31T12:24:01.007Z</time>
      </trkpt>
      <trkpt lat="45.04159" lon="5.29301">
        <ele>299</ele>
        <time>2019-12-31T12:24:05.007Z</time>
      </trkpt>
      <trkpt lat="45.04156" lon="5.29292">
        <ele>299</ele>
        <time>2019-12-31T12:24:08.007Z</time>
      </trkpt>
      <trkpt lat="45.04155" lon="5.29282">
        <ele>299</ele>
        <time>2019-12-31T12:24:10.007Z</time>
      </trkpt>
      <trkpt lat="45.04154" lon="5.29268">
        <ele>298</ele>
        <time>2019-12-31T12:24:12.007Z</time>
      </trkpt>
      <trkpt lat="45.04153" lon="5.29255">
        <ele>298</ele>
        <time>2019-12-31T12:24:14.007Z</time>
      </trkpt>
      <trkpt lat="45.04151" lon="5.29243">
        <ele>298</ele>
        <time>2019-12-31T12:24:17.007Z</time>
      </trkpt>
      <trkpt lat="45.04161" lon="5.2924">
        <ele>297</ele>
        <time>2019-12-31T12:24:40.007Z</time>
      </trkpt>
      <trkpt lat="45.04175" lon="5.29238">
        <ele>297</ele>
        <time>2019-12-31T12:24:44.007Z</time>
      </trkpt>
      <trkpt lat="45.04188" lon="5.29235">
        <ele>297</ele>
        <time>2019-12-31T12:24:47.007Z</time>
      </trkpt>
      <trkpt lat="45.04197" lon="5.29232">
        <ele>297</ele>
        <time>2019-12-31T12:24:49.007Z</time>
      </trkpt>
      <trkpt lat="45.0421" lon="5.29225">
        <ele>296</ele>
        <time>2019-12-31T12:24:52.007Z</time>
      </trkpt>
      <trkpt lat="45.04218" lon="5.29218">
        <ele>296</ele>
        <time>2019-12-31T12:24:54.007Z</time>
      </trkpt>
      <trkpt lat="45.04222" lon="5.29213">
        <ele>296</ele>
        <time>2019-12-31T12:24:55.007Z</time>
      </trkpt>
      <trkpt lat="45.04228" lon="5.29204">
        <ele>296</ele>
        <time>2019-12-31T12:24:57.007Z</time>
      </trkpt>
      <trkpt lat="45.04234" lon="5.29194">
        <ele>296</ele>
        <time>2019-12-31T12:24:59.007Z</time>
      </trkpt>
      <trkpt lat="45.04237" lon="5.2919">
        <ele>296</ele>
        <time>2019-12-31T12:25:00.007Z</time>
      </trkpt>
      <trkpt lat="45.0424" lon="5.29186">
        <ele>296.2370048</ele>
        <time>2019-12-31T12:25:01.007Z</time>
      </trkpt>
      <trkpt lat="45.04244" lon="5.29183">
        <ele>297</ele>
        <time>2019-12-31T12:25:02.007Z</time>
      </trkpt>
      <trkpt lat="45.04247" lon="5.29179">
        <ele>297</ele>
        <time>2019-12-31T12:25:03.007Z</time>
      </trkpt>
      <trkpt lat="45.04251" lon="5.29177">
        <ele>297</ele>
        <time>2019-12-31T12:25:04.007Z</time>
      </trkpt>
      <trkpt lat="45.04255" lon="5.29174">
        <ele>297</ele>
        <time>2019-12-31T12:25:05.007Z</time>
      </trkpt>
      <trkpt lat="45.04259" lon="5.29172">
        <ele>297</ele>
        <time>2019-12-31T12:25:06.007Z</time>
      </trkpt>
      <trkpt lat="45.04263" lon="5.2917">
        <ele>297</ele>
        <time>2019-12-31T12:25:07.007Z</time>
      </trkpt>
      <trkpt lat="45.04267" lon="5.29168">
        <ele>297</ele>
        <time>2019-12-31T12:25:08.007Z</time>
      </trkpt>
      <trkpt lat="45.04271" lon="5.29166">
        <ele>297</ele>
        <time>2019-12-31T12:25:09.007Z</time>
      </trkpt>
      <trkpt lat="45.04275" lon="5.29165">
        <ele>297</ele>
        <time>2019-12-31T12:25:10.007Z</time>
      </trkpt>
      <trkpt lat="45.04279" lon="5.29163">
        <ele>297.2370048</ele>
        <time>2019-12-31T12:25:11.007Z</time>
      </trkpt>
      <trkpt lat="45.04282" lon="5.29162">
        <ele>298</ele>
        <time>2019-12-31T12:25:12.007Z</time>
      </trkpt>
      <trkpt lat="45.04286" lon="5.2916">
        <ele>298</ele>
        <time>2019-12-31T12:25:13.007Z</time>
      </trkpt>
      <trkpt lat="45.0429" lon="5.29158">
        <ele>298</ele>
        <time>2019-12-31T12:25:14.007Z</time>
      </trkpt>
      <trkpt lat="45.04293" lon="5.29156">
        <ele>298</ele>
        <time>2019-12-31T12:25:15.007Z</time>
      </trkpt>
      <trkpt lat="45.04296" lon="5.29153">
        <ele>298</ele>
        <time>2019-12-31T12:25:16.007Z</time>
      </trkpt>
      <trkpt lat="45.04299" lon="5.2915">
        <ele>298</ele>
        <time>2019-12-31T12:25:17.007Z</time>
      </trkpt>
      <trkpt lat="45.04302" lon="5.29146">
        <ele>298</ele>
        <time>2019-12-31T12:25:18.007Z</time>
      </trkpt>
      <trkpt lat="45.04304" lon="5.29141">
        <ele>298</ele>
        <time>2019-12-31T12:25:19.007Z</time>
      </trkpt>
      <trkpt lat="45.04306" lon="5.29137">
        <ele>298</ele>
        <time>2019-12-31T12:25:20.007Z</time>
      </trkpt>
      <trkpt lat="45.04307" lon="5.29132">
        <ele>298.4740096</ele>
        <time>2019-12-31T12:25:21.007Z</time>
      </trkpt>
      <trkpt lat="45.04309" lon="5.29121">
        <ele>300</ele>
        <time>2019-12-31T12:25:23.007Z</time>
      </trkpt>
      <trkpt lat="45.0431" lon="5.29115">
        <ele>300</ele>
        <time>2019-12-31T12:25:24.007Z</time>
      </trkpt>
      <trkpt lat="45.0431" lon="5.29109">
        <ele>300</ele>
        <time>2019-12-31T12:25:25.007Z</time>
      </trkpt>
      <trkpt lat="45.04311" lon="5.29103">
        <ele>300</ele>
        <time>2019-12-31T12:25:26.007Z</time>
      </trkpt>
      <trkpt lat="45.04311" lon="5.29097">
        <ele>300</ele>
        <time>2019-12-31T12:25:27.007Z</time>
      </trkpt>
      <trkpt lat="45.04312" lon="5.29091">
        <ele>300</ele>
        <time>2019-12-31T12:25:28.007Z</time>
      </trkpt>
      <trkpt lat="45.04313" lon="5.29086">
        <ele>300</ele>
        <time>2019-12-31T12:25:29.007Z</time>
      </trkpt>
      <trkpt lat="45.04315" lon="5.2908">
        <ele>300</ele>
        <time>2019-12-31T12:25:30.007Z</time>
      </trkpt>
      <trkpt lat="45.04318" lon="5.2907">
        <ele>302</ele>
        <time>2019-12-31T12:25:32.007Z</time>
      </trkpt>
      <trkpt lat="45.04326" lon="5.29066">
        <ele>302</ele>
        <time>2019-12-31T12:25:34.007Z</time>
      </trkpt>
      <trkpt lat="45.04335" lon="5.29067">
        <ele>302</ele>
        <time>2019-12-31T12:25:36.007Z</time>
      </trkpt>
      <trkpt lat="45.0434" lon="5.29069">
        <ele>302</ele>
        <time>2019-12-31T12:25:37.007Z</time>
      </trkpt>
      <trkpt lat="45.04345" lon="5.2907">
        <ele>302</ele>
        <time>2019-12-31T12:25:38.007Z</time>
      </trkpt>
      <trkpt lat="45.04349" lon="5.29071">
        <ele>302</ele>
        <time>2019-12-31T12:25:39.007Z</time>
      </trkpt>
      <trkpt lat="45.04362" lon="5.29072">
        <ele>303</ele>
        <time>2019-12-31T12:25:42.007Z</time>
      </trkpt>
      <trkpt lat="45.04374" lon="5.29068">
        <ele>303</ele>
        <time>2019-12-31T12:25:45.007Z</time>
      </trkpt>
      <trkpt lat="45.04385" lon="5.29061">
        <ele>303</ele>
        <time>2019-12-31T12:25:48.007Z</time>
      </trkpt>
      <trkpt lat="45.04396" lon="5.29053">
        <ele>303.2370048</ele>
        <time>2019-12-31T12:25:51.007Z</time>
      </trkpt>
      <trkpt lat="45.04406" lon="5.29046">
        <ele>304</ele>
        <time>2019-12-31T12:25:54.007Z</time>
      </trkpt>
      <trkpt lat="45.04416" lon="5.29038">
        <ele>304</ele>
        <time>2019-12-31T12:25:57.007Z</time>
      </trkpt>
      <trkpt lat="45.04425" lon="5.29031">
        <ele>304</ele>
        <time>2019-12-31T12:26:00.007Z</time>
      </trkpt>
      <trkpt lat="45.04437" lon="5.2903">
        <ele>309</ele>
        <time>2019-12-31T12:26:03.007Z</time>
      </trkpt>
      <trkpt lat="45.04448" lon="5.2904">
        <ele>309</ele>
        <time>2019-12-31T12:26:06.007Z</time>
      </trkpt>
      <trkpt lat="45.04456" lon="5.29053">
        <ele>309</ele>
        <time>2019-12-31T12:26:09.007Z</time>
      </trkpt>
      <trkpt lat="45.04465" lon="5.29064">
        <ele>309</ele>
        <time>2019-12-31T12:26:12.007Z</time>
      </trkpt>
      <trkpt lat="45.04475" lon="5.29076">
        <ele>309</ele>
        <time>2019-12-31T12:26:15.007Z</time>
      </trkpt>
      <trkpt lat="45.04487" lon="5.29084">
        <ele>309</ele>
        <time>2019-12-31T12:26:18.007Z</time>
      </trkpt>
      <trkpt lat="45.04497" lon="5.29089">
        <ele>309.2370048</ele>
        <time>2019-12-31T12:26:21.007Z</time>
      </trkpt>
      <trkpt lat="45.04507" lon="5.29088">
        <ele>310</ele>
        <time>2019-12-31T12:26:24.007Z</time>
      </trkpt>
      <trkpt lat="45.04513" lon="5.29085">
        <ele>310</ele>
        <time>2019-12-31T12:26:26.007Z</time>
      </trkpt>
      <trkpt lat="45.04521" lon="5.29078">
        <ele>310</ele>
        <time>2019-12-31T12:26:29.007Z</time>
      </trkpt>
      <trkpt lat="45.04525" lon="5.29071">
        <ele>310.9480192</ele>
        <time>2019-12-31T12:26:31.007Z</time>
      </trkpt>
      <trkpt lat="45.04528" lon="5.29061">
        <ele>314</ele>
        <time>2019-12-31T12:26:34.007Z</time>
      </trkpt>
      <trkpt lat="45.04529" lon="5.29049">
        <ele>316</ele>
        <time>2019-12-31T12:26:37.007Z</time>
      </trkpt>
      <trkpt lat="45.04527" lon="5.29035">
        <ele>316</ele>
        <time>2019-12-31T12:26:40.007Z</time>
      </trkpt>
      <trkpt lat="45.04526" lon="5.29022">
        <ele>318</ele>
        <time>2019-12-31T12:26:43.007Z</time>
      </trkpt>
      <trkpt lat="45.04526" lon="5.29013">
        <ele>318</ele>
        <time>2019-12-31T12:26:45.007Z</time>
      </trkpt>
      <trkpt lat="45.04526" lon="5.29005">
        <ele>321</ele>
        <time>2019-12-31T12:26:47.007Z</time>
      </trkpt>
      <trkpt lat="45.04526" lon="5.28997">
        <ele>321</ele>
        <time>2019-12-31T12:26:49.007Z</time>
      </trkpt>
      <trkpt lat="45.04526" lon="5.2899">
        <ele>321.4740096</ele>
        <time>2019-12-31T12:26:51.007Z</time>
      </trkpt>
      <trkpt lat="45.04527" lon="5.28983">
        <ele>323.2370048</ele>
        <time>2019-12-31T12:26:53.007Z</time>
      </trkpt>
      <trkpt lat="45.04526" lon="5.28976">
        <ele>324</ele>
        <time>2019-12-31T12:26:55.007Z</time>
      </trkpt>
      <trkpt lat="45.04527" lon="5.28969">
        <ele>325</ele>
        <time>2019-12-31T12:26:57.007Z</time>
      </trkpt>
      <trkpt lat="45.04527" lon="5.28962">
        <ele>326</ele>
        <time>2019-12-31T12:26:59.007Z</time>
      </trkpt>
      <trkpt lat="45.04526" lon="5.28956">
        <ele>327</ele>
        <time>2019-12-31T12:27:01.007Z</time>
      </trkpt>
      <trkpt lat="45.04526" lon="5.2895">
        <ele>327</ele>
        <time>2019-12-31T12:27:03.007Z</time>
      </trkpt>
      <trkpt lat="45.04526" lon="5.28943">
        <ele>327</ele>
        <time>2019-12-31T12:27:05.007Z</time>
      </trkpt>
      <trkpt lat="45.04527" lon="5.28937">
        <ele>328</ele>
        <time>2019-12-31T12:27:07.007Z</time>
      </trkpt>
      <trkpt lat="45.04526" lon="5.28931">
        <ele>328</ele>
        <time>2019-12-31T12:27:09.007Z</time>
      </trkpt>
      <trkpt lat="45.04526" lon="5.28925">
        <ele>328.4740096</ele>
        <time>2019-12-31T12:27:11.007Z</time>
      </trkpt>
      <trkpt lat="45.04526" lon="5.28919">
        <ele>330</ele>
        <time>2019-12-31T12:27:13.007Z</time>
      </trkpt>
      <trkpt lat="45.04526" lon="5.28912">
        <ele>330</ele>
        <time>2019-12-31T12:27:15.007Z</time>
      </trkpt>
      <trkpt lat="45.04526" lon="5.28906">
        <ele>332</ele>
        <time>2019-12-31T12:27:17.007Z</time>
      </trkpt>
      <trkpt lat="45.04525" lon="5.289">
        <ele>332</ele>
        <time>2019-12-31T12:27:19.007Z</time>
      </trkpt>
      <trkpt lat="45.04526" lon="5.2889">
        <ele>334</ele>
        <time>2019-12-31T12:27:22.007Z</time>
      </trkpt>
      <trkpt lat="45.04527" lon="5.2888">
        <ele>334</ele>
        <time>2019-12-31T12:27:25.007Z</time>
      </trkpt>
      <trkpt lat="45.04531" lon="5.28873">
        <ele>335</ele>
        <time>2019-12-31T12:27:28.007Z</time>
      </trkpt>
      <trkpt lat="45.04534" lon="5.28868">
        <ele>335</ele>
        <time>2019-12-31T12:27:30.007Z</time>
      </trkpt>
      <trkpt lat="45.04538" lon="5.28865">
        <ele>337</ele>
        <time>2019-12-31T12:27:32.007Z</time>
      </trkpt>
      <trkpt lat="45.04541" lon="5.28861">
        <ele>337</ele>
        <time>2019-12-31T12:27:34.007Z</time>
      </trkpt>
      <trkpt lat="45.04545" lon="5.28858">
        <ele>337.4740096</ele>
        <time>2019-12-31T12:27:36.007Z</time>
      </trkpt>
      <trkpt lat="45.04549" lon="5.28854">
        <ele>339</ele>
        <time>2019-12-31T12:27:39.007Z</time>
      </trkpt>
      <trkpt lat="45.04552" lon="5.28851">
        <ele>339.2370048</ele>
        <time>2019-12-31T12:27:41.007Z</time>
      </trkpt>
      <trkpt lat="45.04558" lon="5.28843">
        <ele>340</ele>
        <time>2019-12-31T12:27:45.007Z</time>
      </trkpt>
      <trkpt lat="45.04564" lon="5.28839">
        <ele>342</ele>
        <time>2019-12-31T12:27:49.007Z</time>
      </trkpt>
      <trkpt lat="45.0457" lon="5.28835">
        <ele>344</ele>
        <time>2019-12-31T12:27:52.007Z</time>
      </trkpt>
      <trkpt lat="45.04575" lon="5.2883">
        <ele>344</ele>
        <time>2019-12-31T12:27:55.007Z</time>
      </trkpt>
      <trkpt lat="45.0458" lon="5.28826">
        <ele>346</ele>
        <time>2019-12-31T12:27:58.007Z</time>
      </trkpt>
      <trkpt lat="45.04585" lon="5.2882">
        <ele>346.2370048</ele>
        <time>2019-12-31T12:28:01.007Z</time>
      </trkpt>
      <trkpt lat="45.04591" lon="5.28814">
        <ele>347</ele>
        <time>2019-12-31T12:28:04.007Z</time>
      </trkpt>
      <trkpt lat="45.04596" lon="5.28807">
        <ele>348</ele>
        <time>2019-12-31T12:28:07.007Z</time>
      </trkpt>
      <trkpt lat="45.04602" lon="5.28799">
        <ele>348.4740096</ele>
        <time>2019-12-31T12:28:11.007Z</time>
      </trkpt>
      <trkpt lat="45.04607" lon="5.2879">
        <ele>350</ele>
        <time>2019-12-31T12:28:14.007Z</time>
      </trkpt>
      <trkpt lat="45.04616" lon="5.2878">
        <ele>351</ele>
        <time>2019-12-31T12:28:19.007Z</time>
      </trkpt>
      <trkpt lat="45.04615" lon="5.28773">
        <ele>351</ele>
        <time>2019-12-31T12:28:24.007Z</time>
      </trkpt>
      <trkpt lat="45.0461" lon="5.28774">
        <ele>351</ele>
        <time>2019-12-31T12:28:28.007Z</time>
      </trkpt>
      <trkpt lat="45.04604" lon="5.28775">
        <ele>352</ele>
        <time>2019-12-31T12:28:32.007Z</time>
      </trkpt>
      <trkpt lat="45.04597" lon="5.28778">
        <ele>352</ele>
        <time>2019-12-31T12:28:36.007Z</time>
      </trkpt>
      <trkpt lat="45.04592" lon="5.2878">
        <ele>352</ele>
        <time>2019-12-31T12:28:39.007Z</time>
      </trkpt>
      <trkpt lat="45.04587" lon="5.28782">
        <ele>354</ele>
        <time>2019-12-31T12:28:42.007Z</time>
      </trkpt>
      <trkpt lat="45.04582" lon="5.28783">
        <ele>354</ele>
        <time>2019-12-31T12:28:45.007Z</time>
      </trkpt>
      <trkpt lat="45.04577" lon="5.28785">
        <ele>354</ele>
        <time>2019-12-31T12:28:48.007Z</time>
      </trkpt>
      <trkpt lat="45.04573" lon="5.28785">
        <ele>354.7110144</ele>
        <time>2019-12-31T12:28:51.007Z</time>
      </trkpt>
      <trkpt lat="45.04568" lon="5.28785">
        <ele>357</ele>
        <time>2019-12-31T12:28:54.007Z</time>
      </trkpt>
      <trkpt lat="45.04564" lon="5.28786">
        <ele>360</ele>
        <time>2019-12-31T12:28:57.007Z</time>
      </trkpt>
      <trkpt lat="45.04556" lon="5.28779">
        <ele>361</ele>
        <time>2019-12-31T12:29:03.007Z</time>
      </trkpt>
      <trkpt lat="45.0455" lon="5.28771">
        <ele>361</ele>
        <time>2019-12-31T12:29:09.007Z</time>
      </trkpt>
      <trkpt lat="45.04545" lon="5.2877">
        <ele>362</ele>
        <time>2019-12-31T12:29:12.007Z</time>
      </trkpt>
      <trkpt lat="45.04541" lon="5.28768">
        <ele>362</ele>
        <time>2019-12-31T12:29:16.007Z</time>
      </trkpt>
      <trkpt lat="45.04536" lon="5.28767">
        <ele>362</ele>
        <time>2019-12-31T12:29:20.007Z</time>
      </trkpt>
      <trkpt lat="45.0453" lon="5.28766">
        <ele>364</ele>
        <time>2019-12-31T12:29:28.007Z</time>
      </trkpt>
      <trkpt lat="45.04524" lon="5.28764">
        <ele>366</ele>
        <time>2019-12-31T12:29:35.007Z</time>
      </trkpt>
      <trkpt lat="45.0452" lon="5.28763">
        <ele>368</ele>
        <time>2019-12-31T12:29:41.007Z</time>
      </trkpt>
      <trkpt lat="45.04515" lon="5.2876">
        <ele>367</ele>
        <time>2019-12-31T12:29:47.007Z</time>
      </trkpt>
      <trkpt lat="45.04508" lon="5.28754">
        <ele>368</ele>
        <time>2019-12-31T12:29:59.007Z</time>
      </trkpt>
      <trkpt lat="45.04502" lon="5.28751">
        <ele>370</ele>
        <time>2019-12-31T12:30:09.007Z</time>
      </trkpt>
      <trkpt lat="45.04497" lon="5.28748">
        <ele>370</ele>
        <time>2019-12-31T12:30:16.007Z</time>
      </trkpt>
      <trkpt lat="45.04492" lon="5.28743">
        <ele>372</ele>
        <time>2019-12-31T12:30:24.007Z</time>
      </trkpt>
      <trkpt lat="45.04487" lon="5.28738">
        <ele>373</ele>
        <time>2019-12-31T12:30:32.007Z</time>
      </trkpt>
      <trkpt lat="45.04481" lon="5.28733">
        <ele>373</ele>
        <time>2019-12-31T12:30:40.007Z</time>
      </trkpt>
      <trkpt lat="45.04476" lon="5.28726">
        <ele>375</ele>
        <time>2019-12-31T12:30:47.007Z</time>
      </trkpt>
      <trkpt lat="45.04471" lon="5.2872">
        <ele>377</ele>
        <time>2019-12-31T12:30:53.007Z</time>
      </trkpt>
      <trkpt lat="45.04467" lon="5.28712">
        <ele>378.2370048</ele>
        <time>2019-12-31T12:31:01.007Z</time>
      </trkpt>
      <trkpt lat="45.04462" lon="5.28706">
        <ele>379</ele>
        <time>2019-12-31T12:31:09.007Z</time>
      </trkpt>
      <trkpt lat="45.04458" lon="5.28698">
        <ele>381</ele>
        <time>2019-12-31T12:31:19.007Z</time>
      </trkpt>
      <trkpt lat="45.04453" lon="5.28693">
        <ele>382</ele>
        <time>2019-12-31T12:31:23.007Z</time>
      </trkpt>
      <trkpt lat="45.04447" lon="5.28686">
        <ele>382</ele>
        <time>2019-12-31T12:31:27.007Z</time>
      </trkpt>
      <trkpt lat="45.04443" lon="5.28681">
        <ele>382</ele>
        <time>2019-12-31T12:31:30.007Z</time>
      </trkpt>
      <trkpt lat="45.04439" lon="5.28676">
        <ele>385</ele>
        <time>2019-12-31T12:31:33.007Z</time>
      </trkpt>
      <trkpt lat="45.04435" lon="5.28671">
        <ele>385.2370048</ele>
        <time>2019-12-31T12:31:36.007Z</time>
      </trkpt>
      <trkpt lat="45.04432" lon="5.28668">
        <ele>386</ele>
        <time>2019-12-31T12:31:39.007Z</time>
      </trkpt>
      <trkpt lat="45.04427" lon="5.28663">
        <ele>387</ele>
        <time>2019-12-31T12:31:43.007Z</time>
      </trkpt>
      <trkpt lat="45.04425" lon="5.28656">
        <ele>387.4740096</ele>
        <time>2019-12-31T12:31:46.007Z</time>
      </trkpt>
      <trkpt lat="45.04423" lon="5.2865">
        <ele>389</ele>
        <time>2019-12-31T12:31:49.007Z</time>
      </trkpt>
      <trkpt lat="45.04421" lon="5.28644">
        <ele>390</ele>
        <time>2019-12-31T12:31:52.007Z</time>
      </trkpt>
      <trkpt lat="45.04419" lon="5.28637">
        <ele>390</ele>
        <time>2019-12-31T12:31:55.007Z</time>
      </trkpt>
      <trkpt lat="45.04417" lon="5.28631">
        <ele>392</ele>
        <time>2019-12-31T12:31:58.007Z</time>
      </trkpt>
      <trkpt lat="45.04414" lon="5.28623">
        <ele>393</ele>
        <time>2019-12-31T12:32:02.007Z</time>
      </trkpt>
      <trkpt lat="45.04412" lon="5.28617">
        <ele>393</ele>
        <time>2019-12-31T12:32:05.007Z</time>
      </trkpt>
      <trkpt lat="45.0441" lon="5.28611">
        <ele>393</ele>
        <time>2019-12-31T12:32:08.007Z</time>
      </trkpt>
      <trkpt lat="45.04408" lon="5.28604">
        <ele>395</ele>
        <time>2019-12-31T12:32:12.007Z</time>
      </trkpt>
      <trkpt lat="45.04406" lon="5.28597">
        <ele>395.4740096</ele>
        <time>2019-12-31T12:32:16.007Z</time>
      </trkpt>
      <trkpt lat="45.04403" lon="5.2859">
        <ele>397.4740096</ele>
        <time>2019-12-31T12:32:21.007Z</time>
      </trkpt>
      <trkpt lat="45.04401" lon="5.28583">
        <ele>399</ele>
        <time>2019-12-31T12:32:25.007Z</time>
      </trkpt>
      <trkpt lat="45.04399" lon="5.28576">
        <ele>400</ele>
        <time>2019-12-31T12:32:29.007Z</time>
      </trkpt>
      <trkpt lat="45.04397" lon="5.28569">
        <ele>401</ele>
        <time>2019-12-31T12:32:33.007Z</time>
      </trkpt>
      <trkpt lat="45.04395" lon="5.28564">
        <ele>403</ele>
        <time>2019-12-31T12:32:37.007Z</time>
      </trkpt>
      <trkpt lat="45.04393" lon="5.28558">
        <ele>403</ele>
        <time>2019-12-31T12:32:40.007Z</time>
      </trkpt>
      <trkpt lat="45.04391" lon="5.28563">
        <ele>404</ele>
        <time>2019-12-31T12:33:34.007Z</time>
      </trkpt>
      <trkpt lat="45.04388" lon="5.28569">
        <ele>404</ele>
        <time>2019-12-31T12:33:36.007Z</time>
      </trkpt>
      <trkpt lat="45.04384" lon="5.28576">
        <ele>404</ele>
        <time>2019-12-31T12:33:38.007Z</time>
      </trkpt>
      <trkpt lat="45.0438" lon="5.2858">
        <ele>404</ele>
        <time>2019-12-31T12:33:39.007Z</time>
      </trkpt>
      <trkpt lat="45.04375" lon="5.28583">
        <ele>404</ele>
        <time>2019-12-31T12:33:40.007Z</time>
      </trkpt>
      <trkpt lat="45.0437" lon="5.28587">
        <ele>403.2889856</ele>
        <time>2019-12-31T12:33:41.007Z</time>
      </trkpt>
      <trkpt lat="45.04364" lon="5.28591">
        <ele>401</ele>
        <time>2019-12-31T12:33:42.007Z</time>
      </trkpt>
      <trkpt lat="45.04358" lon="5.28594">
        <ele>401</ele>
        <time>2019-12-31T12:33:43.007Z</time>
      </trkpt>
      <trkpt lat="45.04353" lon="5.28596">
        <ele>401</ele>
        <time>2019-12-31T12:33:44.007Z</time>
      </trkpt>
      <trkpt lat="45.04348" lon="5.28596">
        <ele>401</ele>
        <time>2019-12-31T12:33:45.007Z</time>
      </trkpt>
      <trkpt lat="45.04338" lon="5.28599">
        <ele>398</ele>
        <time>2019-12-31T12:33:47.007Z</time>
      </trkpt>
      <trkpt lat="45.04328" lon="5.28611">
        <ele>398</ele>
        <time>2019-12-31T12:33:49.007Z</time>
      </trkpt>
      <trkpt lat="45.04317" lon="5.28627">
        <ele>396.5779712</ele>
        <time>2019-12-31T12:33:51.007Z</time>
      </trkpt>
      <trkpt lat="45.04313" lon="5.28636">
        <ele>391.29603203772</ele>
        <time>2019-12-31T12:33:52.007Z</time>
      </trkpt>
      <trkpt lat="45.04308" lon="5.28643">
        <ele>388.77070969577</ele>
        <time>2019-12-31T12:33:53.007Z</time>
      </trkpt>
      <trkpt lat="45.04296" lon="5.28654">
        <ele>386</ele>
        <time>2019-12-31T12:33:55.007Z</time>
      </trkpt>
      <trkpt lat="45.04289" lon="5.28658">
        <ele>386</ele>
        <time>2019-12-31T12:33:56.007Z</time>
      </trkpt>
      <trkpt lat="45.04275" lon="5.28663">
        <ele>384.76534401257</ele>
        <time>2019-12-31T12:33:58.007Z</time>
      </trkpt>
      <trkpt lat="45.04265" lon="5.28669">
        <ele>384</ele>
        <time>2019-12-31T12:34:00.007Z</time>
      </trkpt>
      <trkpt lat="45.04258" lon="5.28667">
        <ele>383</ele>
        <time>2019-12-31T12:34:04.007Z</time>
      </trkpt>
      <trkpt lat="45.04252" lon="5.28666">
        <ele>383</ele>
        <time>2019-12-31T12:34:33.007Z</time>
      </trkpt>
      <trkpt lat="45.04245" lon="5.28669">
        <ele>383</ele>
        <time>2019-12-31T12:34:36.007Z</time>
      </trkpt>
      <trkpt lat="45.04238" lon="5.28673">
        <ele>383</ele>
        <time>2019-12-31T12:34:39.007Z</time>
      </trkpt>
      <trkpt lat="45.0423" lon="5.28678">
        <ele>384</ele>
        <time>2019-12-31T12:34:42.007Z</time>
      </trkpt>
      <trkpt lat="45.04222" lon="5.28681">
        <ele>384</ele>
        <time>2019-12-31T12:34:45.007Z</time>
      </trkpt>
      <trkpt lat="45.04213" lon="5.28686">
        <ele>384</ele>
        <time>2019-12-31T12:34:48.007Z</time>
      </trkpt>
      <trkpt lat="45.04207" lon="5.28689">
        <ele>384</ele>
        <time>2019-12-31T12:34:50.007Z</time>
      </trkpt>
      <trkpt lat="45.04199" lon="5.28693">
        <ele>386</ele>
        <time>2019-12-31T12:34:52.007Z</time>
      </trkpt>
      <trkpt lat="45.04193" lon="5.28695">
        <ele>386</ele>
        <time>2019-12-31T12:34:54.007Z</time>
      </trkpt>
      <trkpt lat="45.04186" lon="5.28698">
        <ele>386</ele>
        <time>2019-12-31T12:34:56.007Z</time>
      </trkpt>
      <trkpt lat="45.0418" lon="5.28702">
        <ele>386</ele>
        <time>2019-12-31T12:34:58.007Z</time>
      </trkpt>
      <trkpt lat="45.04175" lon="5.28706">
        <ele>386</ele>
        <time>2019-12-31T12:35:00.007Z</time>
      </trkpt>
      <trkpt lat="45.04169" lon="5.28708">
        <ele>385</ele>
        <time>2019-12-31T12:35:02.007Z</time>
      </trkpt>
      <trkpt lat="45.04163" lon="5.28711">
        <ele>385</ele>
        <time>2019-12-31T12:35:04.007Z</time>
      </trkpt>
      <trkpt lat="45.04157" lon="5.28714">
        <ele>385</ele>
        <time>2019-12-31T12:35:06.007Z</time>
      </trkpt>
      <trkpt lat="45.04151" lon="5.28713">
        <ele>385</ele>
        <time>2019-12-31T12:35:08.007Z</time>
      </trkpt>
      <trkpt lat="45.04145" lon="5.28713">
        <ele>385</ele>
        <time>2019-12-31T12:35:10.007Z</time>
      </trkpt>
      <trkpt lat="45.0414" lon="5.28712">
        <ele>386</ele>
        <time>2019-12-31T12:35:12.007Z</time>
      </trkpt>
      <trkpt lat="45.04134" lon="5.28712">
        <ele>386</ele>
        <time>2019-12-31T12:35:14.007Z</time>
      </trkpt>
      <trkpt lat="45.04129" lon="5.28711">
        <ele>386</ele>
        <time>2019-12-31T12:35:16.007Z</time>
      </trkpt>
      <trkpt lat="45.04123" lon="5.28709">
        <ele>386</ele>
        <time>2019-12-31T12:35:18.007Z</time>
      </trkpt>
      <trkpt lat="45.04118" lon="5.28708">
        <ele>386</ele>
        <time>2019-12-31T12:35:20.007Z</time>
      </trkpt>
      <trkpt lat="45.04113" lon="5.28707">
        <ele>389</ele>
        <time>2019-12-31T12:35:22.007Z</time>
      </trkpt>
      <trkpt lat="45.04107" lon="5.28707">
        <ele>389</ele>
        <time>2019-12-31T12:35:25.007Z</time>
      </trkpt>
      <trkpt lat="45.041" lon="5.28706">
        <ele>389</ele>
        <time>2019-12-31T12:35:28.007Z</time>
      </trkpt>
      <trkpt lat="45.04092" lon="5.28705">
        <ele>389.23235618914</ele>
        <time>2019-12-31T12:35:31.007Z</time>
      </trkpt>
      <trkpt lat="45.04086" lon="5.28702">
        <ele>390</ele>
        <time>2019-12-31T12:35:33.007Z</time>
      </trkpt>
      <trkpt lat="45.0408" lon="5.28698">
        <ele>390</ele>
        <time>2019-12-31T12:35:35.007Z</time>
      </trkpt>
      <trkpt lat="45.04075" lon="5.28692">
        <ele>390</ele>
        <time>2019-12-31T12:35:37.007Z</time>
      </trkpt>
      <trkpt lat="45.04068" lon="5.28686">
        <ele>390</ele>
        <time>2019-12-31T12:35:40.007Z</time>
      </trkpt>
      <trkpt lat="45.0406" lon="5.28679">
        <ele>390</ele>
        <time>2019-12-31T12:35:43.007Z</time>
      </trkpt>
      <trkpt lat="45.04054" lon="5.28674">
        <ele>390</ele>
        <time>2019-12-31T12:35:46.007Z</time>
      </trkpt>
      <trkpt lat="45.04047" lon="5.28669">
        <ele>390</ele>
        <time>2019-12-31T12:35:49.007Z</time>
      </trkpt>
      <trkpt lat="45.04042" lon="5.28664">
        <ele>390</ele>
        <time>2019-12-31T12:35:52.007Z</time>
      </trkpt>
      <trkpt lat="45.04036" lon="5.28659">
        <ele>390</ele>
        <time>2019-12-31T12:35:55.007Z</time>
      </trkpt>
      <trkpt lat="45.04029" lon="5.28656">
        <ele>390</ele>
        <time>2019-12-31T12:35:58.007Z</time>
      </trkpt>
      <trkpt lat="45.04024" lon="5.28653">
        <ele>390.2370048</ele>
        <time>2019-12-31T12:36:01.007Z</time>
      </trkpt>
      <trkpt lat="45.04019" lon="5.28648">
        <ele>391</ele>
        <time>2019-12-31T12:36:05.007Z</time>
      </trkpt>
      <trkpt lat="45.04015" lon="5.28642">
        <ele>391</ele>
        <time>2019-12-31T12:36:08.007Z</time>
      </trkpt>
      <trkpt lat="45.0401" lon="5.28638">
        <ele>391</ele>
        <time>2019-12-31T12:36:11.007Z</time>
      </trkpt>
      <trkpt lat="45.04005" lon="5.28635">
        <ele>391</ele>
        <time>2019-12-31T12:36:14.007Z</time>
      </trkpt>
      <trkpt lat="45.04" lon="5.28633">
        <ele>391</ele>
        <time>2019-12-31T12:36:17.007Z</time>
      </trkpt>
      <trkpt lat="45.0399" lon="5.28626">
        <ele>392</ele>
        <time>2019-12-31T12:36:23.007Z</time>
      </trkpt>
      <trkpt lat="45.03985" lon="5.28621">
        <ele>392</ele>
        <time>2019-12-31T12:36:26.007Z</time>
      </trkpt>
      <trkpt lat="45.0398" lon="5.28614">
        <ele>392</ele>
        <time>2019-12-31T12:36:29.007Z</time>
      </trkpt>
      <trkpt lat="45.03976" lon="5.28604">
        <ele>391.7629952</ele>
        <time>2019-12-31T12:36:31.007Z</time>
      </trkpt>
      <trkpt lat="45.03971" lon="5.28593">
        <ele>391</ele>
        <time>2019-12-31T12:36:33.007Z</time>
      </trkpt>
      <trkpt lat="45.03965" lon="5.28582">
        <ele>391</ele>
        <time>2019-12-31T12:36:35.007Z</time>
      </trkpt>
      <trkpt lat="45.03958" lon="5.28574">
        <ele>391</ele>
        <time>2019-12-31T12:36:37.007Z</time>
      </trkpt>
      <trkpt lat="45.03952" lon="5.28566">
        <ele>391</ele>
        <time>2019-12-31T12:36:39.007Z</time>
      </trkpt>
      <trkpt lat="45.03947" lon="5.28557">
        <ele>390.5259904</ele>
        <time>2019-12-31T12:36:41.007Z</time>
      </trkpt>
      <trkpt lat="45.03941" lon="5.28546">
        <ele>389</ele>
        <time>2019-12-31T12:36:43.007Z</time>
      </trkpt>
      <trkpt lat="45.03934" lon="5.28535">
        <ele>389</ele>
        <time>2019-12-31T12:36:45.007Z</time>
      </trkpt>
      <trkpt lat="45.03926" lon="5.28523">
        <ele>384</ele>
        <time>2019-12-31T12:36:47.007Z</time>
      </trkpt>
      <trkpt lat="45.03919" lon="5.28513">
        <ele>384</ele>
        <time>2019-12-31T12:36:49.007Z</time>
      </trkpt>
      <trkpt lat="45.03911" lon="5.28501">
        <ele>383.5259904</ele>
        <time>2019-12-31T12:36:51.007Z</time>
      </trkpt>
      <trkpt lat="45.03902" lon="5.28493">
        <ele>382</ele>
        <time>2019-12-31T12:36:53.007Z</time>
      </trkpt>
      <trkpt lat="45.03893" lon="5.28489">
        <ele>380.7629952</ele>
        <time>2019-12-31T12:36:55.007Z</time>
      </trkpt>
      <trkpt lat="45.03884" lon="5.28479">
        <ele>379.76534401257</ele>
        <time>2019-12-31T12:36:58.007Z</time>
      </trkpt>
      <trkpt lat="45.03877" lon="5.2847">
        <ele>378</ele>
        <time>2019-12-31T12:37:00.007Z</time>
      </trkpt>
      <trkpt lat="45.0387" lon="5.28462">
        <ele>378</ele>
        <time>2019-12-31T12:37:02.007Z</time>
      </trkpt>
      <trkpt lat="45.03862" lon="5.28455">
        <ele>378</ele>
        <time>2019-12-31T12:37:04.007Z</time>
      </trkpt>
      <trkpt lat="45.03856" lon="5.28446">
        <ele>378</ele>
        <time>2019-12-31T12:37:06.007Z</time>
      </trkpt>
      <trkpt lat="45.0385" lon="5.28439">
        <ele>378</ele>
        <time>2019-12-31T12:37:08.007Z</time>
      </trkpt>
      <trkpt lat="45.03846" lon="5.28432">
        <ele>378</ele>
        <time>2019-12-31T12:37:10.007Z</time>
      </trkpt>
      <trkpt lat="45.03843" lon="5.28427">
        <ele>376</ele>
        <time>2019-12-31T12:37:36.007Z</time>
      </trkpt>
      <trkpt lat="45.03838" lon="5.28422">
        <ele>376</ele>
        <time>2019-12-31T12:37:39.007Z</time>
      </trkpt>
      <trkpt lat="45.03834" lon="5.28416">
        <ele>376</ele>
        <time>2019-12-31T12:37:41.007Z</time>
      </trkpt>
      <trkpt lat="45.03826" lon="5.28407">
        <ele>376</ele>
        <time>2019-12-31T12:37:44.007Z</time>
      </trkpt>
      <trkpt lat="45.0382" lon="5.284">
        <ele>376</ele>
        <time>2019-12-31T12:37:46.007Z</time>
      </trkpt>
      <trkpt lat="45.03814" lon="5.28393">
        <ele>376</ele>
        <time>2019-12-31T12:37:48.007Z</time>
      </trkpt>
      <trkpt lat="45.03806" lon="5.28383">
        <ele>375.77070969577</ele>
        <time>2019-12-31T12:37:51.007Z</time>
      </trkpt>
      <trkpt lat="45.03796" lon="5.28373">
        <ele>375</ele>
        <time>2019-12-31T12:37:54.007Z</time>
      </trkpt>
      <trkpt lat="45.03788" lon="5.28361">
        <ele>375</ele>
        <time>2019-12-31T12:37:57.007Z</time>
      </trkpt>
      <trkpt lat="45.03779" lon="5.28351">
        <ele>375</ele>
        <time>2019-12-31T12:38:00.007Z</time>
      </trkpt>
      <trkpt lat="45.03772" lon="5.2834">
        <ele>375</ele>
        <time>2019-12-31T12:38:03.007Z</time>
      </trkpt>
      <trkpt lat="45.03772" lon="5.28329">
        <ele>375</ele>
        <time>2019-12-31T12:38:05.007Z</time>
      </trkpt>
      <trkpt lat="45.03775" lon="5.2832">
        <ele>375</ele>
        <time>2019-12-31T12:38:07.007Z</time>
      </trkpt>
      <trkpt lat="45.03778" lon="5.28311">
        <ele>375</ele>
        <time>2019-12-31T12:38:09.007Z</time>
      </trkpt>
      <trkpt lat="45.03783" lon="5.28301">
        <ele>375</ele>
        <time>2019-12-31T12:38:11.007Z</time>
      </trkpt>
      <trkpt lat="45.03788" lon="5.28288">
        <ele>375</ele>
        <time>2019-12-31T12:38:13.007Z</time>
      </trkpt>
      <trkpt lat="45.03789" lon="5.28273">
        <ele>375</ele>
        <time>2019-12-31T12:38:15.007Z</time>
      </trkpt>
      <trkpt lat="45.03788" lon="5.28259">
        <ele>375</ele>
        <time>2019-12-31T12:38:17.007Z</time>
      </trkpt>
      <trkpt lat="45.03785" lon="5.28245">
        <ele>375</ele>
        <time>2019-12-31T12:38:20.007Z</time>
      </trkpt>
      <trkpt lat="45.0378" lon="5.28233">
        <ele>374</ele>
        <time>2019-12-31T12:38:22.007Z</time>
      </trkpt>
      <trkpt lat="45.03774" lon="5.28223">
        <ele>374</ele>
        <time>2019-12-31T12:38:24.007Z</time>
      </trkpt>
      <trkpt lat="45.03768" lon="5.28216">
        <ele>374</ele>
        <time>2019-12-31T12:38:26.007Z</time>
      </trkpt>
      <trkpt lat="45.03762" lon="5.28211">
        <ele>374</ele>
        <time>2019-12-31T12:38:28.007Z</time>
      </trkpt>
      <trkpt lat="45.03756" lon="5.28207">
        <ele>374</ele>
        <time>2019-12-31T12:38:30.007Z</time>
      </trkpt>
      <trkpt lat="45.03751" lon="5.28202">
        <ele>376</ele>
        <time>2019-12-31T12:38:32.007Z</time>
      </trkpt>
      <trkpt lat="45.03746" lon="5.28197">
        <ele>376</ele>
        <time>2019-12-31T12:38:34.007Z</time>
      </trkpt>
      <trkpt lat="45.03741" lon="5.28193">
        <ele>376</ele>
        <time>2019-12-31T12:38:36.007Z</time>
      </trkpt>
      <trkpt lat="45.03734" lon="5.28187">
        <ele>376</ele>
        <time>2019-12-31T12:38:39.007Z</time>
      </trkpt>
      <trkpt lat="45.03731" lon="5.28184">
        <ele>376</ele>
        <time>2019-12-31T12:38:40.007Z</time>
      </trkpt>
      <trkpt lat="45.03728" lon="5.28182">
        <ele>376.2346589613</ele>
        <time>2019-12-31T12:38:41.007Z</time>
      </trkpt>
      <trkpt lat="45.03723" lon="5.28178">
        <ele>377</ele>
        <time>2019-12-31T12:38:43.007Z</time>
      </trkpt>
      <trkpt lat="45.03717" lon="5.28172">
        <ele>377</ele>
        <time>2019-12-31T12:38:45.007Z</time>
      </trkpt>
      <trkpt lat="45.03714" lon="5.2817">
        <ele>377</ele>
        <time>2019-12-31T12:38:46.007Z</time>
      </trkpt>
      <trkpt lat="45.03712" lon="5.28167">
        <ele>377</ele>
        <time>2019-12-31T12:38:47.007Z</time>
      </trkpt>
      <trkpt lat="45.03709" lon="5.28165">
        <ele>377</ele>
        <time>2019-12-31T12:38:48.007Z</time>
      </trkpt>
      <trkpt lat="45.03706" lon="5.28163">
        <ele>377</ele>
        <time>2019-12-31T12:38:49.007Z</time>
      </trkpt>
      <trkpt lat="45.03702" lon="5.2816">
        <ele>377</ele>
        <time>2019-12-31T12:38:50.007Z</time>
      </trkpt>
      <trkpt lat="45.03697" lon="5.28156">
        <ele>379</ele>
        <time>2019-12-31T12:38:52.007Z</time>
      </trkpt>
      <trkpt lat="45.03691" lon="5.28151">
        <ele>379</ele>
        <time>2019-12-31T12:38:54.007Z</time>
      </trkpt>
      <trkpt lat="45.03686" lon="5.28147">
        <ele>379</ele>
        <time>2019-12-31T12:38:56.007Z</time>
      </trkpt>
      <trkpt lat="45.0368" lon="5.28142">
        <ele>379</ele>
        <time>2019-12-31T12:38:58.007Z</time>
      </trkpt>
      <trkpt lat="45.03675" lon="5.28139">
        <ele>379</ele>
        <time>2019-12-31T12:39:00.007Z</time>
      </trkpt>
      <trkpt lat="45.03667" lon="5.28134">
        <ele>382</ele>
        <time>2019-12-31T12:39:03.007Z</time>
      </trkpt>
      <trkpt lat="45.03659" lon="5.28136">
        <ele>382.2370048</ele>
        <time>2019-12-31T12:39:06.007Z</time>
      </trkpt>
      <trkpt lat="45.03653" lon="5.2814">
        <ele>383</ele>
        <time>2019-12-31T12:39:09.007Z</time>
      </trkpt>
      <trkpt lat="45.03646" lon="5.28146">
        <ele>385</ele>
        <time>2019-12-31T12:39:13.007Z</time>
      </trkpt>
      <trkpt lat="45.0364" lon="5.28148">
        <ele>385</ele>
        <time>2019-12-31T12:39:15.007Z</time>
      </trkpt>
      <trkpt lat="45.03633" lon="5.28145">
        <ele>385</ele>
        <time>2019-12-31T12:39:18.007Z</time>
      </trkpt>
      <trkpt lat="45.03627" lon="5.28139">
        <ele>385.2370048</ele>
        <time>2019-12-31T12:39:21.007Z</time>
      </trkpt>
      <trkpt lat="45.03621" lon="5.28133">
        <ele>386</ele>
        <time>2019-12-31T12:39:24.007Z</time>
      </trkpt>
      <trkpt lat="45.03616" lon="5.28125">
        <ele>386</ele>
        <time>2019-12-31T12:39:27.007Z</time>
      </trkpt>
      <trkpt lat="45.03611" lon="5.28118">
        <ele>386</ele>
        <time>2019-12-31T12:39:30.007Z</time>
      </trkpt>
      <trkpt lat="45.03606" lon="5.28112">
        <ele>389</ele>
        <time>2019-12-31T12:39:33.007Z</time>
      </trkpt>
      <trkpt lat="45.036" lon="5.28106">
        <ele>389.4740096</ele>
        <time>2019-12-31T12:39:36.007Z</time>
      </trkpt>
      <trkpt lat="45.03595" lon="5.28102">
        <ele>391</ele>
        <time>2019-12-31T12:39:39.007Z</time>
      </trkpt>
      <trkpt lat="45.03589" lon="5.28098">
        <ele>392</ele>
        <time>2019-12-31T12:39:42.007Z</time>
      </trkpt>
      <trkpt lat="45.03584" lon="5.28094">
        <ele>392</ele>
        <time>2019-12-31T12:39:45.007Z</time>
      </trkpt>
      <trkpt lat="45.03579" lon="5.2809">
        <ele>394</ele>
        <time>2019-12-31T12:39:48.007Z</time>
      </trkpt>
      <trkpt lat="45.03575" lon="5.28087">
        <ele>394</ele>
        <time>2019-12-31T12:39:50.007Z</time>
      </trkpt>
      <trkpt lat="45.03572" lon="5.28083">
        <ele>394</ele>
        <time>2019-12-31T12:39:52.007Z</time>
      </trkpt>
      <trkpt lat="45.03572" lon="5.28076">
        <ele>394</ele>
        <time>2019-12-31T12:39:55.007Z</time>
      </trkpt>
      <trkpt lat="45.03576" lon="5.2807">
        <ele>394</ele>
        <time>2019-12-31T12:39:59.007Z</time>
      </trkpt>
      <trkpt lat="45.03579" lon="5.28064">
        <ele>395</ele>
        <time>2019-12-31T12:40:03.007Z</time>
      </trkpt>
      <trkpt lat="45.03581" lon="5.28059">
        <ele>395</ele>
        <time>2019-12-31T12:40:06.007Z</time>
      </trkpt>
      <trkpt lat="45.03584" lon="5.28052">
        <ele>394</ele>
        <time>2019-12-31T12:40:46.007Z</time>
      </trkpt>
      <trkpt lat="45.03588" lon="5.28043">
        <ele>394</ele>
        <time>2019-12-31T12:40:50.007Z</time>
      </trkpt>
      <trkpt lat="45.0359" lon="5.28034">
        <ele>394</ele>
        <time>2019-12-31T12:40:52.007Z</time>
      </trkpt>
      <trkpt lat="45.03593" lon="5.28024">
        <ele>394</ele>
        <time>2019-12-31T12:40:54.007Z</time>
      </trkpt>
      <trkpt lat="45.03594" lon="5.28014">
        <ele>394</ele>
        <time>2019-12-31T12:40:56.007Z</time>
      </trkpt>
      <trkpt lat="45.03596" lon="5.28002">
        <ele>394</ele>
        <time>2019-12-31T12:40:58.007Z</time>
      </trkpt>
      <trkpt lat="45.036" lon="5.27991">
        <ele>394</ele>
        <time>2019-12-31T12:41:00.007Z</time>
      </trkpt>
      <trkpt lat="45.03604" lon="5.2798">
        <ele>393</ele>
        <time>2019-12-31T12:41:02.007Z</time>
      </trkpt>
      <trkpt lat="45.03608" lon="5.27968">
        <ele>393</ele>
        <time>2019-12-31T12:41:04.007Z</time>
      </trkpt>
      <trkpt lat="45.03614" lon="5.27957">
        <ele>393</ele>
        <time>2019-12-31T12:41:06.007Z</time>
      </trkpt>
      <trkpt lat="45.03623" lon="5.27948">
        <ele>393</ele>
        <time>2019-12-31T12:41:08.007Z</time>
      </trkpt>
      <trkpt lat="45.03632" lon="5.27941">
        <ele>393</ele>
        <time>2019-12-31T12:41:10.007Z</time>
      </trkpt>
      <trkpt lat="45.03641" lon="5.27935">
        <ele>393</ele>
        <time>2019-12-31T12:41:12.007Z</time>
      </trkpt>
      <trkpt lat="45.03652" lon="5.27927">
        <ele>393</ele>
        <time>2019-12-31T12:41:14.007Z</time>
      </trkpt>
      <trkpt lat="45.03662" lon="5.27918">
        <ele>393</ele>
        <time>2019-12-31T12:41:16.007Z</time>
      </trkpt>
      <trkpt lat="45.03669" lon="5.27905">
        <ele>393</ele>
        <time>2019-12-31T12:41:18.007Z</time>
      </trkpt>
      <trkpt lat="45.03671" lon="5.27888">
        <ele>393</ele>
        <time>2019-12-31T12:41:20.007Z</time>
      </trkpt>
      <trkpt lat="45.03666" lon="5.27872">
        <ele>392</ele>
        <time>2019-12-31T12:41:22.007Z</time>
      </trkpt>
      <trkpt lat="45.03658" lon="5.27858">
        <ele>392</ele>
        <time>2019-12-31T12:41:24.007Z</time>
      </trkpt>
      <trkpt lat="45.0365" lon="5.27846">
        <ele>392</ele>
        <time>2019-12-31T12:41:26.007Z</time>
      </trkpt>
      <trkpt lat="45.03642" lon="5.27835">
        <ele>392</ele>
        <time>2019-12-31T12:41:28.007Z</time>
      </trkpt>
      <trkpt lat="45.03634" lon="5.27824">
        <ele>392</ele>
        <time>2019-12-31T12:41:30.007Z</time>
      </trkpt>
      <trkpt lat="45.03625" lon="5.27812">
        <ele>392</ele>
        <time>2019-12-31T12:41:32.007Z</time>
      </trkpt>
      <trkpt lat="45.03618" lon="5.27801">
        <ele>392</ele>
        <time>2019-12-31T12:41:34.007Z</time>
      </trkpt>
      <trkpt lat="45.03614" lon="5.27796">
        <ele>392</ele>
        <time>2019-12-31T12:41:35.007Z</time>
      </trkpt>
      <trkpt lat="45.0361" lon="5.27791">
        <ele>392</ele>
        <time>2019-12-31T12:41:36.007Z</time>
      </trkpt>
      <trkpt lat="45.03607" lon="5.27786">
        <ele>392</ele>
        <time>2019-12-31T12:41:37.007Z</time>
      </trkpt>
      <trkpt lat="45.03604" lon="5.2778">
        <ele>392</ele>
        <time>2019-12-31T12:41:38.007Z</time>
      </trkpt>
      <trkpt lat="45.03601" lon="5.27774">
        <ele>392</ele>
        <time>2019-12-31T12:41:39.007Z</time>
      </trkpt>
      <trkpt lat="45.03599" lon="5.27768">
        <ele>392</ele>
        <time>2019-12-31T12:41:40.007Z</time>
      </trkpt>
      <trkpt lat="45.03598" lon="5.27762">
        <ele>391.7629952</ele>
        <time>2019-12-31T12:41:41.007Z</time>
      </trkpt>
      <trkpt lat="45.03599" lon="5.27755">
        <ele>391</ele>
        <time>2019-12-31T12:41:42.007Z</time>
      </trkpt>
      <trkpt lat="45.03601" lon="5.27749">
        <ele>391</ele>
        <time>2019-12-31T12:41:43.007Z</time>
      </trkpt>
      <trkpt lat="45.03605" lon="5.27746">
        <ele>391</ele>
        <time>2019-12-31T12:41:44.007Z</time>
      </trkpt>
      <trkpt lat="45.03609" lon="5.27743">
        <ele>391</ele>
        <time>2019-12-31T12:41:45.007Z</time>
      </trkpt>
      <trkpt lat="45.03612" lon="5.27739">
        <ele>391</ele>
        <time>2019-12-31T12:41:46.007Z</time>
      </trkpt>
      <trkpt lat="45.03622" lon="5.27728">
        <ele>391</ele>
        <time>2019-12-31T12:41:49.007Z</time>
      </trkpt>
      <trkpt lat="45.03631" lon="5.27725">
        <ele>391</ele>
        <time>2019-12-31T12:41:53.007Z</time>
      </trkpt>
      <trkpt lat="45.03637" lon="5.27721">
        <ele>391</ele>
        <time>2019-12-31T12:41:56.007Z</time>
      </trkpt>
      <trkpt lat="45.03643" lon="5.27717">
        <ele>391</ele>
        <time>2019-12-31T12:42:00.007Z</time>
      </trkpt>
      <trkpt lat="45.03648" lon="5.27712">
        <ele>394</ele>
        <time>2019-12-31T12:42:03.007Z</time>
      </trkpt>
      <trkpt lat="45.03654" lon="5.27709">
        <ele>394.4740096</ele>
        <time>2019-12-31T12:42:06.007Z</time>
      </trkpt>
      <trkpt lat="45.03661" lon="5.27706">
        <ele>396</ele>
        <time>2019-12-31T12:42:09.007Z</time>
      </trkpt>
      <trkpt lat="45.03664" lon="5.27702">
        <ele>396.4740096</ele>
        <time>2019-12-31T12:42:11.007Z</time>
      </trkpt>
      <trkpt lat="45.03666" lon="5.27697">
        <ele>398</ele>
        <time>2019-12-31T12:42:13.007Z</time>
      </trkpt>
      <trkpt lat="45.03668" lon="5.27692">
        <ele>398</ele>
        <time>2019-12-31T12:42:15.007Z</time>
      </trkpt>
      <trkpt lat="45.0367" lon="5.27688">
        <ele>398</ele>
        <time>2019-12-31T12:42:17.007Z</time>
      </trkpt>
      <trkpt lat="45.03666" lon="5.27682">
        <ele>398</ele>
        <time>2019-12-31T12:42:29.007Z</time>
      </trkpt>
      <trkpt lat="45.03661" lon="5.27682">
        <ele>400</ele>
        <time>2019-12-31T12:42:36.007Z</time>
      </trkpt>
      <trkpt lat="45.03655" lon="5.27682">
        <ele>402</ele>
        <time>2019-12-31T12:42:44.007Z</time>
      </trkpt>
      <trkpt lat="45.03649" lon="5.27683">
        <ele>403</ele>
        <time>2019-12-31T12:42:54.007Z</time>
      </trkpt>
      <trkpt lat="45.03644" lon="5.27681">
        <ele>403.7110144</ele>
        <time>2019-12-31T12:43:01.007Z</time>
      </trkpt>
      <trkpt lat="45.03639" lon="5.27676">
        <ele>406</ele>
        <time>2019-12-31T12:43:14.007Z</time>
      </trkpt>
      <trkpt lat="45.03636" lon="5.2767">
        <ele>406</ele>
        <time>2019-12-31T12:43:18.007Z</time>
      </trkpt>
      <trkpt lat="45.03633" lon="5.27661">
        <ele>407</ele>
        <time>2019-12-31T12:43:22.007Z</time>
      </trkpt>
      <trkpt lat="45.03629" lon="5.27654">
        <ele>407</ele>
        <time>2019-12-31T12:43:25.007Z</time>
      </trkpt>
      <trkpt lat="45.03626" lon="5.27649">
        <ele>407</ele>
        <time>2019-12-31T12:43:28.007Z</time>
      </trkpt>
      <trkpt lat="45.03622" lon="5.27644">
        <ele>407.7110144</ele>
        <time>2019-12-31T12:43:31.007Z</time>
      </trkpt>
      <trkpt lat="45.03619" lon="5.2764">
        <ele>410</ele>
        <time>2019-12-31T12:43:34.007Z</time>
      </trkpt>
      <trkpt lat="45.03616" lon="5.27635">
        <ele>412</ele>
        <time>2019-12-31T12:43:37.007Z</time>
      </trkpt>
      <trkpt lat="45.03613" lon="5.2763">
        <ele>412</ele>
        <time>2019-12-31T12:43:40.007Z</time>
      </trkpt>
      <trkpt lat="45.0361" lon="5.27624">
        <ele>413</ele>
        <time>2019-12-31T12:43:46.007Z</time>
      </trkpt>
      <trkpt lat="45.03607" lon="5.27619">
        <ele>413.4740096</ele>
        <time>2019-12-31T12:43:51.007Z</time>
      </trkpt>
      <trkpt lat="45.03604" lon="5.27613">
        <ele>415</ele>
        <time>2019-12-31T12:43:59.007Z</time>
      </trkpt>
      <trkpt lat="45.03601" lon="5.27607">
        <ele>416</ele>
        <time>2019-12-31T12:44:07.007Z</time>
      </trkpt>
      <trkpt lat="45.03599" lon="5.27603">
        <ele>417</ele>
        <time>2019-12-31T12:44:13.007Z</time>
      </trkpt>
      <trkpt lat="45.03596" lon="5.27597">
        <ele>417.7110144</ele>
        <time>2019-12-31T12:44:21.007Z</time>
      </trkpt>
      <trkpt lat="45.03594" lon="5.27591">
        <ele>421</ele>
        <time>2019-12-31T12:44:29.007Z</time>
      </trkpt>
      <trkpt lat="45.03594" lon="5.27584">
        <ele>421</ele>
        <time>2019-12-31T12:44:36.007Z</time>
      </trkpt>
      <trkpt lat="45.03593" lon="5.27576">
        <ele>423</ele>
        <time>2019-12-31T12:44:43.007Z</time>
      </trkpt>
      <trkpt lat="45.03594" lon="5.27569">
        <ele>423</ele>
        <time>2019-12-31T12:44:50.007Z</time>
      </trkpt>
      <trkpt lat="45.03594" lon="5.27562">
        <ele>426</ele>
        <time>2019-12-31T12:44:59.007Z</time>
      </trkpt>
      <trkpt lat="45.03593" lon="5.27555">
        <ele>427</ele>
        <time>2019-12-31T12:45:07.007Z</time>
      </trkpt>
      <trkpt lat="45.0359" lon="5.27549">
        <ele>429</ele>
        <time>2019-12-31T12:45:13.007Z</time>
      </trkpt>
      <trkpt lat="45.03587" lon="5.27543">
        <ele>429</ele>
        <time>2019-12-31T12:45:19.007Z</time>
      </trkpt>
      <trkpt lat="45.03584" lon="5.27537">
        <ele>431</ele>
        <time>2019-12-31T12:45:25.007Z</time>
      </trkpt>
      <trkpt lat="45.03584" lon="5.27531">
        <ele>431</ele>
        <time>2019-12-31T12:45:29.007Z</time>
      </trkpt>
      <trkpt lat="45.03584" lon="5.27524">
        <ele>432</ele>
        <time>2019-12-31T12:45:35.007Z</time>
      </trkpt>
      <trkpt lat="45.03584" lon="5.27518">
        <ele>432</ele>
        <time>2019-12-31T12:45:40.007Z</time>
      </trkpt>
      <trkpt lat="45.0358" lon="5.27516">
        <ele>434</ele>
        <time>2019-12-31T12:45:47.007Z</time>
      </trkpt>
      <trkpt lat="45.03576" lon="5.27513">
        <ele>435</ele>
        <time>2019-12-31T12:46:43.007Z</time>
      </trkpt>
      <trkpt lat="45.03571" lon="5.27511">
        <ele>435.4740096</ele>
        <time>2019-12-31T12:46:51.007Z</time>
      </trkpt>
      <trkpt lat="45.03567" lon="5.2751">
        <ele>437</ele>
        <time>2019-12-31T12:46:59.007Z</time>
      </trkpt>
      <trkpt lat="45.03562" lon="5.27507">
        <ele>439</ele>
        <time>2019-12-31T12:47:04.007Z</time>
      </trkpt>
      <trkpt lat="45.03558" lon="5.27503">
        <ele>439.4740096</ele>
        <time>2019-12-31T12:47:11.007Z</time>
      </trkpt>
      <trkpt lat="45.03553" lon="5.275">
        <ele>441</ele>
        <time>2019-12-31T12:47:17.007Z</time>
      </trkpt>
      <trkpt lat="45.03547" lon="5.27499">
        <ele>442</ele>
        <time>2019-12-31T12:47:25.007Z</time>
      </trkpt>
      <trkpt lat="45.03541" lon="5.27497">
        <ele>442.4740096</ele>
        <time>2019-12-31T12:47:31.007Z</time>
      </trkpt>
      <trkpt lat="45.03537" lon="5.27494">
        <ele>444</ele>
        <time>2019-12-31T12:47:35.007Z</time>
      </trkpt>
      <trkpt lat="45.03533" lon="5.27491">
        <ele>444</ele>
        <time>2019-12-31T12:47:39.007Z</time>
      </trkpt>
      <trkpt lat="45.03529" lon="5.27487">
        <ele>446</ele>
        <time>2019-12-31T12:47:46.007Z</time>
      </trkpt>
      <trkpt lat="45.03525" lon="5.27482">
        <ele>446.2370048</ele>
        <time>2019-12-31T12:47:51.007Z</time>
      </trkpt>
      <trkpt lat="45.03522" lon="5.27478">
        <ele>447</ele>
        <time>2019-12-31T12:47:55.007Z</time>
      </trkpt>
      <trkpt lat="45.03518" lon="5.27475">
        <ele>448</ele>
        <time>2019-12-31T12:48:06.007Z</time>
      </trkpt>
      <trkpt lat="45.03514" lon="5.27472">
        <ele>448</ele>
        <time>2019-12-31T12:48:09.007Z</time>
      </trkpt>
      <trkpt lat="45.0351" lon="5.27468">
        <ele>450.7629952</ele>
        <time>2019-12-31T12:48:13.007Z</time>
      </trkpt>
      <trkpt lat="45.03505" lon="5.27464">
        <ele>452</ele>
        <time>2019-12-31T12:48:18.007Z</time>
      </trkpt>
      <trkpt lat="45.035" lon="5.27462">
        <ele>454</ele>
        <time>2019-12-31T12:48:22.007Z</time>
      </trkpt>
      <trkpt lat="45.03496" lon="5.27461">
        <ele>454</ele>
        <time>2019-12-31T12:48:25.007Z</time>
      </trkpt>
      <trkpt lat="45.03493" lon="5.2746">
        <ele>455</ele>
        <time>2019-12-31T12:48:28.007Z</time>
      </trkpt>
      <trkpt lat="45.03488" lon="5.2746">
        <ele>456</ele>
        <time>2019-12-31T12:48:32.007Z</time>
      </trkpt>
      <trkpt lat="45.03484" lon="5.2746">
        <ele>456</ele>
        <time>2019-12-31T12:48:35.007Z</time>
      </trkpt>
      <trkpt lat="45.03479" lon="5.27457">
        <ele>457</ele>
        <time>2019-12-31T12:48:38.007Z</time>
      </trkpt>
      <trkpt lat="45.03474" lon="5.27455">
        <ele>457.2370048</ele>
        <time>2019-12-31T12:48:41.007Z</time>
      </trkpt>
      <trkpt lat="45.03469" lon="5.27452">
        <ele>458</ele>
        <time>2019-12-31T12:48:44.007Z</time>
      </trkpt>
      <trkpt lat="45.03466" lon="5.2745">
        <ele>458</ele>
        <time>2019-12-31T12:48:46.007Z</time>
      </trkpt>
      <trkpt lat="45.03462" lon="5.27448">
        <ele>458</ele>
        <time>2019-12-31T12:48:49.007Z</time>
      </trkpt>
      <trkpt lat="45.03457" lon="5.27447">
        <ele>460</ele>
        <time>2019-12-31T12:48:52.007Z</time>
      </trkpt>
      <trkpt lat="45.03453" lon="5.27446">
        <ele>460</ele>
        <time>2019-12-31T12:48:55.007Z</time>
      </trkpt>
      <trkpt lat="45.03448" lon="5.27444">
        <ele>460</ele>
        <time>2019-12-31T12:48:58.007Z</time>
      </trkpt>
      <trkpt lat="45.03444" lon="5.27442">
        <ele>459.7110144</ele>
        <time>2019-12-31T12:49:01.007Z</time>
      </trkpt>
      <trkpt lat="45.0344" lon="5.2744">
        <ele>462</ele>
        <time>2019-12-31T12:49:04.007Z</time>
      </trkpt>
      <trkpt lat="45.03435" lon="5.27439">
        <ele>464</ele>
        <time>2019-12-31T12:49:07.007Z</time>
      </trkpt>
      <trkpt lat="45.03431" lon="5.27437">
        <ele>464</ele>
        <time>2019-12-31T12:49:10.007Z</time>
      </trkpt>
      <trkpt lat="45.03426" lon="5.27436">
        <ele>465</ele>
        <time>2019-12-31T12:49:13.007Z</time>
      </trkpt>
      <trkpt lat="45.03421" lon="5.27435">
        <ele>465.2370048</ele>
        <time>2019-12-31T12:49:16.007Z</time>
      </trkpt>
      <trkpt lat="45.03418" lon="5.27434">
        <ele>466</ele>
        <time>2019-12-31T12:49:18.007Z</time>
      </trkpt>
      <trkpt lat="45.03413" lon="5.27434">
        <ele>466.4740096</ele>
        <time>2019-12-31T12:49:21.007Z</time>
      </trkpt>
      <trkpt lat="45.03408" lon="5.27433">
        <ele>468</ele>
        <time>2019-12-31T12:49:24.007Z</time>
      </trkpt>
      <trkpt lat="45.03405" lon="5.27433">
        <ele>468</ele>
        <time>2019-12-31T12:49:26.007Z</time>
      </trkpt>
      <trkpt lat="45.03401" lon="5.27433">
        <ele>468</ele>
        <time>2019-12-31T12:49:28.007Z</time>
      </trkpt>
      <trkpt lat="45.03398" lon="5.27431">
        <ele>468</ele>
        <time>2019-12-31T12:49:31.007Z</time>
      </trkpt>
      <trkpt lat="45.03393" lon="5.27431">
        <ele>468</ele>
        <time>2019-12-31T12:49:34.007Z</time>
      </trkpt>
      <trkpt lat="45.03388" lon="5.27432">
        <ele>468</ele>
        <time>2019-12-31T12:49:38.007Z</time>
      </trkpt>
      <trkpt lat="45.03384" lon="5.27434">
        <ele>467</ele>
        <time>2019-12-31T12:50:20.007Z</time>
      </trkpt>
      <trkpt lat="45.03379" lon="5.27434">
        <ele>468</ele>
        <time>2019-12-31T12:50:23.007Z</time>
      </trkpt>
      <trkpt lat="45.03374" lon="5.27433">
        <ele>468</ele>
        <time>2019-12-31T12:50:25.007Z</time>
      </trkpt>
      <trkpt lat="45.03369" lon="5.27434">
        <ele>468</ele>
        <time>2019-12-31T12:50:27.007Z</time>
      </trkpt>
      <trkpt lat="45.03363" lon="5.27435">
        <ele>468</ele>
        <time>2019-12-31T12:50:29.007Z</time>
      </trkpt>
      <trkpt lat="45.03357" lon="5.27438">
        <ele>467.7629952</ele>
        <time>2019-12-31T12:50:31.007Z</time>
      </trkpt>
      <trkpt lat="45.03349" lon="5.27447">
        <ele>467</ele>
        <time>2019-12-31T12:50:34.007Z</time>
      </trkpt>
      <trkpt lat="45.03344" lon="5.2746">
        <ele>467</ele>
        <time>2019-12-31T12:50:36.007Z</time>
      </trkpt>
      <trkpt lat="45.03339" lon="5.27473">
        <ele>467</ele>
        <time>2019-12-31T12:50:38.007Z</time>
      </trkpt>
      <trkpt lat="45.03332" lon="5.27488">
        <ele>467</ele>
        <time>2019-12-31T12:50:40.007Z</time>
      </trkpt>
      <trkpt lat="45.03328" lon="5.27494">
        <ele>466.0519808</ele>
        <time>2019-12-31T12:50:41.007Z</time>
      </trkpt>
      <trkpt lat="45.03324" lon="5.27499">
        <ele>463</ele>
        <time>2019-12-31T12:50:42.007Z</time>
      </trkpt>
      <trkpt lat="45.03317" lon="5.27511">
        <ele>463</ele>
        <time>2019-12-31T12:50:44.007Z</time>
      </trkpt>
      <trkpt lat="45.03311" lon="5.27526">
        <ele>462.29532653372</ele>
        <time>2019-12-31T12:50:46.007Z</time>
      </trkpt>
      <trkpt lat="45.03308" lon="5.27534">
        <ele>460</ele>
        <time>2019-12-31T12:50:47.007Z</time>
      </trkpt>
      <trkpt lat="45.03306" lon="5.2755">
        <ele>460</ele>
        <time>2019-12-31T12:50:49.007Z</time>
      </trkpt>
      <trkpt lat="45.03305" lon="5.27564">
        <ele>459.2889856</ele>
        <time>2019-12-31T12:50:51.007Z</time>
      </trkpt>
      <trkpt lat="45.03303" lon="5.27574">
        <ele>457</ele>
        <time>2019-12-31T12:50:53.007Z</time>
      </trkpt>
      <trkpt lat="45.03308" lon="5.27577">
        <ele>456</ele>
        <time>2019-12-31T12:51:10.007Z</time>
      </trkpt>
      <trkpt lat="45.03311" lon="5.27583">
        <ele>457</ele>
        <time>2019-12-31T12:51:14.007Z</time>
      </trkpt>
      <trkpt lat="45.03313" lon="5.2759">
        <ele>457</ele>
        <time>2019-12-31T12:51:17.007Z</time>
      </trkpt>
      <trkpt lat="45.03317" lon="5.27598">
        <ele>457</ele>
        <time>2019-12-31T12:51:20.007Z</time>
      </trkpt>
      <trkpt lat="45.03319" lon="5.27607">
        <ele>457</ele>
        <time>2019-12-31T12:51:23.007Z</time>
      </trkpt>
      <trkpt lat="45.03323" lon="5.2762">
        <ele>457</ele>
        <time>2019-12-31T12:51:26.007Z</time>
      </trkpt>
      <trkpt lat="45.03327" lon="5.27629">
        <ele>457</ele>
        <time>2019-12-31T12:51:28.007Z</time>
      </trkpt>
      <trkpt lat="45.03332" lon="5.27638">
        <ele>457</ele>
        <time>2019-12-31T12:51:30.007Z</time>
      </trkpt>
      <trkpt lat="45.03337" lon="5.27648">
        <ele>455</ele>
        <time>2019-12-31T12:51:32.007Z</time>
      </trkpt>
      <trkpt lat="45.03341" lon="5.27658">
        <ele>455</ele>
        <time>2019-12-31T12:51:34.007Z</time>
      </trkpt>
      <trkpt lat="45.03345" lon="5.27669">
        <ele>453.814976</ele>
        <time>2019-12-31T12:51:36.007Z</time>
      </trkpt>
      <trkpt lat="45.03349" lon="5.2768">
        <ele>450</ele>
        <time>2019-12-31T12:51:38.007Z</time>
      </trkpt>
      <trkpt lat="45.03353" lon="5.27692">
        <ele>450</ele>
        <time>2019-12-31T12:51:40.007Z</time>
      </trkpt>
      <trkpt lat="45.03357" lon="5.27703">
        <ele>446.7629952</ele>
        <time>2019-12-31T12:51:42.007Z</time>
      </trkpt>
      <trkpt lat="45.03362" lon="5.2771">
        <ele>444.7629952</ele>
        <time>2019-12-31T12:51:44.007Z</time>
      </trkpt>
      <trkpt lat="45.03368" lon="5.27713">
        <ele>444</ele>
        <time>2019-12-31T12:51:46.007Z</time>
      </trkpt>
      <trkpt lat="45.03373" lon="5.27714">
        <ele>443.7629952</ele>
        <time>2019-12-31T12:51:48.007Z</time>
      </trkpt>
      <trkpt lat="45.03379" lon="5.27716">
        <ele>441.7629952</ele>
        <time>2019-12-31T12:51:51.007Z</time>
      </trkpt>
      <trkpt lat="45.03384" lon="5.27718">
        <ele>440</ele>
        <time>2019-12-31T12:51:55.007Z</time>
      </trkpt>
      <trkpt lat="45.03388" lon="5.27723">
        <ele>439</ele>
        <time>2019-12-31T12:52:03.007Z</time>
      </trkpt>
      <trkpt lat="45.03395" lon="5.27728">
        <ele>439</ele>
        <time>2019-12-31T12:52:10.007Z</time>
      </trkpt>
      <trkpt lat="45.03401" lon="5.27728">
        <ele>438</ele>
        <time>2019-12-31T12:52:15.007Z</time>
      </trkpt>
      <trkpt lat="45.03407" lon="5.27732">
        <ele>438</ele>
        <time>2019-12-31T12:52:19.007Z</time>
      </trkpt>
      <trkpt lat="45.0341" lon="5.27736">
        <ele>435</ele>
        <time>2019-12-31T12:52:22.007Z</time>
      </trkpt>
      <trkpt lat="45.03413" lon="5.27742">
        <ele>434.7629952</ele>
        <time>2019-12-31T12:52:26.007Z</time>
      </trkpt>
      <trkpt lat="45.03417" lon="5.27747">
        <ele>434</ele>
        <time>2019-12-31T12:52:30.007Z</time>
      </trkpt>
      <trkpt lat="45.03421" lon="5.27756">
        <ele>433</ele>
        <time>2019-12-31T12:52:35.007Z</time>
      </trkpt>
      <trkpt lat="45.03426" lon="5.2776">
        <ele>434</ele>
        <time>2019-12-31T12:52:38.007Z</time>
      </trkpt>
      <trkpt lat="45.03432" lon="5.27764">
        <ele>433.2889856</ele>
        <time>2019-12-31T12:52:41.007Z</time>
      </trkpt>
      <trkpt lat="45.03438" lon="5.27768">
        <ele>431</ele>
        <time>2019-12-31T12:52:43.007Z</time>
      </trkpt>
      <trkpt lat="45.03443" lon="5.27775">
        <ele>430.5259904</ele>
        <time>2019-12-31T12:52:46.007Z</time>
      </trkpt>
      <trkpt lat="45.03448" lon="5.27785">
        <ele>429</ele>
        <time>2019-12-31T12:52:49.007Z</time>
      </trkpt>
      <trkpt lat="45.03452" lon="5.27792">
        <ele>428.7629952</ele>
        <time>2019-12-31T12:52:51.007Z</time>
      </trkpt>
      <trkpt lat="45.03456" lon="5.27799">
        <ele>428</ele>
        <time>2019-12-31T12:52:54.007Z</time>
      </trkpt>
      <trkpt lat="45.0346" lon="5.27807">
        <ele>428</ele>
        <time>2019-12-31T12:52:59.007Z</time>
      </trkpt>
      <trkpt lat="45.03464" lon="5.2782">
        <ele>427</ele>
        <time>2019-12-31T12:53:36.007Z</time>
      </trkpt>
      <trkpt lat="45.03473" lon="5.27826">
        <ele>426.7629952</ele>
        <time>2019-12-31T12:53:41.007Z</time>
      </trkpt>
      <trkpt lat="45.03484" lon="5.27833">
        <ele>426</ele>
        <time>2019-12-31T12:53:44.007Z</time>
      </trkpt>
      <trkpt lat="45.03496" lon="5.27838">
        <ele>426</ele>
        <time>2019-12-31T12:53:48.007Z</time>
      </trkpt>
      <trkpt lat="45.03505" lon="5.27846">
        <ele>425.0519808</ele>
        <time>2019-12-31T12:53:51.007Z</time>
      </trkpt>
      <trkpt lat="45.03513" lon="5.27859">
        <ele>422</ele>
        <time>2019-12-31T12:53:54.007Z</time>
      </trkpt>
      <trkpt lat="45.03519" lon="5.27868">
        <ele>419</ele>
        <time>2019-12-31T12:53:57.007Z</time>
      </trkpt>
      <trkpt lat="45.03523" lon="5.27876">
        <ele>418.5259904</ele>
        <time>2019-12-31T12:54:01.007Z</time>
      </trkpt>
      <trkpt lat="45.03526" lon="5.27885">
        <ele>417</ele>
        <time>2019-12-31T12:54:05.007Z</time>
      </trkpt>
      <trkpt lat="45.03527" lon="5.27894">
        <ele>416</ele>
        <time>2019-12-31T12:54:09.007Z</time>
      </trkpt>
      <trkpt lat="45.03534" lon="5.27904">
        <ele>416</ele>
        <time>2019-12-31T12:54:13.007Z</time>
      </trkpt>
      <trkpt lat="45.03538" lon="5.27916">
        <ele>416</ele>
        <time>2019-12-31T12:54:16.007Z</time>
      </trkpt>
      <trkpt lat="45.0354" lon="5.27929">
        <ele>416</ele>
        <time>2019-12-31T12:54:20.007Z</time>
      </trkpt>
      <trkpt lat="45.0354" lon="5.27939">
        <ele>409</ele>
        <time>2019-12-31T12:54:28.007Z</time>
      </trkpt>
      <trkpt lat="45.03543" lon="5.27948">
        <ele>409</ele>
        <time>2019-12-31T12:54:34.007Z</time>
      </trkpt>
      <trkpt lat="45.03546" lon="5.27958">
        <ele>409</ele>
        <time>2019-12-31T12:54:39.007Z</time>
      </trkpt>
      <trkpt lat="45.03548" lon="5.27968">
        <ele>407</ele>
        <time>2019-12-31T12:54:43.007Z</time>
      </trkpt>
      <trkpt lat="45.03548" lon="5.27975">
        <ele>406</ele>
        <time>2019-12-31T12:54:56.007Z</time>
      </trkpt>
      <trkpt lat="45.03552" lon="5.27985">
        <ele>406</ele>
        <time>2019-12-31T12:54:59.007Z</time>
      </trkpt>
      <trkpt lat="45.03555" lon="5.27996">
        <ele>402</ele>
        <time>2019-12-31T12:55:02.007Z</time>
      </trkpt>
      <trkpt lat="45.03559" lon="5.28004">
        <ele>402</ele>
        <time>2019-12-31T12:55:04.007Z</time>
      </trkpt>
      <trkpt lat="45.03561" lon="5.28014">
        <ele>400</ele>
        <time>2019-12-31T12:55:07.007Z</time>
      </trkpt>
      <trkpt lat="45.03565" lon="5.28025">
        <ele>399.5259904</ele>
        <time>2019-12-31T12:55:11.007Z</time>
      </trkpt>
      <trkpt lat="45.03568" lon="5.28036">
        <ele>398</ele>
        <time>2019-12-31T12:55:14.007Z</time>
      </trkpt>
      <trkpt lat="45.03573" lon="5.28046">
        <ele>397</ele>
        <time>2019-12-31T12:55:17.007Z</time>
      </trkpt>
      <trkpt lat="45.03575" lon="5.28056">
        <ele>397</ele>
        <time>2019-12-31T12:55:20.007Z</time>
      </trkpt>
      <trkpt lat="45.03574" lon="5.28064">
        <ele>396</ele>
        <time>2019-12-31T12:55:23.007Z</time>
      </trkpt>
      <trkpt lat="45.03574" lon="5.28071">
        <ele>395.7629952</ele>
        <time>2019-12-31T12:55:26.007Z</time>
      </trkpt>
      <trkpt lat="45.03573" lon="5.2808">
        <ele>395</ele>
        <time>2019-12-31T12:55:30.007Z</time>
      </trkpt>
      <trkpt lat="45.03569" lon="5.28081">
        <ele>395</ele>
        <time>2019-12-31T12:56:10.007Z</time>
      </trkpt>
      <trkpt lat="45.03563" lon="5.28081">
        <ele>395</ele>
        <time>2019-12-31T12:56:13.007Z</time>
      </trkpt>
      <trkpt lat="45.03558" lon="5.2808">
        <ele>395</ele>
        <time>2019-12-31T12:56:15.007Z</time>
      </trkpt>
      <trkpt lat="45.03552" lon="5.28078">
        <ele>395</ele>
        <time>2019-12-31T12:56:17.007Z</time>
      </trkpt>
      <trkpt lat="45.03546" lon="5.28074">
        <ele>395</ele>
        <time>2019-12-31T12:56:19.007Z</time>
      </trkpt>
      <trkpt lat="45.03538" lon="5.28072">
        <ele>394.7629952</ele>
        <time>2019-12-31T12:56:21.007Z</time>
      </trkpt>
      <trkpt lat="45.03531" lon="5.28068">
        <ele>394</ele>
        <time>2019-12-31T12:56:23.007Z</time>
      </trkpt>
      <trkpt lat="45.03525" lon="5.28067">
        <ele>394</ele>
        <time>2019-12-31T12:56:25.007Z</time>
      </trkpt>
      <trkpt lat="45.03521" lon="5.28064">
        <ele>394</ele>
        <time>2019-12-31T12:56:27.007Z</time>
      </trkpt>
      <trkpt lat="45.03515" lon="5.28062">
        <ele>394</ele>
        <time>2019-12-31T12:56:29.007Z</time>
      </trkpt>
      <trkpt lat="45.03512" lon="5.2806">
        <ele>394</ele>
        <time>2019-12-31T12:56:30.007Z</time>
      </trkpt>
      <trkpt lat="45.03508" lon="5.28058">
        <ele>394</ele>
        <time>2019-12-31T12:56:31.007Z</time>
      </trkpt>
      <trkpt lat="45.03504" lon="5.28056">
        <ele>394</ele>
        <time>2019-12-31T12:56:32.007Z</time>
      </trkpt>
      <trkpt lat="45.03501" lon="5.28055">
        <ele>394</ele>
        <time>2019-12-31T12:56:33.007Z</time>
      </trkpt>
      <trkpt lat="45.03497" lon="5.28053">
        <ele>394</ele>
        <time>2019-12-31T12:56:34.007Z</time>
      </trkpt>
      <trkpt lat="45.03493" lon="5.28052">
        <ele>394</ele>
        <time>2019-12-31T12:56:35.007Z</time>
      </trkpt>
      <trkpt lat="45.03489" lon="5.2805">
        <ele>394</ele>
        <time>2019-12-31T12:56:36.007Z</time>
      </trkpt>
      <trkpt lat="45.03484" lon="5.28049">
        <ele>394</ele>
        <time>2019-12-31T12:56:37.007Z</time>
      </trkpt>
      <trkpt lat="45.0348" lon="5.28048">
        <ele>394</ele>
        <time>2019-12-31T12:56:38.007Z</time>
      </trkpt>
      <trkpt lat="45.03472" lon="5.28048">
        <ele>394</ele>
        <time>2019-12-31T12:56:40.007Z</time>
      </trkpt>
      <trkpt lat="45.03463" lon="5.28051">
        <ele>393</ele>
        <time>2019-12-31T12:56:42.007Z</time>
      </trkpt>
      <trkpt lat="45.03459" lon="5.28053">
        <ele>393</ele>
        <time>2019-12-31T12:56:43.007Z</time>
      </trkpt>
      <trkpt lat="45.03454" lon="5.28055">
        <ele>393</ele>
        <time>2019-12-31T12:56:44.007Z</time>
      </trkpt>
      <trkpt lat="45.0345" lon="5.28058">
        <ele>393</ele>
        <time>2019-12-31T12:56:45.007Z</time>
      </trkpt>
      <trkpt lat="45.03441" lon="5.28062">
        <ele>393</ele>
        <time>2019-12-31T12:56:47.007Z</time>
      </trkpt>
      <trkpt lat="45.03432" lon="5.28064">
        <ele>393</ele>
        <time>2019-12-31T12:56:49.007Z</time>
      </trkpt>
      <trkpt lat="45.03423" lon="5.28065">
        <ele>393</ele>
        <time>2019-12-31T12:56:51.007Z</time>
      </trkpt>
      <trkpt lat="45.03413" lon="5.28063">
        <ele>393</ele>
        <time>2019-12-31T12:56:53.007Z</time>
      </trkpt>
      <trkpt lat="45.03409" lon="5.28062">
        <ele>393</ele>
        <time>2019-12-31T12:56:54.007Z</time>
      </trkpt>
      <trkpt lat="45.03404" lon="5.2806">
        <ele>393</ele>
        <time>2019-12-31T12:56:55.007Z</time>
      </trkpt>
      <trkpt lat="45.03399" lon="5.28058">
        <ele>393</ele>
        <time>2019-12-31T12:56:56.007Z</time>
      </trkpt>
      <trkpt lat="45.03394" lon="5.28056">
        <ele>393</ele>
        <time>2019-12-31T12:56:57.007Z</time>
      </trkpt>
      <trkpt lat="45.03389" lon="5.28056">
        <ele>393</ele>
        <time>2019-12-31T12:56:58.007Z</time>
      </trkpt>
      <trkpt lat="45.03384" lon="5.28056">
        <ele>393</ele>
        <time>2019-12-31T12:56:59.007Z</time>
      </trkpt>
      <trkpt lat="45.03375" lon="5.28058">
        <ele>392.7629952</ele>
        <time>2019-12-31T12:57:01.007Z</time>
      </trkpt>
      <trkpt lat="45.03367" lon="5.28066">
        <ele>392</ele>
        <time>2019-12-31T12:57:03.007Z</time>
      </trkpt>
      <trkpt lat="45.0336" lon="5.28077">
        <ele>392</ele>
        <time>2019-12-31T12:57:05.007Z</time>
      </trkpt>
      <trkpt lat="45.03356" lon="5.28083">
        <ele>392</ele>
        <time>2019-12-31T12:57:06.007Z</time>
      </trkpt>
      <trkpt lat="45.03347" lon="5.28093">
        <ele>392</ele>
        <time>2019-12-31T12:57:08.007Z</time>
      </trkpt>
      <trkpt lat="45.03335" lon="5.28099">
        <ele>392</ele>
        <time>2019-12-31T12:57:10.007Z</time>
      </trkpt>
      <trkpt lat="45.03321" lon="5.28101">
        <ele>390</ele>
        <time>2019-12-31T12:57:12.007Z</time>
      </trkpt>
      <trkpt lat="45.03314" lon="5.28103">
        <ele>390</ele>
        <time>2019-12-31T12:57:13.007Z</time>
      </trkpt>
      <trkpt lat="45.03299" lon="5.28104">
        <ele>390</ele>
        <time>2019-12-31T12:57:15.007Z</time>
      </trkpt>
      <trkpt lat="45.03285" lon="5.28106">
        <ele>390</ele>
        <time>2019-12-31T12:57:17.007Z</time>
      </trkpt>
      <trkpt lat="45.0327" lon="5.28106">
        <ele>390</ele>
        <time>2019-12-31T12:57:19.007Z</time>
      </trkpt>
      <trkpt lat="45.03263" lon="5.28104">
        <ele>390</ele>
        <time>2019-12-31T12:57:20.007Z</time>
      </trkpt>
      <trkpt lat="45.03258" lon="5.281">
        <ele>389.2889856</ele>
        <time>2019-12-31T12:57:21.007Z</time>
      </trkpt>
      <trkpt lat="45.03254" lon="5.28094">
        <ele>387</ele>
        <time>2019-12-31T12:57:22.007Z</time>
      </trkpt>
      <trkpt lat="45.03253" lon="5.28087">
        <ele>387</ele>
        <time>2019-12-31T12:57:23.007Z</time>
      </trkpt>
      <trkpt lat="45.03253" lon="5.2808">
        <ele>387</ele>
        <time>2019-12-31T12:57:24.007Z</time>
      </trkpt>
      <trkpt lat="45.03254" lon="5.28073">
        <ele>387</ele>
        <time>2019-12-31T12:57:25.007Z</time>
      </trkpt>
      <trkpt lat="45.03253" lon="5.28065">
        <ele>386.2889856</ele>
        <time>2019-12-31T12:57:26.007Z</time>
      </trkpt>
      <trkpt lat="45.03253" lon="5.28058">
        <ele>384</ele>
        <time>2019-12-31T12:57:27.007Z</time>
      </trkpt>
      <trkpt lat="45.03252" lon="5.28051">
        <ele>384</ele>
        <time>2019-12-31T12:57:28.007Z</time>
      </trkpt>
      <trkpt lat="45.03247" lon="5.2804">
        <ele>384</ele>
        <time>2019-12-31T12:57:30.007Z</time>
      </trkpt>
      <trkpt lat="45.0324" lon="5.28031">
        <ele>385</ele>
        <time>2019-12-31T12:57:32.007Z</time>
      </trkpt>
      <trkpt lat="45.03236" lon="5.28028">
        <ele>385</ele>
        <time>2019-12-31T12:57:33.007Z</time>
      </trkpt>
      <trkpt lat="45.03232" lon="5.28025">
        <ele>385</ele>
        <time>2019-12-31T12:57:34.007Z</time>
      </trkpt>
      <trkpt lat="45.03229" lon="5.28023">
        <ele>385</ele>
        <time>2019-12-31T12:57:35.007Z</time>
      </trkpt>
      <trkpt lat="45.03225" lon="5.28021">
        <ele>385</ele>
        <time>2019-12-31T12:57:36.007Z</time>
      </trkpt>
      <trkpt lat="45.03221" lon="5.28018">
        <ele>385</ele>
        <time>2019-12-31T12:57:37.007Z</time>
      </trkpt>
      <trkpt lat="45.03217" lon="5.28016">
        <ele>385</ele>
        <time>2019-12-31T12:57:38.007Z</time>
      </trkpt>
      <trkpt lat="45.03214" lon="5.28014">
        <ele>385</ele>
        <time>2019-12-31T12:57:39.007Z</time>
      </trkpt>
      <trkpt lat="45.0321" lon="5.28011">
        <ele>385</ele>
        <time>2019-12-31T12:57:40.007Z</time>
      </trkpt>
      <trkpt lat="45.03206" lon="5.28009">
        <ele>385.4740096</ele>
        <time>2019-12-31T12:57:41.007Z</time>
      </trkpt>
      <trkpt lat="45.03202" lon="5.28006">
        <ele>387</ele>
        <time>2019-12-31T12:57:42.007Z</time>
      </trkpt>
      <trkpt lat="45.03199" lon="5.28003">
        <ele>387</ele>
        <time>2019-12-31T12:57:43.007Z</time>
      </trkpt>
      <trkpt lat="45.03195" lon="5.28">
        <ele>387</ele>
        <time>2019-12-31T12:57:44.007Z</time>
      </trkpt>
      <trkpt lat="45.03192" lon="5.27998">
        <ele>387</ele>
        <time>2019-12-31T12:57:45.007Z</time>
      </trkpt>
      <trkpt lat="45.03188" lon="5.27995">
        <ele>387</ele>
        <time>2019-12-31T12:57:46.007Z</time>
      </trkpt>
      <trkpt lat="45.03185" lon="5.27992">
        <ele>387</ele>
        <time>2019-12-31T12:57:47.007Z</time>
      </trkpt>
      <trkpt lat="45.03182" lon="5.27989">
        <ele>387</ele>
        <time>2019-12-31T12:57:48.007Z</time>
      </trkpt>
      <trkpt lat="45.03178" lon="5.27985">
        <ele>387</ele>
        <time>2019-12-31T12:57:49.007Z</time>
      </trkpt>
      <trkpt lat="45.03175" lon="5.27982">
        <ele>387</ele>
        <time>2019-12-31T12:57:50.007Z</time>
      </trkpt>
      <trkpt lat="45.03172" lon="5.27979">
        <ele>387.2370048</ele>
        <time>2019-12-31T12:57:51.007Z</time>
      </trkpt>
      <trkpt lat="45.03168" lon="5.27976">
        <ele>388</ele>
        <time>2019-12-31T12:57:52.007Z</time>
      </trkpt>
      <trkpt lat="45.03165" lon="5.27973">
        <ele>388</ele>
        <time>2019-12-31T12:57:53.007Z</time>
      </trkpt>
      <trkpt lat="45.03162" lon="5.27969">
        <ele>388</ele>
        <time>2019-12-31T12:57:54.007Z</time>
      </trkpt>
      <trkpt lat="45.03159" lon="5.27966">
        <ele>388</ele>
        <time>2019-12-31T12:57:55.007Z</time>
      </trkpt>
      <trkpt lat="45.03156" lon="5.27962">
        <ele>388</ele>
        <time>2019-12-31T12:57:56.007Z</time>
      </trkpt>
      <trkpt lat="45.03153" lon="5.27957">
        <ele>388</ele>
        <time>2019-12-31T12:57:57.007Z</time>
      </trkpt>
      <trkpt lat="45.03151" lon="5.27953">
        <ele>388</ele>
        <time>2019-12-31T12:57:58.007Z</time>
      </trkpt>
      <trkpt lat="45.03149" lon="5.27948">
        <ele>388</ele>
        <time>2019-12-31T12:57:59.007Z</time>
      </trkpt>
      <trkpt lat="45.03148" lon="5.27944">
        <ele>388</ele>
        <time>2019-12-31T12:58:00.007Z</time>
      </trkpt>
      <trkpt lat="45.03146" lon="5.27939">
        <ele>388.7110144</ele>
        <time>2019-12-31T12:58:01.007Z</time>
      </trkpt>
      <trkpt lat="45.03145" lon="5.27934">
        <ele>391</ele>
        <time>2019-12-31T12:58:02.007Z</time>
      </trkpt>
      <trkpt lat="45.03143" lon="5.27929">
        <ele>391</ele>
        <time>2019-12-31T12:58:03.007Z</time>
      </trkpt>
      <trkpt lat="45.03141" lon="5.27925">
        <ele>391</ele>
        <time>2019-12-31T12:58:04.007Z</time>
      </trkpt>
      <trkpt lat="45.03139" lon="5.27921">
        <ele>391</ele>
        <time>2019-12-31T12:58:05.007Z</time>
      </trkpt>
      <trkpt lat="45.03136" lon="5.27917">
        <ele>391.2370048</ele>
        <time>2019-12-31T12:58:06.007Z</time>
      </trkpt>
      <trkpt lat="45.03133" lon="5.27915">
        <ele>392</ele>
        <time>2019-12-31T12:58:07.007Z</time>
      </trkpt>
      <trkpt lat="45.03121" lon="5.27916">
        <ele>392</ele>
        <time>2019-12-31T12:58:10.007Z</time>
      </trkpt>
      <trkpt lat="45.03111" lon="5.27924">
        <ele>392</ele>
        <time>2019-12-31T12:58:13.007Z</time>
      </trkpt>
      <trkpt lat="45.03099" lon="5.27929">
        <ele>392</ele>
        <time>2019-12-31T12:58:16.007Z</time>
      </trkpt>
      <trkpt lat="45.03087" lon="5.27929">
        <ele>392</ele>
        <time>2019-12-31T12:58:19.007Z</time>
      </trkpt>
      <trkpt lat="45.03079" lon="5.27925">
        <ele>392.2370048</ele>
        <time>2019-12-31T12:58:21.007Z</time>
      </trkpt>
      <trkpt lat="45.03072" lon="5.27919">
        <ele>393</ele>
        <time>2019-12-31T12:58:23.007Z</time>
      </trkpt>
      <trkpt lat="45.03069" lon="5.27914">
        <ele>393</ele>
        <time>2019-12-31T12:58:24.007Z</time>
      </trkpt>
      <trkpt lat="45.03067" lon="5.27909">
        <ele>393</ele>
        <time>2019-12-31T12:58:25.007Z</time>
      </trkpt>
      <trkpt lat="45.03064" lon="5.27905">
        <ele>393</ele>
        <time>2019-12-31T12:58:26.007Z</time>
      </trkpt>
      <trkpt lat="45.03061" lon="5.279">
        <ele>393</ele>
        <time>2019-12-31T12:58:27.007Z</time>
      </trkpt>
      <trkpt lat="45.03059" lon="5.27895">
        <ele>393</ele>
        <time>2019-12-31T12:58:28.007Z</time>
      </trkpt>
      <trkpt lat="45.03056" lon="5.2789">
        <ele>393</ele>
        <time>2019-12-31T12:58:29.007Z</time>
      </trkpt>
      <trkpt lat="45.03054" lon="5.27884">
        <ele>393</ele>
        <time>2019-12-31T12:58:30.007Z</time>
      </trkpt>
      <trkpt lat="45.03052" lon="5.27878">
        <ele>393</ele>
        <time>2019-12-31T12:58:31.007Z</time>
      </trkpt>
      <trkpt lat="45.0305" lon="5.27872">
        <ele>393</ele>
        <time>2019-12-31T12:58:32.007Z</time>
      </trkpt>
      <trkpt lat="45.03048" lon="5.27866">
        <ele>393</ele>
        <time>2019-12-31T12:58:33.007Z</time>
      </trkpt>
      <trkpt lat="45.03046" lon="5.2786">
        <ele>393</ele>
        <time>2019-12-31T12:58:34.007Z</time>
      </trkpt>
      <trkpt lat="45.0304" lon="5.27849">
        <ele>393</ele>
        <time>2019-12-31T12:58:36.007Z</time>
      </trkpt>
      <trkpt lat="45.03032" lon="5.27842">
        <ele>393</ele>
        <time>2019-12-31T12:58:38.007Z</time>
      </trkpt>
      <trkpt lat="45.03027" lon="5.2784">
        <ele>393</ele>
        <time>2019-12-31T12:58:39.007Z</time>
      </trkpt>
      <trkpt lat="45.03016" lon="5.27838">
        <ele>393</ele>
        <time>2019-12-31T12:58:41.007Z</time>
      </trkpt>
      <trkpt lat="45.03011" lon="5.27838">
        <ele>393</ele>
        <time>2019-12-31T12:58:42.007Z</time>
      </trkpt>
      <trkpt lat="45.03" lon="5.27839">
        <ele>393</ele>
        <time>2019-12-31T12:58:44.007Z</time>
      </trkpt>
      <trkpt lat="45.02989" lon="5.2784">
        <ele>393</ele>
        <time>2019-12-31T12:58:46.007Z</time>
      </trkpt>
      <trkpt lat="45.02983" lon="5.27841">
        <ele>393</ele>
        <time>2019-12-31T12:58:47.007Z</time>
      </trkpt>
      <trkpt lat="45.02972" lon="5.27841">
        <ele>393</ele>
        <time>2019-12-31T12:58:49.007Z</time>
      </trkpt>
      <trkpt lat="45.02961" lon="5.27841">
        <ele>392.7629952</ele>
        <time>2019-12-31T12:58:51.007Z</time>
      </trkpt>
      <trkpt lat="45.0295" lon="5.27839">
        <ele>392</ele>
        <time>2019-12-31T12:58:53.007Z</time>
      </trkpt>
      <trkpt lat="45.02944" lon="5.27836">
        <ele>392</ele>
        <time>2019-12-31T12:58:54.007Z</time>
      </trkpt>
      <trkpt lat="45.02939" lon="5.27834">
        <ele>392</ele>
        <time>2019-12-31T12:58:55.007Z</time>
      </trkpt>
      <trkpt lat="45.02933" lon="5.27832">
        <ele>392</ele>
        <time>2019-12-31T12:58:56.007Z</time>
      </trkpt>
      <trkpt lat="45.02923" lon="5.2783">
        <ele>392</ele>
        <time>2019-12-31T12:58:58.007Z</time>
      </trkpt>
      <trkpt lat="45.02915" lon="5.27831">
        <ele>392</ele>
        <time>2019-12-31T12:59:00.007Z</time>
      </trkpt>
      <trkpt lat="45.02908" lon="5.27828">
        <ele>388</ele>
        <time>2019-12-31T12:59:16.007Z</time>
      </trkpt>
      <trkpt lat="45.02898" lon="5.27831">
        <ele>388</ele>
        <time>2019-12-31T12:59:19.007Z</time>
      </trkpt>
      <trkpt lat="45.02884" lon="5.27834">
        <ele>387.7629952</ele>
        <time>2019-12-31T12:59:21.007Z</time>
      </trkpt>
      <trkpt lat="45.02878" lon="5.27835">
        <ele>387</ele>
        <time>2019-12-31T12:59:22.007Z</time>
      </trkpt>
      <trkpt lat="45.02871" lon="5.27836">
        <ele>387</ele>
        <time>2019-12-31T12:59:23.007Z</time>
      </trkpt>
      <trkpt lat="45.02864" lon="5.27837">
        <ele>387</ele>
        <time>2019-12-31T12:59:24.007Z</time>
      </trkpt>
      <trkpt lat="45.02855" lon="5.27839">
        <ele>387</ele>
        <time>2019-12-31T12:59:25.007Z</time>
      </trkpt>
      <trkpt lat="45.02846" lon="5.27839">
        <ele>387</ele>
        <time>2019-12-31T12:59:26.007Z</time>
      </trkpt>
      <trkpt lat="45.02837" lon="5.2784">
        <ele>387</ele>
        <time>2019-12-31T12:59:27.007Z</time>
      </trkpt>
      <trkpt lat="45.02828" lon="5.2784">
        <ele>387</ele>
        <time>2019-12-31T12:59:28.007Z</time>
      </trkpt>
      <trkpt lat="45.02819" lon="5.27841">
        <ele>387</ele>
        <time>2019-12-31T12:59:29.007Z</time>
      </trkpt>
      <trkpt lat="45.02809" lon="5.27842">
        <ele>387</ele>
        <time>2019-12-31T12:59:30.007Z</time>
      </trkpt>
      <trkpt lat="45.02799" lon="5.27844">
        <ele>385.1039616</ele>
        <time>2019-12-31T12:59:31.007Z</time>
      </trkpt>
      <trkpt lat="45.02777" lon="5.27846">
        <ele>376</ele>
        <time>2019-12-31T12:59:33.007Z</time>
      </trkpt>
      <trkpt lat="45.02767" lon="5.27847">
        <ele>375.76534401257</ele>
        <time>2019-12-31T12:59:34.007Z</time>
      </trkpt>
      <trkpt lat="45.02758" lon="5.27848">
        <ele>374.54141939154</ele>
        <time>2019-12-31T12:59:35.007Z</time>
      </trkpt>
      <trkpt lat="45.02749" lon="5.27851">
        <ele>372.7629952</ele>
        <time>2019-12-31T12:59:36.007Z</time>
      </trkpt>
      <trkpt lat="45.0274" lon="5.27855">
        <ele>371.7629952</ele>
        <time>2019-12-31T12:59:37.007Z</time>
      </trkpt>
      <trkpt lat="45.02733" lon="5.27863">
        <ele>371</ele>
        <time>2019-12-31T12:59:38.007Z</time>
      </trkpt>
      <trkpt lat="45.02726" lon="5.27872">
        <ele>370.7629952</ele>
        <time>2019-12-31T12:59:39.007Z</time>
      </trkpt>
      <trkpt lat="45.02721" lon="5.27883">
        <ele>370</ele>
        <time>2019-12-31T12:59:40.007Z</time>
      </trkpt>
      <trkpt lat="45.02717" lon="5.27895">
        <ele>369.77300189442</ele>
        <time>2019-12-31T12:59:41.007Z</time>
      </trkpt>
      <trkpt lat="45.02713" lon="5.27907">
        <ele>368.77069973107</ele>
        <time>2019-12-31T12:59:42.007Z</time>
      </trkpt>
      <trkpt lat="45.0271" lon="5.27919">
        <ele>367.7629952</ele>
        <time>2019-12-31T12:59:43.007Z</time>
      </trkpt>
      <trkpt lat="45.02705" lon="5.27944">
        <ele>366.7629952</ele>
        <time>2019-12-31T12:59:45.007Z</time>
      </trkpt>
      <trkpt lat="45.02699" lon="5.27968">
        <ele>364.77070969577</ele>
        <time>2019-12-31T12:59:47.007Z</time>
      </trkpt>
      <trkpt lat="45.02693" lon="5.27988">
        <ele>363.7629952</ele>
        <time>2019-12-31T12:59:49.007Z</time>
      </trkpt>
      <trkpt lat="45.02683" lon="5.28003">
        <ele>361.5259904</ele>
        <time>2019-12-31T12:59:51.007Z</time>
      </trkpt>
      <trkpt lat="45.02674" lon="5.28021">
        <ele>360</ele>
        <time>2019-12-31T12:59:53.007Z</time>
      </trkpt>
      <trkpt lat="45.02669" lon="5.28042">
        <ele>359.7629952</ele>
        <time>2019-12-31T12:59:55.007Z</time>
      </trkpt>
      <trkpt lat="45.02666" lon="5.28053">
        <ele>359</ele>
        <time>2019-12-31T12:59:56.007Z</time>
      </trkpt>
      <trkpt lat="45.02664" lon="5.28065">
        <ele>358.7629952</ele>
        <time>2019-12-31T12:59:57.007Z</time>
      </trkpt>
      <trkpt lat="45.02663" lon="5.28077">
        <ele>357.76534401257</ele>
        <time>2019-12-31T12:59:58.007Z</time>
      </trkpt>
      <trkpt lat="45.02662" lon="5.28089">
        <ele>357</ele>
        <time>2019-12-31T12:59:59.007Z</time>
      </trkpt>
      <trkpt lat="45.02663" lon="5.28112">
        <ele>356.5259904</ele>
        <time>2019-12-31T13:00:01.007Z</time>
      </trkpt>
      <trkpt lat="45.02666" lon="5.28133">
        <ele>355</ele>
        <time>2019-12-31T13:00:03.007Z</time>
      </trkpt>
      <trkpt lat="45.02668" lon="5.28143">
        <ele>355</ele>
        <time>2019-12-31T13:00:04.007Z</time>
      </trkpt>
      <trkpt lat="45.02668" lon="5.28152">
        <ele>354.7629952</ele>
        <time>2019-12-31T13:00:05.007Z</time>
      </trkpt>
      <trkpt lat="45.02666" lon="5.28161">
        <ele>353.7629952</ele>
        <time>2019-12-31T13:00:06.007Z</time>
      </trkpt>
      <trkpt lat="45.02662" lon="5.28168">
        <ele>352.7629952</ele>
        <time>2019-12-31T13:00:07.007Z</time>
      </trkpt>
      <trkpt lat="45.02655" lon="5.28171">
        <ele>351.7629952</ele>
        <time>2019-12-31T13:00:08.007Z</time>
      </trkpt>
      <trkpt lat="45.02648" lon="5.28173">
        <ele>351</ele>
        <time>2019-12-31T13:00:09.007Z</time>
      </trkpt>
      <trkpt lat="45.02641" lon="5.28171">
        <ele>351</ele>
        <time>2019-12-31T13:00:10.007Z</time>
      </trkpt>
      <trkpt lat="45.02634" lon="5.28167">
        <ele>350.77070969577</ele>
        <time>2019-12-31T13:00:11.007Z</time>
      </trkpt>
      <trkpt lat="45.02624" lon="5.28149">
        <ele>349</ele>
        <time>2019-12-31T13:00:13.007Z</time>
      </trkpt>
      <trkpt lat="45.02613" lon="5.28134">
        <ele>348</ele>
        <time>2019-12-31T13:00:15.007Z</time>
      </trkpt>
      <trkpt lat="45.02598" lon="5.28128">
        <ele>346.77070969577</ele>
        <time>2019-12-31T13:00:17.007Z</time>
      </trkpt>
      <trkpt lat="45.02589" lon="5.28129">
        <ele>346</ele>
        <time>2019-12-31T13:00:18.007Z</time>
      </trkpt>
      <trkpt lat="45.02581" lon="5.28131">
        <ele>345.7629952</ele>
        <time>2019-12-31T13:00:19.007Z</time>
      </trkpt>
      <trkpt lat="45.02573" lon="5.28133">
        <ele>345</ele>
        <time>2019-12-31T13:00:20.007Z</time>
      </trkpt>
      <trkpt lat="45.02558" lon="5.28131">
        <ele>342.76534401257</ele>
        <time>2019-12-31T13:00:22.007Z</time>
      </trkpt>
      <trkpt lat="45.02551" lon="5.28125">
        <ele>342</ele>
        <time>2019-12-31T13:00:23.007Z</time>
      </trkpt>
      <trkpt lat="45.02546" lon="5.28115">
        <ele>341.7629952</ele>
        <time>2019-12-31T13:00:24.007Z</time>
      </trkpt>
      <trkpt lat="45.02539" lon="5.28105">
        <ele>341</ele>
        <time>2019-12-31T13:00:25.007Z</time>
      </trkpt>
      <trkpt lat="45.02533" lon="5.28098">
        <ele>340.76534401257</ele>
        <time>2019-12-31T13:00:26.007Z</time>
      </trkpt>
      <trkpt lat="45.02525" lon="5.28093">
        <ele>339.77070969577</ele>
        <time>2019-12-31T13:00:27.007Z</time>
      </trkpt>
      <trkpt lat="45.02518" lon="5.28089">
        <ele>339</ele>
        <time>2019-12-31T13:00:28.007Z</time>
      </trkpt>
      <trkpt lat="45.0251" lon="5.28088">
        <ele>338.7629952</ele>
        <time>2019-12-31T13:00:29.007Z</time>
      </trkpt>
      <trkpt lat="45.02498" lon="5.28101">
        <ele>337</ele>
        <time>2019-12-31T13:00:31.007Z</time>
      </trkpt>
      <trkpt lat="45.02486" lon="5.2812">
        <ele>336.7629952</ele>
        <time>2019-12-31T13:00:33.007Z</time>
      </trkpt>
      <trkpt lat="45.02479" lon="5.28131">
        <ele>335.76534401257</ele>
        <time>2019-12-31T13:00:34.007Z</time>
      </trkpt>
      <trkpt lat="45.02473" lon="5.28142">
        <ele>334.77070969577</ele>
        <time>2019-12-31T13:00:35.007Z</time>
      </trkpt>
      <trkpt lat="45.02469" lon="5.28153">
        <ele>333.7629952</ele>
        <time>2019-12-31T13:00:36.007Z</time>
      </trkpt>
      <trkpt lat="45.02465" lon="5.28166">
        <ele>333</ele>
        <time>2019-12-31T13:00:37.007Z</time>
      </trkpt>
      <trkpt lat="45.02462" lon="5.28179">
        <ele>332.7629952</ele>
        <time>2019-12-31T13:00:38.007Z</time>
      </trkpt>
      <trkpt lat="45.0246" lon="5.28192">
        <ele>331.7629952</ele>
        <time>2019-12-31T13:00:39.007Z</time>
      </trkpt>
      <trkpt lat="45.02458" lon="5.28206">
        <ele>330.76534401257</ele>
        <time>2019-12-31T13:00:40.007Z</time>
      </trkpt>
      <trkpt lat="45.02455" lon="5.28218">
        <ele>329.77070969577</ele>
        <time>2019-12-31T13:00:41.007Z</time>
      </trkpt>
      <trkpt lat="45.02451" lon="5.28228">
        <ele>328.7629952</ele>
        <time>2019-12-31T13:00:42.007Z</time>
      </trkpt>
      <trkpt lat="45.02447" lon="5.28236">
        <ele>327.7629952</ele>
        <time>2019-12-31T13:00:43.007Z</time>
      </trkpt>
      <trkpt lat="45.02442" lon="5.28242">
        <ele>327</ele>
        <time>2019-12-31T13:00:44.007Z</time>
      </trkpt>
      <trkpt lat="45.02435" lon="5.28243">
        <ele>327</ele>
        <time>2019-12-31T13:00:45.007Z</time>
      </trkpt>
      <trkpt lat="45.02429" lon="5.28243">
        <ele>326.76534401257</ele>
        <time>2019-12-31T13:00:46.007Z</time>
      </trkpt>
      <trkpt lat="45.02422" lon="5.28239">
        <ele>325.77070969577</ele>
        <time>2019-12-31T13:00:47.007Z</time>
      </trkpt>
      <trkpt lat="45.02415" lon="5.28236">
        <ele>325</ele>
        <time>2019-12-31T13:00:48.007Z</time>
      </trkpt>
      <trkpt lat="45.02408" lon="5.28233">
        <ele>325</ele>
        <time>2019-12-31T13:00:49.007Z</time>
      </trkpt>
      <trkpt lat="45.024" lon="5.28229">
        <ele>325</ele>
        <time>2019-12-31T13:00:50.007Z</time>
      </trkpt>
      <trkpt lat="45.02391" lon="5.28226">
        <ele>324.7629952</ele>
        <time>2019-12-31T13:00:51.007Z</time>
      </trkpt>
      <trkpt lat="45.02383" lon="5.28224">
        <ele>323.76534401257</ele>
        <time>2019-12-31T13:00:52.007Z</time>
      </trkpt>
      <trkpt lat="45.02374" lon="5.28224">
        <ele>322.54141939154</ele>
        <time>2019-12-31T13:00:53.007Z</time>
      </trkpt>
      <trkpt lat="45.02365" lon="5.28224">
        <ele>321</ele>
        <time>2019-12-31T13:00:54.007Z</time>
      </trkpt>
      <trkpt lat="45.02355" lon="5.28225">
        <ele>321</ele>
        <time>2019-12-31T13:00:55.007Z</time>
      </trkpt>
      <trkpt lat="45.02347" lon="5.28228">
        <ele>320.7629952</ele>
        <time>2019-12-31T13:00:56.007Z</time>
      </trkpt>
      <trkpt lat="45.02338" lon="5.28232">
        <ele>319.7629952</ele>
        <time>2019-12-31T13:00:57.007Z</time>
      </trkpt>
      <trkpt lat="45.02323" lon="5.28235">
        <ele>316.77070969577</ele>
        <time>2019-12-31T13:00:59.007Z</time>
      </trkpt>
      <trkpt lat="45.02315" lon="5.28231">
        <ele>316</ele>
        <time>2019-12-31T13:01:00.007Z</time>
      </trkpt>
      <trkpt lat="45.02309" lon="5.28224">
        <ele>315.7629952</ele>
        <time>2019-12-31T13:01:01.007Z</time>
      </trkpt>
      <trkpt lat="45.02304" lon="5.28215">
        <ele>314.7629952</ele>
        <time>2019-12-31T13:01:02.007Z</time>
      </trkpt>
      <trkpt lat="45.02299" lon="5.28205">
        <ele>314</ele>
        <time>2019-12-31T13:01:03.007Z</time>
      </trkpt>
      <trkpt lat="45.02294" lon="5.28197">
        <ele>313.76534401257</ele>
        <time>2019-12-31T13:01:04.007Z</time>
      </trkpt>
      <trkpt lat="45.0229" lon="5.28189">
        <ele>312.54141939154</ele>
        <time>2019-12-31T13:01:05.007Z</time>
      </trkpt>
      <trkpt lat="45.02284" lon="5.28185">
        <ele>311</ele>
        <time>2019-12-31T13:01:06.007Z</time>
      </trkpt>
      <trkpt lat="45.02277" lon="5.28183">
        <ele>310.7629952</ele>
        <time>2019-12-31T13:01:07.007Z</time>
      </trkpt>
      <trkpt lat="45.0227" lon="5.28183">
        <ele>309.7629952</ele>
        <time>2019-12-31T13:01:08.007Z</time>
      </trkpt>
      <trkpt lat="45.02263" lon="5.28184">
        <ele>308.7629952</ele>
        <time>2019-12-31T13:01:09.007Z</time>
      </trkpt>
      <trkpt lat="45.02256" lon="5.28186">
        <ele>308</ele>
        <time>2019-12-31T13:01:10.007Z</time>
      </trkpt>
      <trkpt lat="45.02251" lon="5.2819">
        <ele>308</ele>
        <time>2019-12-31T13:01:11.007Z</time>
      </trkpt>
      <trkpt lat="45.02246" lon="5.28195">
        <ele>308</ele>
        <time>2019-12-31T13:01:12.007Z</time>
      </trkpt>
      <trkpt lat="45.02242" lon="5.28208">
        <ele>306.7629952</ele>
        <time>2019-12-31T13:01:14.007Z</time>
      </trkpt>
      <trkpt lat="45.02238" lon="5.28222">
        <ele>305</ele>
        <time>2019-12-31T13:01:16.007Z</time>
      </trkpt>
      <trkpt lat="45.02236" lon="5.28228">
        <ele>305</ele>
        <time>2019-12-31T13:01:17.007Z</time>
      </trkpt>
      <trkpt lat="45.02233" lon="5.28236">
        <ele>305</ele>
        <time>2019-12-31T13:01:18.007Z</time>
      </trkpt>
      <trkpt lat="45.02231" lon="5.28243">
        <ele>304.7629952</ele>
        <time>2019-12-31T13:01:19.007Z</time>
      </trkpt>
      <trkpt lat="45.02228" lon="5.28251">
        <ele>303.7629952</ele>
        <time>2019-12-31T13:01:20.007Z</time>
      </trkpt>
      <trkpt lat="45.02224" lon="5.28258">
        <ele>303</ele>
        <time>2019-12-31T13:01:21.007Z</time>
      </trkpt>
      <trkpt lat="45.02221" lon="5.28267">
        <ele>303</ele>
        <time>2019-12-31T13:01:22.007Z</time>
      </trkpt>
      <trkpt lat="45.02217" lon="5.28275">
        <ele>303</ele>
        <time>2019-12-31T13:01:23.007Z</time>
      </trkpt>
      <trkpt lat="45.02214" lon="5.28283">
        <ele>303</ele>
        <time>2019-12-31T13:01:24.007Z</time>
      </trkpt>
      <trkpt lat="45.02211" lon="5.28293">
        <ele>303</ele>
        <time>2019-12-31T13:01:25.007Z</time>
      </trkpt>
      <trkpt lat="45.02208" lon="5.28303">
        <ele>302.5259904</ele>
        <time>2019-12-31T13:01:26.007Z</time>
      </trkpt>
      <trkpt lat="45.02204" lon="5.28314">
        <ele>301</ele>
        <time>2019-12-31T13:01:27.007Z</time>
      </trkpt>
      <trkpt lat="45.02201" lon="5.28322">
        <ele>301</ele>
        <time>2019-12-31T13:01:28.007Z</time>
      </trkpt>
      <trkpt lat="45.02193" lon="5.28334">
        <ele>301</ele>
        <time>2019-12-31T13:01:30.007Z</time>
      </trkpt>
      <trkpt lat="45.02187" lon="5.28335">
        <ele>299.814976</ele>
        <time>2019-12-31T13:01:31.007Z</time>
      </trkpt>
      <trkpt lat="45.02179" lon="5.28333">
        <ele>295.7629952</ele>
        <time>2019-12-31T13:01:32.007Z</time>
      </trkpt>
      <trkpt lat="45.02172" lon="5.28328">
        <ele>295</ele>
        <time>2019-12-31T13:01:33.007Z</time>
      </trkpt>
      <trkpt lat="45.02165" lon="5.28322">
        <ele>294.76534401257</ele>
        <time>2019-12-31T13:01:34.007Z</time>
      </trkpt>
      <trkpt lat="45.02158" lon="5.28316">
        <ele>294</ele>
        <time>2019-12-31T13:01:35.007Z</time>
      </trkpt>
      <trkpt lat="45.02151" lon="5.28309">
        <ele>293.7629952</ele>
        <time>2019-12-31T13:01:36.007Z</time>
      </trkpt>
      <trkpt lat="45.02143" lon="5.28303">
        <ele>292.5259904</ele>
        <time>2019-12-31T13:01:37.007Z</time>
      </trkpt>
      <trkpt lat="45.02125" lon="5.28293">
        <ele>290</ele>
        <time>2019-12-31T13:01:39.007Z</time>
      </trkpt>
      <trkpt lat="45.02116" lon="5.28288">
        <ele>290</ele>
        <time>2019-12-31T13:01:40.007Z</time>
      </trkpt>
      <trkpt lat="45.02107" lon="5.28284">
        <ele>289.31212908731</ele>
        <time>2019-12-31T13:01:41.007Z</time>
      </trkpt>
      <trkpt lat="45.02098" lon="5.28281">
        <ele>286.7629952</ele>
        <time>2019-12-31T13:01:42.007Z</time>
      </trkpt>
      <trkpt lat="45.02088" lon="5.2828">
        <ele>286</ele>
        <time>2019-12-31T13:01:43.007Z</time>
      </trkpt>
      <trkpt lat="45.02078" lon="5.28282">
        <ele>285.5259904</ele>
        <time>2019-12-31T13:01:44.007Z</time>
      </trkpt>
      <trkpt lat="45.02068" lon="5.28284">
        <ele>284</ele>
        <time>2019-12-31T13:01:45.007Z</time>
      </trkpt>
      <trkpt lat="45.02058" lon="5.28287">
        <ele>283.76534401257</ele>
        <time>2019-12-31T13:01:46.007Z</time>
      </trkpt>
      <trkpt lat="45.02047" lon="5.2829">
        <ele>282.77070969577</ele>
        <time>2019-12-31T13:01:47.007Z</time>
      </trkpt>
      <trkpt lat="45.02037" lon="5.28291">
        <ele>281.5259904</ele>
        <time>2019-12-31T13:01:48.007Z</time>
      </trkpt>
      <trkpt lat="45.02026" lon="5.28291">
        <ele>279.7629952</ele>
        <time>2019-12-31T13:01:49.007Z</time>
      </trkpt>
      <trkpt lat="45.02015" lon="5.28292">
        <ele>278.7629952</ele>
        <time>2019-12-31T13:01:50.007Z</time>
      </trkpt>
      <trkpt lat="45.02004" lon="5.28292">
        <ele>277.5259904</ele>
        <time>2019-12-31T13:01:51.007Z</time>
      </trkpt>
      <trkpt lat="45.01993" lon="5.28292">
        <ele>275.53068802514</ele>
        <time>2019-12-31T13:01:52.007Z</time>
      </trkpt>
      <trkpt lat="45.01983" lon="5.28294">
        <ele>273.77070969577</ele>
        <time>2019-12-31T13:01:53.007Z</time>
      </trkpt>
      <trkpt lat="45.01972" lon="5.28297">
        <ele>272.5259904</ele>
        <time>2019-12-31T13:01:54.007Z</time>
      </trkpt>
      <trkpt lat="45.0196" lon="5.28301">
        <ele>271</ele>
        <time>2019-12-31T13:01:55.007Z</time>
      </trkpt>
      <trkpt lat="45.01949" lon="5.28304">
        <ele>270.7629952</ele>
        <time>2019-12-31T13:01:56.007Z</time>
      </trkpt>
      <trkpt lat="45.01938" lon="5.28307">
        <ele>269.5259904</ele>
        <time>2019-12-31T13:01:57.007Z</time>
      </trkpt>
      <trkpt lat="45.01927" lon="5.28308">
        <ele>267.76534401257</ele>
        <time>2019-12-31T13:01:58.007Z</time>
      </trkpt>
      <trkpt lat="45.01917" lon="5.28309">
        <ele>266.77070969577</ele>
        <time>2019-12-31T13:01:59.007Z</time>
      </trkpt>
      <trkpt lat="45.01907" lon="5.28308">
        <ele>265.7629952</ele>
        <time>2019-12-31T13:02:00.007Z</time>
      </trkpt>
      <trkpt lat="45.01897" lon="5.28305">
        <ele>264.7629952</ele>
        <time>2019-12-31T13:02:01.007Z</time>
      </trkpt>
      <trkpt lat="45.01888" lon="5.28301">
        <ele>264</ele>
        <time>2019-12-31T13:02:02.007Z</time>
      </trkpt>
      <trkpt lat="45.0188" lon="5.28296">
        <ele>263.7629952</ele>
        <time>2019-12-31T13:02:03.007Z</time>
      </trkpt>
      <trkpt lat="45.01872" lon="5.2829">
        <ele>262.76534401257</ele>
        <time>2019-12-31T13:02:04.007Z</time>
      </trkpt>
      <trkpt lat="45.01866" lon="5.28283">
        <ele>261.77070969577</ele>
        <time>2019-12-31T13:02:05.007Z</time>
      </trkpt>
      <trkpt lat="45.01859" lon="5.28276">
        <ele>260.5259904</ele>
        <time>2019-12-31T13:02:06.007Z</time>
      </trkpt>
      <trkpt lat="45.01852" lon="5.28271">
        <ele>259</ele>
        <time>2019-12-31T13:02:07.007Z</time>
      </trkpt>
      <trkpt lat="45.01845" lon="5.28268">
        <ele>258.76534401257</ele>
        <time>2019-12-31T13:02:08.007Z</time>
      </trkpt>
      <trkpt lat="45.01838" lon="5.28267">
        <ele>257.77070969577</ele>
        <time>2019-12-31T13:02:09.007Z</time>
      </trkpt>
      <trkpt lat="45.01831" lon="5.28266">
        <ele>256.53068802514</ele>
        <time>2019-12-31T13:02:10.007Z</time>
      </trkpt>
      <trkpt lat="45.01825" lon="5.28264">
        <ele>254.77070969577</ele>
        <time>2019-12-31T13:02:11.007Z</time>
      </trkpt>
      <trkpt lat="45.0182" lon="5.28263">
        <ele>253.7629952</ele>
        <time>2019-12-31T13:02:12.007Z</time>
      </trkpt>
      <trkpt lat="45.01816" lon="5.28262">
        <ele>253</ele>
        <time>2019-12-31T13:02:13.007Z</time>
      </trkpt>
      <trkpt lat="45.0181" lon="5.28264">
        <ele>253</ele>
        <time>2019-12-31T13:02:15.007Z</time>
      </trkpt>
      <trkpt lat="45.01807" lon="5.28266">
        <ele>253</ele>
        <time>2019-12-31T13:02:16.007Z</time>
      </trkpt>
      <trkpt lat="45.01804" lon="5.28269">
        <ele>253</ele>
        <time>2019-12-31T13:02:17.007Z</time>
      </trkpt>
      <trkpt lat="45.01801" lon="5.28272">
        <ele>253</ele>
        <time>2019-12-31T13:02:18.007Z</time>
      </trkpt>
      <trkpt lat="45.01798" lon="5.28277">
        <ele>253</ele>
        <time>2019-12-31T13:02:19.007Z</time>
      </trkpt>
      <trkpt lat="45.01794" lon="5.28281">
        <ele>253</ele>
        <time>2019-12-31T13:02:20.007Z</time>
      </trkpt>
      <trkpt lat="45.01791" lon="5.28286">
        <ele>253</ele>
        <time>2019-12-31T13:02:21.007Z</time>
      </trkpt>
      <trkpt lat="45.01788" lon="5.2829">
        <ele>253</ele>
        <time>2019-12-31T13:02:22.007Z</time>
      </trkpt>
      <trkpt lat="45.01784" lon="5.28295">
        <ele>253</ele>
        <time>2019-12-31T13:02:23.007Z</time>
      </trkpt>
      <trkpt lat="45.01781" lon="5.283">
        <ele>253</ele>
        <time>2019-12-31T13:02:24.007Z</time>
      </trkpt>
      <trkpt lat="45.01778" lon="5.28305">
        <ele>253</ele>
        <time>2019-12-31T13:02:25.007Z</time>
      </trkpt>
      <trkpt lat="45.01775" lon="5.2831">
        <ele>253</ele>
        <time>2019-12-31T13:02:26.007Z</time>
      </trkpt>
      <trkpt lat="45.01771" lon="5.28314">
        <ele>253</ele>
        <time>2019-12-31T13:02:27.007Z</time>
      </trkpt>
      <trkpt lat="45.01763" lon="5.28319">
        <ele>253</ele>
        <time>2019-12-31T13:02:29.007Z</time>
      </trkpt>
      <trkpt lat="45.01753" lon="5.28322">
        <ele>253</ele>
        <time>2019-12-31T13:02:32.007Z</time>
      </trkpt>
      <trkpt lat="45.01741" lon="5.28326">
        <ele>253</ele>
        <time>2019-12-31T13:02:36.007Z</time>
      </trkpt>
      <trkpt lat="45.01736" lon="5.28328">
        <ele>253</ele>
        <time>2019-12-31T13:02:38.007Z</time>
      </trkpt>
      <trkpt lat="45.01733" lon="5.2833">
        <ele>253</ele>
        <time>2019-12-31T13:02:39.007Z</time>
      </trkpt>
      <trkpt lat="45.0173" lon="5.28331">
        <ele>253</ele>
        <time>2019-12-31T13:02:40.007Z</time>
      </trkpt>
      <trkpt lat="45.01727" lon="5.28333">
        <ele>253.7110144</ele>
        <time>2019-12-31T13:02:41.007Z</time>
      </trkpt>
      <trkpt lat="45.01724" lon="5.28335">
        <ele>256</ele>
        <time>2019-12-31T13:02:42.007Z</time>
      </trkpt>
      <trkpt lat="45.01721" lon="5.28336">
        <ele>256</ele>
        <time>2019-12-31T13:02:43.007Z</time>
      </trkpt>
      <trkpt lat="45.01716" lon="5.28339">
        <ele>256</ele>
        <time>2019-12-31T13:02:45.007Z</time>
      </trkpt>
      <trkpt lat="45.01713" lon="5.28341">
        <ele>256.7110144</ele>
        <time>2019-12-31T13:02:46.007Z</time>
      </trkpt>
      <trkpt lat="45.0171" lon="5.28343">
        <ele>259</ele>
        <time>2019-12-31T13:02:47.007Z</time>
      </trkpt>
      <trkpt lat="45.01708" lon="5.28345">
        <ele>259</ele>
        <time>2019-12-31T13:02:48.007Z</time>
      </trkpt>
      <trkpt lat="45.01705" lon="5.28347">
        <ele>259</ele>
        <time>2019-12-31T13:02:49.007Z</time>
      </trkpt>
      <trkpt lat="45.01701" lon="5.28348">
        <ele>259</ele>
        <time>2019-12-31T13:02:50.007Z</time>
      </trkpt>
      <trkpt lat="45.01698" lon="5.2835">
        <ele>259</ele>
        <time>2019-12-31T13:02:51.007Z</time>
      </trkpt>
      <trkpt lat="45.01695" lon="5.28351">
        <ele>259</ele>
        <time>2019-12-31T13:02:52.007Z</time>
      </trkpt>
      <trkpt lat="45.01688" lon="5.28354">
        <ele>259</ele>
        <time>2019-12-31T13:02:54.007Z</time>
      </trkpt>
      <trkpt lat="45.01685" lon="5.28356">
        <ele>259</ele>
        <time>2019-12-31T13:02:55.007Z</time>
      </trkpt>
      <trkpt lat="45.01682" lon="5.28357">
        <ele>259.2370048</ele>
        <time>2019-12-31T13:02:56.007Z</time>
      </trkpt>
      <trkpt lat="45.01678" lon="5.28359">
        <ele>260</ele>
        <time>2019-12-31T13:02:57.007Z</time>
      </trkpt>
      <trkpt lat="45.01675" lon="5.28359">
        <ele>260</ele>
        <time>2019-12-31T13:02:58.007Z</time>
      </trkpt>
      <trkpt lat="45.01671" lon="5.2836">
        <ele>260</ele>
        <time>2019-12-31T13:02:59.007Z</time>
      </trkpt>
      <trkpt lat="45.01668" lon="5.2836">
        <ele>260</ele>
        <time>2019-12-31T13:03:00.007Z</time>
      </trkpt>
      <trkpt lat="45.01664" lon="5.2836">
        <ele>260</ele>
        <time>2019-12-31T13:03:01.007Z</time>
      </trkpt>
      <trkpt lat="45.0166" lon="5.2836">
        <ele>260</ele>
        <time>2019-12-31T13:03:02.007Z</time>
      </trkpt>
      <trkpt lat="45.01656" lon="5.28359">
        <ele>260</ele>
        <time>2019-12-31T13:03:03.007Z</time>
      </trkpt>
      <trkpt lat="45.01652" lon="5.28359">
        <ele>260</ele>
        <time>2019-12-31T13:03:04.007Z</time>
      </trkpt>
      <trkpt lat="45.01647" lon="5.28359">
        <ele>260</ele>
        <time>2019-12-31T13:03:05.007Z</time>
      </trkpt>
      <trkpt lat="45.01643" lon="5.28358">
        <ele>260</ele>
        <time>2019-12-31T13:03:06.007Z</time>
      </trkpt>
      <trkpt lat="45.01639" lon="5.28356">
        <ele>260</ele>
        <time>2019-12-31T13:03:07.007Z</time>
      </trkpt>
      <trkpt lat="45.01634" lon="5.28354">
        <ele>260</ele>
        <time>2019-12-31T13:03:08.007Z</time>
      </trkpt>
      <trkpt lat="45.0163" lon="5.28353">
        <ele>260</ele>
        <time>2019-12-31T13:03:09.007Z</time>
      </trkpt>
      <trkpt lat="45.01625" lon="5.28352">
        <ele>260</ele>
        <time>2019-12-31T13:03:10.007Z</time>
      </trkpt>
      <trkpt lat="45.01621" lon="5.28351">
        <ele>260</ele>
        <time>2019-12-31T13:03:11.007Z</time>
      </trkpt>
      <trkpt lat="45.01616" lon="5.28349">
        <ele>260</ele>
        <time>2019-12-31T13:03:12.007Z</time>
      </trkpt>
      <trkpt lat="45.01612" lon="5.28349">
        <ele>260</ele>
        <time>2019-12-31T13:03:13.007Z</time>
      </trkpt>
      <trkpt lat="45.01603" lon="5.28349">
        <ele>260</ele>
        <time>2019-12-31T13:03:15.007Z</time>
      </trkpt>
      <trkpt lat="45.01594" lon="5.28351">
        <ele>260</ele>
        <time>2019-12-31T13:03:17.007Z</time>
      </trkpt>
      <trkpt lat="45.01584" lon="5.28352">
        <ele>260</ele>
        <time>2019-12-31T13:03:19.007Z</time>
      </trkpt>
      <trkpt lat="45.01574" lon="5.28354">
        <ele>260</ele>
        <time>2019-12-31T13:03:21.007Z</time>
      </trkpt>
      <trkpt lat="45.01564" lon="5.28356">
        <ele>260</ele>
        <time>2019-12-31T13:03:23.007Z</time>
      </trkpt>
      <trkpt lat="45.01554" lon="5.28357">
        <ele>260</ele>
        <time>2019-12-31T13:03:25.007Z</time>
      </trkpt>
      <trkpt lat="45.01544" lon="5.28357">
        <ele>260</ele>
        <time>2019-12-31T13:03:27.007Z</time>
      </trkpt>
      <trkpt lat="45.01538" lon="5.28356">
        <ele>260</ele>
        <time>2019-12-31T13:03:28.007Z</time>
      </trkpt>
      <trkpt lat="45.01527" lon="5.28353">
        <ele>260</ele>
        <time>2019-12-31T13:03:30.007Z</time>
      </trkpt>
      <trkpt lat="45.01515" lon="5.28349">
        <ele>259</ele>
        <time>2019-12-31T13:03:32.007Z</time>
      </trkpt>
      <trkpt lat="45.01502" lon="5.28345">
        <ele>259</ele>
        <time>2019-12-31T13:03:34.007Z</time>
      </trkpt>
      <trkpt lat="45.01489" lon="5.28339">
        <ele>259</ele>
        <time>2019-12-31T13:03:36.007Z</time>
      </trkpt>
      <trkpt lat="45.01484" lon="5.28335">
        <ele>259</ele>
        <time>2019-12-31T13:03:37.007Z</time>
      </trkpt>
      <trkpt lat="45.01479" lon="5.28331">
        <ele>259</ele>
        <time>2019-12-31T13:03:38.007Z</time>
      </trkpt>
      <trkpt lat="45.01474" lon="5.28327">
        <ele>259</ele>
        <time>2019-12-31T13:03:39.007Z</time>
      </trkpt>
      <trkpt lat="45.01469" lon="5.28323">
        <ele>259</ele>
        <time>2019-12-31T13:03:40.007Z</time>
      </trkpt>
      <trkpt lat="45.01465" lon="5.28319">
        <ele>258.7629952</ele>
        <time>2019-12-31T13:03:41.007Z</time>
      </trkpt>
      <trkpt lat="45.01461" lon="5.28315">
        <ele>258</ele>
        <time>2019-12-31T13:03:42.007Z</time>
      </trkpt>
      <trkpt lat="45.01456" lon="5.28311">
        <ele>258</ele>
        <time>2019-12-31T13:03:43.007Z</time>
      </trkpt>
      <trkpt lat="45.01452" lon="5.28307">
        <ele>258</ele>
        <time>2019-12-31T13:03:44.007Z</time>
      </trkpt>
      <trkpt lat="45.01447" lon="5.28304">
        <ele>258</ele>
        <time>2019-12-31T13:03:45.007Z</time>
      </trkpt>
      <trkpt lat="45.01443" lon="5.283">
        <ele>258</ele>
        <time>2019-12-31T13:03:46.007Z</time>
      </trkpt>
      <trkpt lat="45.01433" lon="5.28294">
        <ele>258</ele>
        <time>2019-12-31T13:03:48.007Z</time>
      </trkpt>
      <trkpt lat="45.01428" lon="5.28292">
        <ele>258</ele>
        <time>2019-12-31T13:03:49.007Z</time>
      </trkpt>
      <trkpt lat="45.01423" lon="5.28289">
        <ele>258</ele>
        <time>2019-12-31T13:03:50.007Z</time>
      </trkpt>
      <trkpt lat="45.01418" lon="5.28287">
        <ele>258</ele>
        <time>2019-12-31T13:03:51.007Z</time>
      </trkpt>
      <trkpt lat="45.01414" lon="5.28285">
        <ele>258</ele>
        <time>2019-12-31T13:03:52.007Z</time>
      </trkpt>
      <trkpt lat="45.01409" lon="5.28283">
        <ele>258</ele>
        <time>2019-12-31T13:03:53.007Z</time>
      </trkpt>
      <trkpt lat="45.01404" lon="5.28281">
        <ele>258</ele>
        <time>2019-12-31T13:03:54.007Z</time>
      </trkpt>
      <trkpt lat="45.01399" lon="5.28279">
        <ele>258</ele>
        <time>2019-12-31T13:03:55.007Z</time>
      </trkpt>
      <trkpt lat="45.01395" lon="5.28276">
        <ele>258</ele>
        <time>2019-12-31T13:03:56.007Z</time>
      </trkpt>
      <trkpt lat="45.01392" lon="5.28272">
        <ele>258</ele>
        <time>2019-12-31T13:03:57.007Z</time>
      </trkpt>
      <trkpt lat="45.01389" lon="5.28267">
        <ele>258</ele>
        <time>2019-12-31T13:03:58.007Z</time>
      </trkpt>
      <trkpt lat="45.01388" lon="5.28261">
        <ele>258</ele>
        <time>2019-12-31T13:03:59.007Z</time>
      </trkpt>
      <trkpt lat="45.01386" lon="5.28256">
        <ele>258</ele>
        <time>2019-12-31T13:04:00.007Z</time>
      </trkpt>
      <trkpt lat="45.01385" lon="5.28251">
        <ele>258.2370048</ele>
        <time>2019-12-31T13:04:01.007Z</time>
      </trkpt>
      <trkpt lat="45.01385" lon="5.28246">
        <ele>259</ele>
        <time>2019-12-31T13:04:02.007Z</time>
      </trkpt>
      <trkpt lat="45.01385" lon="5.28242">
        <ele>259</ele>
        <time>2019-12-31T13:04:03.007Z</time>
      </trkpt>
      <trkpt lat="45.01385" lon="5.28237">
        <ele>259</ele>
        <time>2019-12-31T13:04:04.007Z</time>
      </trkpt>
      <trkpt lat="45.01385" lon="5.28233">
        <ele>259</ele>
        <time>2019-12-31T13:04:05.007Z</time>
      </trkpt>
      <trkpt lat="45.01386" lon="5.28219">
        <ele>259</ele>
        <time>2019-12-31T13:04:08.007Z</time>
      </trkpt>
      <trkpt lat="45.01387" lon="5.28215">
        <ele>259</ele>
        <time>2019-12-31T13:04:09.007Z</time>
      </trkpt>
      <trkpt lat="45.01387" lon="5.28206">
        <ele>259.4740096</ele>
        <time>2019-12-31T13:04:11.007Z</time>
      </trkpt>
      <trkpt lat="45.01389" lon="5.28198">
        <ele>261</ele>
        <time>2019-12-31T13:04:13.007Z</time>
      </trkpt>
      <trkpt lat="45.0139" lon="5.2819">
        <ele>261</ele>
        <time>2019-12-31T13:04:15.007Z</time>
      </trkpt>
      <trkpt lat="45.01392" lon="5.28182">
        <ele>264</ele>
        <time>2019-12-31T13:04:17.007Z</time>
      </trkpt>
      <trkpt lat="45.01394" lon="5.28174">
        <ele>264</ele>
        <time>2019-12-31T13:04:20.007Z</time>
      </trkpt>
      <trkpt lat="45.01389" lon="5.2817">
        <ele>265</ele>
        <time>2019-12-31T13:04:23.007Z</time>
      </trkpt>
      <trkpt lat="45.01383" lon="5.28166">
        <ele>265.2370048</ele>
        <time>2019-12-31T13:04:26.007Z</time>
      </trkpt>
      <trkpt lat="45.01376" lon="5.28163">
        <ele>266</ele>
        <time>2019-12-31T13:04:30.007Z</time>
      </trkpt>
      <trkpt lat="45.01368" lon="5.28159">
        <ele>266</ele>
        <time>2019-12-31T13:04:34.007Z</time>
      </trkpt>
      <trkpt lat="45.01363" lon="5.28157">
        <ele>266</ele>
        <time>2019-12-31T13:04:36.007Z</time>
      </trkpt>
      <trkpt lat="45.01355" lon="5.28155">
        <ele>266</ele>
        <time>2019-12-31T13:04:39.007Z</time>
      </trkpt>
      <trkpt lat="45.01347" lon="5.28153">
        <ele>268</ele>
        <time>2019-12-31T13:04:42.007Z</time>
      </trkpt>
      <trkpt lat="45.01338" lon="5.28152">
        <ele>268</ele>
        <time>2019-12-31T13:04:45.007Z</time>
      </trkpt>
      <trkpt lat="45.0133" lon="5.28149">
        <ele>268</ele>
        <time>2019-12-31T13:04:48.007Z</time>
      </trkpt>
      <trkpt lat="45.01327" lon="5.28147">
        <ele>268</ele>
        <time>2019-12-31T13:04:49.007Z</time>
      </trkpt>
      <trkpt lat="45.01325" lon="5.28145">
        <ele>268</ele>
        <time>2019-12-31T13:04:50.007Z</time>
      </trkpt>
      <trkpt lat="45.01323" lon="5.28142">
        <ele>268.2370048</ele>
        <time>2019-12-31T13:04:51.007Z</time>
      </trkpt>
      <trkpt lat="45.01321" lon="5.28139">
        <ele>269</ele>
        <time>2019-12-31T13:04:52.007Z</time>
      </trkpt>
      <trkpt lat="45.0132" lon="5.28136">
        <ele>269</ele>
        <time>2019-12-31T13:04:53.007Z</time>
      </trkpt>
      <trkpt lat="45.01319" lon="5.28132">
        <ele>269</ele>
        <time>2019-12-31T13:04:54.007Z</time>
      </trkpt>
      <trkpt lat="45.01316" lon="5.28123">
        <ele>269</ele>
        <time>2019-12-31T13:04:57.007Z</time>
      </trkpt>
      <trkpt lat="45.01312" lon="5.28115">
        <ele>269</ele>
        <time>2019-12-31T13:05:00.007Z</time>
      </trkpt>
      <trkpt lat="45.01308" lon="5.28107">
        <ele>270</ele>
        <time>2019-12-31T13:05:03.007Z</time>
      </trkpt>
      <trkpt lat="45.01306" lon="5.28101">
        <ele>270</ele>
        <time>2019-12-31T13:05:05.007Z</time>
      </trkpt>
      <trkpt lat="45.01304" lon="5.28095">
        <ele>270</ele>
        <time>2019-12-31T13:05:07.007Z</time>
      </trkpt>
      <trkpt lat="45.01303" lon="5.28088">
        <ele>270</ele>
        <time>2019-12-31T13:05:09.007Z</time>
      </trkpt>
      <trkpt lat="45.01303" lon="5.28082">
        <ele>270.2370048</ele>
        <time>2019-12-31T13:05:11.007Z</time>
      </trkpt>
      <trkpt lat="45.01303" lon="5.28076">
        <ele>271</ele>
        <time>2019-12-31T13:05:13.007Z</time>
      </trkpt>
      <trkpt lat="45.01305" lon="5.28066">
        <ele>271</ele>
        <time>2019-12-31T13:05:17.007Z</time>
      </trkpt>
      <trkpt lat="45.01311" lon="5.2806">
        <ele>271.68787091269</ele>
        <time>2019-12-31T13:05:21.007Z</time>
      </trkpt>
      <trkpt lat="45.01314" lon="5.28058">
        <ele>274</ele>
        <time>2019-12-31T13:05:23.007Z</time>
      </trkpt>
      <trkpt lat="45.01318" lon="5.28057">
        <ele>274</ele>
        <time>2019-12-31T13:05:25.007Z</time>
      </trkpt>
      <trkpt lat="45.01322" lon="5.28056">
        <ele>276</ele>
        <time>2019-12-31T13:05:27.007Z</time>
      </trkpt>
      <trkpt lat="45.01326" lon="5.28054">
        <ele>276</ele>
        <time>2019-12-31T13:05:29.007Z</time>
      </trkpt>
      <trkpt lat="45.0133" lon="5.28052">
        <ele>276.2370048</ele>
        <time>2019-12-31T13:05:31.007Z</time>
      </trkpt>
      <trkpt lat="45.01333" lon="5.2805">
        <ele>277</ele>
        <time>2019-12-31T13:05:33.007Z</time>
      </trkpt>
      <trkpt lat="45.01337" lon="5.28049">
        <ele>277</ele>
        <time>2019-12-31T13:05:35.007Z</time>
      </trkpt>
      <trkpt lat="45.01341" lon="5.28047">
        <ele>278</ele>
        <time>2019-12-31T13:05:37.007Z</time>
      </trkpt>
      <trkpt lat="45.01345" lon="5.28046">
        <ele>278</ele>
        <time>2019-12-31T13:05:39.007Z</time>
      </trkpt>
      <trkpt lat="45.01348" lon="5.28044">
        <ele>278.4740096</ele>
        <time>2019-12-31T13:05:41.007Z</time>
      </trkpt>
      <trkpt lat="45.01351" lon="5.28041">
        <ele>280</ele>
        <time>2019-12-31T13:05:43.007Z</time>
      </trkpt>
      <trkpt lat="45.01359" lon="5.28037">
        <ele>280</ele>
        <time>2019-12-31T13:05:47.007Z</time>
      </trkpt>
      <trkpt lat="45.01366" lon="5.28036">
        <ele>280</ele>
        <time>2019-12-31T13:05:49.007Z</time>
      </trkpt>
      <trkpt lat="45.01376" lon="5.28036">
        <ele>278</ele>
        <time>2019-12-31T13:05:52.007Z</time>
      </trkpt>
      <trkpt lat="45.01385" lon="5.28033">
        <ele>278</ele>
        <time>2019-12-31T13:05:58.007Z</time>
      </trkpt>
      <trkpt lat="45.01375" lon="5.28038">
        <ele>277</ele>
        <time>2019-12-31T13:06:47.007Z</time>
      </trkpt>
      <trkpt lat="45.01366" lon="5.28038">
        <ele>277.2370048</ele>
        <time>2019-12-31T13:06:51.007Z</time>
      </trkpt>
      <trkpt lat="45.01359" lon="5.2804">
        <ele>278</ele>
        <time>2019-12-31T13:06:54.007Z</time>
      </trkpt>
      <trkpt lat="45.0135" lon="5.28045">
        <ele>278</ele>
        <time>2019-12-31T13:06:58.007Z</time>
      </trkpt>
      <trkpt lat="45.01344" lon="5.28049">
        <ele>278</ele>
        <time>2019-12-31T13:07:00.007Z</time>
      </trkpt>
      <trkpt lat="45.0134" lon="5.2805">
        <ele>278.22929030423</ele>
        <time>2019-12-31T13:07:01.007Z</time>
      </trkpt>
      <trkpt lat="45.01336" lon="5.28052">
        <ele>279</ele>
        <time>2019-12-31T13:07:02.007Z</time>
      </trkpt>
      <trkpt lat="45.01332" lon="5.28053">
        <ele>279</ele>
        <time>2019-12-31T13:07:03.007Z</time>
      </trkpt>
      <trkpt lat="45.01328" lon="5.28055">
        <ele>279</ele>
        <time>2019-12-31T13:07:04.007Z</time>
      </trkpt>
      <trkpt lat="45.01325" lon="5.28058">
        <ele>279</ele>
        <time>2019-12-31T13:07:05.007Z</time>
      </trkpt>
      <trkpt lat="45.01321" lon="5.28059">
        <ele>279</ele>
        <time>2019-12-31T13:07:06.007Z</time>
      </trkpt>
      <trkpt lat="45.01318" lon="5.28061">
        <ele>279</ele>
        <time>2019-12-31T13:07:07.007Z</time>
      </trkpt>
      <trkpt lat="45.01314" lon="5.28061">
        <ele>279</ele>
        <time>2019-12-31T13:07:08.007Z</time>
      </trkpt>
      <trkpt lat="45.01311" lon="5.28061">
        <ele>279</ele>
        <time>2019-12-31T13:07:09.007Z</time>
      </trkpt>
      <trkpt lat="45.01302" lon="5.2806">
        <ele>277</ele>
        <time>2019-12-31T13:07:12.007Z</time>
      </trkpt>
      <trkpt lat="45.01295" lon="5.2806">
        <ele>276.2889856</ele>
        <time>2019-12-31T13:07:16.007Z</time>
      </trkpt>
      <trkpt lat="45.01301" lon="5.28059">
        <ele>274</ele>
        <time>2019-12-31T13:07:48.007Z</time>
      </trkpt>
      <trkpt lat="45.0131" lon="5.28059">
        <ele>274</ele>
        <time>2019-12-31T13:07:52.007Z</time>
      </trkpt>
      <trkpt lat="45.01317" lon="5.28059">
        <ele>274</ele>
        <time>2019-12-31T13:07:55.007Z</time>
      </trkpt>
      <trkpt lat="45.01325" lon="5.28056">
        <ele>274</ele>
        <time>2019-12-31T13:07:58.007Z</time>
      </trkpt>
      <trkpt lat="45.01331" lon="5.28053">
        <ele>274</ele>
        <time>2019-12-31T13:08:00.007Z</time>
      </trkpt>
      <trkpt lat="45.01338" lon="5.2805">
        <ele>278</ele>
        <time>2019-12-31T13:08:03.007Z</time>
      </trkpt>
      <trkpt lat="45.01346" lon="5.28047">
        <ele>278</ele>
        <time>2019-12-31T13:08:06.007Z</time>
      </trkpt>
      <trkpt lat="45.01353" lon="5.28041">
        <ele>278</ele>
        <time>2019-12-31T13:08:10.007Z</time>
      </trkpt>
      <trkpt lat="45.01361" lon="5.28038">
        <ele>280</ele>
        <time>2019-12-31T13:08:13.007Z</time>
      </trkpt>
      <trkpt lat="45.01369" lon="5.28037">
        <ele>280</ele>
        <time>2019-12-31T13:08:15.007Z</time>
      </trkpt>
      <trkpt lat="45.01377" lon="5.28036">
        <ele>278</ele>
        <time>2019-12-31T13:08:17.007Z</time>
      </trkpt>
      <trkpt lat="45.01385" lon="5.28033">
        <ele>276</ele>
        <time>2019-12-31T13:08:22.007Z</time>
      </trkpt>
      <trkpt lat="45.0138" lon="5.2802">
        <ele>277</ele>
        <time>2019-12-31T13:08:37.007Z</time>
      </trkpt>
      <trkpt lat="45.01379" lon="5.28006">
        <ele>280</ele>
        <time>2019-12-31T13:08:53.007Z</time>
      </trkpt>
      <trkpt lat="45.01377" lon="5.27992">
        <ele>283</ele>
        <time>2019-12-31T13:09:14.007Z</time>
      </trkpt>
      <trkpt lat="45.01372" lon="5.27979">
        <ele>284</ele>
        <time>2019-12-31T13:09:29.007Z</time>
      </trkpt>
      <trkpt lat="45.01368" lon="5.27967">
        <ele>290</ele>
        <time>2019-12-31T13:09:42.007Z</time>
      </trkpt>
      <trkpt lat="45.01365" lon="5.27954">
        <ele>291</ele>
        <time>2019-12-31T13:09:57.007Z</time>
      </trkpt>
      <trkpt lat="45.01368" lon="5.2794">
        <ele>292</ele>
        <time>2019-12-31T13:10:10.007Z</time>
      </trkpt>
      <trkpt lat="45.01367" lon="5.27928">
        <ele>295</ele>
        <time>2019-12-31T13:10:22.007Z</time>
      </trkpt>
      <trkpt lat="45.01366" lon="5.27918">
        <ele>296</ele>
        <time>2019-12-31T13:10:33.007Z</time>
      </trkpt>
      <trkpt lat="45.01364" lon="5.27907">
        <ele>298</ele>
        <time>2019-12-31T13:10:48.007Z</time>
      </trkpt>
      <trkpt lat="45.01363" lon="5.27895">
        <ele>300</ele>
        <time>2019-12-31T13:10:59.007Z</time>
      </trkpt>
      <trkpt lat="45.01362" lon="5.27883">
        <ele>300</ele>
        <time>2019-12-31T13:11:10.007Z</time>
      </trkpt>
      <trkpt lat="45.01362" lon="5.2787">
        <ele>303</ele>
        <time>2019-12-31T13:11:23.007Z</time>
      </trkpt>
      <trkpt lat="45.01361" lon="5.27856">
        <ele>305</ele>
        <time>2019-12-31T13:11:36.007Z</time>
      </trkpt>
      <trkpt lat="45.01362" lon="5.27841">
        <ele>306</ele>
        <time>2019-12-31T13:11:48.007Z</time>
      </trkpt>
      <trkpt lat="45.0136" lon="5.27828">
        <ele>310</ele>
        <time>2019-12-31T13:12:21.007Z</time>
      </trkpt>
      <trkpt lat="45.01357" lon="5.27815">
        <ele>311</ele>
        <time>2019-12-31T13:12:33.007Z</time>
      </trkpt>
      <trkpt lat="45.01352" lon="5.27803">
        <ele>311</ele>
        <time>2019-12-31T13:12:40.007Z</time>
      </trkpt>
      <trkpt lat="45.01346" lon="5.2779">
        <ele>313</ele>
        <time>2019-12-31T13:12:47.007Z</time>
      </trkpt>
      <trkpt lat="45.01342" lon="5.27778">
        <ele>314</ele>
        <time>2019-12-31T13:12:52.007Z</time>
      </trkpt>
      <trkpt lat="45.0134" lon="5.27771">
        <ele>314</ele>
        <time>2019-12-31T13:12:56.007Z</time>
      </trkpt>
      <trkpt lat="45.01338" lon="5.27762">
        <ele>314</ele>
        <time>2019-12-31T13:13:00.007Z</time>
      </trkpt>
      <trkpt lat="45.01336" lon="5.27755">
        <ele>317</ele>
        <time>2019-12-31T13:13:04.007Z</time>
      </trkpt>
      <trkpt lat="45.01333" lon="5.27741">
        <ele>319</ele>
        <time>2019-12-31T13:13:10.007Z</time>
      </trkpt>
      <trkpt lat="45.01334" lon="5.27726">
        <ele>319</ele>
        <time>2019-12-31T13:13:16.007Z</time>
      </trkpt>
      <trkpt lat="45.01338" lon="5.27714">
        <ele>319.4740096</ele>
        <time>2019-12-31T13:13:21.007Z</time>
      </trkpt>
      <trkpt lat="45.01344" lon="5.27701">
        <ele>321</ele>
        <time>2019-12-31T13:13:25.007Z</time>
      </trkpt>
      <trkpt lat="45.0135" lon="5.27693">
        <ele>321</ele>
        <time>2019-12-31T13:13:28.007Z</time>
      </trkpt>
      <trkpt lat="45.01356" lon="5.27684">
        <ele>321</ele>
        <time>2019-12-31T13:13:32.007Z</time>
      </trkpt>
      <trkpt lat="45.01361" lon="5.27675">
        <ele>321</ele>
        <time>2019-12-31T13:13:36.007Z</time>
      </trkpt>
      <trkpt lat="45.01367" lon="5.27668">
        <ele>321</ele>
        <time>2019-12-31T13:13:40.007Z</time>
      </trkpt>
      <trkpt lat="45.01375" lon="5.27657">
        <ele>322</ele>
        <time>2019-12-31T13:13:45.007Z</time>
      </trkpt>
      <trkpt lat="45.01381" lon="5.27644">
        <ele>322</ele>
        <time>2019-12-31T13:13:48.007Z</time>
      </trkpt>
      <trkpt lat="45.01382" lon="5.27629">
        <ele>321</ele>
        <time>2019-12-31T13:13:53.007Z</time>
      </trkpt>
      <trkpt lat="45.01382" lon="5.27614">
        <ele>321</ele>
        <time>2019-12-31T13:13:56.007Z</time>
      </trkpt>
      <trkpt lat="45.01384" lon="5.27597">
        <ele>321</ele>
        <time>2019-12-31T13:14:00.007Z</time>
      </trkpt>
      <trkpt lat="45.01383" lon="5.27588">
        <ele>312</ele>
        <time>2019-12-31T13:14:37.007Z</time>
      </trkpt>
      <trkpt lat="45.01381" lon="5.27579">
        <ele>311</ele>
        <time>2019-12-31T13:14:44.007Z</time>
      </trkpt>
      <trkpt lat="45.01382" lon="5.27571">
        <ele>311</ele>
        <time>2019-12-31T13:14:50.007Z</time>
      </trkpt>
      <trkpt lat="45.01382" lon="5.27561">
        <ele>310.5259904</ele>
        <time>2019-12-31T13:15:01.007Z</time>
      </trkpt>
      <trkpt lat="45.01384" lon="5.27553">
        <ele>310</ele>
        <time>2019-12-31T13:15:28.007Z</time>
      </trkpt>
      <trkpt lat="45.01384" lon="5.27543">
        <ele>309</ele>
        <time>2019-12-31T13:15:40.007Z</time>
      </trkpt>
      <trkpt lat="45.01383" lon="5.27534">
        <ele>309</ele>
        <time>2019-12-31T13:15:43.007Z</time>
      </trkpt>
      <trkpt lat="45.01382" lon="5.27522">
        <ele>309</ele>
        <time>2019-12-31T13:15:46.007Z</time>
      </trkpt>
      <trkpt lat="45.01382" lon="5.27513">
        <ele>309</ele>
        <time>2019-12-31T13:15:49.007Z</time>
      </trkpt>
      <trkpt lat="45.01383" lon="5.27502">
        <ele>309</ele>
        <time>2019-12-31T13:15:53.007Z</time>
      </trkpt>
      <trkpt lat="45.01385" lon="5.27493">
        <ele>309</ele>
        <time>2019-12-31T13:15:58.007Z</time>
      </trkpt>
      <trkpt lat="45.01386" lon="5.27484">
        <ele>309.7110144</ele>
        <time>2019-12-31T13:16:01.007Z</time>
      </trkpt>
      <trkpt lat="45.01389" lon="5.27475">
        <ele>312</ele>
        <time>2019-12-31T13:16:05.007Z</time>
      </trkpt>
      <trkpt lat="45.01391" lon="5.27466">
        <ele>313</ele>
        <time>2019-12-31T13:16:09.007Z</time>
      </trkpt>
      <trkpt lat="45.01392" lon="5.27458">
        <ele>314</ele>
        <time>2019-12-31T13:16:13.007Z</time>
      </trkpt>
      <trkpt lat="45.01393" lon="5.2745">
        <ele>314</ele>
        <time>2019-12-31T13:16:20.007Z</time>
      </trkpt>
      <trkpt lat="45.01395" lon="5.27443">
        <ele>315</ele>
        <time>2019-12-31T13:16:29.007Z</time>
      </trkpt>
      <trkpt lat="45.01395" lon="5.27435">
        <ele>316</ele>
        <time>2019-12-31T13:16:35.007Z</time>
      </trkpt>
      <trkpt lat="45.01397" lon="5.27427">
        <ele>317</ele>
        <time>2019-12-31T13:16:42.007Z</time>
      </trkpt>
      <trkpt lat="45.01398" lon="5.27421">
        <ele>317</ele>
        <time>2019-12-31T13:16:45.007Z</time>
      </trkpt>
      <trkpt lat="45.01399" lon="5.27414">
        <ele>317</ele>
        <time>2019-12-31T13:16:48.007Z</time>
      </trkpt>
      <trkpt lat="45.014" lon="5.27405">
        <ele>319</ele>
        <time>2019-12-31T13:16:53.007Z</time>
      </trkpt>
      <trkpt lat="45.014" lon="5.27395">
        <ele>319</ele>
        <time>2019-12-31T13:16:58.007Z</time>
      </trkpt>
      <trkpt lat="45.01401" lon="5.27386">
        <ele>321</ele>
        <time>2019-12-31T13:17:02.007Z</time>
      </trkpt>
      <trkpt lat="45.01402" lon="5.27377">
        <ele>321.4740096</ele>
        <time>2019-12-31T13:17:06.007Z</time>
      </trkpt>
      <trkpt lat="45.01404" lon="5.2737">
        <ele>323</ele>
        <time>2019-12-31T13:17:09.007Z</time>
      </trkpt>
      <trkpt lat="45.01406" lon="5.2736">
        <ele>323</ele>
        <time>2019-12-31T13:17:14.007Z</time>
      </trkpt>
      <trkpt lat="45.01406" lon="5.27352">
        <ele>323</ele>
        <time>2019-12-31T13:17:17.007Z</time>
      </trkpt>
      <trkpt lat="45.01408" lon="5.27343">
        <ele>323</ele>
        <time>2019-12-31T13:17:20.007Z</time>
      </trkpt>
      <trkpt lat="45.01408" lon="5.27331">
        <ele>322</ele>
        <time>2019-12-31T13:17:23.007Z</time>
      </trkpt>
      <trkpt lat="45.0141" lon="5.2732">
        <ele>322</ele>
        <time>2019-12-31T13:17:25.007Z</time>
      </trkpt>
      <trkpt lat="45.01415" lon="5.27309">
        <ele>322</ele>
        <time>2019-12-31T13:17:29.007Z</time>
      </trkpt>
      <trkpt lat="45.01421" lon="5.27304">
        <ele>321</ele>
        <time>2019-12-31T13:17:33.007Z</time>
      </trkpt>
      <trkpt lat="45.01426" lon="5.27297">
        <ele>321</ele>
        <time>2019-12-31T13:17:37.007Z</time>
      </trkpt>
      <trkpt lat="45.01427" lon="5.27286">
        <ele>321</ele>
        <time>2019-12-31T13:17:41.007Z</time>
      </trkpt>
      <trkpt lat="45.01426" lon="5.27276">
        <ele>321</ele>
        <time>2019-12-31T13:17:45.007Z</time>
      </trkpt>
      <trkpt lat="45.0142" lon="5.27269">
        <ele>321</ele>
        <time>2019-12-31T13:17:49.007Z</time>
      </trkpt>
      <trkpt lat="45.01415" lon="5.27262">
        <ele>321</ele>
        <time>2019-12-31T13:17:53.007Z</time>
      </trkpt>
      <trkpt lat="45.01412" lon="5.27255">
        <ele>321</ele>
        <time>2019-12-31T13:17:56.007Z</time>
      </trkpt>
      <trkpt lat="45.0141" lon="5.2725">
        <ele>321</ele>
        <time>2019-12-31T13:17:59.007Z</time>
      </trkpt>
      <trkpt lat="45.01405" lon="5.27244">
        <ele>322</ele>
        <time>2019-12-31T13:18:04.007Z</time>
      </trkpt>
      <trkpt lat="45.01407" lon="5.27235">
        <ele>324</ele>
        <time>2019-12-31T13:18:13.007Z</time>
      </trkpt>
      <trkpt lat="45.01414" lon="5.27235">
        <ele>324</ele>
        <time>2019-12-31T13:18:50.007Z</time>
      </trkpt>
      <trkpt lat="45.0142" lon="5.27228">
        <ele>327</ele>
        <time>2019-12-31T13:19:08.007Z</time>
      </trkpt>
      <trkpt lat="45.01428" lon="5.27228">
        <ele>327</ele>
        <time>2019-12-31T13:20:33.007Z</time>
      </trkpt>
      <trkpt lat="45.01436" lon="5.27223">
        <ele>328</ele>
        <time>2019-12-31T13:20:46.007Z</time>
      </trkpt>
      <trkpt lat="45.01428" lon="5.27213">
        <ele>332</ele>
        <time>2019-12-31T13:21:07.007Z</time>
      </trkpt>
      <trkpt lat="45.01421" lon="5.27208">
        <ele>333</ele>
        <time>2019-12-31T13:21:12.007Z</time>
      </trkpt>
      <trkpt lat="45.01411" lon="5.27203">
        <ele>333</ele>
        <time>2019-12-31T13:21:18.007Z</time>
      </trkpt>
      <trkpt lat="45.01403" lon="5.27197">
        <ele>335</ele>
        <time>2019-12-31T13:21:24.007Z</time>
      </trkpt>
      <trkpt lat="45.01397" lon="5.27189">
        <ele>335</ele>
        <time>2019-12-31T13:21:29.007Z</time>
      </trkpt>
      <trkpt lat="45.01389" lon="5.2718">
        <ele>340</ele>
        <time>2019-12-31T13:21:38.007Z</time>
      </trkpt>
      <trkpt lat="45.0138" lon="5.27175">
        <ele>342</ele>
        <time>2019-12-31T13:21:49.007Z</time>
      </trkpt>
      <trkpt lat="45.0137" lon="5.27166">
        <ele>344</ele>
        <time>2019-12-31T13:22:05.007Z</time>
      </trkpt>
      <trkpt lat="45.0136" lon="5.27158">
        <ele>346</ele>
        <time>2019-12-31T13:22:12.007Z</time>
      </trkpt>
      <trkpt lat="45.01351" lon="5.27152">
        <ele>346</ele>
        <time>2019-12-31T13:22:17.007Z</time>
      </trkpt>
      <trkpt lat="45.01342" lon="5.27149">
        <ele>346</ele>
        <time>2019-12-31T13:22:22.007Z</time>
      </trkpt>
      <trkpt lat="45.01333" lon="5.27141">
        <ele>346</ele>
        <time>2019-12-31T13:22:28.007Z</time>
      </trkpt>
      <trkpt lat="45.01328" lon="5.27129">
        <ele>348</ele>
        <time>2019-12-31T13:22:34.007Z</time>
      </trkpt>
      <trkpt lat="45.01334" lon="5.27117">
        <ele>348</ele>
        <time>2019-12-31T13:22:40.007Z</time>
      </trkpt>
      <trkpt lat="45.01342" lon="5.27108">
        <ele>350</ele>
        <time>2019-12-31T13:22:48.007Z</time>
      </trkpt>
      <trkpt lat="45.01349" lon="5.27108">
        <ele>353</ele>
        <time>2019-12-31T13:22:53.007Z</time>
      </trkpt>
      <trkpt lat="45.01357" lon="5.27109">
        <ele>355</ele>
        <time>2019-12-31T13:22:59.007Z</time>
      </trkpt>
      <trkpt lat="45.01367" lon="5.2711">
        <ele>357</ele>
        <time>2019-12-31T13:23:07.007Z</time>
      </trkpt>
      <trkpt lat="45.01378" lon="5.27107">
        <ele>358</ele>
        <time>2019-12-31T13:23:14.007Z</time>
      </trkpt>
      <trkpt lat="45.01388" lon="5.27103">
        <ele>359</ele>
        <time>2019-12-31T13:23:20.007Z</time>
      </trkpt>
      <trkpt lat="45.01397" lon="5.27103">
        <ele>362</ele>
        <time>2019-12-31T13:23:42.007Z</time>
      </trkpt>
      <trkpt lat="45.01404" lon="5.27098">
        <ele>361</ele>
        <time>2019-12-31T13:23:47.007Z</time>
      </trkpt>
      <trkpt lat="45.01411" lon="5.27086">
        <ele>363</ele>
        <time>2019-12-31T13:23:53.007Z</time>
      </trkpt>
      <trkpt lat="45.01414" lon="5.27079">
        <ele>363</ele>
        <time>2019-12-31T13:23:56.007Z</time>
      </trkpt>
      <trkpt lat="45.01416" lon="5.27074">
        <ele>363</ele>
        <time>2019-12-31T13:23:59.007Z</time>
      </trkpt>
      <trkpt lat="45.01419" lon="5.27067">
        <ele>364</ele>
        <time>2019-12-31T13:24:02.007Z</time>
      </trkpt>
      <trkpt lat="45.0142" lon="5.27061">
        <ele>364</ele>
        <time>2019-12-31T13:24:04.007Z</time>
      </trkpt>
      <trkpt lat="45.01422" lon="5.27052">
        <ele>364</ele>
        <time>2019-12-31T13:24:07.007Z</time>
      </trkpt>
      <trkpt lat="45.01424" lon="5.27045">
        <ele>364</ele>
        <time>2019-12-31T13:24:09.007Z</time>
      </trkpt>
      <trkpt lat="45.01426" lon="5.27039">
        <ele>364.2346589613</ele>
        <time>2019-12-31T13:24:11.007Z</time>
      </trkpt>
      <trkpt lat="45.01429" lon="5.27032">
        <ele>365</ele>
        <time>2019-12-31T13:24:13.007Z</time>
      </trkpt>
      <trkpt lat="45.01432" lon="5.27025">
        <ele>365</ele>
        <time>2019-12-31T13:24:15.007Z</time>
      </trkpt>
      <trkpt lat="45.01436" lon="5.27019">
        <ele>365</ele>
        <time>2019-12-31T13:24:17.007Z</time>
      </trkpt>
      <trkpt lat="45.0144" lon="5.27013">
        <ele>365</ele>
        <time>2019-12-31T13:24:19.007Z</time>
      </trkpt>
      <trkpt lat="45.01443" lon="5.27007">
        <ele>365</ele>
        <time>2019-12-31T13:24:21.007Z</time>
      </trkpt>
      <trkpt lat="45.01447" lon="5.27001">
        <ele>365</ele>
        <time>2019-12-31T13:24:23.007Z</time>
      </trkpt>
      <trkpt lat="45.0145" lon="5.26994">
        <ele>365</ele>
        <time>2019-12-31T13:24:25.007Z</time>
      </trkpt>
      <trkpt lat="45.01451" lon="5.26985">
        <ele>365</ele>
        <time>2019-12-31T13:24:27.007Z</time>
      </trkpt>
      <trkpt lat="45.01452" lon="5.2698">
        <ele>365</ele>
        <time>2019-12-31T13:24:28.007Z</time>
      </trkpt>
      <trkpt lat="45.01452" lon="5.26975">
        <ele>365</ele>
        <time>2019-12-31T13:24:29.007Z</time>
      </trkpt>
      <trkpt lat="45.01452" lon="5.26971">
        <ele>364.7629952</ele>
        <time>2019-12-31T13:24:30.007Z</time>
      </trkpt>
      <trkpt lat="45.01451" lon="5.26966">
        <ele>364.2370048</ele>
        <time>2019-12-31T13:24:31.007Z</time>
      </trkpt>
      <trkpt lat="45.01451" lon="5.26962">
        <ele>365</ele>
        <time>2019-12-31T13:24:32.007Z</time>
      </trkpt>
      <trkpt lat="45.01451" lon="5.26957">
        <ele>365</ele>
        <time>2019-12-31T13:24:33.007Z</time>
      </trkpt>
      <trkpt lat="45.01451" lon="5.26953">
        <ele>365</ele>
        <time>2019-12-31T13:24:34.007Z</time>
      </trkpt>
      <trkpt lat="45.01452" lon="5.26949">
        <ele>365</ele>
        <time>2019-12-31T13:24:35.007Z</time>
      </trkpt>
      <trkpt lat="45.01452" lon="5.26945">
        <ele>365</ele>
        <time>2019-12-31T13:24:36.007Z</time>
      </trkpt>
      <trkpt lat="45.01452" lon="5.2694">
        <ele>365</ele>
        <time>2019-12-31T13:24:37.007Z</time>
      </trkpt>
      <trkpt lat="45.01452" lon="5.26937">
        <ele>365</ele>
        <time>2019-12-31T13:24:38.007Z</time>
      </trkpt>
      <trkpt lat="45.01453" lon="5.26933">
        <ele>365</ele>
        <time>2019-12-31T13:24:39.007Z</time>
      </trkpt>
      <trkpt lat="45.01454" lon="5.26926">
        <ele>365.7110144</ele>
        <time>2019-12-31T13:24:41.007Z</time>
      </trkpt>
      <trkpt lat="45.01456" lon="5.26919">
        <ele>368</ele>
        <time>2019-12-31T13:24:43.007Z</time>
      </trkpt>
      <trkpt lat="45.0146" lon="5.26909">
        <ele>368.2370048</ele>
        <time>2019-12-31T13:24:46.007Z</time>
      </trkpt>
      <trkpt lat="45.01465" lon="5.269">
        <ele>369</ele>
        <time>2019-12-31T13:24:49.007Z</time>
      </trkpt>
      <trkpt lat="45.01471" lon="5.2689">
        <ele>369</ele>
        <time>2019-12-31T13:24:52.007Z</time>
      </trkpt>
      <trkpt lat="45.01476" lon="5.26882">
        <ele>369</ele>
        <time>2019-12-31T13:24:54.007Z</time>
      </trkpt>
      <trkpt lat="45.01479" lon="5.26878">
        <ele>369</ele>
        <time>2019-12-31T13:24:55.007Z</time>
      </trkpt>
      <trkpt lat="45.01483" lon="5.26873">
        <ele>369</ele>
        <time>2019-12-31T13:24:56.007Z</time>
      </trkpt>
      <trkpt lat="45.01486" lon="5.26869">
        <ele>369</ele>
        <time>2019-12-31T13:24:57.007Z</time>
      </trkpt>
      <trkpt lat="45.0149" lon="5.26864">
        <ele>369</ele>
        <time>2019-12-31T13:24:58.007Z</time>
      </trkpt>
      <trkpt lat="45.01495" lon="5.26859">
        <ele>369</ele>
        <time>2019-12-31T13:24:59.007Z</time>
      </trkpt>
      <trkpt lat="45.01499" lon="5.26854">
        <ele>369</ele>
        <time>2019-12-31T13:25:00.007Z</time>
      </trkpt>
      <trkpt lat="45.01503" lon="5.26849">
        <ele>368.5259904</ele>
        <time>2019-12-31T13:25:01.007Z</time>
      </trkpt>
      <trkpt lat="45.01508" lon="5.26843">
        <ele>367</ele>
        <time>2019-12-31T13:25:02.007Z</time>
      </trkpt>
      <trkpt lat="45.01512" lon="5.26837">
        <ele>367</ele>
        <time>2019-12-31T13:25:03.007Z</time>
      </trkpt>
      <trkpt lat="45.01516" lon="5.26832">
        <ele>367</ele>
        <time>2019-12-31T13:25:04.007Z</time>
      </trkpt>
      <trkpt lat="45.0152" lon="5.26825">
        <ele>367</ele>
        <time>2019-12-31T13:25:05.007Z</time>
      </trkpt>
      <trkpt lat="45.01524" lon="5.26819">
        <ele>367</ele>
        <time>2019-12-31T13:25:06.007Z</time>
      </trkpt>
      <trkpt lat="45.01528" lon="5.26811">
        <ele>367</ele>
        <time>2019-12-31T13:25:07.007Z</time>
      </trkpt>
      <trkpt lat="45.01532" lon="5.26803">
        <ele>367</ele>
        <time>2019-12-31T13:25:08.007Z</time>
      </trkpt>
      <trkpt lat="45.01535" lon="5.26794">
        <ele>367</ele>
        <time>2019-12-31T13:25:09.007Z</time>
      </trkpt>
      <trkpt lat="45.01538" lon="5.26784">
        <ele>367</ele>
        <time>2019-12-31T13:25:10.007Z</time>
      </trkpt>
      <trkpt lat="45.01541" lon="5.26773">
        <ele>366.2889856</ele>
        <time>2019-12-31T13:25:11.007Z</time>
      </trkpt>
      <trkpt lat="45.01543" lon="5.26763">
        <ele>364</ele>
        <time>2019-12-31T13:25:12.007Z</time>
      </trkpt>
      <trkpt lat="45.01546" lon="5.26754">
        <ele>364</ele>
        <time>2019-12-31T13:25:13.007Z</time>
      </trkpt>
      <trkpt lat="45.01549" lon="5.26739">
        <ele>364</ele>
        <time>2019-12-31T13:25:15.007Z</time>
      </trkpt>
      <trkpt lat="45.01552" lon="5.26726">
        <ele>362</ele>
        <time>2019-12-31T13:25:17.007Z</time>
      </trkpt>
      <trkpt lat="45.01555" lon="5.26713">
        <ele>362</ele>
        <time>2019-12-31T13:25:19.007Z</time>
      </trkpt>
      <trkpt lat="45.01559" lon="5.26703">
        <ele>361.7629952</ele>
        <time>2019-12-31T13:25:21.007Z</time>
      </trkpt>
      <trkpt lat="45.01562" lon="5.26696">
        <ele>361</ele>
        <time>2019-12-31T13:25:23.007Z</time>
      </trkpt>
      <trkpt lat="45.01556" lon="5.26707">
        <ele>361</ele>
        <time>2019-12-31T13:25:32.007Z</time>
      </trkpt>
      <trkpt lat="45.01552" lon="5.26721">
        <ele>361</ele>
        <time>2019-12-31T13:25:35.007Z</time>
      </trkpt>
      <trkpt lat="45.01555" lon="5.26734">
        <ele>360.7629952</ele>
        <time>2019-12-31T13:25:38.007Z</time>
      </trkpt>
      <trkpt lat="45.01565" lon="5.26739">
        <ele>360</ele>
        <time>2019-12-31T13:25:41.007Z</time>
      </trkpt>
      <trkpt lat="45.01573" lon="5.26743">
        <ele>360</ele>
        <time>2019-12-31T13:25:43.007Z</time>
      </trkpt>
      <trkpt lat="45.01582" lon="5.26747">
        <ele>360</ele>
        <time>2019-12-31T13:25:45.007Z</time>
      </trkpt>
      <trkpt lat="45.01592" lon="5.26752">
        <ele>360</ele>
        <time>2019-12-31T13:25:47.007Z</time>
      </trkpt>
      <trkpt lat="45.01603" lon="5.26757">
        <ele>360</ele>
        <time>2019-12-31T13:25:49.007Z</time>
      </trkpt>
      <trkpt lat="45.01614" lon="5.26764">
        <ele>359.7629952</ele>
        <time>2019-12-31T13:25:51.007Z</time>
      </trkpt>
      <trkpt lat="45.01625" lon="5.26771">
        <ele>359</ele>
        <time>2019-12-31T13:25:53.007Z</time>
      </trkpt>
      <trkpt lat="45.01635" lon="5.26777">
        <ele>359</ele>
        <time>2019-12-31T13:25:55.007Z</time>
      </trkpt>
      <trkpt lat="45.01643" lon="5.26777">
        <ele>359</ele>
        <time>2019-12-31T13:25:57.007Z</time>
      </trkpt>
      <trkpt lat="45.01648" lon="5.26769">
        <ele>359</ele>
        <time>2019-12-31T13:25:59.007Z</time>
      </trkpt>
      <trkpt lat="45.01654" lon="5.26757">
        <ele>356</ele>
        <time>2019-12-31T13:26:02.007Z</time>
      </trkpt>
      <trkpt lat="45.01662" lon="5.26747">
        <ele>356</ele>
        <time>2019-12-31T13:26:05.007Z</time>
      </trkpt>
      <trkpt lat="45.01669" lon="5.26737">
        <ele>358</ele>
        <time>2019-12-31T13:26:08.007Z</time>
      </trkpt>
      <trkpt lat="45.01673" lon="5.2673">
        <ele>358</ele>
        <time>2019-12-31T13:26:10.007Z</time>
      </trkpt>
      <trkpt lat="45.01677" lon="5.26723">
        <ele>358</ele>
        <time>2019-12-31T13:26:12.007Z</time>
      </trkpt>
      <trkpt lat="45.01681" lon="5.26713">
        <ele>358</ele>
        <time>2019-12-31T13:26:15.007Z</time>
      </trkpt>
      <trkpt lat="45.01686" lon="5.26701">
        <ele>358</ele>
        <time>2019-12-31T13:26:19.007Z</time>
      </trkpt>
      <trkpt lat="45.0169" lon="5.26689">
        <ele>361</ele>
        <time>2019-12-31T13:26:23.007Z</time>
      </trkpt>
      <trkpt lat="45.01696" lon="5.26679">
        <ele>363</ele>
        <time>2019-12-31T13:26:27.007Z</time>
      </trkpt>
      <trkpt lat="45.01702" lon="5.26672">
        <ele>363.2370048</ele>
        <time>2019-12-31T13:26:31.007Z</time>
      </trkpt>
      <trkpt lat="45.01709" lon="5.26664">
        <ele>364</ele>
        <time>2019-12-31T13:26:35.007Z</time>
      </trkpt>
      <trkpt lat="45.01713" lon="5.26659">
        <ele>366</ele>
        <time>2019-12-31T13:26:38.007Z</time>
      </trkpt>
      <trkpt lat="45.01719" lon="5.26651">
        <ele>368</ele>
        <time>2019-12-31T13:26:42.007Z</time>
      </trkpt>
      <trkpt lat="45.01724" lon="5.26642">
        <ele>368</ele>
        <time>2019-12-31T13:26:47.007Z</time>
      </trkpt>
      <trkpt lat="45.01732" lon="5.26633">
        <ele>369</ele>
        <time>2019-12-31T13:27:00.007Z</time>
      </trkpt>
      <trkpt lat="45.01741" lon="5.26633">
        <ele>372</ele>
        <time>2019-12-31T13:27:05.007Z</time>
      </trkpt>
      <trkpt lat="45.01749" lon="5.26636">
        <ele>373</ele>
        <time>2019-12-31T13:27:11.007Z</time>
      </trkpt>
      <trkpt lat="45.01757" lon="5.26635">
        <ele>372</ele>
        <time>2019-12-31T13:27:20.007Z</time>
      </trkpt>
      <trkpt lat="45.01763" lon="5.2663">
        <ele>373</ele>
        <time>2019-12-31T13:27:24.007Z</time>
      </trkpt>
      <trkpt lat="45.01762" lon="5.26619">
        <ele>373</ele>
        <time>2019-12-31T13:27:29.007Z</time>
      </trkpt>
      <trkpt lat="45.01763" lon="5.26611">
        <ele>377</ele>
        <time>2019-12-31T13:27:47.007Z</time>
      </trkpt>
      <trkpt lat="45.01766" lon="5.26604">
        <ele>377</ele>
        <time>2019-12-31T13:27:57.007Z</time>
      </trkpt>
      <trkpt lat="45.01767" lon="5.26598">
        <ele>380</ele>
        <time>2019-12-31T13:28:04.007Z</time>
      </trkpt>
      <trkpt lat="45.01769" lon="5.26584">
        <ele>381</ele>
        <time>2019-12-31T13:28:18.007Z</time>
      </trkpt>
      <trkpt lat="45.01779" lon="5.26575">
        <ele>382</ele>
        <time>2019-12-31T13:28:27.007Z</time>
      </trkpt>
      <trkpt lat="45.01785" lon="5.26573">
        <ele>384</ele>
        <time>2019-12-31T13:28:38.007Z</time>
      </trkpt>
      <trkpt lat="45.01793" lon="5.26573">
        <ele>386</ele>
        <time>2019-12-31T13:28:43.007Z</time>
      </trkpt>
      <trkpt lat="45.01798" lon="5.26575">
        <ele>386</ele>
        <time>2019-12-31T13:28:47.007Z</time>
      </trkpt>
      <trkpt lat="45.01805" lon="5.2658">
        <ele>387</ele>
        <time>2019-12-31T13:28:53.007Z</time>
      </trkpt>
      <trkpt lat="45.01813" lon="5.26584">
        <ele>387</ele>
        <time>2019-12-31T13:28:59.007Z</time>
      </trkpt>
      <trkpt lat="45.01821" lon="5.26584">
        <ele>391</ele>
        <time>2019-12-31T13:29:05.007Z</time>
      </trkpt>
      <trkpt lat="45.01831" lon="5.26585">
        <ele>392</ele>
        <time>2019-12-31T13:29:13.007Z</time>
      </trkpt>
      <trkpt lat="45.01841" lon="5.2658">
        <ele>392.4740096</ele>
        <time>2019-12-31T13:29:21.007Z</time>
      </trkpt>
      <trkpt lat="45.01851" lon="5.26573">
        <ele>394.68787091269</ele>
        <time>2019-12-31T13:29:31.007Z</time>
      </trkpt>
      <trkpt lat="45.01859" lon="5.26565">
        <ele>398</ele>
        <time>2019-12-31T13:29:38.007Z</time>
      </trkpt>
      <trkpt lat="45.01869" lon="5.26561">
        <ele>400</ele>
        <time>2019-12-31T13:29:45.007Z</time>
      </trkpt>
      <trkpt lat="45.01879" lon="5.26563">
        <ele>403</ele>
        <time>2019-12-31T13:30:02.007Z</time>
      </trkpt>
      <trkpt lat="45.0189" lon="5.26561">
        <ele>404</ele>
        <time>2019-12-31T13:30:27.007Z</time>
      </trkpt>
      <trkpt lat="45.01899" lon="5.2656">
        <ele>404</ele>
        <time>2019-12-31T13:30:35.007Z</time>
      </trkpt>
      <trkpt lat="45.01909" lon="5.26557">
        <ele>406</ele>
        <time>2019-12-31T13:30:42.007Z</time>
      </trkpt>
      <trkpt lat="45.01918" lon="5.26552">
        <ele>408</ele>
        <time>2019-12-31T13:30:52.007Z</time>
      </trkpt>
      <trkpt lat="45.01927" lon="5.26543">
        <ele>408</ele>
        <time>2019-12-31T13:30:59.007Z</time>
      </trkpt>
      <trkpt lat="45.01936" lon="5.26535">
        <ele>411</ele>
        <time>2019-12-31T13:31:07.007Z</time>
      </trkpt>
      <trkpt lat="45.01946" lon="5.2653">
        <ele>413</ele>
        <time>2019-12-31T13:31:14.007Z</time>
      </trkpt>
      <trkpt lat="45.01956" lon="5.26523">
        <ele>414.2370048</ele>
        <time>2019-12-31T13:31:21.007Z</time>
      </trkpt>
      <trkpt lat="45.01967" lon="5.26522">
        <ele>415</ele>
        <time>2019-12-31T13:31:27.007Z</time>
      </trkpt>
      <trkpt lat="45.01974" lon="5.26519">
        <ele>415.2346589613</ele>
        <time>2019-12-31T13:31:31.007Z</time>
      </trkpt>
      <trkpt lat="45.0198" lon="5.26516">
        <ele>416</ele>
        <time>2019-12-31T13:31:35.007Z</time>
      </trkpt>
      <trkpt lat="45.0199" lon="5.26509">
        <ele>417</ele>
        <time>2019-12-31T13:31:42.007Z</time>
      </trkpt>
      <trkpt lat="45.02" lon="5.26502">
        <ele>417</ele>
        <time>2019-12-31T13:31:50.007Z</time>
      </trkpt>
      <trkpt lat="45.02012" lon="5.26497">
        <ele>419</ele>
        <time>2019-12-31T13:31:57.007Z</time>
      </trkpt>
      <trkpt lat="45.02021" lon="5.26493">
        <ele>420</ele>
        <time>2019-12-31T13:32:03.007Z</time>
      </trkpt>
      <trkpt lat="45.02032" lon="5.26489">
        <ele>420</ele>
        <time>2019-12-31T13:32:08.007Z</time>
      </trkpt>
      <trkpt lat="45.02042" lon="5.26494">
        <ele>420</ele>
        <time>2019-12-31T13:32:15.007Z</time>
      </trkpt>
      <trkpt lat="45.02053" lon="5.26498">
        <ele>420.4740096</ele>
        <time>2019-12-31T13:32:21.007Z</time>
      </trkpt>
      <trkpt lat="45.02063" lon="5.26498">
        <ele>422</ele>
        <time>2019-12-31T13:32:28.007Z</time>
      </trkpt>
      <trkpt lat="45.02068" lon="5.26485">
        <ele>424.4740096</ele>
        <time>2019-12-31T13:32:36.007Z</time>
      </trkpt>
      <trkpt lat="45.02064" lon="5.2647">
        <ele>427</ele>
        <time>2019-12-31T13:32:44.007Z</time>
      </trkpt>
      <trkpt lat="45.02057" lon="5.26457">
        <ele>430</ele>
        <time>2019-12-31T13:32:53.007Z</time>
      </trkpt>
      <trkpt lat="45.0205" lon="5.26446">
        <ele>431.4740096</ele>
        <time>2019-12-31T13:33:01.007Z</time>
      </trkpt>
      <trkpt lat="45.02045" lon="5.26433">
        <ele>434</ele>
        <time>2019-12-31T13:33:09.007Z</time>
      </trkpt>
      <trkpt lat="45.02043" lon="5.26419">
        <ele>435.2370048</ele>
        <time>2019-12-31T13:33:16.007Z</time>
      </trkpt>
      <trkpt lat="45.02043" lon="5.26411">
        <ele>436</ele>
        <time>2019-12-31T13:33:19.007Z</time>
      </trkpt>
      <trkpt lat="45.02042" lon="5.26403">
        <ele>438</ele>
        <time>2019-12-31T13:33:24.007Z</time>
      </trkpt>
      <trkpt lat="45.02042" lon="5.26396">
        <ele>440</ele>
        <time>2019-12-31T13:33:29.007Z</time>
      </trkpt>
      <trkpt lat="45.02044" lon="5.26387">
        <ele>441</ele>
        <time>2019-12-31T13:33:35.007Z</time>
      </trkpt>
      <trkpt lat="45.02047" lon="5.2638">
        <ele>443</ele>
        <time>2019-12-31T13:33:39.007Z</time>
      </trkpt>
      <trkpt lat="45.0205" lon="5.26375">
        <ele>443</ele>
        <time>2019-12-31T13:33:43.007Z</time>
      </trkpt>
      <trkpt lat="45.02054" lon="5.26367">
        <ele>443</ele>
        <time>2019-12-31T13:33:48.007Z</time>
      </trkpt>
      <trkpt lat="45.02057" lon="5.26362">
        <ele>443.4740096</ele>
        <time>2019-12-31T13:33:51.007Z</time>
      </trkpt>
      <trkpt lat="45.02062" lon="5.2636">
        <ele>445</ele>
        <time>2019-12-31T13:33:55.007Z</time>
      </trkpt>
      <trkpt lat="45.02067" lon="5.26357">
        <ele>445</ele>
        <time>2019-12-31T13:33:59.007Z</time>
      </trkpt>
      <trkpt lat="45.02077" lon="5.26356">
        <ele>447</ele>
        <time>2019-12-31T13:34:28.007Z</time>
      </trkpt>
      <trkpt lat="45.02081" lon="5.2636">
        <ele>447.7110144</ele>
        <time>2019-12-31T13:34:31.007Z</time>
      </trkpt>
      <trkpt lat="45.02086" lon="5.26365">
        <ele>450</ele>
        <time>2019-12-31T13:34:35.007Z</time>
      </trkpt>
      <trkpt lat="45.02091" lon="5.2637">
        <ele>452</ele>
        <time>2019-12-31T13:34:39.007Z</time>
      </trkpt>
      <trkpt lat="45.02097" lon="5.26372">
        <ele>453</ele>
        <time>2019-12-31T13:34:43.007Z</time>
      </trkpt>
      <trkpt lat="45.02105" lon="5.26369">
        <ele>455</ele>
        <time>2019-12-31T13:34:48.007Z</time>
      </trkpt>
      <trkpt lat="45.02111" lon="5.26367">
        <ele>455</ele>
        <time>2019-12-31T13:34:51.007Z</time>
      </trkpt>
      <trkpt lat="45.02119" lon="5.26364">
        <ele>455</ele>
        <time>2019-12-31T13:34:55.007Z</time>
      </trkpt>
      <trkpt lat="45.02123" lon="5.26356">
        <ele>455</ele>
        <time>2019-12-31T13:34:59.007Z</time>
      </trkpt>
      <trkpt lat="45.02123" lon="5.2635">
        <ele>457</ele>
        <time>2019-12-31T13:35:02.007Z</time>
      </trkpt>
      <trkpt lat="45.02121" lon="5.26347">
        <ele>457</ele>
        <time>2019-12-31T13:35:04.007Z</time>
      </trkpt>
      <trkpt lat="45.02118" lon="5.26345">
        <ele>457</ele>
        <time>2019-12-31T13:35:06.007Z</time>
      </trkpt>
      <trkpt lat="45.02115" lon="5.26343">
        <ele>457</ele>
        <time>2019-12-31T13:35:08.007Z</time>
      </trkpt>
      <trkpt lat="45.02111" lon="5.26342">
        <ele>457</ele>
        <time>2019-12-31T13:35:10.007Z</time>
      </trkpt>
      <trkpt lat="45.02109" lon="5.26339">
        <ele>458</ele>
        <time>2019-12-31T13:35:12.007Z</time>
      </trkpt>
      <trkpt lat="45.02106" lon="5.26335">
        <ele>458</ele>
        <time>2019-12-31T13:35:14.007Z</time>
      </trkpt>
      <trkpt lat="45.02105" lon="5.26331">
        <ele>458</ele>
        <time>2019-12-31T13:35:16.007Z</time>
      </trkpt>
      <trkpt lat="45.02103" lon="5.26325">
        <ele>458</ele>
        <time>2019-12-31T13:35:18.007Z</time>
      </trkpt>
      <trkpt lat="45.02102" lon="5.26319">
        <ele>458</ele>
        <time>2019-12-31T13:35:20.007Z</time>
      </trkpt>
      <trkpt lat="45.02101" lon="5.26312">
        <ele>458</ele>
        <time>2019-12-31T13:35:22.007Z</time>
      </trkpt>
      <trkpt lat="45.021" lon="5.26306">
        <ele>458</ele>
        <time>2019-12-31T13:35:24.007Z</time>
      </trkpt>
      <trkpt lat="45.02099" lon="5.263">
        <ele>458</ele>
        <time>2019-12-31T13:35:26.007Z</time>
      </trkpt>
      <trkpt lat="45.02098" lon="5.26293">
        <ele>458</ele>
        <time>2019-12-31T13:35:28.007Z</time>
      </trkpt>
      <trkpt lat="45.02098" lon="5.26286">
        <ele>458</ele>
        <time>2019-12-31T13:35:30.007Z</time>
      </trkpt>
      <trkpt lat="45.02099" lon="5.2628">
        <ele>460</ele>
        <time>2019-12-31T13:35:32.007Z</time>
      </trkpt>
      <trkpt lat="45.02099" lon="5.26273">
        <ele>460</ele>
        <time>2019-12-31T13:35:34.007Z</time>
      </trkpt>
      <trkpt lat="45.02099" lon="5.26266">
        <ele>460</ele>
        <time>2019-12-31T13:35:36.007Z</time>
      </trkpt>
      <trkpt lat="45.02098" lon="5.2626">
        <ele>460</ele>
        <time>2019-12-31T13:35:38.007Z</time>
      </trkpt>
      <trkpt lat="45.02097" lon="5.26253">
        <ele>460</ele>
        <time>2019-12-31T13:35:40.007Z</time>
      </trkpt>
      <trkpt lat="45.02096" lon="5.26247">
        <ele>461</ele>
        <time>2019-12-31T13:35:42.007Z</time>
      </trkpt>
      <trkpt lat="45.02094" lon="5.2624">
        <ele>461</ele>
        <time>2019-12-31T13:35:44.007Z</time>
      </trkpt>
      <trkpt lat="45.02093" lon="5.26233">
        <ele>461</ele>
        <time>2019-12-31T13:35:46.007Z</time>
      </trkpt>
      <trkpt lat="45.02091" lon="5.26228">
        <ele>461</ele>
        <time>2019-12-31T13:35:48.007Z</time>
      </trkpt>
      <trkpt lat="45.02086" lon="5.26218">
        <ele>463</ele>
        <time>2019-12-31T13:35:52.007Z</time>
      </trkpt>
      <trkpt lat="45.02083" lon="5.26214">
        <ele>463</ele>
        <time>2019-12-31T13:35:54.007Z</time>
      </trkpt>
      <trkpt lat="45.02079" lon="5.26211">
        <ele>463</ele>
        <time>2019-12-31T13:35:56.007Z</time>
      </trkpt>
      <trkpt lat="45.02071" lon="5.26207">
        <ele>463.2370048</ele>
        <time>2019-12-31T13:36:01.007Z</time>
      </trkpt>
      <trkpt lat="45.02062" lon="5.26215">
        <ele>464</ele>
        <time>2019-12-31T13:36:06.007Z</time>
      </trkpt>
      <trkpt lat="45.02053" lon="5.26224">
        <ele>464.4740096</ele>
        <time>2019-12-31T13:36:11.007Z</time>
      </trkpt>
      <trkpt lat="45.02043" lon="5.2623">
        <ele>466</ele>
        <time>2019-12-31T13:36:16.007Z</time>
      </trkpt>
      <trkpt lat="45.02034" lon="5.26238">
        <ele>468</ele>
        <time>2019-12-31T13:36:22.007Z</time>
      </trkpt>
      <trkpt lat="45.02024" lon="5.26244">
        <ele>468</ele>
        <time>2019-12-31T13:36:27.007Z</time>
      </trkpt>
      <trkpt lat="45.02013" lon="5.26251">
        <ele>468</ele>
        <time>2019-12-31T13:36:32.007Z</time>
      </trkpt>
      <trkpt lat="45.02009" lon="5.26252">
        <ele>468</ele>
        <time>2019-12-31T13:36:34.007Z</time>
      </trkpt>
      <trkpt lat="45.01997" lon="5.26252">
        <ele>468</ele>
        <time>2019-12-31T13:36:39.007Z</time>
      </trkpt>
      <trkpt lat="45.01987" lon="5.26251">
        <ele>471</ele>
        <time>2019-12-31T13:36:44.007Z</time>
      </trkpt>
      <trkpt lat="45.01976" lon="5.26251">
        <ele>473</ele>
        <time>2019-12-31T13:36:49.007Z</time>
      </trkpt>
      <trkpt lat="45.01965" lon="5.26251">
        <ele>473</ele>
        <time>2019-12-31T13:36:54.007Z</time>
      </trkpt>
      <trkpt lat="45.01954" lon="5.26251">
        <ele>473</ele>
        <time>2019-12-31T13:36:59.007Z</time>
      </trkpt>
      <trkpt lat="45.01944" lon="5.26253">
        <ele>475</ele>
        <time>2019-12-31T13:37:04.007Z</time>
      </trkpt>
      <trkpt lat="45.01933" lon="5.26255">
        <ele>476</ele>
        <time>2019-12-31T13:37:10.007Z</time>
      </trkpt>
      <trkpt lat="45.01922" lon="5.26259">
        <ele>476</ele>
        <time>2019-12-31T13:37:15.007Z</time>
      </trkpt>
      <trkpt lat="45.01912" lon="5.26262">
        <ele>476</ele>
        <time>2019-12-31T13:37:20.007Z</time>
      </trkpt>
      <trkpt lat="45.019" lon="5.26267">
        <ele>477</ele>
        <time>2019-12-31T13:37:26.007Z</time>
      </trkpt>
      <trkpt lat="45.01893" lon="5.26273">
        <ele>477</ele>
        <time>2019-12-31T13:37:30.007Z</time>
      </trkpt>
      <trkpt lat="45.01891" lon="5.26263">
        <ele>480</ele>
        <time>2019-12-31T13:37:35.007Z</time>
      </trkpt>
      <trkpt lat="45.01901" lon="5.26258">
        <ele>480</ele>
        <time>2019-12-31T13:37:39.007Z</time>
      </trkpt>
      <trkpt lat="45.01909" lon="5.26253">
        <ele>482</ele>
        <time>2019-12-31T13:37:43.007Z</time>
      </trkpt>
      <trkpt lat="45.01916" lon="5.26249">
        <ele>482</ele>
        <time>2019-12-31T13:37:46.007Z</time>
      </trkpt>
      <trkpt lat="45.01922" lon="5.26243">
        <ele>482</ele>
        <time>2019-12-31T13:37:49.007Z</time>
      </trkpt>
      <trkpt lat="45.01929" lon="5.26237">
        <ele>483</ele>
        <time>2019-12-31T13:37:53.007Z</time>
      </trkpt>
      <trkpt lat="45.01937" lon="5.2623">
        <ele>483</ele>
        <time>2019-12-31T13:37:58.007Z</time>
      </trkpt>
      <trkpt lat="45.01948" lon="5.26222">
        <ele>486</ele>
        <time>2019-12-31T13:38:03.007Z</time>
      </trkpt>
      <trkpt lat="45.01959" lon="5.26217">
        <ele>486</ele>
        <time>2019-12-31T13:38:08.007Z</time>
      </trkpt>
      <trkpt lat="45.01968" lon="5.26212">
        <ele>487</ele>
        <time>2019-12-31T13:38:13.007Z</time>
      </trkpt>
      <trkpt lat="45.01977" lon="5.26207">
        <ele>487</ele>
        <time>2019-12-31T13:38:18.007Z</time>
      </trkpt>
      <trkpt lat="45.01986" lon="5.26201">
        <ele>489</ele>
        <time>2019-12-31T13:38:23.007Z</time>
      </trkpt>
      <trkpt lat="45.01996" lon="5.26194">
        <ele>489</ele>
        <time>2019-12-31T13:38:28.007Z</time>
      </trkpt>
      <trkpt lat="45.02004" lon="5.26188">
        <ele>491</ele>
        <time>2019-12-31T13:38:32.007Z</time>
      </trkpt>
      <trkpt lat="45.02008" lon="5.26183">
        <ele>491</ele>
        <time>2019-12-31T13:38:35.007Z</time>
      </trkpt>
      <trkpt lat="45.0201" lon="5.26177">
        <ele>492</ele>
        <time>2019-12-31T13:38:37.007Z</time>
      </trkpt>
      <trkpt lat="45.02012" lon="5.26172">
        <ele>492</ele>
        <time>2019-12-31T13:38:39.007Z</time>
      </trkpt>
      <trkpt lat="45.02014" lon="5.26166">
        <ele>492.22929030423</ele>
        <time>2019-12-31T13:38:41.007Z</time>
      </trkpt>
      <trkpt lat="45.02018" lon="5.26158">
        <ele>493</ele>
        <time>2019-12-31T13:38:44.007Z</time>
      </trkpt>
      <trkpt lat="45.02023" lon="5.26152">
        <ele>493</ele>
        <time>2019-12-31T13:38:47.007Z</time>
      </trkpt>
      <trkpt lat="45.02029" lon="5.26148">
        <ele>493</ele>
        <time>2019-12-31T13:38:49.007Z</time>
      </trkpt>
      <trkpt lat="45.02034" lon="5.26139">
        <ele>495</ele>
        <time>2019-12-31T13:38:53.007Z</time>
      </trkpt>
      <trkpt lat="45.02038" lon="5.26129">
        <ele>495</ele>
        <time>2019-12-31T13:38:57.007Z</time>
      </trkpt>
      <trkpt lat="45.02042" lon="5.26115">
        <ele>497</ele>
        <time>2019-12-31T13:39:02.007Z</time>
      </trkpt>
      <trkpt lat="45.02048" lon="5.26103">
        <ele>499</ele>
        <time>2019-12-31T13:39:07.007Z</time>
      </trkpt>
      <trkpt lat="45.02055" lon="5.26089">
        <ele>500</ele>
        <time>2019-12-31T13:39:13.007Z</time>
      </trkpt>
      <trkpt lat="45.0206" lon="5.26074">
        <ele>500</ele>
        <time>2019-12-31T13:39:19.007Z</time>
      </trkpt>
      <trkpt lat="45.02062" lon="5.26065">
        <ele>501</ele>
        <time>2019-12-31T13:39:22.007Z</time>
      </trkpt>
      <trkpt lat="45.02066" lon="5.26058">
        <ele>501</ele>
        <time>2019-12-31T13:39:26.007Z</time>
      </trkpt>
      <trkpt lat="45.02073" lon="5.26054">
        <ele>501</ele>
        <time>2019-12-31T13:39:29.007Z</time>
      </trkpt>
      <trkpt lat="45.0208" lon="5.26053">
        <ele>503</ele>
        <time>2019-12-31T13:39:32.007Z</time>
      </trkpt>
      <trkpt lat="45.02085" lon="5.26053">
        <ele>503</ele>
        <time>2019-12-31T13:39:34.007Z</time>
      </trkpt>
      <trkpt lat="45.02092" lon="5.26053">
        <ele>503</ele>
        <time>2019-12-31T13:39:37.007Z</time>
      </trkpt>
      <trkpt lat="45.02098" lon="5.26052">
        <ele>503</ele>
        <time>2019-12-31T13:39:40.007Z</time>
      </trkpt>
      <trkpt lat="45.02106" lon="5.26053">
        <ele>506</ele>
        <time>2019-12-31T13:39:43.007Z</time>
      </trkpt>
      <trkpt lat="45.02112" lon="5.26053">
        <ele>506.2370048</ele>
        <time>2019-12-31T13:39:46.007Z</time>
      </trkpt>
      <trkpt lat="45.02118" lon="5.26052">
        <ele>507</ele>
        <time>2019-12-31T13:39:49.007Z</time>
      </trkpt>
      <trkpt lat="45.02123" lon="5.26053">
        <ele>507.2370048</ele>
        <time>2019-12-31T13:39:51.007Z</time>
      </trkpt>
      <trkpt lat="45.02127" lon="5.26054">
        <ele>508</ele>
        <time>2019-12-31T13:39:53.007Z</time>
      </trkpt>
      <trkpt lat="45.02133" lon="5.26054">
        <ele>508.2370048</ele>
        <time>2019-12-31T13:39:56.007Z</time>
      </trkpt>
      <trkpt lat="45.02139" lon="5.26053">
        <ele>509</ele>
        <time>2019-12-31T13:39:59.007Z</time>
      </trkpt>
      <trkpt lat="45.02145" lon="5.26051">
        <ele>509</ele>
        <time>2019-12-31T13:40:02.007Z</time>
      </trkpt>
      <trkpt lat="45.0215" lon="5.2605">
        <ele>509</ele>
        <time>2019-12-31T13:40:04.007Z</time>
      </trkpt>
      <trkpt lat="45.02156" lon="5.2605">
        <ele>509</ele>
        <time>2019-12-31T13:40:07.007Z</time>
      </trkpt>
      <trkpt lat="45.02162" lon="5.26048">
        <ele>509</ele>
        <time>2019-12-31T13:40:10.007Z</time>
      </trkpt>
      <trkpt lat="45.02167" lon="5.26047">
        <ele>510</ele>
        <time>2019-12-31T13:40:13.007Z</time>
      </trkpt>
      <trkpt lat="45.02172" lon="5.26045">
        <ele>510</ele>
        <time>2019-12-31T13:40:16.007Z</time>
      </trkpt>
      <trkpt lat="45.02175" lon="5.26044">
        <ele>510</ele>
        <time>2019-12-31T13:40:18.007Z</time>
      </trkpt>
      <trkpt lat="45.02179" lon="5.26042">
        <ele>510</ele>
        <time>2019-12-31T13:40:20.007Z</time>
      </trkpt>
      <trkpt lat="45.02183" lon="5.26039">
        <ele>513</ele>
        <time>2019-12-31T13:40:22.007Z</time>
      </trkpt>
      <trkpt lat="45.02187" lon="5.26036">
        <ele>513</ele>
        <time>2019-12-31T13:40:24.007Z</time>
      </trkpt>
      <trkpt lat="45.02191" lon="5.26033">
        <ele>513.4740096</ele>
        <time>2019-12-31T13:40:26.007Z</time>
      </trkpt>
      <trkpt lat="45.02195" lon="5.26031">
        <ele>515</ele>
        <time>2019-12-31T13:40:28.007Z</time>
      </trkpt>
      <trkpt lat="45.02194" lon="5.26025">
        <ele>514.2370048</ele>
        <time>2019-12-31T13:40:31.007Z</time>
      </trkpt>
      <trkpt lat="45.02189" lon="5.26027">
        <ele>515</ele>
        <time>2019-12-31T13:40:34.007Z</time>
      </trkpt>
      <trkpt lat="45.02184" lon="5.2603">
        <ele>517</ele>
        <time>2019-12-31T13:40:37.007Z</time>
      </trkpt>
      <trkpt lat="45.02178" lon="5.26031">
        <ele>517</ele>
        <time>2019-12-31T13:40:40.007Z</time>
      </trkpt>
      <trkpt lat="45.02174" lon="5.26031">
        <ele>517</ele>
        <time>2019-12-31T13:40:42.007Z</time>
      </trkpt>
      <trkpt lat="45.0217" lon="5.26029">
        <ele>517</ele>
        <time>2019-12-31T13:40:44.007Z</time>
      </trkpt>
      <trkpt lat="45.02165" lon="5.26027">
        <ele>517</ele>
        <time>2019-12-31T13:40:46.007Z</time>
      </trkpt>
      <trkpt lat="45.02161" lon="5.26026">
        <ele>517</ele>
        <time>2019-12-31T13:40:48.007Z</time>
      </trkpt>
      <trkpt lat="45.02157" lon="5.26025">
        <ele>517</ele>
        <time>2019-12-31T13:40:50.007Z</time>
      </trkpt>
      <trkpt lat="45.02153" lon="5.26024">
        <ele>519</ele>
        <time>2019-12-31T13:40:52.007Z</time>
      </trkpt>
      <trkpt lat="45.02149" lon="5.26022">
        <ele>519</ele>
        <time>2019-12-31T13:40:54.007Z</time>
      </trkpt>
      <trkpt lat="45.02144" lon="5.26021">
        <ele>519.4740096</ele>
        <time>2019-12-31T13:40:56.007Z</time>
      </trkpt>
      <trkpt lat="45.02139" lon="5.26019">
        <ele>521</ele>
        <time>2019-12-31T13:40:58.007Z</time>
      </trkpt>
      <trkpt lat="45.02134" lon="5.26017">
        <ele>521</ele>
        <time>2019-12-31T13:41:00.007Z</time>
      </trkpt>
      <trkpt lat="45.02131" lon="5.26015">
        <ele>521</ele>
        <time>2019-12-31T13:41:02.007Z</time>
      </trkpt>
      <trkpt lat="45.02125" lon="5.26011">
        <ele>521</ele>
        <time>2019-12-31T13:41:05.007Z</time>
      </trkpt>
      <trkpt lat="45.0212" lon="5.26009">
        <ele>521</ele>
        <time>2019-12-31T13:41:07.007Z</time>
      </trkpt>
      <trkpt lat="45.02117" lon="5.26006">
        <ele>521</ele>
        <time>2019-12-31T13:41:09.007Z</time>
      </trkpt>
      <trkpt lat="45.02112" lon="5.26003">
        <ele>521.4740096</ele>
        <time>2019-12-31T13:41:11.007Z</time>
      </trkpt>
      <trkpt lat="45.02108" lon="5.26">
        <ele>523</ele>
        <time>2019-12-31T13:41:13.007Z</time>
      </trkpt>
      <trkpt lat="45.02105" lon="5.25998">
        <ele>523</ele>
        <time>2019-12-31T13:41:15.007Z</time>
      </trkpt>
      <trkpt lat="45.02101" lon="5.25995">
        <ele>525</ele>
        <time>2019-12-31T13:41:17.007Z</time>
      </trkpt>
      <trkpt lat="45.02097" lon="5.25992">
        <ele>525</ele>
        <time>2019-12-31T13:41:19.007Z</time>
      </trkpt>
      <trkpt lat="45.02093" lon="5.25989">
        <ele>525.2370048</ele>
        <time>2019-12-31T13:41:21.007Z</time>
      </trkpt>
      <trkpt lat="45.02089" lon="5.25986">
        <ele>526</ele>
        <time>2019-12-31T13:41:23.007Z</time>
      </trkpt>
      <trkpt lat="45.02085" lon="5.25984">
        <ele>526</ele>
        <time>2019-12-31T13:41:25.007Z</time>
      </trkpt>
      <trkpt lat="45.02081" lon="5.25981">
        <ele>527</ele>
        <time>2019-12-31T13:41:27.007Z</time>
      </trkpt>
      <trkpt lat="45.02077" lon="5.25979">
        <ele>527</ele>
        <time>2019-12-31T13:41:29.007Z</time>
      </trkpt>
      <trkpt lat="45.02071" lon="5.25976">
        <ele>529</ele>
        <time>2019-12-31T13:41:32.007Z</time>
      </trkpt>
      <trkpt lat="45.02067" lon="5.25973">
        <ele>529</ele>
        <time>2019-12-31T13:41:34.007Z</time>
      </trkpt>
      <trkpt lat="45.02062" lon="5.2597">
        <ele>529</ele>
        <time>2019-12-31T13:41:37.007Z</time>
      </trkpt>
      <trkpt lat="45.02058" lon="5.25969">
        <ele>528</ele>
        <time>2019-12-31T13:41:39.007Z</time>
      </trkpt>
      <trkpt lat="45.02052" lon="5.25968">
        <ele>529</ele>
        <time>2019-12-31T13:41:42.007Z</time>
      </trkpt>
      <trkpt lat="45.02046" lon="5.25967">
        <ele>529</ele>
        <time>2019-12-31T13:41:45.007Z</time>
      </trkpt>
      <trkpt lat="45.0204" lon="5.25968">
        <ele>529</ele>
        <time>2019-12-31T13:41:48.007Z</time>
      </trkpt>
      <trkpt lat="45.02033" lon="5.25969">
        <ele>531</ele>
        <time>2019-12-31T13:41:52.007Z</time>
      </trkpt>
      <trkpt lat="45.02027" lon="5.25972">
        <ele>531</ele>
        <time>2019-12-31T13:41:55.007Z</time>
      </trkpt>
      <trkpt lat="45.02019" lon="5.25977">
        <ele>531</ele>
        <time>2019-12-31T13:41:59.007Z</time>
      </trkpt>
      <trkpt lat="45.02012" lon="5.2598">
        <ele>533</ele>
        <time>2019-12-31T13:42:02.007Z</time>
      </trkpt>
      <trkpt lat="45.02004" lon="5.25985">
        <ele>533.4740096</ele>
        <time>2019-12-31T13:42:06.007Z</time>
      </trkpt>
      <trkpt lat="45.01997" lon="5.25991">
        <ele>535</ele>
        <time>2019-12-31T13:42:10.007Z</time>
      </trkpt>
      <trkpt lat="45.01992" lon="5.25997">
        <ele>536</ele>
        <time>2019-12-31T13:42:13.007Z</time>
      </trkpt>
      <trkpt lat="45.01987" lon="5.26003">
        <ele>536</ele>
        <time>2019-12-31T13:42:16.007Z</time>
      </trkpt>
      <trkpt lat="45.01984" lon="5.26007">
        <ele>536</ele>
        <time>2019-12-31T13:42:18.007Z</time>
      </trkpt>
      <trkpt lat="45.01978" lon="5.26013">
        <ele>536.2370048</ele>
        <time>2019-12-31T13:42:21.007Z</time>
      </trkpt>
      <trkpt lat="45.01972" lon="5.26018">
        <ele>536</ele>
        <time>2019-12-31T13:42:24.007Z</time>
      </trkpt>
      <trkpt lat="45.01967" lon="5.26022">
        <ele>536</ele>
        <time>2019-12-31T13:42:27.007Z</time>
      </trkpt>
      <trkpt lat="45.01963" lon="5.26027">
        <ele>536</ele>
        <time>2019-12-31T13:42:30.007Z</time>
      </trkpt>
      <trkpt lat="45.01959" lon="5.26031">
        <ele>539</ele>
        <time>2019-12-31T13:42:32.007Z</time>
      </trkpt>
      <trkpt lat="45.01956" lon="5.26037">
        <ele>539</ele>
        <time>2019-12-31T13:42:35.007Z</time>
      </trkpt>
      <trkpt lat="45.01953" lon="5.26042">
        <ele>541</ele>
        <time>2019-12-31T13:42:37.007Z</time>
      </trkpt>
      <trkpt lat="45.01951" lon="5.26048">
        <ele>541</ele>
        <time>2019-12-31T13:42:39.007Z</time>
      </trkpt>
      <trkpt lat="45.01948" lon="5.26053">
        <ele>541.2370048</ele>
        <time>2019-12-31T13:42:41.007Z</time>
      </trkpt>
      <trkpt lat="45.01945" lon="5.26058">
        <ele>542</ele>
        <time>2019-12-31T13:42:43.007Z</time>
      </trkpt>
      <trkpt lat="45.01942" lon="5.26061">
        <ele>542</ele>
        <time>2019-12-31T13:42:45.007Z</time>
      </trkpt>
      <trkpt lat="45.01938" lon="5.26063">
        <ele>544</ele>
        <time>2019-12-31T13:42:47.007Z</time>
      </trkpt>
      <trkpt lat="45.01934" lon="5.26065">
        <ele>543</ele>
        <time>2019-12-31T13:42:49.007Z</time>
      </trkpt>
      <trkpt lat="45.0193" lon="5.26066">
        <ele>543.2370048</ele>
        <time>2019-12-31T13:42:51.007Z</time>
      </trkpt>
      <trkpt lat="45.01925" lon="5.26067">
        <ele>544</ele>
        <time>2019-12-31T13:42:53.007Z</time>
      </trkpt>
      <trkpt lat="45.01921" lon="5.26067">
        <ele>544</ele>
        <time>2019-12-31T13:42:55.007Z</time>
      </trkpt>
      <trkpt lat="45.01916" lon="5.26067">
        <ele>545</ele>
        <time>2019-12-31T13:42:57.007Z</time>
      </trkpt>
      <trkpt lat="45.01912" lon="5.26066">
        <ele>545</ele>
        <time>2019-12-31T13:42:59.007Z</time>
      </trkpt>
      <trkpt lat="45.01908" lon="5.26065">
        <ele>545.2370048</ele>
        <time>2019-12-31T13:43:01.007Z</time>
      </trkpt>
      <trkpt lat="45.01904" lon="5.26064">
        <ele>546</ele>
        <time>2019-12-31T13:43:03.007Z</time>
      </trkpt>
      <trkpt lat="45.019" lon="5.26063">
        <ele>546</ele>
        <time>2019-12-31T13:43:05.007Z</time>
      </trkpt>
      <trkpt lat="45.01896" lon="5.26062">
        <ele>546</ele>
        <time>2019-12-31T13:43:07.007Z</time>
      </trkpt>
      <trkpt lat="45.01892" lon="5.26061">
        <ele>546</ele>
        <time>2019-12-31T13:43:09.007Z</time>
      </trkpt>
      <trkpt lat="45.01888" lon="5.26061">
        <ele>546.4740096</ele>
        <time>2019-12-31T13:43:11.007Z</time>
      </trkpt>
      <trkpt lat="45.01884" lon="5.2606">
        <ele>548</ele>
        <time>2019-12-31T13:43:13.007Z</time>
      </trkpt>
      <trkpt lat="45.01881" lon="5.2606">
        <ele>548</ele>
        <time>2019-12-31T13:43:15.007Z</time>
      </trkpt>
      <trkpt lat="45.01878" lon="5.26058">
        <ele>548</ele>
        <time>2019-12-31T13:43:17.007Z</time>
      </trkpt>
      <trkpt lat="45.01882" lon="5.26061">
        <ele>549</ele>
        <time>2019-12-31T13:44:12.007Z</time>
      </trkpt>
      <trkpt lat="45.0188" lon="5.26055">
        <ele>548</ele>
        <time>2019-12-31T13:45:55.007Z</time>
      </trkpt>
      <trkpt lat="45.01883" lon="5.2605">
        <ele>549</ele>
        <time>2019-12-31T13:48:35.007Z</time>
      </trkpt>
      <trkpt lat="45.01888" lon="5.26051">
        <ele>549</ele>
        <time>2019-12-31T13:48:38.007Z</time>
      </trkpt>
      <trkpt lat="45.01892" lon="5.26049">
        <ele>549</ele>
        <time>2019-12-31T13:48:40.007Z</time>
      </trkpt>
      <trkpt lat="45.01896" lon="5.26046">
        <ele>550</ele>
        <time>2019-12-31T13:48:42.007Z</time>
      </trkpt>
      <trkpt lat="45.019" lon="5.26043">
        <ele>550</ele>
        <time>2019-12-31T13:48:44.007Z</time>
      </trkpt>
      <trkpt lat="45.01905" lon="5.26037">
        <ele>550</ele>
        <time>2019-12-31T13:48:47.007Z</time>
      </trkpt>
      <trkpt lat="45.01909" lon="5.26031">
        <ele>550</ele>
        <time>2019-12-31T13:48:50.007Z</time>
      </trkpt>
      <trkpt lat="45.01913" lon="5.26025">
        <ele>553</ele>
        <time>2019-12-31T13:48:53.007Z</time>
      </trkpt>
      <trkpt lat="45.01917" lon="5.26017">
        <ele>555</ele>
        <time>2019-12-31T13:48:57.007Z</time>
      </trkpt>
      <trkpt lat="45.01921" lon="5.2601">
        <ele>555</ele>
        <time>2019-12-31T13:49:00.007Z</time>
      </trkpt>
      <trkpt lat="45.01924" lon="5.26002">
        <ele>555</ele>
        <time>2019-12-31T13:49:04.007Z</time>
      </trkpt>
      <trkpt lat="45.01918" lon="5.25998">
        <ele>556</ele>
        <time>2019-12-31T13:49:12.007Z</time>
      </trkpt>
      <trkpt lat="45.01911" lon="5.26002">
        <ele>556</ele>
        <time>2019-12-31T13:49:17.007Z</time>
      </trkpt>
      <trkpt lat="45.01903" lon="5.26002">
        <ele>556.7110144</ele>
        <time>2019-12-31T13:49:21.007Z</time>
      </trkpt>
      <trkpt lat="45.01897" lon="5.26003">
        <ele>559</ele>
        <time>2019-12-31T13:49:24.007Z</time>
      </trkpt>
      <trkpt lat="45.01891" lon="5.26003">
        <ele>560</ele>
        <time>2019-12-31T13:49:27.007Z</time>
      </trkpt>
      <trkpt lat="45.01884" lon="5.26003">
        <ele>560</ele>
        <time>2019-12-31T13:49:30.007Z</time>
      </trkpt>
      <trkpt lat="45.0188" lon="5.26002">
        <ele>561</ele>
        <time>2019-12-31T13:49:32.007Z</time>
      </trkpt>
      <trkpt lat="45.01874" lon="5.25998">
        <ele>561</ele>
        <time>2019-12-31T13:49:35.007Z</time>
      </trkpt>
      <trkpt lat="45.0187" lon="5.25995">
        <ele>561</ele>
        <time>2019-12-31T13:49:37.007Z</time>
      </trkpt>
      <trkpt lat="45.01866" lon="5.25993">
        <ele>561</ele>
        <time>2019-12-31T13:49:39.007Z</time>
      </trkpt>
      <trkpt lat="45.01862" lon="5.2599">
        <ele>561.4740096</ele>
        <time>2019-12-31T13:49:41.007Z</time>
      </trkpt>
      <trkpt lat="45.01858" lon="5.25989">
        <ele>563</ele>
        <time>2019-12-31T13:49:43.007Z</time>
      </trkpt>
      <trkpt lat="45.0185" lon="5.25984">
        <ele>563</ele>
        <time>2019-12-31T13:49:47.007Z</time>
      </trkpt>
      <trkpt lat="45.01847" lon="5.25982">
        <ele>563</ele>
        <time>2019-12-31T13:49:49.007Z</time>
      </trkpt>
      <trkpt lat="45.01844" lon="5.25978">
        <ele>563.4740096</ele>
        <time>2019-12-31T13:49:51.007Z</time>
      </trkpt>
      <trkpt lat="45.01842" lon="5.25973">
        <ele>565</ele>
        <time>2019-12-31T13:49:53.007Z</time>
      </trkpt>
      <trkpt lat="45.01842" lon="5.25966">
        <ele>565</ele>
        <time>2019-12-31T13:49:56.007Z</time>
      </trkpt>
      <trkpt lat="45.01838" lon="5.25958">
        <ele>565.2370048</ele>
        <time>2019-12-31T13:50:01.007Z</time>
      </trkpt>
      <trkpt lat="45.01832" lon="5.25952">
        <ele>566</ele>
        <time>2019-12-31T13:50:05.007Z</time>
      </trkpt>
      <trkpt lat="45.01828" lon="5.25949">
        <ele>566</ele>
        <time>2019-12-31T13:50:08.007Z</time>
      </trkpt>
      <trkpt lat="45.0182" lon="5.25943">
        <ele>568</ele>
        <time>2019-12-31T13:50:13.007Z</time>
      </trkpt>
      <trkpt lat="45.01811" lon="5.25937">
        <ele>568</ele>
        <time>2019-12-31T13:50:18.007Z</time>
      </trkpt>
      <trkpt lat="45.01802" lon="5.25932">
        <ele>571</ele>
        <time>2019-12-31T13:50:23.007Z</time>
      </trkpt>
      <trkpt lat="45.01792" lon="5.25929">
        <ele>571</ele>
        <time>2019-12-31T13:50:28.007Z</time>
      </trkpt>
      <trkpt lat="45.01782" lon="5.25931">
        <ele>572</ele>
        <time>2019-12-31T13:50:33.007Z</time>
      </trkpt>
      <trkpt lat="45.01773" lon="5.25931">
        <ele>572</ele>
        <time>2019-12-31T13:50:37.007Z</time>
      </trkpt>
      <trkpt lat="45.01761" lon="5.25928">
        <ele>574</ele>
        <time>2019-12-31T13:50:43.007Z</time>
      </trkpt>
      <trkpt lat="45.01752" lon="5.25924">
        <ele>574</ele>
        <time>2019-12-31T13:50:48.007Z</time>
      </trkpt>
      <trkpt lat="45.01743" lon="5.25917">
        <ele>575</ele>
        <time>2019-12-31T13:50:54.007Z</time>
      </trkpt>
      <trkpt lat="45.01733" lon="5.25914">
        <ele>575</ele>
        <time>2019-12-31T13:51:00.007Z</time>
      </trkpt>
      <trkpt lat="45.01727" lon="5.25914">
        <ele>578</ele>
        <time>2019-12-31T13:51:03.007Z</time>
      </trkpt>
      <trkpt lat="45.0172" lon="5.25913">
        <ele>578.2370048</ele>
        <time>2019-12-31T13:51:06.007Z</time>
      </trkpt>
      <trkpt lat="45.01714" lon="5.25911">
        <ele>579</ele>
        <time>2019-12-31T13:51:09.007Z</time>
      </trkpt>
      <trkpt lat="45.01707" lon="5.25907">
        <ele>580</ele>
        <time>2019-12-31T13:51:12.007Z</time>
      </trkpt>
      <trkpt lat="45.01701" lon="5.25904">
        <ele>580</ele>
        <time>2019-12-31T13:51:15.007Z</time>
      </trkpt>
      <trkpt lat="45.01695" lon="5.25902">
        <ele>580</ele>
        <time>2019-12-31T13:51:18.007Z</time>
      </trkpt>
      <trkpt lat="45.01689" lon="5.25899">
        <ele>580.4740096</ele>
        <time>2019-12-31T13:51:21.007Z</time>
      </trkpt>
      <trkpt lat="45.01681" lon="5.25894">
        <ele>582</ele>
        <time>2019-12-31T13:51:25.007Z</time>
      </trkpt>
      <trkpt lat="45.01675" lon="5.25889">
        <ele>582</ele>
        <time>2019-12-31T13:51:28.007Z</time>
      </trkpt>
      <trkpt lat="45.01669" lon="5.25884">
        <ele>582.2370048</ele>
        <time>2019-12-31T13:51:31.007Z</time>
      </trkpt>
      <trkpt lat="45.01664" lon="5.25879">
        <ele>583</ele>
        <time>2019-12-31T13:51:34.007Z</time>
      </trkpt>
      <trkpt lat="45.01657" lon="5.25873">
        <ele>583</ele>
        <time>2019-12-31T13:51:37.007Z</time>
      </trkpt>
      <trkpt lat="45.01651" lon="5.25869">
        <ele>583</ele>
        <time>2019-12-31T13:51:40.007Z</time>
      </trkpt>
      <trkpt lat="45.01646" lon="5.25862">
        <ele>585</ele>
        <time>2019-12-31T13:51:43.007Z</time>
      </trkpt>
      <trkpt lat="45.01644" lon="5.25855">
        <ele>585</ele>
        <time>2019-12-31T13:51:45.007Z</time>
      </trkpt>
      <trkpt lat="45.01644" lon="5.25849">
        <ele>585</ele>
        <time>2019-12-31T13:51:47.007Z</time>
      </trkpt>
      <trkpt lat="45.01643" lon="5.25839">
        <ele>585</ele>
        <time>2019-12-31T13:51:50.007Z</time>
      </trkpt>
      <trkpt lat="45.01642" lon="5.2583">
        <ele>587</ele>
        <time>2019-12-31T13:51:53.007Z</time>
      </trkpt>
      <trkpt lat="45.0164" lon="5.25821">
        <ele>587</ele>
        <time>2019-12-31T13:51:56.007Z</time>
      </trkpt>
      <trkpt lat="45.01637" lon="5.25813">
        <ele>587</ele>
        <time>2019-12-31T13:51:59.007Z</time>
      </trkpt>
      <trkpt lat="45.01635" lon="5.25804">
        <ele>589</ele>
        <time>2019-12-31T13:52:02.007Z</time>
      </trkpt>
      <trkpt lat="45.01634" lon="5.25798">
        <ele>589</ele>
        <time>2019-12-31T13:52:04.007Z</time>
      </trkpt>
      <trkpt lat="45.01631" lon="5.2579">
        <ele>589</ele>
        <time>2019-12-31T13:52:07.007Z</time>
      </trkpt>
      <trkpt lat="45.01624" lon="5.25777">
        <ele>591</ele>
        <time>2019-12-31T13:52:13.007Z</time>
      </trkpt>
      <trkpt lat="45.01618" lon="5.25768">
        <ele>592</ele>
        <time>2019-12-31T13:52:32.007Z</time>
      </trkpt>
      <trkpt lat="45.01608" lon="5.25758">
        <ele>592</ele>
        <time>2019-12-31T13:53:23.007Z</time>
      </trkpt>
      <trkpt lat="45.01597" lon="5.25772">
        <ele>592</ele>
        <time>2019-12-31T13:53:27.007Z</time>
      </trkpt>
      <trkpt lat="45.01589" lon="5.25788">
        <ele>592</ele>
        <time>2019-12-31T13:53:29.007Z</time>
      </trkpt>
      <trkpt lat="45.0158" lon="5.25802">
        <ele>590.814976</ele>
        <time>2019-12-31T13:53:31.007Z</time>
      </trkpt>
      <trkpt lat="45.01568" lon="5.2581">
        <ele>587</ele>
        <time>2019-12-31T13:53:33.007Z</time>
      </trkpt>
      <trkpt lat="45.01556" lon="5.25816">
        <ele>587</ele>
        <time>2019-12-31T13:53:35.007Z</time>
      </trkpt>
      <trkpt lat="45.01541" lon="5.2582">
        <ele>583</ele>
        <time>2019-12-31T13:53:37.007Z</time>
      </trkpt>
      <trkpt lat="45.01525" lon="5.25824">
        <ele>583</ele>
        <time>2019-12-31T13:53:39.007Z</time>
      </trkpt>
      <trkpt lat="45.01508" lon="5.25828">
        <ele>582.31212908731</ele>
        <time>2019-12-31T13:53:41.007Z</time>
      </trkpt>
      <trkpt lat="45.01492" lon="5.25829">
        <ele>577.5259904</ele>
        <time>2019-12-31T13:53:43.007Z</time>
      </trkpt>
      <trkpt lat="45.01478" lon="5.25825">
        <ele>574.7629952</ele>
        <time>2019-12-31T13:53:45.007Z</time>
      </trkpt>
      <trkpt lat="45.01468" lon="5.25813">
        <ele>573.7629952</ele>
        <time>2019-12-31T13:53:47.007Z</time>
      </trkpt>
      <trkpt lat="45.01459" lon="5.258">
        <ele>571.7629952</ele>
        <time>2019-12-31T13:53:49.007Z</time>
      </trkpt>
      <trkpt lat="45.01449" lon="5.2579">
        <ele>569.7629952</ele>
        <time>2019-12-31T13:53:51.007Z</time>
      </trkpt>
      <trkpt lat="45.01437" lon="5.25787">
        <ele>568.7629952</ele>
        <time>2019-12-31T13:53:53.007Z</time>
      </trkpt>
      <trkpt lat="45.01419" lon="5.2579">
        <ele>567.7629952</ele>
        <time>2019-12-31T13:53:55.007Z</time>
      </trkpt>
      <trkpt lat="45.01401" lon="5.2579">
        <ele>565.7653410387</ele>
        <time>2019-12-31T13:53:57.007Z</time>
      </trkpt>
      <trkpt lat="45.01383" lon="5.25788">
        <ele>565</ele>
        <time>2019-12-31T13:53:59.007Z</time>
      </trkpt>
      <trkpt lat="45.01366" lon="5.25784">
        <ele>563.2889856</ele>
        <time>2019-12-31T13:54:01.007Z</time>
      </trkpt>
      <trkpt lat="45.0135" lon="5.25775">
        <ele>560.5259904</ele>
        <time>2019-12-31T13:54:03.007Z</time>
      </trkpt>
      <trkpt lat="45.01332" lon="5.25769">
        <ele>557.77070969577</ele>
        <time>2019-12-31T13:54:05.007Z</time>
      </trkpt>
      <trkpt lat="45.01314" lon="5.25766">
        <ele>556</ele>
        <time>2019-12-31T13:54:07.007Z</time>
      </trkpt>
      <trkpt lat="45.01298" lon="5.25768">
        <ele>554.7629952</ele>
        <time>2019-12-31T13:54:09.007Z</time>
      </trkpt>
      <trkpt lat="45.01282" lon="5.25772">
        <ele>552.77070969577</ele>
        <time>2019-12-31T13:54:11.007Z</time>
      </trkpt>
      <trkpt lat="45.01264" lon="5.25774">
        <ele>549.7629952</ele>
        <time>2019-12-31T13:54:13.007Z</time>
      </trkpt>
      <trkpt lat="45.01244" lon="5.25774">
        <ele>547.7629952</ele>
        <time>2019-12-31T13:54:15.007Z</time>
      </trkpt>
      <trkpt lat="45.01225" lon="5.25771">
        <ele>546.5259904</ele>
        <time>2019-12-31T13:54:17.007Z</time>
      </trkpt>
      <trkpt lat="45.01208" lon="5.25765">
        <ele>543.7629952</ele>
        <time>2019-12-31T13:54:19.007Z</time>
      </trkpt>
      <trkpt lat="45.01192" lon="5.25758">
        <ele>542.77070969577</ele>
        <time>2019-12-31T13:54:21.007Z</time>
      </trkpt>
      <trkpt lat="45.01176" lon="5.25754">
        <ele>540.77070969577</ele>
        <time>2019-12-31T13:54:23.007Z</time>
      </trkpt>
      <trkpt lat="45.0116" lon="5.25752">
        <ele>539.7629952</ele>
        <time>2019-12-31T13:54:25.007Z</time>
      </trkpt>
      <trkpt lat="45.01143" lon="5.25748">
        <ele>537.7629952</ele>
        <time>2019-12-31T13:54:27.007Z</time>
      </trkpt>
      <trkpt lat="45.01124" lon="5.25745">
        <ele>535.54141939154</ele>
        <time>2019-12-31T13:54:29.007Z</time>
      </trkpt>
      <trkpt lat="45.01106" lon="5.25747">
        <ele>533</ele>
        <time>2019-12-31T13:54:31.007Z</time>
      </trkpt>
      <trkpt lat="45.0109" lon="5.25745">
        <ele>530.7629952</ele>
        <time>2019-12-31T13:54:33.007Z</time>
      </trkpt>
      <trkpt lat="45.01073" lon="5.25742">
        <ele>529</ele>
        <time>2019-12-31T13:54:35.007Z</time>
      </trkpt>
      <trkpt lat="45.01055" lon="5.25739">
        <ele>528.7629952</ele>
        <time>2019-12-31T13:54:37.007Z</time>
      </trkpt>
      <trkpt lat="45.01037" lon="5.25735">
        <ele>525.7629952</ele>
        <time>2019-12-31T13:54:39.007Z</time>
      </trkpt>
      <trkpt lat="45.01019" lon="5.25733">
        <ele>524.54141939154</ele>
        <time>2019-12-31T13:54:41.007Z</time>
      </trkpt>
      <trkpt lat="45.01001" lon="5.25728">
        <ele>522.7653410387</ele>
        <time>2019-12-31T13:54:43.007Z</time>
      </trkpt>
      <trkpt lat="45.00982" lon="5.25722">
        <ele>520.7629952</ele>
        <time>2019-12-31T13:54:45.007Z</time>
      </trkpt>
      <trkpt lat="45.00964" lon="5.25715">
        <ele>518.54141939154</ele>
        <time>2019-12-31T13:54:47.007Z</time>
      </trkpt>
      <trkpt lat="45.00947" lon="5.25707">
        <ele>516.7629952</ele>
        <time>2019-12-31T13:54:49.007Z</time>
      </trkpt>
      <trkpt lat="45.00929" lon="5.25701">
        <ele>514.7629952</ele>
        <time>2019-12-31T13:54:51.007Z</time>
      </trkpt>
      <trkpt lat="45.00912" lon="5.25697">
        <ele>512.54141939154</ele>
        <time>2019-12-31T13:54:53.007Z</time>
      </trkpt>
      <trkpt lat="45.00896" lon="5.25693">
        <ele>510.7629952</ele>
        <time>2019-12-31T13:54:55.007Z</time>
      </trkpt>
      <trkpt lat="45.00882" lon="5.25684">
        <ele>507.7629952</ele>
        <time>2019-12-31T13:54:57.007Z</time>
      </trkpt>
      <trkpt lat="45.00866" lon="5.25675">
        <ele>506.5259904</ele>
        <time>2019-12-31T13:54:59.007Z</time>
      </trkpt>
      <trkpt lat="45.00851" lon="5.25669">
        <ele>504.7629952</ele>
        <time>2019-12-31T13:55:01.007Z</time>
      </trkpt>
      <trkpt lat="45.00836" lon="5.25666">
        <ele>503.5259904</ele>
        <time>2019-12-31T13:55:03.007Z</time>
      </trkpt>
      <trkpt lat="45.0082" lon="5.25667">
        <ele>501</ele>
        <time>2019-12-31T13:55:05.007Z</time>
      </trkpt>
      <trkpt lat="45.00803" lon="5.25666">
        <ele>499.7629952</ele>
        <time>2019-12-31T13:55:07.007Z</time>
      </trkpt>
      <trkpt lat="45.00785" lon="5.25665">
        <ele>497.7629952</ele>
        <time>2019-12-31T13:55:09.007Z</time>
      </trkpt>
      <trkpt lat="45.00768" lon="5.25662">
        <ele>495.77070969577</ele>
        <time>2019-12-31T13:55:11.007Z</time>
      </trkpt>
      <trkpt lat="45.00751" lon="5.25653">
        <ele>493</ele>
        <time>2019-12-31T13:55:13.007Z</time>
      </trkpt>
      <trkpt lat="45.00734" lon="5.25645">
        <ele>492.5259904</ele>
        <time>2019-12-31T13:55:15.007Z</time>
      </trkpt>
      <trkpt lat="45.00718" lon="5.25638">
        <ele>488.77070969577</ele>
        <time>2019-12-31T13:55:17.007Z</time>
      </trkpt>
      <trkpt lat="45.00701" lon="5.25633">
        <ele>487</ele>
        <time>2019-12-31T13:55:19.007Z</time>
      </trkpt>
      <trkpt lat="45.00684" lon="5.25628">
        <ele>486.7629952</ele>
        <time>2019-12-31T13:55:21.007Z</time>
      </trkpt>
      <trkpt lat="45.00666" lon="5.25626">
        <ele>484.54141939154</ele>
        <time>2019-12-31T13:55:23.007Z</time>
      </trkpt>
      <trkpt lat="45.00647" lon="5.25622">
        <ele>482</ele>
        <time>2019-12-31T13:55:25.007Z</time>
      </trkpt>
      <trkpt lat="45.00638" lon="5.2562">
        <ele>481.7629952</ele>
        <time>2019-12-31T13:55:26.007Z</time>
      </trkpt>
      <trkpt lat="45.00621" lon="5.25616">
        <ele>479.29603203772</ele>
        <time>2019-12-31T13:55:28.007Z</time>
      </trkpt>
      <trkpt lat="45.0061" lon="5.25614">
        <ele>475.7629952</ele>
        <time>2019-12-31T13:55:30.007Z</time>
      </trkpt>
      <trkpt lat="45.00617" lon="5.25626">
        <ele>474</ele>
        <time>2019-12-31T13:55:35.007Z</time>
      </trkpt>
      <trkpt lat="45.00632" lon="5.25633">
        <ele>473.2889856</ele>
        <time>2019-12-31T13:55:37.007Z</time>
      </trkpt>
      <trkpt lat="45.00646" lon="5.25645">
        <ele>469.7629952</ele>
        <time>2019-12-31T13:55:39.007Z</time>
      </trkpt>
      <trkpt lat="45.0066" lon="5.2566">
        <ele>468</ele>
        <time>2019-12-31T13:55:41.007Z</time>
      </trkpt>
      <trkpt lat="45.00675" lon="5.25672">
        <ele>466.5259904</ele>
        <time>2019-12-31T13:55:43.007Z</time>
      </trkpt>
      <trkpt lat="45.00689" lon="5.25683">
        <ele>463.5259904</ele>
        <time>2019-12-31T13:55:45.007Z</time>
      </trkpt>
      <trkpt lat="45.00701" lon="5.25693">
        <ele>461.5259904</ele>
        <time>2019-12-31T13:55:47.007Z</time>
      </trkpt>
      <trkpt lat="45.00714" lon="5.25703">
        <ele>459</ele>
        <time>2019-12-31T13:55:49.007Z</time>
      </trkpt>
      <trkpt lat="45.00728" lon="5.25716">
        <ele>456.7629952</ele>
        <time>2019-12-31T13:55:51.007Z</time>
      </trkpt>
      <trkpt lat="45.00742" lon="5.25729">
        <ele>453</ele>
        <time>2019-12-31T13:55:53.007Z</time>
      </trkpt>
      <trkpt lat="45.00754" lon="5.25743">
        <ele>451</ele>
        <time>2019-12-31T13:55:55.007Z</time>
      </trkpt>
      <trkpt lat="45.00765" lon="5.25757">
        <ele>449.7629952</ele>
        <time>2019-12-31T13:55:57.007Z</time>
      </trkpt>
      <trkpt lat="45.00777" lon="5.2577">
        <ele>446.54141939154</ele>
        <time>2019-12-31T13:55:59.007Z</time>
      </trkpt>
      <trkpt lat="45.00788" lon="5.25783">
        <ele>443.2889856</ele>
        <time>2019-12-31T13:56:01.007Z</time>
      </trkpt>
      <trkpt lat="45.008" lon="5.25794">
        <ele>440.7629952</ele>
        <time>2019-12-31T13:56:03.007Z</time>
      </trkpt>
      <trkpt lat="45.00812" lon="5.25806">
        <ele>438.77070969577</ele>
        <time>2019-12-31T13:56:05.007Z</time>
      </trkpt>
      <trkpt lat="45.00825" lon="5.25813">
        <ele>437</ele>
        <time>2019-12-31T13:56:07.007Z</time>
      </trkpt>
      <trkpt lat="45.00839" lon="5.2582">
        <ele>436.5259904</ele>
        <time>2019-12-31T13:56:09.007Z</time>
      </trkpt>
      <trkpt lat="45.00851" lon="5.25829">
        <ele>434</ele>
        <time>2019-12-31T13:56:11.007Z</time>
      </trkpt>
      <trkpt lat="45.00862" lon="5.25841">
        <ele>431.7629952</ele>
        <time>2019-12-31T13:56:13.007Z</time>
      </trkpt>
      <trkpt lat="45.00874" lon="5.25854">
        <ele>430.7629952</ele>
        <time>2019-12-31T13:56:15.007Z</time>
      </trkpt>
      <trkpt lat="45.00884" lon="5.25865">
        <ele>427.77070969577</ele>
        <time>2019-12-31T13:56:17.007Z</time>
      </trkpt>
      <trkpt lat="45.00894" lon="5.25877">
        <ele>426.77070969577</ele>
        <time>2019-12-31T13:56:19.007Z</time>
      </trkpt>
      <trkpt lat="45.00902" lon="5.25886">
        <ele>425</ele>
        <time>2019-12-31T13:56:21.007Z</time>
      </trkpt>
      <trkpt lat="45.00911" lon="5.25893">
        <ele>424</ele>
        <time>2019-12-31T13:56:23.007Z</time>
      </trkpt>
      <trkpt lat="45.0092" lon="5.25902">
        <ele>424</ele>
        <time>2019-12-31T13:56:25.007Z</time>
      </trkpt>
      <trkpt lat="45.00929" lon="5.25914">
        <ele>422.7629952</ele>
        <time>2019-12-31T13:56:27.007Z</time>
      </trkpt>
      <trkpt lat="45.00937" lon="5.25929">
        <ele>421.7629952</ele>
        <time>2019-12-31T13:56:29.007Z</time>
      </trkpt>
      <trkpt lat="45.00943" lon="5.25944">
        <ele>419.7629952</ele>
        <time>2019-12-31T13:56:31.007Z</time>
      </trkpt>
      <trkpt lat="45.00951" lon="5.25957">
        <ele>417.5259904</ele>
        <time>2019-12-31T13:56:33.007Z</time>
      </trkpt>
      <trkpt lat="45.00957" lon="5.25969">
        <ele>413.77070969577</ele>
        <time>2019-12-31T13:56:35.007Z</time>
      </trkpt>
      <trkpt lat="45.0096" lon="5.25986">
        <ele>410.7629952</ele>
        <time>2019-12-31T13:56:38.007Z</time>
      </trkpt>
      <trkpt lat="45.00947" lon="5.25992">
        <ele>409</ele>
        <time>2019-12-31T13:56:41.007Z</time>
      </trkpt>
      <trkpt lat="45.00937" lon="5.2599">
        <ele>408.7629952</ele>
        <time>2019-12-31T13:56:43.007Z</time>
      </trkpt>
      <trkpt lat="45.00923" lon="5.25988">
        <ele>406.76534401257</ele>
        <time>2019-12-31T13:56:46.007Z</time>
      </trkpt>
      <trkpt lat="45.00915" lon="5.25991">
        <ele>404.2370048</ele>
        <time>2019-12-31T13:56:50.007Z</time>
      </trkpt>
      <trkpt lat="45.00921" lon="5.25992">
        <ele>405</ele>
        <time>2019-12-31T13:58:22.007Z</time>
      </trkpt>
      <trkpt lat="45.0092" lon="5.26004">
        <ele>405</ele>
        <time>2019-12-31T14:01:04.007Z</time>
      </trkpt>
      <trkpt lat="45.00917" lon="5.26022">
        <ele>405</ele>
        <time>2019-12-31T14:01:07.007Z</time>
      </trkpt>
      <trkpt lat="45.00911" lon="5.26034">
        <ele>405</ele>
        <time>2019-12-31T14:01:09.007Z</time>
      </trkpt>
      <trkpt lat="45.00904" lon="5.26048">
        <ele>404.0519808</ele>
        <time>2019-12-31T14:01:11.007Z</time>
      </trkpt>
      <trkpt lat="45.00898" lon="5.26065">
        <ele>401</ele>
        <time>2019-12-31T14:01:13.007Z</time>
      </trkpt>
      <trkpt lat="45.00891" lon="5.26084">
        <ele>401</ele>
        <time>2019-12-31T14:01:15.007Z</time>
      </trkpt>
      <trkpt lat="45.00885" lon="5.26104">
        <ele>396</ele>
        <time>2019-12-31T14:01:17.007Z</time>
      </trkpt>
      <trkpt lat="45.00876" lon="5.2612">
        <ele>396</ele>
        <time>2019-12-31T14:01:19.007Z</time>
      </trkpt>
      <trkpt lat="45.00865" lon="5.26134">
        <ele>394.814976</ele>
        <time>2019-12-31T14:01:21.007Z</time>
      </trkpt>
      <trkpt lat="45.00858" lon="5.26141">
        <ele>390.29603203772</ele>
        <time>2019-12-31T14:01:22.007Z</time>
      </trkpt>
      <trkpt lat="45.00845" lon="5.26155">
        <ele>386.7629952</ele>
        <time>2019-12-31T14:01:24.007Z</time>
      </trkpt>
      <trkpt lat="45.00831" lon="5.26169">
        <ele>384.7629952</ele>
        <time>2019-12-31T14:01:26.007Z</time>
      </trkpt>
      <trkpt lat="45.00825" lon="5.26176">
        <ele>384</ele>
        <time>2019-12-31T14:01:27.007Z</time>
      </trkpt>
      <trkpt lat="45.00813" lon="5.26188">
        <ele>383.7629952</ele>
        <time>2019-12-31T14:01:29.007Z</time>
      </trkpt>
      <trkpt lat="45.00803" lon="5.26202">
        <ele>382.7629952</ele>
        <time>2019-12-31T14:01:31.007Z</time>
      </trkpt>
      <trkpt lat="45.008" lon="5.2622">
        <ele>382</ele>
        <time>2019-12-31T14:01:33.007Z</time>
      </trkpt>
      <trkpt lat="45.008" lon="5.26229">
        <ele>382</ele>
        <time>2019-12-31T14:01:34.007Z</time>
      </trkpt>
      <trkpt lat="45.008" lon="5.26239">
        <ele>382</ele>
        <time>2019-12-31T14:01:35.007Z</time>
      </trkpt>
      <trkpt lat="45.00802" lon="5.26248">
        <ele>381.7629952</ele>
        <time>2019-12-31T14:01:36.007Z</time>
      </trkpt>
      <trkpt lat="45.00803" lon="5.26256">
        <ele>380.7629952</ele>
        <time>2019-12-31T14:01:37.007Z</time>
      </trkpt>
      <trkpt lat="45.00806" lon="5.26265">
        <ele>379.7629952</ele>
        <time>2019-12-31T14:01:38.007Z</time>
      </trkpt>
      <trkpt lat="45.00809" lon="5.26272">
        <ele>378.7629952</ele>
        <time>2019-12-31T14:01:39.007Z</time>
      </trkpt>
      <trkpt lat="45.00813" lon="5.26286">
        <ele>378</ele>
        <time>2019-12-31T14:01:41.007Z</time>
      </trkpt>
      <trkpt lat="45.00817" lon="5.26298">
        <ele>378</ele>
        <time>2019-12-31T14:01:43.007Z</time>
      </trkpt>
      <trkpt lat="45.00821" lon="5.26309">
        <ele>378</ele>
        <time>2019-12-31T14:01:45.007Z</time>
      </trkpt>
      <trkpt lat="45.00826" lon="5.26319">
        <ele>379</ele>
        <time>2019-12-31T14:01:47.007Z</time>
      </trkpt>
      <trkpt lat="45.00831" lon="5.26328">
        <ele>379</ele>
        <time>2019-12-31T14:01:49.007Z</time>
      </trkpt>
      <trkpt lat="45.00835" lon="5.26336">
        <ele>379</ele>
        <time>2019-12-31T14:01:51.007Z</time>
      </trkpt>
      <trkpt lat="45.0084" lon="5.26342">
        <ele>379</ele>
        <time>2019-12-31T14:01:53.007Z</time>
      </trkpt>
      <trkpt lat="45.00845" lon="5.26349">
        <ele>379</ele>
        <time>2019-12-31T14:01:55.007Z</time>
      </trkpt>
      <trkpt lat="45.0085" lon="5.26357">
        <ele>379</ele>
        <time>2019-12-31T14:01:57.007Z</time>
      </trkpt>
      <trkpt lat="45.00854" lon="5.26365">
        <ele>379</ele>
        <time>2019-12-31T14:01:59.007Z</time>
      </trkpt>
      <trkpt lat="45.00859" lon="5.26372">
        <ele>379.4740096</ele>
        <time>2019-12-31T14:02:01.007Z</time>
      </trkpt>
      <trkpt lat="45.00863" lon="5.2638">
        <ele>381</ele>
        <time>2019-12-31T14:02:03.007Z</time>
      </trkpt>
      <trkpt lat="45.00868" lon="5.26388">
        <ele>381</ele>
        <time>2019-12-31T14:02:05.007Z</time>
      </trkpt>
      <trkpt lat="45.00873" lon="5.26396">
        <ele>381</ele>
        <time>2019-12-31T14:02:07.007Z</time>
      </trkpt>
      <trkpt lat="45.00875" lon="5.264">
        <ele>381</ele>
        <time>2019-12-31T14:02:08.007Z</time>
      </trkpt>
      <trkpt lat="45.00877" lon="5.26405">
        <ele>381</ele>
        <time>2019-12-31T14:02:09.007Z</time>
      </trkpt>
      <trkpt lat="45.0088" lon="5.26409">
        <ele>381</ele>
        <time>2019-12-31T14:02:10.007Z</time>
      </trkpt>
      <trkpt lat="45.00882" lon="5.26413">
        <ele>381.22929030423</ele>
        <time>2019-12-31T14:02:11.007Z</time>
      </trkpt>
      <trkpt lat="45.00887" lon="5.26422">
        <ele>382</ele>
        <time>2019-12-31T14:02:13.007Z</time>
      </trkpt>
      <trkpt lat="45.00892" lon="5.26431">
        <ele>382</ele>
        <time>2019-12-31T14:02:15.007Z</time>
      </trkpt>
      <trkpt lat="45.00894" lon="5.26436">
        <ele>382</ele>
        <time>2019-12-31T14:02:16.007Z</time>
      </trkpt>
      <trkpt lat="45.00899" lon="5.26444">
        <ele>382</ele>
        <time>2019-12-31T14:02:18.007Z</time>
      </trkpt>
      <trkpt lat="45.00902" lon="5.26449">
        <ele>382</ele>
        <time>2019-12-31T14:02:19.007Z</time>
      </trkpt>
      <trkpt lat="45.00907" lon="5.26458">
        <ele>382.2370048</ele>
        <time>2019-12-31T14:02:21.007Z</time>
      </trkpt>
      <trkpt lat="45.00912" lon="5.26467">
        <ele>383</ele>
        <time>2019-12-31T14:02:23.007Z</time>
      </trkpt>
      <trkpt lat="45.00915" lon="5.26471">
        <ele>383</ele>
        <time>2019-12-31T14:02:24.007Z</time>
      </trkpt>
      <trkpt lat="45.00917" lon="5.26476">
        <ele>383</ele>
        <time>2019-12-31T14:02:25.007Z</time>
      </trkpt>
      <trkpt lat="45.0092" lon="5.2648">
        <ele>383</ele>
        <time>2019-12-31T14:02:26.007Z</time>
      </trkpt>
      <trkpt lat="45.00922" lon="5.26484">
        <ele>383</ele>
        <time>2019-12-31T14:02:27.007Z</time>
      </trkpt>
      <trkpt lat="45.00924" lon="5.26488">
        <ele>383</ele>
        <time>2019-12-31T14:02:28.007Z</time>
      </trkpt>
      <trkpt lat="45.00926" lon="5.26492">
        <ele>383</ele>
        <time>2019-12-31T14:02:29.007Z</time>
      </trkpt>
      <trkpt lat="45.00929" lon="5.26496">
        <ele>383</ele>
        <time>2019-12-31T14:02:30.007Z</time>
      </trkpt>
      <trkpt lat="45.00933" lon="5.26503">
        <ele>386</ele>
        <time>2019-12-31T14:02:32.007Z</time>
      </trkpt>
      <trkpt lat="45.00938" lon="5.26511">
        <ele>386</ele>
        <time>2019-12-31T14:02:34.007Z</time>
      </trkpt>
      <trkpt lat="45.00943" lon="5.26518">
        <ele>386.4740096</ele>
        <time>2019-12-31T14:02:36.007Z</time>
      </trkpt>
      <trkpt lat="45.00947" lon="5.26526">
        <ele>388</ele>
        <time>2019-12-31T14:02:38.007Z</time>
      </trkpt>
      <trkpt lat="45.00951" lon="5.26534">
        <ele>388</ele>
        <time>2019-12-31T14:02:40.007Z</time>
      </trkpt>
      <trkpt lat="45.00955" lon="5.26542">
        <ele>390</ele>
        <time>2019-12-31T14:02:42.007Z</time>
      </trkpt>
      <trkpt lat="45.00959" lon="5.26551">
        <ele>390</ele>
        <time>2019-12-31T14:02:44.007Z</time>
      </trkpt>
      <trkpt lat="45.00961" lon="5.2656">
        <ele>390</ele>
        <time>2019-12-31T14:02:46.007Z</time>
      </trkpt>
      <trkpt lat="45.00963" lon="5.2657">
        <ele>390</ele>
        <time>2019-12-31T14:02:48.007Z</time>
      </trkpt>
      <trkpt lat="45.00964" lon="5.2658">
        <ele>390</ele>
        <time>2019-12-31T14:02:50.007Z</time>
      </trkpt>
      <trkpt lat="45.00964" lon="5.26589">
        <ele>392</ele>
        <time>2019-12-31T14:02:52.007Z</time>
      </trkpt>
      <trkpt lat="45.00963" lon="5.266">
        <ele>392</ele>
        <time>2019-12-31T14:02:54.007Z</time>
      </trkpt>
      <trkpt lat="45.00962" lon="5.2661">
        <ele>392</ele>
        <time>2019-12-31T14:02:56.007Z</time>
      </trkpt>
      <trkpt lat="45.00959" lon="5.26621">
        <ele>392</ele>
        <time>2019-12-31T14:02:58.007Z</time>
      </trkpt>
      <trkpt lat="45.00957" lon="5.26627">
        <ele>392</ele>
        <time>2019-12-31T14:02:59.007Z</time>
      </trkpt>
      <trkpt lat="45.00955" lon="5.26634">
        <ele>392</ele>
        <time>2019-12-31T14:03:00.007Z</time>
      </trkpt>
      <trkpt lat="45.00953" lon="5.26641">
        <ele>391.5259904</ele>
        <time>2019-12-31T14:03:01.007Z</time>
      </trkpt>
      <trkpt lat="45.00952" lon="5.2665">
        <ele>390</ele>
        <time>2019-12-31T14:03:02.007Z</time>
      </trkpt>
      <trkpt lat="45.00951" lon="5.26658">
        <ele>390</ele>
        <time>2019-12-31T14:03:03.007Z</time>
      </trkpt>
      <trkpt lat="45.0095" lon="5.26668">
        <ele>390</ele>
        <time>2019-12-31T14:03:04.007Z</time>
      </trkpt>
      <trkpt lat="45.0095" lon="5.26678">
        <ele>390</ele>
        <time>2019-12-31T14:03:05.007Z</time>
      </trkpt>
      <trkpt lat="45.0095" lon="5.26689">
        <ele>390</ele>
        <time>2019-12-31T14:03:06.007Z</time>
      </trkpt>
      <trkpt lat="45.00949" lon="5.26699">
        <ele>390</ele>
        <time>2019-12-31T14:03:07.007Z</time>
      </trkpt>
      <trkpt lat="45.00948" lon="5.26709">
        <ele>390</ele>
        <time>2019-12-31T14:03:08.007Z</time>
      </trkpt>
      <trkpt lat="45.00947" lon="5.26719">
        <ele>390</ele>
        <time>2019-12-31T14:03:09.007Z</time>
      </trkpt>
      <trkpt lat="45.00946" lon="5.26729">
        <ele>390</ele>
        <time>2019-12-31T14:03:10.007Z</time>
      </trkpt>
      <trkpt lat="45.00944" lon="5.26739">
        <ele>389.7629952</ele>
        <time>2019-12-31T14:03:11.007Z</time>
      </trkpt>
      <trkpt lat="45.00942" lon="5.26749">
        <ele>389</ele>
        <time>2019-12-31T14:03:12.007Z</time>
      </trkpt>
      <trkpt lat="45.00939" lon="5.26759">
        <ele>389</ele>
        <time>2019-12-31T14:03:13.007Z</time>
      </trkpt>
      <trkpt lat="45.00936" lon="5.2677">
        <ele>389</ele>
        <time>2019-12-31T14:03:14.007Z</time>
      </trkpt>
      <trkpt lat="45.00934" lon="5.26782">
        <ele>389</ele>
        <time>2019-12-31T14:03:15.007Z</time>
      </trkpt>
      <trkpt lat="45.00933" lon="5.26795">
        <ele>389</ele>
        <time>2019-12-31T14:03:16.007Z</time>
      </trkpt>
      <trkpt lat="45.00932" lon="5.26808">
        <ele>389</ele>
        <time>2019-12-31T14:03:17.007Z</time>
      </trkpt>
      <trkpt lat="45.00932" lon="5.26821">
        <ele>389</ele>
        <time>2019-12-31T14:03:18.007Z</time>
      </trkpt>
      <trkpt lat="45.00933" lon="5.26834">
        <ele>389</ele>
        <time>2019-12-31T14:03:19.007Z</time>
      </trkpt>
      <trkpt lat="45.00933" lon="5.26847">
        <ele>389</ele>
        <time>2019-12-31T14:03:20.007Z</time>
      </trkpt>
      <trkpt lat="45.00934" lon="5.26859">
        <ele>388.2889856</ele>
        <time>2019-12-31T14:03:21.007Z</time>
      </trkpt>
      <trkpt lat="45.00936" lon="5.26871">
        <ele>386</ele>
        <time>2019-12-31T14:03:22.007Z</time>
      </trkpt>
      <trkpt lat="45.00939" lon="5.26882">
        <ele>386</ele>
        <time>2019-12-31T14:03:23.007Z</time>
      </trkpt>
      <trkpt lat="45.00944" lon="5.26893">
        <ele>386</ele>
        <time>2019-12-31T14:03:24.007Z</time>
      </trkpt>
      <trkpt lat="45.00948" lon="5.26902">
        <ele>386</ele>
        <time>2019-12-31T14:03:25.007Z</time>
      </trkpt>
      <trkpt lat="45.00954" lon="5.26911">
        <ele>385.2889856</ele>
        <time>2019-12-31T14:03:26.007Z</time>
      </trkpt>
      <trkpt lat="45.00958" lon="5.26921">
        <ele>383</ele>
        <time>2019-12-31T14:03:27.007Z</time>
      </trkpt>
      <trkpt lat="45.00962" lon="5.26931">
        <ele>383</ele>
        <time>2019-12-31T14:03:28.007Z</time>
      </trkpt>
      <trkpt lat="45.00965" lon="5.26943">
        <ele>383</ele>
        <time>2019-12-31T14:03:29.007Z</time>
      </trkpt>
      <trkpt lat="45.00967" lon="5.26956">
        <ele>383</ele>
        <time>2019-12-31T14:03:30.007Z</time>
      </trkpt>
      <trkpt lat="45.00969" lon="5.26968">
        <ele>382.2889856</ele>
        <time>2019-12-31T14:03:31.007Z</time>
      </trkpt>
      <trkpt lat="45.00971" lon="5.26981">
        <ele>380</ele>
        <time>2019-12-31T14:03:32.007Z</time>
      </trkpt>
      <trkpt lat="45.00973" lon="5.26994">
        <ele>379.7629952</ele>
        <time>2019-12-31T14:03:33.007Z</time>
      </trkpt>
      <trkpt lat="45.00974" lon="5.27007">
        <ele>378.76534401257</ele>
        <time>2019-12-31T14:03:34.007Z</time>
      </trkpt>
      <trkpt lat="45.00975" lon="5.2702">
        <ele>378</ele>
        <time>2019-12-31T14:03:35.007Z</time>
      </trkpt>
      <trkpt lat="45.00975" lon="5.27033">
        <ele>377.7629952</ele>
        <time>2019-12-31T14:03:36.007Z</time>
      </trkpt>
      <trkpt lat="45.00975" lon="5.27046">
        <ele>377.2370048</ele>
        <time>2019-12-31T14:03:37.007Z</time>
      </trkpt>
      <trkpt lat="45.00975" lon="5.27059">
        <ele>377.5259904</ele>
        <time>2019-12-31T14:03:38.007Z</time>
      </trkpt>
      <trkpt lat="45.00974" lon="5.27071">
        <ele>375.7629952</ele>
        <time>2019-12-31T14:03:39.007Z</time>
      </trkpt>
      <trkpt lat="45.00973" lon="5.27083">
        <ele>375</ele>
        <time>2019-12-31T14:03:40.007Z</time>
      </trkpt>
      <trkpt lat="45.0097" lon="5.27095">
        <ele>375</ele>
        <time>2019-12-31T14:03:41.007Z</time>
      </trkpt>
      <trkpt lat="45.00965" lon="5.27106">
        <ele>374.7629952</ele>
        <time>2019-12-31T14:03:42.007Z</time>
      </trkpt>
      <trkpt lat="45.0096" lon="5.27117">
        <ele>374</ele>
        <time>2019-12-31T14:03:43.007Z</time>
      </trkpt>
      <trkpt lat="45.00953" lon="5.27127">
        <ele>373.7629952</ele>
        <time>2019-12-31T14:03:44.007Z</time>
      </trkpt>
      <trkpt lat="45.00945" lon="5.27136">
        <ele>372.5259904</ele>
        <time>2019-12-31T14:03:45.007Z</time>
      </trkpt>
      <trkpt lat="45.00938" lon="5.27146">
        <ele>370.76534401257</ele>
        <time>2019-12-31T14:03:46.007Z</time>
      </trkpt>
      <trkpt lat="45.0093" lon="5.27155">
        <ele>369.77070969577</ele>
        <time>2019-12-31T14:03:47.007Z</time>
      </trkpt>
      <trkpt lat="45.00922" lon="5.27166">
        <ele>368.7629952</ele>
        <time>2019-12-31T14:03:48.007Z</time>
      </trkpt>
      <trkpt lat="45.00914" lon="5.27177">
        <ele>367.7629952</ele>
        <time>2019-12-31T14:03:49.007Z</time>
      </trkpt>
      <trkpt lat="45.00905" lon="5.27187">
        <ele>366.7629952</ele>
        <time>2019-12-31T14:03:50.007Z</time>
      </trkpt>
      <trkpt lat="45.00896" lon="5.27197">
        <ele>365.7629952</ele>
        <time>2019-12-31T14:03:51.007Z</time>
      </trkpt>
      <trkpt lat="45.00886" lon="5.27203">
        <ele>364.76534401257</ele>
        <time>2019-12-31T14:03:52.007Z</time>
      </trkpt>
      <trkpt lat="45.00875" lon="5.27207">
        <ele>363.77070969577</ele>
        <time>2019-12-31T14:03:53.007Z</time>
      </trkpt>
      <trkpt lat="45.00864" lon="5.27209">
        <ele>362.7629952</ele>
        <time>2019-12-31T14:03:54.007Z</time>
      </trkpt>
      <trkpt lat="45.00853" lon="5.27211">
        <ele>362</ele>
        <time>2019-12-31T14:03:55.007Z</time>
      </trkpt>
      <trkpt lat="45.00843" lon="5.27212">
        <ele>362</ele>
        <time>2019-12-31T14:03:56.007Z</time>
      </trkpt>
      <trkpt lat="45.00833" lon="5.27212">
        <ele>362</ele>
        <time>2019-12-31T14:03:57.007Z</time>
      </trkpt>
      <trkpt lat="45.00824" lon="5.27211">
        <ele>362.23465598743</ele>
        <time>2019-12-31T14:03:58.007Z</time>
      </trkpt>
      <trkpt lat="45.00816" lon="5.2721">
        <ele>363</ele>
        <time>2019-12-31T14:03:59.007Z</time>
      </trkpt>
      <trkpt lat="45.00809" lon="5.27209">
        <ele>363</ele>
        <time>2019-12-31T14:04:00.007Z</time>
      </trkpt>
      <trkpt lat="45.00802" lon="5.27209">
        <ele>363.2370048</ele>
        <time>2019-12-31T14:04:01.007Z</time>
      </trkpt>
      <trkpt lat="45.00796" lon="5.27209">
        <ele>364</ele>
        <time>2019-12-31T14:04:02.007Z</time>
      </trkpt>
      <trkpt lat="45.0079" lon="5.27208">
        <ele>364</ele>
        <time>2019-12-31T14:04:03.007Z</time>
      </trkpt>
      <trkpt lat="45.0078" lon="5.27207">
        <ele>364</ele>
        <time>2019-12-31T14:04:05.007Z</time>
      </trkpt>
      <trkpt lat="45.00772" lon="5.27204">
        <ele>364</ele>
        <time>2019-12-31T14:04:07.007Z</time>
      </trkpt>
      <trkpt lat="45.00765" lon="5.27202">
        <ele>364</ele>
        <time>2019-12-31T14:04:09.007Z</time>
      </trkpt>
      <trkpt lat="45.00759" lon="5.27199">
        <ele>364.7110144</ele>
        <time>2019-12-31T14:04:11.007Z</time>
      </trkpt>
      <trkpt lat="45.00752" lon="5.27196">
        <ele>367</ele>
        <time>2019-12-31T14:04:13.007Z</time>
      </trkpt>
      <trkpt lat="45.00745" lon="5.27194">
        <ele>367</ele>
        <time>2019-12-31T14:04:15.007Z</time>
      </trkpt>
      <trkpt lat="45.00739" lon="5.27191">
        <ele>370</ele>
        <time>2019-12-31T14:04:17.007Z</time>
      </trkpt>
      <trkpt lat="45.00732" lon="5.27188">
        <ele>370</ele>
        <time>2019-12-31T14:04:19.007Z</time>
      </trkpt>
      <trkpt lat="45.00725" lon="5.27186">
        <ele>370.2370048</ele>
        <time>2019-12-31T14:04:21.007Z</time>
      </trkpt>
      <trkpt lat="45.00718" lon="5.27182">
        <ele>371</ele>
        <time>2019-12-31T14:04:23.007Z</time>
      </trkpt>
      <trkpt lat="45.0071" lon="5.27179">
        <ele>371</ele>
        <time>2019-12-31T14:04:25.007Z</time>
      </trkpt>
      <trkpt lat="45.00702" lon="5.27177">
        <ele>371</ele>
        <time>2019-12-31T14:04:27.007Z</time>
      </trkpt>
      <trkpt lat="45.00694" lon="5.27173">
        <ele>371</ele>
        <time>2019-12-31T14:04:29.007Z</time>
      </trkpt>
      <trkpt lat="45.00686" lon="5.27168">
        <ele>370.7629952</ele>
        <time>2019-12-31T14:04:31.007Z</time>
      </trkpt>
      <trkpt lat="45.00678" lon="5.27162">
        <ele>370</ele>
        <time>2019-12-31T14:04:33.007Z</time>
      </trkpt>
      <trkpt lat="45.00671" lon="5.27156">
        <ele>370</ele>
        <time>2019-12-31T14:04:35.007Z</time>
      </trkpt>
      <trkpt lat="45.00664" lon="5.2715">
        <ele>370</ele>
        <time>2019-12-31T14:04:37.007Z</time>
      </trkpt>
      <trkpt lat="45.00658" lon="5.27144">
        <ele>370</ele>
        <time>2019-12-31T14:04:39.007Z</time>
      </trkpt>
      <trkpt lat="45.00653" lon="5.27138">
        <ele>370.4740096</ele>
        <time>2019-12-31T14:04:41.007Z</time>
      </trkpt>
      <trkpt lat="45.00646" lon="5.27133">
        <ele>372</ele>
        <time>2019-12-31T14:04:43.007Z</time>
      </trkpt>
      <trkpt lat="45.0064" lon="5.27128">
        <ele>372</ele>
        <time>2019-12-31T14:04:45.007Z</time>
      </trkpt>
      <trkpt lat="45.00635" lon="5.27124">
        <ele>374</ele>
        <time>2019-12-31T14:04:47.007Z</time>
      </trkpt>
      <trkpt lat="45.00625" lon="5.2712">
        <ele>374</ele>
        <time>2019-12-31T14:04:50.007Z</time>
      </trkpt>
      <trkpt lat="45.00618" lon="5.27116">
        <ele>374</ele>
        <time>2019-12-31T14:04:52.007Z</time>
      </trkpt>
      <trkpt lat="45.0061" lon="5.27112">
        <ele>374</ele>
        <time>2019-12-31T14:04:54.007Z</time>
      </trkpt>
      <trkpt lat="45.00606" lon="5.27109">
        <ele>374</ele>
        <time>2019-12-31T14:04:55.007Z</time>
      </trkpt>
      <trkpt lat="45.00602" lon="5.27106">
        <ele>374</ele>
        <time>2019-12-31T14:04:56.007Z</time>
      </trkpt>
      <trkpt lat="45.00595" lon="5.27099">
        <ele>374</ele>
        <time>2019-12-31T14:04:58.007Z</time>
      </trkpt>
      <trkpt lat="45.00591" lon="5.27095">
        <ele>374</ele>
        <time>2019-12-31T14:04:59.007Z</time>
      </trkpt>
      <trkpt lat="45.00588" lon="5.27091">
        <ele>374</ele>
        <time>2019-12-31T14:05:00.007Z</time>
      </trkpt>
      <trkpt lat="45.00584" lon="5.27087">
        <ele>373.7629952</ele>
        <time>2019-12-31T14:05:01.007Z</time>
      </trkpt>
      <trkpt lat="45.00581" lon="5.27082">
        <ele>373</ele>
        <time>2019-12-31T14:05:02.007Z</time>
      </trkpt>
      <trkpt lat="45.00577" lon="5.27078">
        <ele>373</ele>
        <time>2019-12-31T14:05:03.007Z</time>
      </trkpt>
      <trkpt lat="45.00574" lon="5.27073">
        <ele>373</ele>
        <time>2019-12-31T14:05:04.007Z</time>
      </trkpt>
      <trkpt lat="45.0057" lon="5.27069">
        <ele>373</ele>
        <time>2019-12-31T14:05:05.007Z</time>
      </trkpt>
      <trkpt lat="45.00566" lon="5.27065">
        <ele>373</ele>
        <time>2019-12-31T14:05:06.007Z</time>
      </trkpt>
      <trkpt lat="45.00561" lon="5.27061">
        <ele>373</ele>
        <time>2019-12-31T14:05:07.007Z</time>
      </trkpt>
      <trkpt lat="45.00557" lon="5.27057">
        <ele>373</ele>
        <time>2019-12-31T14:05:08.007Z</time>
      </trkpt>
      <trkpt lat="45.00553" lon="5.27054">
        <ele>373</ele>
        <time>2019-12-31T14:05:09.007Z</time>
      </trkpt>
      <trkpt lat="45.00548" lon="5.27051">
        <ele>373</ele>
        <time>2019-12-31T14:05:10.007Z</time>
      </trkpt>
      <trkpt lat="45.00544" lon="5.27049">
        <ele>373</ele>
        <time>2019-12-31T14:05:11.007Z</time>
      </trkpt>
      <trkpt lat="45.0054" lon="5.27047">
        <ele>373</ele>
        <time>2019-12-31T14:05:12.007Z</time>
      </trkpt>
      <trkpt lat="45.00535" lon="5.27045">
        <ele>373</ele>
        <time>2019-12-31T14:05:13.007Z</time>
      </trkpt>
      <trkpt lat="45.0053" lon="5.27043">
        <ele>373</ele>
        <time>2019-12-31T14:05:14.007Z</time>
      </trkpt>
      <trkpt lat="45.00526" lon="5.27041">
        <ele>373</ele>
        <time>2019-12-31T14:05:15.007Z</time>
      </trkpt>
      <trkpt lat="45.00517" lon="5.27036">
        <ele>373</ele>
        <time>2019-12-31T14:05:17.007Z</time>
      </trkpt>
      <trkpt lat="45.00509" lon="5.27031">
        <ele>373</ele>
        <time>2019-12-31T14:05:19.007Z</time>
      </trkpt>
      <trkpt lat="45.00502" lon="5.27026">
        <ele>373.45858060846</ele>
        <time>2019-12-31T14:05:21.007Z</time>
      </trkpt>
      <trkpt lat="45.00495" lon="5.27022">
        <ele>375</ele>
        <time>2019-12-31T14:05:23.007Z</time>
      </trkpt>
      <trkpt lat="45.00488" lon="5.27018">
        <ele>375</ele>
        <time>2019-12-31T14:05:25.007Z</time>
      </trkpt>
      <trkpt lat="45.00481" lon="5.27014">
        <ele>375</ele>
        <time>2019-12-31T14:05:27.007Z</time>
      </trkpt>
      <trkpt lat="45.00474" lon="5.27009">
        <ele>375</ele>
        <time>2019-12-31T14:05:29.007Z</time>
      </trkpt>
      <trkpt lat="45.00467" lon="5.27004">
        <ele>375.4740096</ele>
        <time>2019-12-31T14:05:31.007Z</time>
      </trkpt>
      <trkpt lat="45.00461" lon="5.26999">
        <ele>377</ele>
        <time>2019-12-31T14:05:33.007Z</time>
      </trkpt>
      <trkpt lat="45.00454" lon="5.26994">
        <ele>377</ele>
        <time>2019-12-31T14:05:35.007Z</time>
      </trkpt>
      <trkpt lat="45.00448" lon="5.26989">
        <ele>377</ele>
        <time>2019-12-31T14:05:37.007Z</time>
      </trkpt>
      <trkpt lat="45.00442" lon="5.26984">
        <ele>377</ele>
        <time>2019-12-31T14:05:39.007Z</time>
      </trkpt>
      <trkpt lat="45.00436" lon="5.26979">
        <ele>377.4740096</ele>
        <time>2019-12-31T14:05:41.007Z</time>
      </trkpt>
      <trkpt lat="45.0043" lon="5.26975">
        <ele>379</ele>
        <time>2019-12-31T14:05:43.007Z</time>
      </trkpt>
      <trkpt lat="45.00423" lon="5.2697">
        <ele>379</ele>
        <time>2019-12-31T14:05:45.007Z</time>
      </trkpt>
      <trkpt lat="45.00417" lon="5.26965">
        <ele>381</ele>
        <time>2019-12-31T14:05:47.007Z</time>
      </trkpt>
      <trkpt lat="45.00411" lon="5.26961">
        <ele>381</ele>
        <time>2019-12-31T14:05:49.007Z</time>
      </trkpt>
      <trkpt lat="45.00405" lon="5.26958">
        <ele>381</ele>
        <time>2019-12-31T14:05:51.007Z</time>
      </trkpt>
      <trkpt lat="45.00399" lon="5.26954">
        <ele>381</ele>
        <time>2019-12-31T14:05:53.007Z</time>
      </trkpt>
      <trkpt lat="45.00392" lon="5.26951">
        <ele>381</ele>
        <time>2019-12-31T14:05:55.007Z</time>
      </trkpt>
      <trkpt lat="45.00385" lon="5.26948">
        <ele>381</ele>
        <time>2019-12-31T14:05:57.007Z</time>
      </trkpt>
      <trkpt lat="45.00382" lon="5.26947">
        <ele>381</ele>
        <time>2019-12-31T14:05:58.007Z</time>
      </trkpt>
      <trkpt lat="45.00374" lon="5.26945">
        <ele>381</ele>
        <time>2019-12-31T14:06:00.007Z</time>
      </trkpt>
      <trkpt lat="45.00366" lon="5.26942">
        <ele>382</ele>
        <time>2019-12-31T14:06:02.007Z</time>
      </trkpt>
      <trkpt lat="45.00361" lon="5.2694">
        <ele>382</ele>
        <time>2019-12-31T14:06:03.007Z</time>
      </trkpt>
      <trkpt lat="45.00357" lon="5.26939">
        <ele>382</ele>
        <time>2019-12-31T14:06:04.007Z</time>
      </trkpt>
      <trkpt lat="45.00353" lon="5.26938">
        <ele>382</ele>
        <time>2019-12-31T14:06:05.007Z</time>
      </trkpt>
      <trkpt lat="45.00348" lon="5.26937">
        <ele>382</ele>
        <time>2019-12-31T14:06:06.007Z</time>
      </trkpt>
      <trkpt lat="45.00339" lon="5.26933">
        <ele>382</ele>
        <time>2019-12-31T14:06:08.007Z</time>
      </trkpt>
      <trkpt lat="45.00329" lon="5.26929">
        <ele>382</ele>
        <time>2019-12-31T14:06:10.007Z</time>
      </trkpt>
      <trkpt lat="45.0032" lon="5.26925">
        <ele>382</ele>
        <time>2019-12-31T14:06:12.007Z</time>
      </trkpt>
      <trkpt lat="45.00312" lon="5.2692">
        <ele>382</ele>
        <time>2019-12-31T14:06:14.007Z</time>
      </trkpt>
      <trkpt lat="45.00304" lon="5.26915">
        <ele>382</ele>
        <time>2019-12-31T14:06:16.007Z</time>
      </trkpt>
      <trkpt lat="45.00295" lon="5.2691">
        <ele>382</ele>
        <time>2019-12-31T14:06:18.007Z</time>
      </trkpt>
      <trkpt lat="45.00287" lon="5.26905">
        <ele>382</ele>
        <time>2019-12-31T14:06:20.007Z</time>
      </trkpt>
      <trkpt lat="45.0028" lon="5.26899">
        <ele>383</ele>
        <time>2019-12-31T14:06:22.007Z</time>
      </trkpt>
      <trkpt lat="45.00273" lon="5.26895">
        <ele>383</ele>
        <time>2019-12-31T14:06:24.007Z</time>
      </trkpt>
      <trkpt lat="45.00266" lon="5.2689">
        <ele>383</ele>
        <time>2019-12-31T14:06:26.007Z</time>
      </trkpt>
      <trkpt lat="45.0026" lon="5.26884">
        <ele>383</ele>
        <time>2019-12-31T14:06:28.007Z</time>
      </trkpt>
      <trkpt lat="45.00255" lon="5.26878">
        <ele>383</ele>
        <time>2019-12-31T14:06:30.007Z</time>
      </trkpt>
      <trkpt lat="45.00248" lon="5.26867">
        <ele>386</ele>
        <time>2019-12-31T14:06:33.007Z</time>
      </trkpt>
      <trkpt lat="45.00244" lon="5.2686">
        <ele>386</ele>
        <time>2019-12-31T14:06:35.007Z</time>
      </trkpt>
      <trkpt lat="45.00239" lon="5.26853">
        <ele>387</ele>
        <time>2019-12-31T14:06:37.007Z</time>
      </trkpt>
      <trkpt lat="45.00233" lon="5.26847">
        <ele>387</ele>
        <time>2019-12-31T14:06:39.007Z</time>
      </trkpt>
      <trkpt lat="45.00226" lon="5.26841">
        <ele>387.2370048</ele>
        <time>2019-12-31T14:06:41.007Z</time>
      </trkpt>
      <trkpt lat="45.0022" lon="5.26836">
        <ele>388</ele>
        <time>2019-12-31T14:06:43.007Z</time>
      </trkpt>
      <trkpt lat="45.00215" lon="5.2683">
        <ele>388</ele>
        <time>2019-12-31T14:06:45.007Z</time>
      </trkpt>
      <trkpt lat="45.00211" lon="5.26821">
        <ele>388</ele>
        <time>2019-12-31T14:06:47.007Z</time>
      </trkpt>
      <trkpt lat="45.00209" lon="5.26812">
        <ele>388</ele>
        <time>2019-12-31T14:06:49.007Z</time>
      </trkpt>
      <trkpt lat="45.00208" lon="5.26804">
        <ele>388</ele>
        <time>2019-12-31T14:06:51.007Z</time>
      </trkpt>
      <trkpt lat="45.00205" lon="5.26796">
        <ele>388</ele>
        <time>2019-12-31T14:06:53.007Z</time>
      </trkpt>
      <trkpt lat="45.00202" lon="5.26789">
        <ele>388</ele>
        <time>2019-12-31T14:06:55.007Z</time>
      </trkpt>
      <trkpt lat="45.00199" lon="5.26783">
        <ele>388</ele>
        <time>2019-12-31T14:06:57.007Z</time>
      </trkpt>
      <trkpt lat="45.00194" lon="5.26778">
        <ele>388</ele>
        <time>2019-12-31T14:06:59.007Z</time>
      </trkpt>
      <trkpt lat="45.00187" lon="5.26772">
        <ele>390</ele>
        <time>2019-12-31T14:07:02.007Z</time>
      </trkpt>
      <trkpt lat="45.0018" lon="5.26767">
        <ele>390</ele>
        <time>2019-12-31T14:07:05.007Z</time>
      </trkpt>
      <trkpt lat="45.00171" lon="5.26764">
        <ele>390</ele>
        <time>2019-12-31T14:07:08.007Z</time>
      </trkpt>
      <trkpt lat="45.00166" lon="5.26765">
        <ele>390</ele>
        <time>2019-12-31T14:07:10.007Z</time>
      </trkpt>
      <trkpt lat="45.00161" lon="5.26768">
        <ele>390</ele>
        <time>2019-12-31T14:07:12.007Z</time>
      </trkpt>
      <trkpt lat="45.00155" lon="5.26772">
        <ele>390</ele>
        <time>2019-12-31T14:07:14.007Z</time>
      </trkpt>
      <trkpt lat="45.00151" lon="5.26779">
        <ele>390</ele>
        <time>2019-12-31T14:07:16.007Z</time>
      </trkpt>
      <trkpt lat="45.00147" lon="5.26786">
        <ele>390</ele>
        <time>2019-12-31T14:07:18.007Z</time>
      </trkpt>
      <trkpt lat="45.00142" lon="5.26792">
        <ele>390</ele>
        <time>2019-12-31T14:07:20.007Z</time>
      </trkpt>
      <trkpt lat="45.00136" lon="5.26795">
        <ele>391</ele>
        <time>2019-12-31T14:07:22.007Z</time>
      </trkpt>
      <trkpt lat="45.00126" lon="5.26791">
        <ele>391</ele>
        <time>2019-12-31T14:07:25.007Z</time>
      </trkpt>
      <trkpt lat="45.00119" lon="5.26788">
        <ele>391</ele>
        <time>2019-12-31T14:07:27.007Z</time>
      </trkpt>
      <trkpt lat="45.00112" lon="5.26784">
        <ele>391</ele>
        <time>2019-12-31T14:07:29.007Z</time>
      </trkpt>
      <trkpt lat="45.00104" lon="5.2678">
        <ele>391.2370048</ele>
        <time>2019-12-31T14:07:31.007Z</time>
      </trkpt>
      <trkpt lat="45.00097" lon="5.26777">
        <ele>392</ele>
        <time>2019-12-31T14:07:33.007Z</time>
      </trkpt>
      <trkpt lat="45.00089" lon="5.26775">
        <ele>392</ele>
        <time>2019-12-31T14:07:35.007Z</time>
      </trkpt>
      <trkpt lat="45.00081" lon="5.26774">
        <ele>392</ele>
        <time>2019-12-31T14:07:37.007Z</time>
      </trkpt>
      <trkpt lat="45.00072" lon="5.26774">
        <ele>392</ele>
        <time>2019-12-31T14:07:39.007Z</time>
      </trkpt>
      <trkpt lat="45.00064" lon="5.26774">
        <ele>392.4740096</ele>
        <time>2019-12-31T14:07:41.007Z</time>
      </trkpt>
      <trkpt lat="45.00056" lon="5.26773">
        <ele>394</ele>
        <time>2019-12-31T14:07:43.007Z</time>
      </trkpt>
      <trkpt lat="45.00048" lon="5.26773">
        <ele>394</ele>
        <time>2019-12-31T14:07:45.007Z</time>
      </trkpt>
      <trkpt lat="45.00039" lon="5.26772">
        <ele>394</ele>
        <time>2019-12-31T14:07:47.007Z</time>
      </trkpt>
      <trkpt lat="45.00031" lon="5.26772">
        <ele>394</ele>
        <time>2019-12-31T14:07:49.007Z</time>
      </trkpt>
      <trkpt lat="45.00022" lon="5.26771">
        <ele>394.4740096</ele>
        <time>2019-12-31T14:07:51.007Z</time>
      </trkpt>
      <trkpt lat="45.00018" lon="5.2677">
        <ele>396</ele>
        <time>2019-12-31T14:07:52.007Z</time>
      </trkpt>
      <trkpt lat="45.00009" lon="5.26769">
        <ele>396</ele>
        <time>2019-12-31T14:07:54.007Z</time>
      </trkpt>
      <trkpt lat="45" lon="5.26767">
        <ele>396</ele>
        <time>2019-12-31T14:07:56.007Z</time>
      </trkpt>
      <trkpt lat="44.99991" lon="5.26764">
        <ele>396</ele>
        <time>2019-12-31T14:07:58.007Z</time>
      </trkpt>
      <trkpt lat="44.99981" lon="5.26761">
        <ele>396</ele>
        <time>2019-12-31T14:08:00.007Z</time>
      </trkpt>
      <trkpt lat="44.99971" lon="5.26756">
        <ele>396</ele>
        <time>2019-12-31T14:08:02.007Z</time>
      </trkpt>
      <trkpt lat="44.99961" lon="5.26752">
        <ele>396</ele>
        <time>2019-12-31T14:08:04.007Z</time>
      </trkpt>
      <trkpt lat="44.99957" lon="5.26749">
        <ele>396</ele>
        <time>2019-12-31T14:08:05.007Z</time>
      </trkpt>
      <trkpt lat="44.99952" lon="5.26746">
        <ele>396</ele>
        <time>2019-12-31T14:08:06.007Z</time>
      </trkpt>
      <trkpt lat="44.99947" lon="5.26744">
        <ele>396</ele>
        <time>2019-12-31T14:08:07.007Z</time>
      </trkpt>
      <trkpt lat="44.99942" lon="5.26742">
        <ele>396</ele>
        <time>2019-12-31T14:08:08.007Z</time>
      </trkpt>
      <trkpt lat="44.99937" lon="5.2674">
        <ele>396</ele>
        <time>2019-12-31T14:08:09.007Z</time>
      </trkpt>
      <trkpt lat="44.99928" lon="5.26737">
        <ele>396</ele>
        <time>2019-12-31T14:08:11.007Z</time>
      </trkpt>
      <trkpt lat="44.99919" lon="5.26735">
        <ele>396</ele>
        <time>2019-12-31T14:08:13.007Z</time>
      </trkpt>
      <trkpt lat="44.99911" lon="5.26734">
        <ele>396</ele>
        <time>2019-12-31T14:08:15.007Z</time>
      </trkpt>
      <trkpt lat="44.99902" lon="5.26733">
        <ele>396</ele>
        <time>2019-12-31T14:08:17.007Z</time>
      </trkpt>
      <trkpt lat="44.99895" lon="5.26733">
        <ele>396</ele>
        <time>2019-12-31T14:08:19.007Z</time>
      </trkpt>
      <trkpt lat="44.99888" lon="5.26733">
        <ele>396.7110144</ele>
        <time>2019-12-31T14:08:21.007Z</time>
      </trkpt>
      <trkpt lat="44.9988" lon="5.26736">
        <ele>399</ele>
        <time>2019-12-31T14:08:23.007Z</time>
      </trkpt>
      <trkpt lat="44.99872" lon="5.26738">
        <ele>399</ele>
        <time>2019-12-31T14:08:25.007Z</time>
      </trkpt>
      <trkpt lat="44.99865" lon="5.26739">
        <ele>400</ele>
        <time>2019-12-31T14:08:27.007Z</time>
      </trkpt>
      <trkpt lat="44.99857" lon="5.26741">
        <ele>400</ele>
        <time>2019-12-31T14:08:29.007Z</time>
      </trkpt>
      <trkpt lat="44.99849" lon="5.26742">
        <ele>400.46931792259</ele>
        <time>2019-12-31T14:08:31.007Z</time>
      </trkpt>
      <trkpt lat="44.99838" lon="5.26743">
        <ele>402</ele>
        <time>2019-12-31T14:08:34.007Z</time>
      </trkpt>
      <trkpt lat="44.99829" lon="5.26743">
        <ele>402</ele>
        <time>2019-12-31T14:08:36.007Z</time>
      </trkpt>
      <trkpt lat="44.9982" lon="5.26743">
        <ele>402</ele>
        <time>2019-12-31T14:08:38.007Z</time>
      </trkpt>
      <trkpt lat="44.9981" lon="5.26742">
        <ele>402</ele>
        <time>2019-12-31T14:08:40.007Z</time>
      </trkpt>
      <trkpt lat="44.99801" lon="5.26742">
        <ele>402</ele>
        <time>2019-12-31T14:08:42.007Z</time>
      </trkpt>
      <trkpt lat="44.99796" lon="5.26742">
        <ele>402</ele>
        <time>2019-12-31T14:08:43.007Z</time>
      </trkpt>
      <trkpt lat="44.99786" lon="5.26741">
        <ele>402</ele>
        <time>2019-12-31T14:08:45.007Z</time>
      </trkpt>
      <trkpt lat="44.99776" lon="5.2674">
        <ele>402</ele>
        <time>2019-12-31T14:08:47.007Z</time>
      </trkpt>
      <trkpt lat="44.99766" lon="5.26739">
        <ele>402</ele>
        <time>2019-12-31T14:08:49.007Z</time>
      </trkpt>
      <trkpt lat="44.99761" lon="5.26737">
        <ele>402</ele>
        <time>2019-12-31T14:08:50.007Z</time>
      </trkpt>
      <trkpt lat="44.99751" lon="5.26732">
        <ele>402</ele>
        <time>2019-12-31T14:08:52.007Z</time>
      </trkpt>
      <trkpt lat="44.9974" lon="5.26726">
        <ele>402</ele>
        <time>2019-12-31T14:08:54.007Z</time>
      </trkpt>
      <trkpt lat="44.99735" lon="5.26722">
        <ele>402</ele>
        <time>2019-12-31T14:08:55.007Z</time>
      </trkpt>
      <trkpt lat="44.9973" lon="5.26717">
        <ele>402</ele>
        <time>2019-12-31T14:08:56.007Z</time>
      </trkpt>
      <trkpt lat="44.99726" lon="5.26712">
        <ele>402</ele>
        <time>2019-12-31T14:08:57.007Z</time>
      </trkpt>
      <trkpt lat="44.99721" lon="5.26706">
        <ele>402</ele>
        <time>2019-12-31T14:08:58.007Z</time>
      </trkpt>
      <trkpt lat="44.99716" lon="5.267">
        <ele>402</ele>
        <time>2019-12-31T14:08:59.007Z</time>
      </trkpt>
      <trkpt lat="44.99711" lon="5.26695">
        <ele>402</ele>
        <time>2019-12-31T14:09:00.007Z</time>
      </trkpt>
      <trkpt lat="44.99706" lon="5.26691">
        <ele>401.7629952</ele>
        <time>2019-12-31T14:09:01.007Z</time>
      </trkpt>
      <trkpt lat="44.997" lon="5.26687">
        <ele>401</ele>
        <time>2019-12-31T14:09:02.007Z</time>
      </trkpt>
      <trkpt lat="44.99694" lon="5.26684">
        <ele>401</ele>
        <time>2019-12-31T14:09:03.007Z</time>
      </trkpt>
      <trkpt lat="44.99688" lon="5.26681">
        <ele>401</ele>
        <time>2019-12-31T14:09:04.007Z</time>
      </trkpt>
      <trkpt lat="44.99683" lon="5.26678">
        <ele>401</ele>
        <time>2019-12-31T14:09:05.007Z</time>
      </trkpt>
      <trkpt lat="44.99671" lon="5.2667">
        <ele>401</ele>
        <time>2019-12-31T14:09:07.007Z</time>
      </trkpt>
      <trkpt lat="44.99666" lon="5.26666">
        <ele>401</ele>
        <time>2019-12-31T14:09:08.007Z</time>
      </trkpt>
      <trkpt lat="44.99661" lon="5.2666">
        <ele>401</ele>
        <time>2019-12-31T14:09:09.007Z</time>
      </trkpt>
      <trkpt lat="44.99651" lon="5.26649">
        <ele>401</ele>
        <time>2019-12-31T14:09:11.007Z</time>
      </trkpt>
      <trkpt lat="44.99647" lon="5.26644">
        <ele>401</ele>
        <time>2019-12-31T14:09:12.007Z</time>
      </trkpt>
      <trkpt lat="44.99638" lon="5.26635">
        <ele>401</ele>
        <time>2019-12-31T14:09:14.007Z</time>
      </trkpt>
      <trkpt lat="44.9963" lon="5.26627">
        <ele>401</ele>
        <time>2019-12-31T14:09:16.007Z</time>
      </trkpt>
      <trkpt lat="44.99622" lon="5.26619">
        <ele>401</ele>
        <time>2019-12-31T14:09:18.007Z</time>
      </trkpt>
      <trkpt lat="44.99615" lon="5.2661">
        <ele>401</ele>
        <time>2019-12-31T14:09:20.007Z</time>
      </trkpt>
      <trkpt lat="44.99607" lon="5.26602">
        <ele>402</ele>
        <time>2019-12-31T14:09:22.007Z</time>
      </trkpt>
      <trkpt lat="44.99603" lon="5.26597">
        <ele>402</ele>
        <time>2019-12-31T14:09:23.007Z</time>
      </trkpt>
      <trkpt lat="44.99594" lon="5.26588">
        <ele>402</ele>
        <time>2019-12-31T14:09:25.007Z</time>
      </trkpt>
      <trkpt lat="44.99585" lon="5.26578">
        <ele>402</ele>
        <time>2019-12-31T14:09:27.007Z</time>
      </trkpt>
      <trkpt lat="44.9958" lon="5.26572">
        <ele>402</ele>
        <time>2019-12-31T14:09:28.007Z</time>
      </trkpt>
      <trkpt lat="44.99575" lon="5.26567">
        <ele>402</ele>
        <time>2019-12-31T14:09:29.007Z</time>
      </trkpt>
      <trkpt lat="44.99571" lon="5.26562">
        <ele>402</ele>
        <time>2019-12-31T14:09:30.007Z</time>
      </trkpt>
      <trkpt lat="44.99566" lon="5.26557">
        <ele>402.2370048</ele>
        <time>2019-12-31T14:09:31.007Z</time>
      </trkpt>
      <trkpt lat="44.99561" lon="5.26551">
        <ele>403</ele>
        <time>2019-12-31T14:09:32.007Z</time>
      </trkpt>
      <trkpt lat="44.99557" lon="5.26547">
        <ele>403</ele>
        <time>2019-12-31T14:09:33.007Z</time>
      </trkpt>
      <trkpt lat="44.99548" lon="5.26538">
        <ele>403</ele>
        <time>2019-12-31T14:09:35.007Z</time>
      </trkpt>
      <trkpt lat="44.99541" lon="5.2653">
        <ele>403</ele>
        <time>2019-12-31T14:09:37.007Z</time>
      </trkpt>
      <trkpt lat="44.99534" lon="5.26523">
        <ele>403</ele>
        <time>2019-12-31T14:09:39.007Z</time>
      </trkpt>
      <trkpt lat="44.99528" lon="5.26516">
        <ele>403.45858060846</ele>
        <time>2019-12-31T14:09:41.007Z</time>
      </trkpt>
      <trkpt lat="44.99521" lon="5.26509">
        <ele>405</ele>
        <time>2019-12-31T14:09:43.007Z</time>
      </trkpt>
      <trkpt lat="44.99514" lon="5.26501">
        <ele>405</ele>
        <time>2019-12-31T14:09:45.007Z</time>
      </trkpt>
      <trkpt lat="44.99505" lon="5.26492">
        <ele>405</ele>
        <time>2019-12-31T14:09:47.007Z</time>
      </trkpt>
      <trkpt lat="44.995" lon="5.26487">
        <ele>405</ele>
        <time>2019-12-31T14:09:48.007Z</time>
      </trkpt>
      <trkpt lat="44.99495" lon="5.26482">
        <ele>405</ele>
        <time>2019-12-31T14:09:49.007Z</time>
      </trkpt>
      <trkpt lat="44.9949" lon="5.26476">
        <ele>405</ele>
        <time>2019-12-31T14:09:50.007Z</time>
      </trkpt>
      <trkpt lat="44.99485" lon="5.2647">
        <ele>405</ele>
        <time>2019-12-31T14:09:51.007Z</time>
      </trkpt>
      <trkpt lat="44.9948" lon="5.26464">
        <ele>405</ele>
        <time>2019-12-31T14:09:52.007Z</time>
      </trkpt>
      <trkpt lat="44.99475" lon="5.26458">
        <ele>405</ele>
        <time>2019-12-31T14:09:53.007Z</time>
      </trkpt>
      <trkpt lat="44.9947" lon="5.26452">
        <ele>405</ele>
        <time>2019-12-31T14:09:54.007Z</time>
      </trkpt>
      <trkpt lat="44.99465" lon="5.26446">
        <ele>405</ele>
        <time>2019-12-31T14:09:55.007Z</time>
      </trkpt>
      <trkpt lat="44.99461" lon="5.2644">
        <ele>405</ele>
        <time>2019-12-31T14:09:56.007Z</time>
      </trkpt>
      <trkpt lat="44.99456" lon="5.26435">
        <ele>405</ele>
        <time>2019-12-31T14:09:57.007Z</time>
      </trkpt>
      <trkpt lat="44.99452" lon="5.26429">
        <ele>405</ele>
        <time>2019-12-31T14:09:58.007Z</time>
      </trkpt>
      <trkpt lat="44.99448" lon="5.26424">
        <ele>405</ele>
        <time>2019-12-31T14:09:59.007Z</time>
      </trkpt>
      <trkpt lat="44.99443" lon="5.26418">
        <ele>405</ele>
        <time>2019-12-31T14:10:00.007Z</time>
      </trkpt>
      <trkpt lat="44.99439" lon="5.26413">
        <ele>405</ele>
        <time>2019-12-31T14:10:01.007Z</time>
      </trkpt>
      <trkpt lat="44.99435" lon="5.26408">
        <ele>405</ele>
        <time>2019-12-31T14:10:02.007Z</time>
      </trkpt>
      <trkpt lat="44.99431" lon="5.26403">
        <ele>405</ele>
        <time>2019-12-31T14:10:03.007Z</time>
      </trkpt>
      <trkpt lat="44.99427" lon="5.26397">
        <ele>405</ele>
        <time>2019-12-31T14:10:04.007Z</time>
      </trkpt>
      <trkpt lat="44.99424" lon="5.26392">
        <ele>405</ele>
        <time>2019-12-31T14:10:05.007Z</time>
      </trkpt>
      <trkpt lat="44.9942" lon="5.26387">
        <ele>405</ele>
        <time>2019-12-31T14:10:06.007Z</time>
      </trkpt>
      <trkpt lat="44.99416" lon="5.26382">
        <ele>405</ele>
        <time>2019-12-31T14:10:07.007Z</time>
      </trkpt>
      <trkpt lat="44.99413" lon="5.26377">
        <ele>405</ele>
        <time>2019-12-31T14:10:08.007Z</time>
      </trkpt>
      <trkpt lat="44.99407" lon="5.26368">
        <ele>405</ele>
        <time>2019-12-31T14:10:10.007Z</time>
      </trkpt>
      <trkpt lat="44.994" lon="5.26358">
        <ele>406</ele>
        <time>2019-12-31T14:10:12.007Z</time>
      </trkpt>
      <trkpt lat="44.99393" lon="5.26348">
        <ele>406</ele>
        <time>2019-12-31T14:10:14.007Z</time>
      </trkpt>
      <trkpt lat="44.9939" lon="5.26343">
        <ele>406</ele>
        <time>2019-12-31T14:10:15.007Z</time>
      </trkpt>
      <trkpt lat="44.99387" lon="5.26337">
        <ele>406</ele>
        <time>2019-12-31T14:10:16.007Z</time>
      </trkpt>
      <trkpt lat="44.99383" lon="5.26331">
        <ele>406</ele>
        <time>2019-12-31T14:10:17.007Z</time>
      </trkpt>
      <trkpt lat="44.9938" lon="5.26325">
        <ele>406</ele>
        <time>2019-12-31T14:10:18.007Z</time>
      </trkpt>
      <trkpt lat="44.99377" lon="5.26319">
        <ele>406</ele>
        <time>2019-12-31T14:10:19.007Z</time>
      </trkpt>
      <trkpt lat="44.99372" lon="5.26308">
        <ele>406.2370048</ele>
        <time>2019-12-31T14:10:21.007Z</time>
      </trkpt>
      <trkpt lat="44.99369" lon="5.26298">
        <ele>407</ele>
        <time>2019-12-31T14:10:23.007Z</time>
      </trkpt>
      <trkpt lat="44.99363" lon="5.26294">
        <ele>407</ele>
        <time>2019-12-31T14:10:25.007Z</time>
      </trkpt>
      <trkpt lat="44.99359" lon="5.26294">
        <ele>407</ele>
        <time>2019-12-31T14:10:26.007Z</time>
      </trkpt>
      <trkpt lat="44.99355" lon="5.26296">
        <ele>407</ele>
        <time>2019-12-31T14:10:27.007Z</time>
      </trkpt>
      <trkpt lat="44.99351" lon="5.26297">
        <ele>407</ele>
        <time>2019-12-31T14:10:28.007Z</time>
      </trkpt>
      <trkpt lat="44.99347" lon="5.26298">
        <ele>407</ele>
        <time>2019-12-31T14:10:29.007Z</time>
      </trkpt>
      <trkpt lat="44.99343" lon="5.263">
        <ele>407</ele>
        <time>2019-12-31T14:10:30.007Z</time>
      </trkpt>
      <trkpt lat="44.99339" lon="5.26301">
        <ele>407.23235618914</ele>
        <time>2019-12-31T14:10:31.007Z</time>
      </trkpt>
      <trkpt lat="44.99335" lon="5.26302">
        <ele>408</ele>
        <time>2019-12-31T14:10:32.007Z</time>
      </trkpt>
      <trkpt lat="44.9933" lon="5.26303">
        <ele>408</ele>
        <time>2019-12-31T14:10:33.007Z</time>
      </trkpt>
      <trkpt lat="44.99325" lon="5.26305">
        <ele>408</ele>
        <time>2019-12-31T14:10:34.007Z</time>
      </trkpt>
      <trkpt lat="44.99321" lon="5.26307">
        <ele>408</ele>
        <time>2019-12-31T14:10:35.007Z</time>
      </trkpt>
      <trkpt lat="44.99316" lon="5.26309">
        <ele>408</ele>
        <time>2019-12-31T14:10:36.007Z</time>
      </trkpt>
      <trkpt lat="44.99306" lon="5.26312">
        <ele>408</ele>
        <time>2019-12-31T14:10:38.007Z</time>
      </trkpt>
      <trkpt lat="44.99301" lon="5.26313">
        <ele>408</ele>
        <time>2019-12-31T14:10:39.007Z</time>
      </trkpt>
      <trkpt lat="44.99296" lon="5.26314">
        <ele>408</ele>
        <time>2019-12-31T14:10:40.007Z</time>
      </trkpt>
      <trkpt lat="44.9929" lon="5.26314">
        <ele>407.7629952</ele>
        <time>2019-12-31T14:10:41.007Z</time>
      </trkpt>
      <trkpt lat="44.99285" lon="5.26314">
        <ele>407</ele>
        <time>2019-12-31T14:10:42.007Z</time>
      </trkpt>
      <trkpt lat="44.99279" lon="5.26314">
        <ele>407</ele>
        <time>2019-12-31T14:10:43.007Z</time>
      </trkpt>
      <trkpt lat="44.99274" lon="5.26314">
        <ele>407</ele>
        <time>2019-12-31T14:10:44.007Z</time>
      </trkpt>
      <trkpt lat="44.99269" lon="5.26314">
        <ele>407</ele>
        <time>2019-12-31T14:10:45.007Z</time>
      </trkpt>
      <trkpt lat="44.99264" lon="5.26314">
        <ele>407</ele>
        <time>2019-12-31T14:10:46.007Z</time>
      </trkpt>
      <trkpt lat="44.99259" lon="5.26314">
        <ele>407</ele>
        <time>2019-12-31T14:10:47.007Z</time>
      </trkpt>
      <trkpt lat="44.99254" lon="5.26314">
        <ele>407</ele>
        <time>2019-12-31T14:10:48.007Z</time>
      </trkpt>
      <trkpt lat="44.9925" lon="5.26315">
        <ele>407</ele>
        <time>2019-12-31T14:10:49.007Z</time>
      </trkpt>
      <trkpt lat="44.99245" lon="5.26317">
        <ele>407</ele>
        <time>2019-12-31T14:10:50.007Z</time>
      </trkpt>
      <trkpt lat="44.99241" lon="5.26319">
        <ele>406.7629952</ele>
        <time>2019-12-31T14:10:51.007Z</time>
      </trkpt>
      <trkpt lat="44.99236" lon="5.26322">
        <ele>406</ele>
        <time>2019-12-31T14:10:52.007Z</time>
      </trkpt>
      <trkpt lat="44.99232" lon="5.26327">
        <ele>406</ele>
        <time>2019-12-31T14:10:53.007Z</time>
      </trkpt>
      <trkpt lat="44.99225" lon="5.26338">
        <ele>406</ele>
        <time>2019-12-31T14:10:55.007Z</time>
      </trkpt>
      <trkpt lat="44.99223" lon="5.2635">
        <ele>406</ele>
        <time>2019-12-31T14:10:57.007Z</time>
      </trkpt>
      <trkpt lat="44.99223" lon="5.26362">
        <ele>406</ele>
        <time>2019-12-31T14:10:59.007Z</time>
      </trkpt>
      <trkpt lat="44.99222" lon="5.26373">
        <ele>405.5259904</ele>
        <time>2019-12-31T14:11:01.007Z</time>
      </trkpt>
      <trkpt lat="44.99219" lon="5.26386">
        <ele>404</ele>
        <time>2019-12-31T14:11:03.007Z</time>
      </trkpt>
      <trkpt lat="44.99217" lon="5.26392">
        <ele>404</ele>
        <time>2019-12-31T14:11:04.007Z</time>
      </trkpt>
      <trkpt lat="44.99214" lon="5.26398">
        <ele>404</ele>
        <time>2019-12-31T14:11:05.007Z</time>
      </trkpt>
      <trkpt lat="44.99211" lon="5.26403">
        <ele>404</ele>
        <time>2019-12-31T14:11:06.007Z</time>
      </trkpt>
      <trkpt lat="44.99207" lon="5.26407">
        <ele>404</ele>
        <time>2019-12-31T14:11:07.007Z</time>
      </trkpt>
      <trkpt lat="44.99204" lon="5.26411">
        <ele>404</ele>
        <time>2019-12-31T14:11:08.007Z</time>
      </trkpt>
      <trkpt lat="44.99197" lon="5.26419">
        <ele>404</ele>
        <time>2019-12-31T14:11:10.007Z</time>
      </trkpt>
      <trkpt lat="44.99189" lon="5.26429">
        <ele>404</ele>
        <time>2019-12-31T14:11:12.007Z</time>
      </trkpt>
      <trkpt lat="44.99181" lon="5.26436">
        <ele>404</ele>
        <time>2019-12-31T14:11:14.007Z</time>
      </trkpt>
      <trkpt lat="44.99176" lon="5.26455">
        <ele>404</ele>
        <time>2019-12-31T14:11:18.007Z</time>
      </trkpt>
      <trkpt lat="44.99173" lon="5.26472">
        <ele>404</ele>
        <time>2019-12-31T14:11:20.007Z</time>
      </trkpt>
      <trkpt lat="44.9917" lon="5.26492">
        <ele>395.82672006286</ele>
        <time>2019-12-31T14:11:22.007Z</time>
      </trkpt>
      <trkpt lat="44.99165" lon="5.26517">
        <ele>391.7629952</ele>
        <time>2019-12-31T14:11:24.007Z</time>
      </trkpt>
      <trkpt lat="44.99163" lon="5.2653">
        <ele>391</ele>
        <time>2019-12-31T14:11:25.007Z</time>
      </trkpt>
      <trkpt lat="44.9916" lon="5.26543">
        <ele>390.7629952</ele>
        <time>2019-12-31T14:11:26.007Z</time>
      </trkpt>
      <trkpt lat="44.99157" lon="5.26555">
        <ele>389.7629952</ele>
        <time>2019-12-31T14:11:27.007Z</time>
      </trkpt>
      <trkpt lat="44.99153" lon="5.26576">
        <ele>388</ele>
        <time>2019-12-31T14:11:29.007Z</time>
      </trkpt>
      <trkpt lat="44.99152" lon="5.26596">
        <ele>388.7653410387</ele>
        <time>2019-12-31T14:11:31.007Z</time>
      </trkpt>
      <trkpt lat="44.99155" lon="5.2661">
        <ele>387</ele>
        <time>2019-12-31T14:11:33.007Z</time>
      </trkpt>
      <trkpt lat="44.99159" lon="5.26623">
        <ele>386.5259904</ele>
        <time>2019-12-31T14:11:35.007Z</time>
      </trkpt>
      <trkpt lat="44.99169" lon="5.26634">
        <ele>384</ele>
        <time>2019-12-31T14:11:37.007Z</time>
      </trkpt>
      <trkpt lat="44.99182" lon="5.26646">
        <ele>382.7629952</ele>
        <time>2019-12-31T14:11:39.007Z</time>
      </trkpt>
      <trkpt lat="44.99191" lon="5.26657">
        <ele>381</ele>
        <time>2019-12-31T14:11:41.007Z</time>
      </trkpt>
      <trkpt lat="44.992" lon="5.26668">
        <ele>378.7629952</ele>
        <time>2019-12-31T14:11:43.007Z</time>
      </trkpt>
      <trkpt lat="44.99208" lon="5.26685">
        <ele>376</ele>
        <time>2019-12-31T14:11:46.007Z</time>
      </trkpt>
      <trkpt lat="44.99208" lon="5.267">
        <ele>375</ele>
        <time>2019-12-31T14:11:48.007Z</time>
      </trkpt>
      <trkpt lat="44.99206" lon="5.26719">
        <ele>372.7629952</ele>
        <time>2019-12-31T14:11:51.007Z</time>
      </trkpt>
      <trkpt lat="44.99216" lon="5.2673">
        <ele>369.7629952</ele>
        <time>2019-12-31T14:11:54.007Z</time>
      </trkpt>
      <trkpt lat="44.99225" lon="5.26736">
        <ele>369</ele>
        <time>2019-12-31T14:11:56.007Z</time>
      </trkpt>
      <trkpt lat="44.99235" lon="5.26739">
        <ele>368</ele>
        <time>2019-12-31T14:11:59.007Z</time>
      </trkpt>
      <trkpt lat="44.9923" lon="5.26751">
        <ele>367</ele>
        <time>2019-12-31T14:13:08.007Z</time>
      </trkpt>
      <trkpt lat="44.9923" lon="5.2677">
        <ele>367</ele>
        <time>2019-12-31T14:13:12.007Z</time>
      </trkpt>
      <trkpt lat="44.99234" lon="5.26788">
        <ele>367</ele>
        <time>2019-12-31T14:13:15.007Z</time>
      </trkpt>
      <trkpt lat="44.9924" lon="5.26806">
        <ele>367</ele>
        <time>2019-12-31T14:13:18.007Z</time>
      </trkpt>
      <trkpt lat="44.99245" lon="5.26819">
        <ele>367</ele>
        <time>2019-12-31T14:13:20.007Z</time>
      </trkpt>
      <trkpt lat="44.9925" lon="5.26837">
        <ele>367</ele>
        <time>2019-12-31T14:13:23.007Z</time>
      </trkpt>
      <trkpt lat="44.99256" lon="5.26851">
        <ele>367</ele>
        <time>2019-12-31T14:13:25.007Z</time>
      </trkpt>
      <trkpt lat="44.99262" lon="5.26865">
        <ele>367</ele>
        <time>2019-12-31T14:13:27.007Z</time>
      </trkpt>
      <trkpt lat="44.99269" lon="5.2688">
        <ele>367</ele>
        <time>2019-12-31T14:13:29.007Z</time>
      </trkpt>
      <trkpt lat="44.99277" lon="5.26893">
        <ele>366.5259904</ele>
        <time>2019-12-31T14:13:31.007Z</time>
      </trkpt>
      <trkpt lat="44.99287" lon="5.26905">
        <ele>365</ele>
        <time>2019-12-31T14:13:33.007Z</time>
      </trkpt>
      <trkpt lat="44.99298" lon="5.26912">
        <ele>365</ele>
        <time>2019-12-31T14:13:35.007Z</time>
      </trkpt>
      <trkpt lat="44.99313" lon="5.2692">
        <ele>365</ele>
        <time>2019-12-31T14:13:37.007Z</time>
      </trkpt>
      <trkpt lat="44.99329" lon="5.2693">
        <ele>365</ele>
        <time>2019-12-31T14:13:39.007Z</time>
      </trkpt>
      <trkpt lat="44.99344" lon="5.26944">
        <ele>362.93638726194</ele>
        <time>2019-12-31T14:13:41.007Z</time>
      </trkpt>
      <trkpt lat="44.9935" lon="5.26953">
        <ele>355.0519808</ele>
        <time>2019-12-31T14:13:42.007Z</time>
      </trkpt>
      <trkpt lat="44.99355" lon="5.26963">
        <ele>351.7629952</ele>
        <time>2019-12-31T14:13:43.007Z</time>
      </trkpt>
      <trkpt lat="44.99359" lon="5.26973">
        <ele>350.7629952</ele>
        <time>2019-12-31T14:13:44.007Z</time>
      </trkpt>
      <trkpt lat="44.99363" lon="5.26983">
        <ele>349.7629952</ele>
        <time>2019-12-31T14:13:45.007Z</time>
      </trkpt>
      <trkpt lat="44.9937" lon="5.27">
        <ele>347.77070969577</ele>
        <time>2019-12-31T14:13:47.007Z</time>
      </trkpt>
      <trkpt lat="44.99377" lon="5.27016">
        <ele>345.2889856</ele>
        <time>2019-12-31T14:13:49.007Z</time>
      </trkpt>
      <trkpt lat="44.99379" lon="5.27025">
        <ele>342.7629952</ele>
        <time>2019-12-31T14:13:50.007Z</time>
      </trkpt>
      <trkpt lat="44.99383" lon="5.2704">
        <ele>340.53068802514</ele>
        <time>2019-12-31T14:13:52.007Z</time>
      </trkpt>
      <trkpt lat="44.99393" lon="5.27044">
        <ele>336.7629952</ele>
        <time>2019-12-31T14:13:54.007Z</time>
      </trkpt>
      <trkpt lat="44.99407" lon="5.27041">
        <ele>335.76534401257</ele>
        <time>2019-12-31T14:13:56.007Z</time>
      </trkpt>
      <trkpt lat="44.99422" lon="5.27044">
        <ele>333.76534401257</ele>
        <time>2019-12-31T14:13:58.007Z</time>
      </trkpt>
      <trkpt lat="44.99435" lon="5.27051">
        <ele>331.5259904</ele>
        <time>2019-12-31T14:14:00.007Z</time>
      </trkpt>
      <trkpt lat="44.99442" lon="5.27056">
        <ele>330</ele>
        <time>2019-12-31T14:14:03.007Z</time>
      </trkpt>
      <trkpt lat="44.99454" lon="5.27064">
        <ele>330</ele>
        <time>2019-12-31T14:14:13.007Z</time>
      </trkpt>
      <trkpt lat="44.99466" lon="5.27067">
        <ele>330</ele>
        <time>2019-12-31T14:14:15.007Z</time>
      </trkpt>
      <trkpt lat="44.99479" lon="5.27069">
        <ele>330</ele>
        <time>2019-12-31T14:14:17.007Z</time>
      </trkpt>
      <trkpt lat="44.99492" lon="5.27072">
        <ele>330</ele>
        <time>2019-12-31T14:14:19.007Z</time>
      </trkpt>
      <trkpt lat="44.99504" lon="5.27078">
        <ele>330.2370048</ele>
        <time>2019-12-31T14:14:21.007Z</time>
      </trkpt>
      <trkpt lat="44.99515" lon="5.27084">
        <ele>331</ele>
        <time>2019-12-31T14:14:23.007Z</time>
      </trkpt>
      <trkpt lat="44.99525" lon="5.2709">
        <ele>331</ele>
        <time>2019-12-31T14:14:25.007Z</time>
      </trkpt>
      <trkpt lat="44.9953" lon="5.27093">
        <ele>331</ele>
        <time>2019-12-31T14:14:26.007Z</time>
      </trkpt>
      <trkpt lat="44.99534" lon="5.27097">
        <ele>331</ele>
        <time>2019-12-31T14:14:27.007Z</time>
      </trkpt>
      <trkpt lat="44.99543" lon="5.27103">
        <ele>331</ele>
        <time>2019-12-31T14:14:29.007Z</time>
      </trkpt>
      <trkpt lat="44.99551" lon="5.2711">
        <ele>331.4740096</ele>
        <time>2019-12-31T14:14:31.007Z</time>
      </trkpt>
      <trkpt lat="44.99559" lon="5.27116">
        <ele>333</ele>
        <time>2019-12-31T14:14:33.007Z</time>
      </trkpt>
      <trkpt lat="44.99569" lon="5.27125">
        <ele>333</ele>
        <time>2019-12-31T14:14:35.007Z</time>
      </trkpt>
      <trkpt lat="44.99575" lon="5.2713">
        <ele>333</ele>
        <time>2019-12-31T14:14:36.007Z</time>
      </trkpt>
      <trkpt lat="44.99581" lon="5.27136">
        <ele>333</ele>
        <time>2019-12-31T14:14:37.007Z</time>
      </trkpt>
      <trkpt lat="44.99588" lon="5.27142">
        <ele>333</ele>
        <time>2019-12-31T14:14:38.007Z</time>
      </trkpt>
      <trkpt lat="44.99595" lon="5.27149">
        <ele>333</ele>
        <time>2019-12-31T14:14:39.007Z</time>
      </trkpt>
      <trkpt lat="44.99602" lon="5.27156">
        <ele>333</ele>
        <time>2019-12-31T14:14:40.007Z</time>
      </trkpt>
      <trkpt lat="44.9961" lon="5.27163">
        <ele>332.2889856</ele>
        <time>2019-12-31T14:14:41.007Z</time>
      </trkpt>
      <trkpt lat="44.99617" lon="5.27169">
        <ele>330</ele>
        <time>2019-12-31T14:14:42.007Z</time>
      </trkpt>
      <trkpt lat="44.99625" lon="5.27176">
        <ele>330</ele>
        <time>2019-12-31T14:14:43.007Z</time>
      </trkpt>
      <trkpt lat="44.99632" lon="5.27182">
        <ele>330</ele>
        <time>2019-12-31T14:14:44.007Z</time>
      </trkpt>
      <trkpt lat="44.99638" lon="5.27189">
        <ele>330</ele>
        <time>2019-12-31T14:14:45.007Z</time>
      </trkpt>
      <trkpt lat="44.99649" lon="5.27205">
        <ele>327</ele>
        <time>2019-12-31T14:14:47.007Z</time>
      </trkpt>
      <trkpt lat="44.99653" lon="5.27214">
        <ele>327</ele>
        <time>2019-12-31T14:14:48.007Z</time>
      </trkpt>
      <trkpt lat="44.99656" lon="5.27224">
        <ele>327</ele>
        <time>2019-12-31T14:14:49.007Z</time>
      </trkpt>
      <trkpt lat="44.9966" lon="5.27234">
        <ele>327</ele>
        <time>2019-12-31T14:14:50.007Z</time>
      </trkpt>
      <trkpt lat="44.99663" lon="5.27244">
        <ele>326.2889856</ele>
        <time>2019-12-31T14:14:51.007Z</time>
      </trkpt>
      <trkpt lat="44.99667" lon="5.27263">
        <ele>322.54141939154</ele>
        <time>2019-12-31T14:14:53.007Z</time>
      </trkpt>
      <trkpt lat="44.99669" lon="5.2728">
        <ele>319.7629952</ele>
        <time>2019-12-31T14:14:55.007Z</time>
      </trkpt>
      <trkpt lat="44.9967" lon="5.27294">
        <ele>318.7629952</ele>
        <time>2019-12-31T14:14:57.007Z</time>
      </trkpt>
      <trkpt lat="44.99673" lon="5.27306">
        <ele>318</ele>
        <time>2019-12-31T14:14:59.007Z</time>
      </trkpt>
      <trkpt lat="44.99676" lon="5.2732">
        <ele>316.2889856</ele>
        <time>2019-12-31T14:15:01.007Z</time>
      </trkpt>
      <trkpt lat="44.99678" lon="5.27336">
        <ele>313.5259904</ele>
        <time>2019-12-31T14:15:03.007Z</time>
      </trkpt>
      <trkpt lat="44.99681" lon="5.2735">
        <ele>311.7629952</ele>
        <time>2019-12-31T14:15:05.007Z</time>
      </trkpt>
      <trkpt lat="44.99689" lon="5.27363">
        <ele>308.7629952</ele>
        <time>2019-12-31T14:15:07.007Z</time>
      </trkpt>
      <trkpt lat="44.99699" lon="5.27374">
        <ele>306.7629952</ele>
        <time>2019-12-31T14:15:09.007Z</time>
      </trkpt>
      <trkpt lat="44.99707" lon="5.27381">
        <ele>305.54141939154</ele>
        <time>2019-12-31T14:15:11.007Z</time>
      </trkpt>
      <trkpt lat="44.99715" lon="5.2739">
        <ele>302.7629952</ele>
        <time>2019-12-31T14:15:13.007Z</time>
      </trkpt>
      <trkpt lat="44.99729" lon="5.27398">
        <ele>298.77299490566</ele>
        <time>2019-12-31T14:15:16.007Z</time>
      </trkpt>
      <trkpt lat="44.99742" lon="5.27401">
        <ele>295.7629952</ele>
        <time>2019-12-31T14:15:19.007Z</time>
      </trkpt>
      <trkpt lat="44.99754" lon="5.274">
        <ele>292.76534401257</ele>
        <time>2019-12-31T14:15:22.007Z</time>
      </trkpt>
      <trkpt lat="44.99765" lon="5.274">
        <ele>289.7629952</ele>
        <time>2019-12-31T14:15:25.007Z</time>
      </trkpt>
      <trkpt lat="44.99759" lon="5.27401">
        <ele>289</ele>
        <time>2019-12-31T14:16:22.007Z</time>
      </trkpt>
      <trkpt lat="44.99752" lon="5.27405">
        <ele>289</ele>
        <time>2019-12-31T14:16:25.007Z</time>
      </trkpt>
      <trkpt lat="44.99752" lon="5.27417">
        <ele>289</ele>
        <time>2019-12-31T14:16:29.007Z</time>
      </trkpt>
      <trkpt lat="44.9975" lon="5.27425">
        <ele>288.5259904</ele>
        <time>2019-12-31T14:16:31.007Z</time>
      </trkpt>
      <trkpt lat="44.99746" lon="5.27429">
        <ele>287</ele>
        <time>2019-12-31T14:16:32.007Z</time>
      </trkpt>
      <trkpt lat="44.99741" lon="5.27431">
        <ele>287</ele>
        <time>2019-12-31T14:16:33.007Z</time>
      </trkpt>
      <trkpt lat="44.99736" lon="5.27434">
        <ele>287</ele>
        <time>2019-12-31T14:16:34.007Z</time>
      </trkpt>
      <trkpt lat="44.9973" lon="5.27435">
        <ele>287</ele>
        <time>2019-12-31T14:16:35.007Z</time>
      </trkpt>
      <trkpt lat="44.99723" lon="5.27436">
        <ele>287</ele>
        <time>2019-12-31T14:16:36.007Z</time>
      </trkpt>
      <trkpt lat="44.99716" lon="5.27436">
        <ele>287</ele>
        <time>2019-12-31T14:16:37.007Z</time>
      </trkpt>
      <trkpt lat="44.99708" lon="5.27436">
        <ele>287</ele>
        <time>2019-12-31T14:16:38.007Z</time>
      </trkpt>
      <trkpt lat="44.997" lon="5.27436">
        <ele>287</ele>
        <time>2019-12-31T14:16:39.007Z</time>
      </trkpt>
      <trkpt lat="44.99692" lon="5.27435">
        <ele>287</ele>
        <time>2019-12-31T14:16:40.007Z</time>
      </trkpt>
      <trkpt lat="44.99683" lon="5.27435">
        <ele>286.0519808</ele>
        <time>2019-12-31T14:16:41.007Z</time>
      </trkpt>
      <trkpt lat="44.99675" lon="5.27434">
        <ele>283</ele>
        <time>2019-12-31T14:16:42.007Z</time>
      </trkpt>
      <trkpt lat="44.99665" lon="5.27434">
        <ele>283</ele>
        <time>2019-12-31T14:16:43.007Z</time>
      </trkpt>
      <trkpt lat="44.99656" lon="5.27434">
        <ele>283</ele>
        <time>2019-12-31T14:16:44.007Z</time>
      </trkpt>
      <trkpt lat="44.99648" lon="5.27434">
        <ele>283</ele>
        <time>2019-12-31T14:16:45.007Z</time>
      </trkpt>
      <trkpt lat="44.99639" lon="5.27437">
        <ele>282.29603203772</ele>
        <time>2019-12-31T14:16:46.007Z</time>
      </trkpt>
      <trkpt lat="44.99631" lon="5.27441">
        <ele>280</ele>
        <time>2019-12-31T14:16:47.007Z</time>
      </trkpt>
      <trkpt lat="44.99624" lon="5.27447">
        <ele>280</ele>
        <time>2019-12-31T14:16:48.007Z</time>
      </trkpt>
      <trkpt lat="44.99618" lon="5.27456">
        <ele>280</ele>
        <time>2019-12-31T14:16:49.007Z</time>
      </trkpt>
      <trkpt lat="44.99613" lon="5.27466">
        <ele>280</ele>
        <time>2019-12-31T14:16:50.007Z</time>
      </trkpt>
      <trkpt lat="44.9961" lon="5.27477">
        <ele>278.814976</ele>
        <time>2019-12-31T14:16:51.007Z</time>
      </trkpt>
      <trkpt lat="44.99607" lon="5.27488">
        <ele>274.53068802514</ele>
        <time>2019-12-31T14:16:52.007Z</time>
      </trkpt>
      <trkpt lat="44.99606" lon="5.27499">
        <ele>272.77070969577</ele>
        <time>2019-12-31T14:16:53.007Z</time>
      </trkpt>
      <trkpt lat="44.99604" lon="5.27509">
        <ele>272</ele>
        <time>2019-12-31T14:16:54.007Z</time>
      </trkpt>
      <trkpt lat="44.99601" lon="5.27527">
        <ele>271.7629952</ele>
        <time>2019-12-31T14:16:56.007Z</time>
      </trkpt>
      <trkpt lat="44.99599" lon="5.27542">
        <ele>270</ele>
        <time>2019-12-31T14:16:58.007Z</time>
      </trkpt>
      <trkpt lat="44.99597" lon="5.27556">
        <ele>270</ele>
        <time>2019-12-31T14:17:00.007Z</time>
      </trkpt>
      <trkpt lat="44.99595" lon="5.27569">
        <ele>270</ele>
        <time>2019-12-31T14:17:02.007Z</time>
      </trkpt>
      <trkpt lat="44.9959" lon="5.27581">
        <ele>269</ele>
        <time>2019-12-31T14:17:04.007Z</time>
      </trkpt>
      <trkpt lat="44.99581" lon="5.27582">
        <ele>270</ele>
        <time>2019-12-31T14:17:06.007Z</time>
      </trkpt>
      <trkpt lat="44.99576" lon="5.2758">
        <ele>269.7629952</ele>
        <time>2019-12-31T14:17:07.007Z</time>
      </trkpt>
      <trkpt lat="44.99566" lon="5.27578">
        <ele>270.2370048</ele>
        <time>2019-12-31T14:17:09.007Z</time>
      </trkpt>
      <trkpt lat="44.99556" lon="5.27575">
        <ele>271</ele>
        <time>2019-12-31T14:17:11.007Z</time>
      </trkpt>
      <trkpt lat="44.99547" lon="5.27572">
        <ele>271</ele>
        <time>2019-12-31T14:17:13.007Z</time>
      </trkpt>
      <trkpt lat="44.99538" lon="5.27569">
        <ele>271</ele>
        <time>2019-12-31T14:17:15.007Z</time>
      </trkpt>
      <trkpt lat="44.99529" lon="5.27568">
        <ele>271</ele>
        <time>2019-12-31T14:17:17.007Z</time>
      </trkpt>
      <trkpt lat="44.99519" lon="5.27568">
        <ele>271</ele>
        <time>2019-12-31T14:17:19.007Z</time>
      </trkpt>
      <trkpt lat="44.99515" lon="5.27568">
        <ele>271</ele>
        <time>2019-12-31T14:17:20.007Z</time>
      </trkpt>
      <trkpt lat="44.9951" lon="5.27569">
        <ele>271</ele>
        <time>2019-12-31T14:17:21.007Z</time>
      </trkpt>
      <trkpt lat="44.99506" lon="5.2757">
        <ele>271</ele>
        <time>2019-12-31T14:17:22.007Z</time>
      </trkpt>
      <trkpt lat="44.99501" lon="5.27571">
        <ele>271</ele>
        <time>2019-12-31T14:17:23.007Z</time>
      </trkpt>
      <trkpt lat="44.99497" lon="5.27572">
        <ele>271</ele>
        <time>2019-12-31T14:17:24.007Z</time>
      </trkpt>
      <trkpt lat="44.99488" lon="5.27575">
        <ele>271</ele>
        <time>2019-12-31T14:17:26.007Z</time>
      </trkpt>
      <trkpt lat="44.99483" lon="5.27576">
        <ele>271</ele>
        <time>2019-12-31T14:17:27.007Z</time>
      </trkpt>
      <trkpt lat="44.99478" lon="5.27577">
        <ele>271</ele>
        <time>2019-12-31T14:17:28.007Z</time>
      </trkpt>
      <trkpt lat="44.99474" lon="5.27579">
        <ele>271</ele>
        <time>2019-12-31T14:17:29.007Z</time>
      </trkpt>
      <trkpt lat="44.99469" lon="5.2758">
        <ele>271</ele>
        <time>2019-12-31T14:17:30.007Z</time>
      </trkpt>
      <trkpt lat="44.9946" lon="5.27582">
        <ele>272</ele>
        <time>2019-12-31T14:17:32.007Z</time>
      </trkpt>
      <trkpt lat="44.9945" lon="5.27585">
        <ele>272</ele>
        <time>2019-12-31T14:17:34.007Z</time>
      </trkpt>
      <trkpt lat="44.99441" lon="5.2759">
        <ele>272</ele>
        <time>2019-12-31T14:17:36.007Z</time>
      </trkpt>
      <trkpt lat="44.99434" lon="5.27595">
        <ele>272</ele>
        <time>2019-12-31T14:17:38.007Z</time>
      </trkpt>
      <trkpt lat="44.99427" lon="5.27603">
        <ele>272</ele>
        <time>2019-12-31T14:17:40.007Z</time>
      </trkpt>
      <trkpt lat="44.99422" lon="5.27613">
        <ele>274</ele>
        <time>2019-12-31T14:17:42.007Z</time>
      </trkpt>
      <trkpt lat="44.99418" lon="5.27623">
        <ele>274</ele>
        <time>2019-12-31T14:17:44.007Z</time>
      </trkpt>
      <trkpt lat="44.99414" lon="5.27632">
        <ele>274</ele>
        <time>2019-12-31T14:17:46.007Z</time>
      </trkpt>
      <trkpt lat="44.99411" lon="5.27642">
        <ele>274</ele>
        <time>2019-12-31T14:17:48.007Z</time>
      </trkpt>
      <trkpt lat="44.99408" lon="5.27651">
        <ele>274</ele>
        <time>2019-12-31T14:17:50.007Z</time>
      </trkpt>
      <trkpt lat="44.99406" lon="5.2766">
        <ele>276</ele>
        <time>2019-12-31T14:17:52.007Z</time>
      </trkpt>
      <trkpt lat="44.99404" lon="5.27668">
        <ele>276</ele>
        <time>2019-12-31T14:17:54.007Z</time>
      </trkpt>
      <trkpt lat="44.99402" lon="5.27677">
        <ele>276.7110144</ele>
        <time>2019-12-31T14:17:56.007Z</time>
      </trkpt>
      <trkpt lat="44.994" lon="5.27685">
        <ele>279</ele>
        <time>2019-12-31T14:17:58.007Z</time>
      </trkpt>
      <trkpt lat="44.99395" lon="5.27695">
        <ele>279.4740096</ele>
        <time>2019-12-31T14:18:01.007Z</time>
      </trkpt>
      <trkpt lat="44.99389" lon="5.27705">
        <ele>282.2370048</ele>
        <time>2019-12-31T14:18:04.007Z</time>
      </trkpt>
      <trkpt lat="44.99381" lon="5.27717">
        <ele>283</ele>
        <time>2019-12-31T14:18:08.007Z</time>
      </trkpt>
      <trkpt lat="44.99373" lon="5.2772">
        <ele>284</ele>
        <time>2019-12-31T14:18:11.007Z</time>
      </trkpt>
      <trkpt lat="44.99363" lon="5.27719">
        <ele>284</ele>
        <time>2019-12-31T14:18:14.007Z</time>
      </trkpt>
      <trkpt lat="44.99351" lon="5.27717">
        <ele>285</ele>
        <time>2019-12-31T14:18:18.007Z</time>
      </trkpt>
      <trkpt lat="44.99339" lon="5.2772">
        <ele>285</ele>
        <time>2019-12-31T14:18:22.007Z</time>
      </trkpt>
      <trkpt lat="44.9933" lon="5.27727">
        <ele>285</ele>
        <time>2019-12-31T14:18:25.007Z</time>
      </trkpt>
      <trkpt lat="44.99322" lon="5.2774">
        <ele>285</ele>
        <time>2019-12-31T14:18:29.007Z</time>
      </trkpt>
      <trkpt lat="44.99316" lon="5.27754">
        <ele>288</ele>
        <time>2019-12-31T14:18:34.007Z</time>
      </trkpt>
      <trkpt lat="44.99309" lon="5.27766">
        <ele>290</ele>
        <time>2019-12-31T14:18:39.007Z</time>
      </trkpt>
      <trkpt lat="44.99302" lon="5.27778">
        <ele>290</ele>
        <time>2019-12-31T14:19:19.007Z</time>
      </trkpt>
      <trkpt lat="44.99295" lon="5.27792">
        <ele>292</ele>
        <time>2019-12-31T14:19:24.007Z</time>
      </trkpt>
      <trkpt lat="44.9929" lon="5.27804">
        <ele>292</ele>
        <time>2019-12-31T14:19:28.007Z</time>
      </trkpt>
      <trkpt lat="44.99284" lon="5.27815">
        <ele>294</ele>
        <time>2019-12-31T14:19:32.007Z</time>
      </trkpt>
      <trkpt lat="44.99279" lon="5.27826">
        <ele>294.7110144</ele>
        <time>2019-12-31T14:19:36.007Z</time>
      </trkpt>
      <trkpt lat="44.99273" lon="5.27837">
        <ele>297</ele>
        <time>2019-12-31T14:19:40.007Z</time>
      </trkpt>
      <trkpt lat="44.99266" lon="5.27851">
        <ele>298</ele>
        <time>2019-12-31T14:19:45.007Z</time>
      </trkpt>
      <trkpt lat="44.9926" lon="5.27865">
        <ele>300</ele>
        <time>2019-12-31T14:19:50.007Z</time>
      </trkpt>
      <trkpt lat="44.99254" lon="5.27877">
        <ele>301</ele>
        <time>2019-12-31T14:19:54.007Z</time>
      </trkpt>
      <trkpt lat="44.99248" lon="5.27888">
        <ele>303</ele>
        <time>2019-12-31T14:19:58.007Z</time>
      </trkpt>
      <trkpt lat="44.99242" lon="5.27899">
        <ele>305</ele>
        <time>2019-12-31T14:20:02.007Z</time>
      </trkpt>
      <trkpt lat="44.99236" lon="5.27912">
        <ele>305.4740096</ele>
        <time>2019-12-31T14:20:06.007Z</time>
      </trkpt>
      <trkpt lat="44.99231" lon="5.27924">
        <ele>307</ele>
        <time>2019-12-31T14:20:10.007Z</time>
      </trkpt>
      <trkpt lat="44.99223" lon="5.27938">
        <ele>308</ele>
        <time>2019-12-31T14:20:15.007Z</time>
      </trkpt>
      <trkpt lat="44.99218" lon="5.27951">
        <ele>310</ele>
        <time>2019-12-31T14:20:20.007Z</time>
      </trkpt>
      <trkpt lat="44.99211" lon="5.27963">
        <ele>312</ele>
        <time>2019-12-31T14:20:25.007Z</time>
      </trkpt>
      <trkpt lat="44.99204" lon="5.27976">
        <ele>314</ele>
        <time>2019-12-31T14:20:30.007Z</time>
      </trkpt>
      <trkpt lat="44.99199" lon="5.27988">
        <ele>316</ele>
        <time>2019-12-31T14:20:35.007Z</time>
      </trkpt>
      <trkpt lat="44.99193" lon="5.27997">
        <ele>317</ele>
        <time>2019-12-31T14:20:39.007Z</time>
      </trkpt>
      <trkpt lat="44.99186" lon="5.28003">
        <ele>319</ele>
        <time>2019-12-31T14:20:43.007Z</time>
      </trkpt>
      <trkpt lat="44.99179" lon="5.28004">
        <ele>319.4740096</ele>
        <time>2019-12-31T14:20:46.007Z</time>
      </trkpt>
      <trkpt lat="44.99173" lon="5.28004">
        <ele>321</ele>
        <time>2019-12-31T14:20:49.007Z</time>
      </trkpt>
      <trkpt lat="44.99165" lon="5.28007">
        <ele>321</ele>
        <time>2019-12-31T14:20:53.007Z</time>
      </trkpt>
      <trkpt lat="44.99161" lon="5.28013">
        <ele>321</ele>
        <time>2019-12-31T14:20:56.007Z</time>
      </trkpt>
      <trkpt lat="44.9916" lon="5.28021">
        <ele>321</ele>
        <time>2019-12-31T14:20:59.007Z</time>
      </trkpt>
      <trkpt lat="44.99166" lon="5.28029">
        <ele>323</ele>
        <time>2019-12-31T14:21:03.007Z</time>
      </trkpt>
      <trkpt lat="44.99175" lon="5.28031">
        <ele>323</ele>
        <time>2019-12-31T14:21:07.007Z</time>
      </trkpt>
      <trkpt lat="44.99183" lon="5.28028">
        <ele>323</ele>
        <time>2019-12-31T14:21:10.007Z</time>
      </trkpt>
      <trkpt lat="44.99189" lon="5.28026">
        <ele>323</ele>
        <time>2019-12-31T14:21:12.007Z</time>
      </trkpt>
      <trkpt lat="44.99198" lon="5.28022">
        <ele>323</ele>
        <time>2019-12-31T14:21:15.007Z</time>
      </trkpt>
      <trkpt lat="44.99207" lon="5.28018">
        <ele>323</ele>
        <time>2019-12-31T14:21:18.007Z</time>
      </trkpt>
      <trkpt lat="44.99216" lon="5.28015">
        <ele>323</ele>
        <time>2019-12-31T14:21:21.007Z</time>
      </trkpt>
      <trkpt lat="44.99224" lon="5.28011">
        <ele>323</ele>
        <time>2019-12-31T14:21:24.007Z</time>
      </trkpt>
      <trkpt lat="44.99234" lon="5.28009">
        <ele>323</ele>
        <time>2019-12-31T14:21:28.007Z</time>
      </trkpt>
      <trkpt lat="44.99246" lon="5.28006">
        <ele>323</ele>
        <time>2019-12-31T14:21:32.007Z</time>
      </trkpt>
      <trkpt lat="44.99256" lon="5.28002">
        <ele>323</ele>
        <time>2019-12-31T14:21:35.007Z</time>
      </trkpt>
      <trkpt lat="44.99266" lon="5.28">
        <ele>323</ele>
        <time>2019-12-31T14:21:38.007Z</time>
      </trkpt>
      <trkpt lat="44.99276" lon="5.27997">
        <ele>323.2370048</ele>
        <time>2019-12-31T14:21:41.007Z</time>
      </trkpt>
      <trkpt lat="44.99286" lon="5.27994">
        <ele>324</ele>
        <time>2019-12-31T14:21:44.007Z</time>
      </trkpt>
      <trkpt lat="44.99297" lon="5.27992">
        <ele>324</ele>
        <time>2019-12-31T14:21:47.007Z</time>
      </trkpt>
      <trkpt lat="44.99308" lon="5.27989">
        <ele>324</ele>
        <time>2019-12-31T14:21:50.007Z</time>
      </trkpt>
      <trkpt lat="44.99322" lon="5.27988">
        <ele>324</ele>
        <time>2019-12-31T14:21:53.007Z</time>
      </trkpt>
      <trkpt lat="44.99331" lon="5.27987">
        <ele>324</ele>
        <time>2019-12-31T14:21:55.007Z</time>
      </trkpt>
      <trkpt lat="44.99341" lon="5.27985">
        <ele>324</ele>
        <time>2019-12-31T14:21:57.007Z</time>
      </trkpt>
      <trkpt lat="44.99351" lon="5.27984">
        <ele>324</ele>
        <time>2019-12-31T14:21:59.007Z</time>
      </trkpt>
      <trkpt lat="44.9936" lon="5.27981">
        <ele>324</ele>
        <time>2019-12-31T14:22:01.007Z</time>
      </trkpt>
      <trkpt lat="44.9937" lon="5.27976">
        <ele>324</ele>
        <time>2019-12-31T14:22:03.007Z</time>
      </trkpt>
      <trkpt lat="44.99382" lon="5.27967">
        <ele>324</ele>
        <time>2019-12-31T14:22:06.007Z</time>
      </trkpt>
      <trkpt lat="44.99395" lon="5.2796">
        <ele>324</ele>
        <time>2019-12-31T14:22:09.007Z</time>
      </trkpt>
      <trkpt lat="44.99406" lon="5.27956">
        <ele>325</ele>
        <time>2019-12-31T14:22:12.007Z</time>
      </trkpt>
      <trkpt lat="44.99417" lon="5.27953">
        <ele>325</ele>
        <time>2019-12-31T14:22:15.007Z</time>
      </trkpt>
      <trkpt lat="44.9943" lon="5.2795">
        <ele>325</ele>
        <time>2019-12-31T14:22:18.007Z</time>
      </trkpt>
      <trkpt lat="44.99439" lon="5.27948">
        <ele>325.22930026893</ele>
        <time>2019-12-31T14:22:20.007Z</time>
      </trkpt>
      <trkpt lat="44.99448" lon="5.27945">
        <ele>327</ele>
        <time>2019-12-31T14:22:22.007Z</time>
      </trkpt>
      <trkpt lat="44.99456" lon="5.27941">
        <ele>327</ele>
        <time>2019-12-31T14:22:24.007Z</time>
      </trkpt>
      <trkpt lat="44.99468" lon="5.27934">
        <ele>327</ele>
        <time>2019-12-31T14:22:27.007Z</time>
      </trkpt>
      <trkpt lat="44.9948" lon="5.27928">
        <ele>327</ele>
        <time>2019-12-31T14:22:30.007Z</time>
      </trkpt>
      <trkpt lat="44.99489" lon="5.27928">
        <ele>329</ele>
        <time>2019-12-31T14:22:32.007Z</time>
      </trkpt>
      <trkpt lat="44.99497" lon="5.27931">
        <ele>329</ele>
        <time>2019-12-31T14:22:34.007Z</time>
      </trkpt>
      <trkpt lat="44.99505" lon="5.27945">
        <ele>329</ele>
        <time>2019-12-31T14:22:37.007Z</time>
      </trkpt>
      <trkpt lat="44.99508" lon="5.27962">
        <ele>329</ele>
        <time>2019-12-31T14:22:40.007Z</time>
      </trkpt>
      <trkpt lat="44.9951" lon="5.27974">
        <ele>331</ele>
        <time>2019-12-31T14:22:42.007Z</time>
      </trkpt>
      <trkpt lat="44.99513" lon="5.27988">
        <ele>331</ele>
        <time>2019-12-31T14:22:44.007Z</time>
      </trkpt>
      <trkpt lat="44.99518" lon="5.28002">
        <ele>331</ele>
        <time>2019-12-31T14:22:46.007Z</time>
      </trkpt>
      <trkpt lat="44.99522" lon="5.28018">
        <ele>331</ele>
        <time>2019-12-31T14:22:48.007Z</time>
      </trkpt>
      <trkpt lat="44.99526" lon="5.28036">
        <ele>331</ele>
        <time>2019-12-31T14:22:50.007Z</time>
      </trkpt>
      <trkpt lat="44.99529" lon="5.28045">
        <ele>330.7629952</ele>
        <time>2019-12-31T14:22:51.007Z</time>
      </trkpt>
      <trkpt lat="44.99532" lon="5.28054">
        <ele>330</ele>
        <time>2019-12-31T14:22:52.007Z</time>
      </trkpt>
      <trkpt lat="44.99535" lon="5.28063">
        <ele>330</ele>
        <time>2019-12-31T14:22:53.007Z</time>
      </trkpt>
      <trkpt lat="44.99539" lon="5.28072">
        <ele>330</ele>
        <time>2019-12-31T14:22:54.007Z</time>
      </trkpt>
      <trkpt lat="44.99544" lon="5.2808">
        <ele>330</ele>
        <time>2019-12-31T14:22:55.007Z</time>
      </trkpt>
      <trkpt lat="44.99549" lon="5.28087">
        <ele>330</ele>
        <time>2019-12-31T14:22:56.007Z</time>
      </trkpt>
      <trkpt lat="44.99556" lon="5.28093">
        <ele>330</ele>
        <time>2019-12-31T14:22:57.007Z</time>
      </trkpt>
      <trkpt lat="44.99563" lon="5.28097">
        <ele>330</ele>
        <time>2019-12-31T14:22:58.007Z</time>
      </trkpt>
      <trkpt lat="44.99571" lon="5.281">
        <ele>330</ele>
        <time>2019-12-31T14:22:59.007Z</time>
      </trkpt>
      <trkpt lat="44.99579" lon="5.28102">
        <ele>330</ele>
        <time>2019-12-31T14:23:00.007Z</time>
      </trkpt>
      <trkpt lat="44.99588" lon="5.28102">
        <ele>328.814976</ele>
        <time>2019-12-31T14:23:01.007Z</time>
      </trkpt>
      <trkpt lat="44.99605" lon="5.28101">
        <ele>325</ele>
        <time>2019-12-31T14:23:03.007Z</time>
      </trkpt>
      <trkpt lat="44.99614" lon="5.281">
        <ele>325</ele>
        <time>2019-12-31T14:23:04.007Z</time>
      </trkpt>
      <trkpt lat="44.99623" lon="5.28099">
        <ele>325</ele>
        <time>2019-12-31T14:23:05.007Z</time>
      </trkpt>
      <trkpt lat="44.99632" lon="5.28098">
        <ele>324.7629952</ele>
        <time>2019-12-31T14:23:06.007Z</time>
      </trkpt>
      <trkpt lat="44.99641" lon="5.28097">
        <ele>323.7629952</ele>
        <time>2019-12-31T14:23:07.007Z</time>
      </trkpt>
      <trkpt lat="44.99649" lon="5.28098">
        <ele>323</ele>
        <time>2019-12-31T14:23:08.007Z</time>
      </trkpt>
      <trkpt lat="44.99658" lon="5.28099">
        <ele>322.7629952</ele>
        <time>2019-12-31T14:23:09.007Z</time>
      </trkpt>
      <trkpt lat="44.99667" lon="5.28103">
        <ele>321.76534401257</ele>
        <time>2019-12-31T14:23:10.007Z</time>
      </trkpt>
      <trkpt lat="44.99676" lon="5.28107">
        <ele>320.77070969577</ele>
        <time>2019-12-31T14:23:11.007Z</time>
      </trkpt>
      <trkpt lat="44.99684" lon="5.28113">
        <ele>320</ele>
        <time>2019-12-31T14:23:12.007Z</time>
      </trkpt>
      <trkpt lat="44.99692" lon="5.2812">
        <ele>320</ele>
        <time>2019-12-31T14:23:13.007Z</time>
      </trkpt>
      <trkpt lat="44.99699" lon="5.28127">
        <ele>320</ele>
        <time>2019-12-31T14:23:14.007Z</time>
      </trkpt>
      <trkpt lat="44.99706" lon="5.28134">
        <ele>320</ele>
        <time>2019-12-31T14:23:15.007Z</time>
      </trkpt>
      <trkpt lat="44.99714" lon="5.28142">
        <ele>319.76534401257</ele>
        <time>2019-12-31T14:23:16.007Z</time>
      </trkpt>
      <trkpt lat="44.9972" lon="5.28149">
        <ele>319</ele>
        <time>2019-12-31T14:23:17.007Z</time>
      </trkpt>
      <trkpt lat="44.99726" lon="5.28157">
        <ele>319</ele>
        <time>2019-12-31T14:23:18.007Z</time>
      </trkpt>
      <trkpt lat="44.99731" lon="5.28173">
        <ele>319</ele>
        <time>2019-12-31T14:23:20.007Z</time>
      </trkpt>
      <trkpt lat="44.99726" lon="5.28189">
        <ele>316</ele>
        <time>2019-12-31T14:23:22.007Z</time>
      </trkpt>
      <trkpt lat="44.99721" lon="5.28204">
        <ele>316</ele>
        <time>2019-12-31T14:23:24.007Z</time>
      </trkpt>
      <trkpt lat="44.99716" lon="5.28217">
        <ele>316.2370048</ele>
        <time>2019-12-31T14:23:26.007Z</time>
      </trkpt>
      <trkpt lat="44.99712" lon="5.28227">
        <ele>317</ele>
        <time>2019-12-31T14:23:28.007Z</time>
      </trkpt>
      <trkpt lat="44.99709" lon="5.28237">
        <ele>317</ele>
        <time>2019-12-31T14:23:30.007Z</time>
      </trkpt>
      <trkpt lat="44.99705" lon="5.28246">
        <ele>320</ele>
        <time>2019-12-31T14:23:32.007Z</time>
      </trkpt>
      <trkpt lat="44.997" lon="5.28261">
        <ele>320</ele>
        <time>2019-12-31T14:23:35.007Z</time>
      </trkpt>
      <trkpt lat="44.99695" lon="5.28276">
        <ele>323</ele>
        <time>2019-12-31T14:23:39.007Z</time>
      </trkpt>
      <trkpt lat="44.99693" lon="5.28284">
        <ele>323.4740096</ele>
        <time>2019-12-31T14:23:41.007Z</time>
      </trkpt>
      <trkpt lat="44.99693" lon="5.28292">
        <ele>325</ele>
        <time>2019-12-31T14:23:43.007Z</time>
      </trkpt>
      <trkpt lat="44.99694" lon="5.283">
        <ele>325</ele>
        <time>2019-12-31T14:23:45.007Z</time>
      </trkpt>
      <trkpt lat="44.99696" lon="5.28307">
        <ele>326</ele>
        <time>2019-12-31T14:23:47.007Z</time>
      </trkpt>
      <trkpt lat="44.997" lon="5.28314">
        <ele>326</ele>
        <time>2019-12-31T14:23:49.007Z</time>
      </trkpt>
      <trkpt lat="44.99701" lon="5.28322">
        <ele>326</ele>
        <time>2019-12-31T14:23:51.007Z</time>
      </trkpt>
      <trkpt lat="44.997" lon="5.28331">
        <ele>326</ele>
        <time>2019-12-31T14:23:53.007Z</time>
      </trkpt>
      <trkpt lat="44.99693" lon="5.28343">
        <ele>326</ele>
        <time>2019-12-31T14:23:57.007Z</time>
      </trkpt>
      <trkpt lat="44.99684" lon="5.28355">
        <ele>330</ele>
        <time>2019-12-31T14:24:02.007Z</time>
      </trkpt>
      <trkpt lat="44.99679" lon="5.28361">
        <ele>330</ele>
        <time>2019-12-31T14:24:05.007Z</time>
      </trkpt>
      <trkpt lat="44.99675" lon="5.28365">
        <ele>332</ele>
        <time>2019-12-31T14:24:07.007Z</time>
      </trkpt>
      <trkpt lat="44.99669" lon="5.28368">
        <ele>332</ele>
        <time>2019-12-31T14:24:10.007Z</time>
      </trkpt>
      <trkpt lat="44.99664" lon="5.28373">
        <ele>333</ele>
        <time>2019-12-31T14:24:14.007Z</time>
      </trkpt>
      <trkpt lat="44.99665" lon="5.2838">
        <ele>334</ele>
        <time>2019-12-31T14:24:18.007Z</time>
      </trkpt>
      <trkpt lat="44.99671" lon="5.28393">
        <ele>334</ele>
        <time>2019-12-31T14:24:40.007Z</time>
      </trkpt>
      <trkpt lat="44.99675" lon="5.28404">
        <ele>335</ele>
        <time>2019-12-31T14:24:43.007Z</time>
      </trkpt>
      <trkpt lat="44.99678" lon="5.28415">
        <ele>335</ele>
        <time>2019-12-31T14:24:46.007Z</time>
      </trkpt>
      <trkpt lat="44.99682" lon="5.28421">
        <ele>335</ele>
        <time>2019-12-31T14:24:48.007Z</time>
      </trkpt>
      <trkpt lat="44.99687" lon="5.28428">
        <ele>335</ele>
        <time>2019-12-31T14:24:50.007Z</time>
      </trkpt>
      <trkpt lat="44.99697" lon="5.28439">
        <ele>335</ele>
        <time>2019-12-31T14:24:54.007Z</time>
      </trkpt>
      <trkpt lat="44.99707" lon="5.28448">
        <ele>335</ele>
        <time>2019-12-31T14:24:57.007Z</time>
      </trkpt>
      <trkpt lat="44.99716" lon="5.28457">
        <ele>335</ele>
        <time>2019-12-31T14:25:00.007Z</time>
      </trkpt>
      <trkpt lat="44.99724" lon="5.28466">
        <ele>335</ele>
        <time>2019-12-31T14:25:03.007Z</time>
      </trkpt>
      <trkpt lat="44.99732" lon="5.28474">
        <ele>335</ele>
        <time>2019-12-31T14:25:06.007Z</time>
      </trkpt>
      <trkpt lat="44.99742" lon="5.28483">
        <ele>335</ele>
        <time>2019-12-31T14:25:09.007Z</time>
      </trkpt>
      <trkpt lat="44.99752" lon="5.28489">
        <ele>336</ele>
        <time>2019-12-31T14:25:13.007Z</time>
      </trkpt>
      <trkpt lat="44.99763" lon="5.28497">
        <ele>336</ele>
        <time>2019-12-31T14:25:17.007Z</time>
      </trkpt>
      <trkpt lat="44.99772" lon="5.28504">
        <ele>336</ele>
        <time>2019-12-31T14:25:20.007Z</time>
      </trkpt>
      <trkpt lat="44.99783" lon="5.28514">
        <ele>338</ele>
        <time>2019-12-31T14:25:24.007Z</time>
      </trkpt>
      <trkpt lat="44.99791" lon="5.28523">
        <ele>338</ele>
        <time>2019-12-31T14:25:27.007Z</time>
      </trkpt>
      <trkpt lat="44.998" lon="5.28533">
        <ele>338.4740096</ele>
        <time>2019-12-31T14:25:31.007Z</time>
      </trkpt>
      <trkpt lat="44.99808" lon="5.28546">
        <ele>340</ele>
        <time>2019-12-31T14:25:35.007Z</time>
      </trkpt>
      <trkpt lat="44.99818" lon="5.28557">
        <ele>340</ele>
        <time>2019-12-31T14:25:38.007Z</time>
      </trkpt>
      <trkpt lat="44.99829" lon="5.28571">
        <ele>340</ele>
        <time>2019-12-31T14:25:41.007Z</time>
      </trkpt>
      <trkpt lat="44.99836" lon="5.28581">
        <ele>340</ele>
        <time>2019-12-31T14:25:43.007Z</time>
      </trkpt>
      <trkpt lat="44.99849" lon="5.28592">
        <ele>340</ele>
        <time>2019-12-31T14:25:46.007Z</time>
      </trkpt>
      <trkpt lat="44.9986" lon="5.28599">
        <ele>340</ele>
        <time>2019-12-31T14:25:48.007Z</time>
      </trkpt>
      <trkpt lat="44.99872" lon="5.28606">
        <ele>340</ele>
        <time>2019-12-31T14:25:50.007Z</time>
      </trkpt>
      <trkpt lat="44.99883" lon="5.28614">
        <ele>337</ele>
        <time>2019-12-31T14:25:52.007Z</time>
      </trkpt>
      <trkpt lat="44.99892" lon="5.28623">
        <ele>337</ele>
        <time>2019-12-31T14:25:54.007Z</time>
      </trkpt>
      <trkpt lat="44.99903" lon="5.28634">
        <ele>336</ele>
        <time>2019-12-31T14:25:57.007Z</time>
      </trkpt>
      <trkpt lat="44.99914" lon="5.2864">
        <ele>336</ele>
        <time>2019-12-31T14:26:19.007Z</time>
      </trkpt>
      <trkpt lat="44.99926" lon="5.28648">
        <ele>336</ele>
        <time>2019-12-31T14:26:22.007Z</time>
      </trkpt>
      <trkpt lat="44.99935" lon="5.28658">
        <ele>336</ele>
        <time>2019-12-31T14:26:24.007Z</time>
      </trkpt>
      <trkpt lat="44.99943" lon="5.2867">
        <ele>336</ele>
        <time>2019-12-31T14:26:26.007Z</time>
      </trkpt>
      <trkpt lat="44.9995" lon="5.28681">
        <ele>336</ele>
        <time>2019-12-31T14:26:28.007Z</time>
      </trkpt>
      <trkpt lat="44.99957" lon="5.28692">
        <ele>336</ele>
        <time>2019-12-31T14:26:30.007Z</time>
      </trkpt>
      <trkpt lat="44.99968" lon="5.28702">
        <ele>332</ele>
        <time>2019-12-31T14:26:32.007Z</time>
      </trkpt>
      <trkpt lat="44.99981" lon="5.28708">
        <ele>332</ele>
        <time>2019-12-31T14:26:34.007Z</time>
      </trkpt>
      <trkpt lat="44.99997" lon="5.28711">
        <ele>331.11428646065</ele>
        <time>2019-12-31T14:26:36.007Z</time>
      </trkpt>
      <trkpt lat="45.00012" lon="5.28714">
        <ele>328</ele>
        <time>2019-12-31T14:26:38.007Z</time>
      </trkpt>
      <trkpt lat="45.00025" lon="5.28718">
        <ele>328</ele>
        <time>2019-12-31T14:26:40.007Z</time>
      </trkpt>
      <trkpt lat="45.00038" lon="5.28723">
        <ele>326.7629952</ele>
        <time>2019-12-31T14:26:42.007Z</time>
      </trkpt>
      <trkpt lat="45.00051" lon="5.28727">
        <ele>326</ele>
        <time>2019-12-31T14:26:44.007Z</time>
      </trkpt>
      <trkpt lat="45.00063" lon="5.28735">
        <ele>325</ele>
        <time>2019-12-31T14:26:46.007Z</time>
      </trkpt>
      <trkpt lat="45.00075" lon="5.28746">
        <ele>325</ele>
        <time>2019-12-31T14:26:48.007Z</time>
      </trkpt>
      <trkpt lat="45.00087" lon="5.28757">
        <ele>324</ele>
        <time>2019-12-31T14:26:50.007Z</time>
      </trkpt>
      <trkpt lat="45.00093" lon="5.28763">
        <ele>324</ele>
        <time>2019-12-31T14:26:51.007Z</time>
      </trkpt>
      <trkpt lat="45.00104" lon="5.28776">
        <ele>324</ele>
        <time>2019-12-31T14:26:53.007Z</time>
      </trkpt>
      <trkpt lat="45.00115" lon="5.28786">
        <ele>324</ele>
        <time>2019-12-31T14:26:55.007Z</time>
      </trkpt>
      <trkpt lat="45.00121" lon="5.2879">
        <ele>323.5259904</ele>
        <time>2019-12-31T14:26:56.007Z</time>
      </trkpt>
      <trkpt lat="45.00128" lon="5.28792">
        <ele>322</ele>
        <time>2019-12-31T14:26:57.007Z</time>
      </trkpt>
      <trkpt lat="45.00135" lon="5.28794">
        <ele>322</ele>
        <time>2019-12-31T14:26:58.007Z</time>
      </trkpt>
      <trkpt lat="45.00147" lon="5.28797">
        <ele>322</ele>
        <time>2019-12-31T14:27:00.007Z</time>
      </trkpt>
      <trkpt lat="45.00158" lon="5.28802">
        <ele>319</ele>
        <time>2019-12-31T14:27:02.007Z</time>
      </trkpt>
      <trkpt lat="45.00167" lon="5.28811">
        <ele>319</ele>
        <time>2019-12-31T14:27:04.007Z</time>
      </trkpt>
      <trkpt lat="45.00174" lon="5.2882">
        <ele>319</ele>
        <time>2019-12-31T14:27:06.007Z</time>
      </trkpt>
      <trkpt lat="45.00181" lon="5.28828">
        <ele>319</ele>
        <time>2019-12-31T14:27:08.007Z</time>
      </trkpt>
      <trkpt lat="45.00189" lon="5.28836">
        <ele>319</ele>
        <time>2019-12-31T14:27:10.007Z</time>
      </trkpt>
      <trkpt lat="45.00197" lon="5.28846">
        <ele>318</ele>
        <time>2019-12-31T14:27:12.007Z</time>
      </trkpt>
      <trkpt lat="45.00201" lon="5.28852">
        <ele>318</ele>
        <time>2019-12-31T14:27:13.007Z</time>
      </trkpt>
      <trkpt lat="45.00204" lon="5.28858">
        <ele>318</ele>
        <time>2019-12-31T14:27:14.007Z</time>
      </trkpt>
      <trkpt lat="45.00209" lon="5.2887">
        <ele>318</ele>
        <time>2019-12-31T14:27:16.007Z</time>
      </trkpt>
      <trkpt lat="45.00213" lon="5.28882">
        <ele>318</ele>
        <time>2019-12-31T14:27:18.007Z</time>
      </trkpt>
      <trkpt lat="45.00216" lon="5.28894">
        <ele>318</ele>
        <time>2019-12-31T14:27:20.007Z</time>
      </trkpt>
      <trkpt lat="45.00217" lon="5.28899">
        <ele>317.7629952</ele>
        <time>2019-12-31T14:27:21.007Z</time>
      </trkpt>
      <trkpt lat="45.0022" lon="5.28909">
        <ele>317</ele>
        <time>2019-12-31T14:27:23.007Z</time>
      </trkpt>
      <trkpt lat="45.00224" lon="5.28917">
        <ele>317</ele>
        <time>2019-12-31T14:27:25.007Z</time>
      </trkpt>
      <trkpt lat="45.00227" lon="5.28924">
        <ele>317</ele>
        <time>2019-12-31T14:27:27.007Z</time>
      </trkpt>
      <trkpt lat="45.00232" lon="5.28929">
        <ele>317</ele>
        <time>2019-12-31T14:27:29.007Z</time>
      </trkpt>
      <trkpt lat="45.00236" lon="5.28932">
        <ele>316.7629952</ele>
        <time>2019-12-31T14:27:31.007Z</time>
      </trkpt>
      <trkpt lat="45.00238" lon="5.28938">
        <ele>316</ele>
        <time>2019-12-31T14:27:53.007Z</time>
      </trkpt>
      <trkpt lat="45.00237" lon="5.28943">
        <ele>316</ele>
        <time>2019-12-31T14:27:55.007Z</time>
      </trkpt>
      <trkpt lat="45.00237" lon="5.2895">
        <ele>316</ele>
        <time>2019-12-31T14:27:57.007Z</time>
      </trkpt>
      <trkpt lat="45.00237" lon="5.28957">
        <ele>316</ele>
        <time>2019-12-31T14:27:59.007Z</time>
      </trkpt>
      <trkpt lat="45.00238" lon="5.28963">
        <ele>316.7110144</ele>
        <time>2019-12-31T14:28:01.007Z</time>
      </trkpt>
      <trkpt lat="45.00238" lon="5.28969">
        <ele>319</ele>
        <time>2019-12-31T14:28:03.007Z</time>
      </trkpt>
      <trkpt lat="45.00239" lon="5.28976">
        <ele>319</ele>
        <time>2019-12-31T14:28:05.007Z</time>
      </trkpt>
      <trkpt lat="45.00239" lon="5.28983">
        <ele>320</ele>
        <time>2019-12-31T14:28:07.007Z</time>
      </trkpt>
      <trkpt lat="45.00239" lon="5.2899">
        <ele>320</ele>
        <time>2019-12-31T14:28:09.007Z</time>
      </trkpt>
      <trkpt lat="45.0024" lon="5.28997">
        <ele>320.2370048</ele>
        <time>2019-12-31T14:28:11.007Z</time>
      </trkpt>
      <trkpt lat="45.0024" lon="5.29004">
        <ele>321</ele>
        <time>2019-12-31T14:28:13.007Z</time>
      </trkpt>
      <trkpt lat="45.00239" lon="5.29015">
        <ele>321</ele>
        <time>2019-12-31T14:28:16.007Z</time>
      </trkpt>
      <trkpt lat="45.00239" lon="5.29026">
        <ele>321</ele>
        <time>2019-12-31T14:28:19.007Z</time>
      </trkpt>
      <trkpt lat="45.00238" lon="5.29032">
        <ele>321.7110144</ele>
        <time>2019-12-31T14:28:21.007Z</time>
      </trkpt>
      <trkpt lat="45.00238" lon="5.29039">
        <ele>324</ele>
        <time>2019-12-31T14:28:23.007Z</time>
      </trkpt>
      <trkpt lat="45.00238" lon="5.29045">
        <ele>324</ele>
        <time>2019-12-31T14:28:25.007Z</time>
      </trkpt>
      <trkpt lat="45.00237" lon="5.29051">
        <ele>327</ele>
        <time>2019-12-31T14:28:27.007Z</time>
      </trkpt>
      <trkpt lat="45.00236" lon="5.29057">
        <ele>327</ele>
        <time>2019-12-31T14:28:29.007Z</time>
      </trkpt>
      <trkpt lat="45.00235" lon="5.29063">
        <ele>327</ele>
        <time>2019-12-31T14:28:31.007Z</time>
      </trkpt>
      <trkpt lat="45.00234" lon="5.29073">
        <ele>327</ele>
        <time>2019-12-31T14:28:34.007Z</time>
      </trkpt>
      <trkpt lat="45.00232" lon="5.29082">
        <ele>328</ele>
        <time>2019-12-31T14:28:37.007Z</time>
      </trkpt>
      <trkpt lat="45.0023" lon="5.29091">
        <ele>328</ele>
        <time>2019-12-31T14:28:40.007Z</time>
      </trkpt>
      <trkpt lat="45.00227" lon="5.29106">
        <ele>329</ele>
        <time>2019-12-31T14:28:45.007Z</time>
      </trkpt>
      <trkpt lat="45.00223" lon="5.29117">
        <ele>331</ele>
        <time>2019-12-31T14:28:49.007Z</time>
      </trkpt>
      <trkpt lat="45.0022" lon="5.29126">
        <ele>333</ele>
        <time>2019-12-31T14:28:52.007Z</time>
      </trkpt>
      <trkpt lat="45.00217" lon="5.29135">
        <ele>333</ele>
        <time>2019-12-31T14:28:55.007Z</time>
      </trkpt>
      <trkpt lat="45.00214" lon="5.29143">
        <ele>333</ele>
        <time>2019-12-31T14:28:58.007Z</time>
      </trkpt>
      <trkpt lat="45.00211" lon="5.29149">
        <ele>333</ele>
        <time>2019-12-31T14:29:00.007Z</time>
      </trkpt>
      <trkpt lat="45.00206" lon="5.29158">
        <ele>334</ele>
        <time>2019-12-31T14:29:03.007Z</time>
      </trkpt>
      <trkpt lat="45.002" lon="5.29165">
        <ele>334</ele>
        <time>2019-12-31T14:29:06.007Z</time>
      </trkpt>
      <trkpt lat="45.00193" lon="5.29171">
        <ele>334</ele>
        <time>2019-12-31T14:29:09.007Z</time>
      </trkpt>
      <trkpt lat="45.00187" lon="5.29178">
        <ele>335</ele>
        <time>2019-12-31T14:29:12.007Z</time>
      </trkpt>
      <trkpt lat="45.0018" lon="5.29184">
        <ele>335</ele>
        <time>2019-12-31T14:29:15.007Z</time>
      </trkpt>
      <trkpt lat="45.00175" lon="5.29187">
        <ele>335</ele>
        <time>2019-12-31T14:29:17.007Z</time>
      </trkpt>
      <trkpt lat="45.00169" lon="5.29192">
        <ele>335</ele>
        <time>2019-12-31T14:29:20.007Z</time>
      </trkpt>
      <trkpt lat="45.00164" lon="5.29195">
        <ele>337</ele>
        <time>2019-12-31T14:29:22.007Z</time>
      </trkpt>
      <trkpt lat="45.0016" lon="5.29203">
        <ele>337</ele>
        <time>2019-12-31T14:29:25.007Z</time>
      </trkpt>
      <trkpt lat="45.00164" lon="5.29213">
        <ele>337</ele>
        <time>2019-12-31T14:29:29.007Z</time>
      </trkpt>
      <trkpt lat="45.0017" lon="5.29217">
        <ele>340</ele>
        <time>2019-12-31T14:29:32.007Z</time>
      </trkpt>
      <trkpt lat="45.00175" lon="5.29218">
        <ele>340</ele>
        <time>2019-12-31T14:29:34.007Z</time>
      </trkpt>
      <trkpt lat="45.0018" lon="5.29219">
        <ele>340.2370048</ele>
        <time>2019-12-31T14:29:36.007Z</time>
      </trkpt>
      <trkpt lat="45.00185" lon="5.29221">
        <ele>341</ele>
        <time>2019-12-31T14:29:38.007Z</time>
      </trkpt>
      <trkpt lat="45.0019" lon="5.29222">
        <ele>341</ele>
        <time>2019-12-31T14:29:40.007Z</time>
      </trkpt>
      <trkpt lat="45.00195" lon="5.29222">
        <ele>342</ele>
        <time>2019-12-31T14:29:42.007Z</time>
      </trkpt>
      <trkpt lat="45.00201" lon="5.29223">
        <ele>342</ele>
        <time>2019-12-31T14:29:44.007Z</time>
      </trkpt>
      <trkpt lat="45.00206" lon="5.29223">
        <ele>342.4740096</ele>
        <time>2019-12-31T14:29:46.007Z</time>
      </trkpt>
      <trkpt lat="45.00211" lon="5.29224">
        <ele>344</ele>
        <time>2019-12-31T14:29:48.007Z</time>
      </trkpt>
      <trkpt lat="45.00217" lon="5.29226">
        <ele>344</ele>
        <time>2019-12-31T14:29:50.007Z</time>
      </trkpt>
      <trkpt lat="45.0022" lon="5.29227">
        <ele>344.2370048</ele>
        <time>2019-12-31T14:29:51.007Z</time>
      </trkpt>
      <trkpt lat="45.00223" lon="5.29228">
        <ele>345</ele>
        <time>2019-12-31T14:29:52.007Z</time>
      </trkpt>
      <trkpt lat="45.00226" lon="5.29229">
        <ele>345</ele>
        <time>2019-12-31T14:29:53.007Z</time>
      </trkpt>
      <trkpt lat="45.00229" lon="5.29229">
        <ele>345</ele>
        <time>2019-12-31T14:29:54.007Z</time>
      </trkpt>
      <trkpt lat="45.00232" lon="5.2923">
        <ele>345</ele>
        <time>2019-12-31T14:29:55.007Z</time>
      </trkpt>
      <trkpt lat="45.00235" lon="5.29232">
        <ele>345</ele>
        <time>2019-12-31T14:29:56.007Z</time>
      </trkpt>
      <trkpt lat="45.00239" lon="5.29232">
        <ele>345</ele>
        <time>2019-12-31T14:29:57.007Z</time>
      </trkpt>
      <trkpt lat="45.00242" lon="5.29233">
        <ele>345</ele>
        <time>2019-12-31T14:29:58.007Z</time>
      </trkpt>
      <trkpt lat="45.00245" lon="5.29234">
        <ele>345</ele>
        <time>2019-12-31T14:29:59.007Z</time>
      </trkpt>
      <trkpt lat="45.00249" lon="5.29234">
        <ele>345</ele>
        <time>2019-12-31T14:30:00.007Z</time>
      </trkpt>
      <trkpt lat="45.00255" lon="5.29235">
        <ele>345</ele>
        <time>2019-12-31T14:30:02.007Z</time>
      </trkpt>
      <trkpt lat="45.00262" lon="5.29236">
        <ele>345</ele>
        <time>2019-12-31T14:30:04.007Z</time>
      </trkpt>
      <trkpt lat="45.00268" lon="5.29237">
        <ele>345</ele>
        <time>2019-12-31T14:30:06.007Z</time>
      </trkpt>
      <trkpt lat="45.00275" lon="5.29237">
        <ele>345</ele>
        <time>2019-12-31T14:30:08.007Z</time>
      </trkpt>
      <trkpt lat="45.00281" lon="5.29237">
        <ele>345</ele>
        <time>2019-12-31T14:30:10.007Z</time>
      </trkpt>
      <trkpt lat="45.00287" lon="5.29237">
        <ele>347</ele>
        <time>2019-12-31T14:30:12.007Z</time>
      </trkpt>
      <trkpt lat="45.00296" lon="5.29238">
        <ele>347</ele>
        <time>2019-12-31T14:30:15.007Z</time>
      </trkpt>
      <trkpt lat="45.00301" lon="5.29238">
        <ele>350</ele>
        <time>2019-12-31T14:30:17.007Z</time>
      </trkpt>
      <trkpt lat="45.00309" lon="5.2924">
        <ele>350</ele>
        <time>2019-12-31T14:30:20.007Z</time>
      </trkpt>
      <trkpt lat="45.00315" lon="5.29241">
        <ele>352</ele>
        <time>2019-12-31T14:30:22.007Z</time>
      </trkpt>
      <trkpt lat="45.0032" lon="5.29243">
        <ele>352</ele>
        <time>2019-12-31T14:30:24.007Z</time>
      </trkpt>
      <trkpt lat="45.00326" lon="5.29245">
        <ele>352</ele>
        <time>2019-12-31T14:30:26.007Z</time>
      </trkpt>
      <trkpt lat="45.00331" lon="5.29247">
        <ele>352</ele>
        <time>2019-12-31T14:30:28.007Z</time>
      </trkpt>
      <trkpt lat="45.00337" lon="5.29249">
        <ele>352</ele>
        <time>2019-12-31T14:30:30.007Z</time>
      </trkpt>
      <trkpt lat="45.00342" lon="5.29253">
        <ele>352</ele>
        <time>2019-12-31T14:30:32.007Z</time>
      </trkpt>
      <trkpt lat="45.00343" lon="5.29263">
        <ele>352</ele>
        <time>2019-12-31T14:30:35.007Z</time>
      </trkpt>
      <trkpt lat="45.00339" lon="5.29272">
        <ele>352</ele>
        <time>2019-12-31T14:30:38.007Z</time>
      </trkpt>
      <trkpt lat="45.00337" lon="5.29278">
        <ele>352</ele>
        <time>2019-12-31T14:30:40.007Z</time>
      </trkpt>
      <trkpt lat="45.00336" lon="5.29283">
        <ele>354</ele>
        <time>2019-12-31T14:30:42.007Z</time>
      </trkpt>
      <trkpt lat="45.00334" lon="5.29289">
        <ele>354</ele>
        <time>2019-12-31T14:30:44.007Z</time>
      </trkpt>
      <trkpt lat="45.00334" lon="5.29296">
        <ele>354</ele>
        <time>2019-12-31T14:30:47.007Z</time>
      </trkpt>
      <trkpt lat="45.00338" lon="5.29302">
        <ele>356</ele>
        <time>2019-12-31T14:30:52.007Z</time>
      </trkpt>
      <trkpt lat="45.00343" lon="5.29306">
        <ele>356</ele>
        <time>2019-12-31T14:30:55.007Z</time>
      </trkpt>
      <trkpt lat="45.00346" lon="5.29311">
        <ele>356</ele>
        <time>2019-12-31T14:30:58.007Z</time>
      </trkpt>
      <trkpt lat="45.0035" lon="5.29315">
        <ele>356.2370048</ele>
        <time>2019-12-31T14:31:01.007Z</time>
      </trkpt>
      <trkpt lat="45.00353" lon="5.29318">
        <ele>357</ele>
        <time>2019-12-31T14:31:03.007Z</time>
      </trkpt>
      <trkpt lat="45.00355" lon="5.29321">
        <ele>357</ele>
        <time>2019-12-31T14:31:05.007Z</time>
      </trkpt>
      <trkpt lat="45.00358" lon="5.29324">
        <ele>357</ele>
        <time>2019-12-31T14:31:07.007Z</time>
      </trkpt>
      <trkpt lat="45.00362" lon="5.2933">
        <ele>357</ele>
        <time>2019-12-31T14:31:10.007Z</time>
      </trkpt>
      <trkpt lat="45.00365" lon="5.29333">
        <ele>358</ele>
        <time>2019-12-31T14:31:12.007Z</time>
      </trkpt>
      <trkpt lat="45.0037" lon="5.2934">
        <ele>358</ele>
        <time>2019-12-31T14:31:15.007Z</time>
      </trkpt>
      <trkpt lat="45.00374" lon="5.29345">
        <ele>358</ele>
        <time>2019-12-31T14:31:17.007Z</time>
      </trkpt>
      <trkpt lat="45.00379" lon="5.2935">
        <ele>358</ele>
        <time>2019-12-31T14:31:19.007Z</time>
      </trkpt>
      <trkpt lat="45.00383" lon="5.29356">
        <ele>358</ele>
        <time>2019-12-31T14:31:21.007Z</time>
      </trkpt>
      <trkpt lat="45.00388" lon="5.29365">
        <ele>358</ele>
        <time>2019-12-31T14:31:24.007Z</time>
      </trkpt>
      <trkpt lat="45.00393" lon="5.29371">
        <ele>358</ele>
        <time>2019-12-31T14:31:26.007Z</time>
      </trkpt>
      <trkpt lat="45.004" lon="5.29376">
        <ele>358</ele>
        <time>2019-12-31T14:31:28.007Z</time>
      </trkpt>
      <trkpt lat="45.00408" lon="5.2938">
        <ele>358</ele>
        <time>2019-12-31T14:31:30.007Z</time>
      </trkpt>
      <trkpt lat="45.00419" lon="5.29384">
        <ele>358</ele>
        <time>2019-12-31T14:31:32.007Z</time>
      </trkpt>
      <trkpt lat="45.00426" lon="5.29387">
        <ele>358</ele>
        <time>2019-12-31T14:31:33.007Z</time>
      </trkpt>
      <trkpt lat="45.00432" lon="5.29389">
        <ele>358</ele>
        <time>2019-12-31T14:31:34.007Z</time>
      </trkpt>
      <trkpt lat="45.0044" lon="5.2939">
        <ele>358</ele>
        <time>2019-12-31T14:31:35.007Z</time>
      </trkpt>
      <trkpt lat="45.00447" lon="5.29392">
        <ele>358</ele>
        <time>2019-12-31T14:31:36.007Z</time>
      </trkpt>
      <trkpt lat="45.00455" lon="5.29393">
        <ele>358</ele>
        <time>2019-12-31T14:31:37.007Z</time>
      </trkpt>
      <trkpt lat="45.00464" lon="5.29394">
        <ele>358</ele>
        <time>2019-12-31T14:31:38.007Z</time>
      </trkpt>
      <trkpt lat="45.00472" lon="5.29393">
        <ele>358</ele>
        <time>2019-12-31T14:31:39.007Z</time>
      </trkpt>
      <trkpt lat="45.00482" lon="5.29393">
        <ele>358</ele>
        <time>2019-12-31T14:31:40.007Z</time>
      </trkpt>
      <trkpt lat="45.00491" lon="5.29392">
        <ele>356.62425817463</ele>
        <time>2019-12-31T14:31:41.007Z</time>
      </trkpt>
      <trkpt lat="45.005" lon="5.29392">
        <ele>351.2889856</ele>
        <time>2019-12-31T14:31:42.007Z</time>
      </trkpt>
      <trkpt lat="45.00509" lon="5.29391">
        <ele>348.7629952</ele>
        <time>2019-12-31T14:31:43.007Z</time>
      </trkpt>
      <trkpt lat="45.00517" lon="5.29392">
        <ele>347.76534401257</ele>
        <time>2019-12-31T14:31:44.007Z</time>
      </trkpt>
      <trkpt lat="45.00526" lon="5.29395">
        <ele>346.77070969577</ele>
        <time>2019-12-31T14:31:45.007Z</time>
      </trkpt>
      <trkpt lat="45.00535" lon="5.29401">
        <ele>346</ele>
        <time>2019-12-31T14:31:46.007Z</time>
      </trkpt>
      <trkpt lat="45.00551" lon="5.29413">
        <ele>344.7629952</ele>
        <time>2019-12-31T14:31:48.007Z</time>
      </trkpt>
      <trkpt lat="45.0056" lon="5.2942">
        <ele>343.7629952</ele>
        <time>2019-12-31T14:31:49.007Z</time>
      </trkpt>
      <trkpt lat="45.00569" lon="5.29427">
        <ele>343</ele>
        <time>2019-12-31T14:31:50.007Z</time>
      </trkpt>
      <trkpt lat="45.00578" lon="5.29434">
        <ele>342.7629952</ele>
        <time>2019-12-31T14:31:51.007Z</time>
      </trkpt>
      <trkpt lat="45.00586" lon="5.29442">
        <ele>341.76534401257</ele>
        <time>2019-12-31T14:31:52.007Z</time>
      </trkpt>
      <trkpt lat="45.00594" lon="5.29449">
        <ele>340.77070969577</ele>
        <time>2019-12-31T14:31:53.007Z</time>
      </trkpt>
      <trkpt lat="45.00602" lon="5.29457">
        <ele>340</ele>
        <time>2019-12-31T14:31:54.007Z</time>
      </trkpt>
      <trkpt lat="45.00608" lon="5.29466">
        <ele>339.5259904</ele>
        <time>2019-12-31T14:31:55.007Z</time>
      </trkpt>
      <trkpt lat="45.00612" lon="5.29474">
        <ele>337.7629952</ele>
        <time>2019-12-31T14:31:56.007Z</time>
      </trkpt>
      <trkpt lat="45.00615" lon="5.2948">
        <ele>336.7629952</ele>
        <time>2019-12-31T14:31:57.007Z</time>
      </trkpt>
      <trkpt lat="45.00619" lon="5.29488">
        <ele>335</ele>
        <time>2019-12-31T14:31:59.007Z</time>
      </trkpt>
      <trkpt lat="45.00621" lon="5.29496">
        <ele>334.2370048</ele>
        <time>2019-12-31T14:32:02.007Z</time>
      </trkpt>
      <trkpt lat="45.00625" lon="5.29502">
        <ele>335</ele>
        <time>2019-12-31T14:32:04.007Z</time>
      </trkpt>
      <trkpt lat="45.00628" lon="5.29511">
        <ele>335</ele>
        <time>2019-12-31T14:32:06.007Z</time>
      </trkpt>
      <trkpt lat="45.00634" lon="5.2952">
        <ele>334.7629952</ele>
        <time>2019-12-31T14:32:08.007Z</time>
      </trkpt>
      <trkpt lat="45.00637" lon="5.29526">
        <ele>334</ele>
        <time>2019-12-31T14:32:09.007Z</time>
      </trkpt>
      <trkpt lat="45.0064" lon="5.29531">
        <ele>334</ele>
        <time>2019-12-31T14:32:10.007Z</time>
      </trkpt>
      <trkpt lat="45.00643" lon="5.29537">
        <ele>334</ele>
        <time>2019-12-31T14:32:11.007Z</time>
      </trkpt>
      <trkpt lat="45.00646" lon="5.29544">
        <ele>334</ele>
        <time>2019-12-31T14:32:12.007Z</time>
      </trkpt>
      <trkpt lat="45.0065" lon="5.2955">
        <ele>334</ele>
        <time>2019-12-31T14:32:13.007Z</time>
      </trkpt>
      <trkpt lat="45.00653" lon="5.29557">
        <ele>334</ele>
        <time>2019-12-31T14:32:14.007Z</time>
      </trkpt>
      <trkpt lat="45.00656" lon="5.29564">
        <ele>334</ele>
        <time>2019-12-31T14:32:15.007Z</time>
      </trkpt>
      <trkpt lat="45.00658" lon="5.29571">
        <ele>334</ele>
        <time>2019-12-31T14:32:16.007Z</time>
      </trkpt>
      <trkpt lat="45.0066" lon="5.29579">
        <ele>334</ele>
        <time>2019-12-31T14:32:17.007Z</time>
      </trkpt>
      <trkpt lat="45.00661" lon="5.29587">
        <ele>334</ele>
        <time>2019-12-31T14:32:18.007Z</time>
      </trkpt>
      <trkpt lat="45.00662" lon="5.29595">
        <ele>334</ele>
        <time>2019-12-31T14:32:19.007Z</time>
      </trkpt>
      <trkpt lat="45.00663" lon="5.29603">
        <ele>334</ele>
        <time>2019-12-31T14:32:20.007Z</time>
      </trkpt>
      <trkpt lat="45.00664" lon="5.29611">
        <ele>333.7629952</ele>
        <time>2019-12-31T14:32:21.007Z</time>
      </trkpt>
      <trkpt lat="45.00664" lon="5.29619">
        <ele>333</ele>
        <time>2019-12-31T14:32:22.007Z</time>
      </trkpt>
      <trkpt lat="45.00665" lon="5.29626">
        <ele>333</ele>
        <time>2019-12-31T14:32:23.007Z</time>
      </trkpt>
      <trkpt lat="45.00665" lon="5.29634">
        <ele>333</ele>
        <time>2019-12-31T14:32:24.007Z</time>
      </trkpt>
      <trkpt lat="45.00666" lon="5.29641">
        <ele>333</ele>
        <time>2019-12-31T14:32:25.007Z</time>
      </trkpt>
      <trkpt lat="45.00667" lon="5.29648">
        <ele>333</ele>
        <time>2019-12-31T14:32:26.007Z</time>
      </trkpt>
      <trkpt lat="45.00668" lon="5.29655">
        <ele>333</ele>
        <time>2019-12-31T14:32:27.007Z</time>
      </trkpt>
      <trkpt lat="45.0067" lon="5.29662">
        <ele>333</ele>
        <time>2019-12-31T14:32:28.007Z</time>
      </trkpt>
      <trkpt lat="45.00672" lon="5.29667">
        <ele>333</ele>
        <time>2019-12-31T14:32:29.007Z</time>
      </trkpt>
      <trkpt lat="45.00675" lon="5.29673">
        <ele>333</ele>
        <time>2019-12-31T14:32:30.007Z</time>
      </trkpt>
      <trkpt lat="45.00679" lon="5.29678">
        <ele>333.2370048</ele>
        <time>2019-12-31T14:32:31.007Z</time>
      </trkpt>
      <trkpt lat="45.00682" lon="5.29682">
        <ele>334</ele>
        <time>2019-12-31T14:32:32.007Z</time>
      </trkpt>
      <trkpt lat="45.00686" lon="5.29686">
        <ele>334</ele>
        <time>2019-12-31T14:32:33.007Z</time>
      </trkpt>
      <trkpt lat="45.0069" lon="5.2969">
        <ele>334</ele>
        <time>2019-12-31T14:32:34.007Z</time>
      </trkpt>
      <trkpt lat="45.00695" lon="5.29695">
        <ele>334</ele>
        <time>2019-12-31T14:32:35.007Z</time>
      </trkpt>
      <trkpt lat="45.00699" lon="5.29699">
        <ele>334</ele>
        <time>2019-12-31T14:32:36.007Z</time>
      </trkpt>
      <trkpt lat="45.00704" lon="5.29703">
        <ele>334</ele>
        <time>2019-12-31T14:32:37.007Z</time>
      </trkpt>
      <trkpt lat="45.00708" lon="5.29707">
        <ele>334</ele>
        <time>2019-12-31T14:32:38.007Z</time>
      </trkpt>
      <trkpt lat="45.00712" lon="5.29712">
        <ele>334</ele>
        <time>2019-12-31T14:32:39.007Z</time>
      </trkpt>
      <trkpt lat="45.00716" lon="5.29716">
        <ele>334</ele>
        <time>2019-12-31T14:32:40.007Z</time>
      </trkpt>
      <trkpt lat="45.0072" lon="5.29721">
        <ele>334.22929030423</ele>
        <time>2019-12-31T14:32:41.007Z</time>
      </trkpt>
      <trkpt lat="45.00723" lon="5.29727">
        <ele>335</ele>
        <time>2019-12-31T14:32:42.007Z</time>
      </trkpt>
      <trkpt lat="45.00726" lon="5.29732">
        <ele>335</ele>
        <time>2019-12-31T14:32:43.007Z</time>
      </trkpt>
      <trkpt lat="45.00728" lon="5.29738">
        <ele>335</ele>
        <time>2019-12-31T14:32:44.007Z</time>
      </trkpt>
      <trkpt lat="45.0073" lon="5.29744">
        <ele>335</ele>
        <time>2019-12-31T14:32:45.007Z</time>
      </trkpt>
      <trkpt lat="45.00732" lon="5.2975">
        <ele>335</ele>
        <time>2019-12-31T14:32:46.007Z</time>
      </trkpt>
      <trkpt lat="45.00734" lon="5.29756">
        <ele>335</ele>
        <time>2019-12-31T14:32:47.007Z</time>
      </trkpt>
      <trkpt lat="45.00735" lon="5.29761">
        <ele>335</ele>
        <time>2019-12-31T14:32:48.007Z</time>
      </trkpt>
      <trkpt lat="45.00737" lon="5.29767">
        <ele>335</ele>
        <time>2019-12-31T14:32:49.007Z</time>
      </trkpt>
      <trkpt lat="45.00738" lon="5.29772">
        <ele>335</ele>
        <time>2019-12-31T14:32:50.007Z</time>
      </trkpt>
      <trkpt lat="45.00739" lon="5.29778">
        <ele>335.2370048</ele>
        <time>2019-12-31T14:32:51.007Z</time>
      </trkpt>
      <trkpt lat="45.0074" lon="5.29783">
        <ele>336</ele>
        <time>2019-12-31T14:32:52.007Z</time>
      </trkpt>
      <trkpt lat="45.00743" lon="5.29794">
        <ele>336</ele>
        <time>2019-12-31T14:32:54.007Z</time>
      </trkpt>
      <trkpt lat="45.00745" lon="5.29804">
        <ele>336</ele>
        <time>2019-12-31T14:32:56.007Z</time>
      </trkpt>
      <trkpt lat="45.00748" lon="5.29814">
        <ele>336</ele>
        <time>2019-12-31T14:32:58.007Z</time>
      </trkpt>
      <trkpt lat="45.0075" lon="5.29824">
        <ele>336</ele>
        <time>2019-12-31T14:33:00.007Z</time>
      </trkpt>
      <trkpt lat="45.00752" lon="5.29828">
        <ele>336.9480192</ele>
        <time>2019-12-31T14:33:01.007Z</time>
      </trkpt>
      <trkpt lat="45.00756" lon="5.29837">
        <ele>340</ele>
        <time>2019-12-31T14:33:03.007Z</time>
      </trkpt>
      <trkpt lat="45.0076" lon="5.29847">
        <ele>340</ele>
        <time>2019-12-31T14:33:05.007Z</time>
      </trkpt>
      <trkpt lat="45.00762" lon="5.29851">
        <ele>340</ele>
        <time>2019-12-31T14:33:06.007Z</time>
      </trkpt>
      <trkpt lat="45.00764" lon="5.29855">
        <ele>340</ele>
        <time>2019-12-31T14:33:07.007Z</time>
      </trkpt>
      <trkpt lat="45.00766" lon="5.29853">
        <ele>340</ele>
        <time>2019-12-31T14:33:59.007Z</time>
      </trkpt>
      <trkpt lat="45.00771" lon="5.29857">
        <ele>340</ele>
        <time>2019-12-31T14:35:00.007Z</time>
      </trkpt>
      <trkpt lat="45.00774" lon="5.29862">
        <ele>340</ele>
        <time>2019-12-31T14:35:02.007Z</time>
      </trkpt>
      <trkpt lat="45.00779" lon="5.29867">
        <ele>340</ele>
        <time>2019-12-31T14:35:04.007Z</time>
      </trkpt>
      <trkpt lat="45.00785" lon="5.29873">
        <ele>340</ele>
        <time>2019-12-31T14:35:06.007Z</time>
      </trkpt>
      <trkpt lat="45.0079" lon="5.2988">
        <ele>340</ele>
        <time>2019-12-31T14:35:08.007Z</time>
      </trkpt>
      <trkpt lat="45.00794" lon="5.2989">
        <ele>340</ele>
        <time>2019-12-31T14:35:10.007Z</time>
      </trkpt>
      <trkpt lat="45.00798" lon="5.29902">
        <ele>340</ele>
        <time>2019-12-31T14:35:12.007Z</time>
      </trkpt>
      <trkpt lat="45.00801" lon="5.29914">
        <ele>340</ele>
        <time>2019-12-31T14:35:14.007Z</time>
      </trkpt>
      <trkpt lat="45.00802" lon="5.29919">
        <ele>340</ele>
        <time>2019-12-31T14:35:15.007Z</time>
      </trkpt>
      <trkpt lat="45.00804" lon="5.29925">
        <ele>340</ele>
        <time>2019-12-31T14:35:16.007Z</time>
      </trkpt>
      <trkpt lat="45.00809" lon="5.29935">
        <ele>340</ele>
        <time>2019-12-31T14:35:18.007Z</time>
      </trkpt>
      <trkpt lat="45.00815" lon="5.29941">
        <ele>340</ele>
        <time>2019-12-31T14:35:20.007Z</time>
      </trkpt>
      <trkpt lat="45.00821" lon="5.29945">
        <ele>340</ele>
        <time>2019-12-31T14:35:22.007Z</time>
      </trkpt>
      <trkpt lat="45.00827" lon="5.29948">
        <ele>340</ele>
        <time>2019-12-31T14:35:24.007Z</time>
      </trkpt>
      <trkpt lat="45.00832" lon="5.29952">
        <ele>340</ele>
        <time>2019-12-31T14:35:26.007Z</time>
      </trkpt>
      <trkpt lat="45.00837" lon="5.29958">
        <ele>340</ele>
        <time>2019-12-31T14:35:28.007Z</time>
      </trkpt>
      <trkpt lat="45.00841" lon="5.29964">
        <ele>340</ele>
        <time>2019-12-31T14:35:30.007Z</time>
      </trkpt>
      <trkpt lat="45.00846" lon="5.29973">
        <ele>343</ele>
        <time>2019-12-31T14:35:33.007Z</time>
      </trkpt>
      <trkpt lat="45.0085" lon="5.29979">
        <ele>343.7110144</ele>
        <time>2019-12-31T14:35:36.007Z</time>
      </trkpt>
      <trkpt lat="45.00848" lon="5.2999">
        <ele>347</ele>
        <time>2019-12-31T14:35:43.007Z</time>
      </trkpt>
      <trkpt lat="45.00845" lon="5.29999">
        <ele>349</ele>
        <time>2019-12-31T14:35:49.007Z</time>
      </trkpt>
      <trkpt lat="45.00839" lon="5.30008">
        <ele>350</ele>
        <time>2019-12-31T14:35:55.007Z</time>
      </trkpt>
      <trkpt lat="45.00834" lon="5.30017">
        <ele>352.2370048</ele>
        <time>2019-12-31T14:36:01.007Z</time>
      </trkpt>
      <trkpt lat="45.00829" lon="5.30026">
        <ele>353.4740096</ele>
        <time>2019-12-31T14:36:06.007Z</time>
      </trkpt>
      <trkpt lat="45.0082" lon="5.30035">
        <ele>357</ele>
        <time>2019-12-31T14:36:14.007Z</time>
      </trkpt>
      <trkpt lat="45.00813" lon="5.30045">
        <ele>358.2370048</ele>
        <time>2019-12-31T14:36:31.007Z</time>
      </trkpt>
      <trkpt lat="45.00807" lon="5.30056">
        <ele>361</ele>
        <time>2019-12-31T14:36:49.007Z</time>
      </trkpt>
      <trkpt lat="45.00798" lon="5.30063">
        <ele>365</ele>
        <time>2019-12-31T14:37:02.007Z</time>
      </trkpt>
      <trkpt lat="45.00793" lon="5.30073">
        <ele>367</ele>
        <time>2019-12-31T14:37:12.007Z</time>
      </trkpt>
      <trkpt lat="45.0079" lon="5.30081">
        <ele>367</ele>
        <time>2019-12-31T14:37:26.007Z</time>
      </trkpt>
      <trkpt lat="45.0078" lon="5.30086">
        <ele>371</ele>
        <time>2019-12-31T14:37:52.007Z</time>
      </trkpt>
      <trkpt lat="45.00769" lon="5.30091">
        <ele>371.7110144</ele>
        <time>2019-12-31T14:38:01.007Z</time>
      </trkpt>
      <trkpt lat="45.0076" lon="5.30097">
        <ele>375</ele>
        <time>2019-12-31T14:38:09.007Z</time>
      </trkpt>
      <trkpt lat="45.00751" lon="5.30099">
        <ele>376</ele>
        <time>2019-12-31T14:38:42.007Z</time>
      </trkpt>
      <trkpt lat="45.00741" lon="5.3009">
        <ele>376</ele>
        <time>2019-12-31T14:38:49.007Z</time>
      </trkpt>
      <trkpt lat="45.00739" lon="5.30076">
        <ele>377</ele>
        <time>2019-12-31T14:38:54.007Z</time>
      </trkpt>
      <trkpt lat="45.00738" lon="5.30061">
        <ele>377</ele>
        <time>2019-12-31T14:38:59.007Z</time>
      </trkpt>
      <trkpt lat="45.00736" lon="5.30047">
        <ele>378</ele>
        <time>2019-12-31T14:39:04.007Z</time>
      </trkpt>
      <trkpt lat="45.00729" lon="5.30034">
        <ele>378</ele>
        <time>2019-12-31T14:39:09.007Z</time>
      </trkpt>
      <trkpt lat="45.00725" lon="5.30019">
        <ele>380</ele>
        <time>2019-12-31T14:39:14.007Z</time>
      </trkpt>
      <trkpt lat="45.0072" lon="5.30006">
        <ele>380</ele>
        <time>2019-12-31T14:39:19.007Z</time>
      </trkpt>
      <trkpt lat="45.00714" lon="5.29993">
        <ele>382</ele>
        <time>2019-12-31T14:39:23.007Z</time>
      </trkpt>
      <trkpt lat="45.00709" lon="5.29977">
        <ele>382</ele>
        <time>2019-12-31T14:39:28.007Z</time>
      </trkpt>
      <trkpt lat="45.00702" lon="5.29963">
        <ele>384</ele>
        <time>2019-12-31T14:39:33.007Z</time>
      </trkpt>
      <trkpt lat="45.00696" lon="5.29952">
        <ele>385</ele>
        <time>2019-12-31T14:39:37.007Z</time>
      </trkpt>
      <trkpt lat="45.0069" lon="5.29945">
        <ele>385</ele>
        <time>2019-12-31T14:39:40.007Z</time>
      </trkpt>
      <trkpt lat="45.00685" lon="5.29937">
        <ele>387</ele>
        <time>2019-12-31T14:39:43.007Z</time>
      </trkpt>
      <trkpt lat="45.0068" lon="5.29929">
        <ele>387.2370048</ele>
        <time>2019-12-31T14:39:46.007Z</time>
      </trkpt>
      <trkpt lat="45.00676" lon="5.29921">
        <ele>388</ele>
        <time>2019-12-31T14:39:49.007Z</time>
      </trkpt>
      <trkpt lat="45.00672" lon="5.29912">
        <ele>389</ele>
        <time>2019-12-31T14:39:52.007Z</time>
      </trkpt>
      <trkpt lat="45.00668" lon="5.29904">
        <ele>389</ele>
        <time>2019-12-31T14:39:55.007Z</time>
      </trkpt>
      <trkpt lat="45.00665" lon="5.29895">
        <ele>389</ele>
        <time>2019-12-31T14:39:58.007Z</time>
      </trkpt>
      <trkpt lat="45.00659" lon="5.29887">
        <ele>389.46931792259</ele>
        <time>2019-12-31T14:40:01.007Z</time>
      </trkpt>
      <trkpt lat="45.00654" lon="5.2988">
        <ele>391</ele>
        <time>2019-12-31T14:40:04.007Z</time>
      </trkpt>
      <trkpt lat="45.00647" lon="5.29873">
        <ele>391</ele>
        <time>2019-12-31T14:40:07.007Z</time>
      </trkpt>
      <trkpt lat="45.00643" lon="5.29868">
        <ele>391</ele>
        <time>2019-12-31T14:40:09.007Z</time>
      </trkpt>
      <trkpt lat="45.00637" lon="5.29863">
        <ele>392</ele>
        <time>2019-12-31T14:40:12.007Z</time>
      </trkpt>
      <trkpt lat="45.00632" lon="5.29859">
        <ele>393</ele>
        <time>2019-12-31T14:40:14.007Z</time>
      </trkpt>
      <trkpt lat="45.00628" lon="5.29856">
        <ele>393</ele>
        <time>2019-12-31T14:40:16.007Z</time>
      </trkpt>
      <trkpt lat="45.00619" lon="5.29848">
        <ele>393</ele>
        <time>2019-12-31T14:40:20.007Z</time>
      </trkpt>
      <trkpt lat="45.00614" lon="5.29841">
        <ele>395</ele>
        <time>2019-12-31T14:40:23.007Z</time>
      </trkpt>
      <trkpt lat="45.00609" lon="5.29833">
        <ele>395.4740096</ele>
        <time>2019-12-31T14:40:26.007Z</time>
      </trkpt>
      <trkpt lat="45.00604" lon="5.29825">
        <ele>397</ele>
        <time>2019-12-31T14:40:29.007Z</time>
      </trkpt>
      <trkpt lat="45.00599" lon="5.29818">
        <ele>398</ele>
        <time>2019-12-31T14:40:32.007Z</time>
      </trkpt>
      <trkpt lat="45.00593" lon="5.29817">
        <ele>398</ele>
        <time>2019-12-31T14:40:35.007Z</time>
      </trkpt>
      <trkpt lat="45.00593" lon="5.29826">
        <ele>399</ele>
        <time>2019-12-31T14:40:38.007Z</time>
      </trkpt>
      <trkpt lat="45.00597" lon="5.29831">
        <ele>399</ele>
        <time>2019-12-31T14:40:40.007Z</time>
      </trkpt>
      <trkpt lat="45.006" lon="5.29837">
        <ele>400</ele>
        <time>2019-12-31T14:40:42.007Z</time>
      </trkpt>
      <trkpt lat="45.00603" lon="5.29842">
        <ele>400</ele>
        <time>2019-12-31T14:40:44.007Z</time>
      </trkpt>
      <trkpt lat="45.00607" lon="5.29849">
        <ele>400</ele>
        <time>2019-12-31T14:40:46.007Z</time>
      </trkpt>
      <trkpt lat="45.00611" lon="5.29855">
        <ele>400</ele>
        <time>2019-12-31T14:40:48.007Z</time>
      </trkpt>
      <trkpt lat="45.00616" lon="5.29864">
        <ele>400.2370048</ele>
        <time>2019-12-31T14:40:51.007Z</time>
      </trkpt>
      <trkpt lat="45.00622" lon="5.29873">
        <ele>401</ele>
        <time>2019-12-31T14:40:55.007Z</time>
      </trkpt>
      <trkpt lat="45.00627" lon="5.2988">
        <ele>401</ele>
        <time>2019-12-31T14:40:58.007Z</time>
      </trkpt>
      <trkpt lat="45.00633" lon="5.29889">
        <ele>401.4740096</ele>
        <time>2019-12-31T14:41:01.007Z</time>
      </trkpt>
      <trkpt lat="45.00638" lon="5.29899">
        <ele>403</ele>
        <time>2019-12-31T14:41:04.007Z</time>
      </trkpt>
      <trkpt lat="45.00642" lon="5.29906">
        <ele>403</ele>
        <time>2019-12-31T14:41:06.007Z</time>
      </trkpt>
      <trkpt lat="45.00645" lon="5.29917">
        <ele>403</ele>
        <time>2019-12-31T14:41:09.007Z</time>
      </trkpt>
      <trkpt lat="45.00648" lon="5.29927">
        <ele>405</ele>
        <time>2019-12-31T14:41:12.007Z</time>
      </trkpt>
      <trkpt lat="45.00651" lon="5.29938">
        <ele>405</ele>
        <time>2019-12-31T14:41:15.007Z</time>
      </trkpt>
      <trkpt lat="45.00654" lon="5.29948">
        <ele>405</ele>
        <time>2019-12-31T14:41:18.007Z</time>
      </trkpt>
      <trkpt lat="45.00657" lon="5.29958">
        <ele>405.45858060846</ele>
        <time>2019-12-31T14:41:21.007Z</time>
      </trkpt>
      <trkpt lat="45.00662" lon="5.29971">
        <ele>407.4740096</ele>
        <time>2019-12-31T14:41:26.007Z</time>
      </trkpt>
      <trkpt lat="45.00665" lon="5.29982">
        <ele>409</ele>
        <time>2019-12-31T14:41:29.007Z</time>
      </trkpt>
      <trkpt lat="45.00668" lon="5.29996">
        <ele>410</ele>
        <time>2019-12-31T14:41:33.007Z</time>
      </trkpt>
      <trkpt lat="45.0067" lon="5.30011">
        <ele>412</ele>
        <time>2019-12-31T14:41:38.007Z</time>
      </trkpt>
      <trkpt lat="45.0067" lon="5.30026">
        <ele>413</ele>
        <time>2019-12-31T14:41:43.007Z</time>
      </trkpt>
      <trkpt lat="45.00673" lon="5.30041">
        <ele>415</ele>
        <time>2019-12-31T14:41:48.007Z</time>
      </trkpt>
      <trkpt lat="45.00672" lon="5.30054">
        <ele>417</ele>
        <time>2019-12-31T14:41:52.007Z</time>
      </trkpt>
      <trkpt lat="45.00668" lon="5.30066">
        <ele>417.2370048</ele>
        <time>2019-12-31T14:41:56.007Z</time>
      </trkpt>
      <trkpt lat="45.00667" lon="5.30078">
        <ele>418</ele>
        <time>2019-12-31T14:42:00.007Z</time>
      </trkpt>
      <trkpt lat="45.00665" lon="5.3009">
        <ele>419</ele>
        <time>2019-12-31T14:42:04.007Z</time>
      </trkpt>
      <trkpt lat="45.00661" lon="5.30102">
        <ele>421</ele>
        <time>2019-12-31T14:42:08.007Z</time>
      </trkpt>
      <trkpt lat="45.00659" lon="5.30115">
        <ele>422</ele>
        <time>2019-12-31T14:42:12.007Z</time>
      </trkpt>
      <trkpt lat="45.00656" lon="5.30126">
        <ele>422.46471237828</ele>
        <time>2019-12-31T14:42:16.007Z</time>
      </trkpt>
      <trkpt lat="45.00651" lon="5.30141">
        <ele>424.2370048</ele>
        <time>2019-12-31T14:42:21.007Z</time>
      </trkpt>
      <trkpt lat="45.00647" lon="5.30153">
        <ele>425.2370048</ele>
        <time>2019-12-31T14:42:26.007Z</time>
      </trkpt>
      <trkpt lat="45.00645" lon="5.30168">
        <ele>426</ele>
        <time>2019-12-31T14:42:32.007Z</time>
      </trkpt>
      <trkpt lat="45.00645" lon="5.30183">
        <ele>426</ele>
        <time>2019-12-31T14:42:37.007Z</time>
      </trkpt>
      <trkpt lat="45.00644" lon="5.30197">
        <ele>429</ele>
        <time>2019-12-31T14:42:42.007Z</time>
      </trkpt>
      <trkpt lat="45.00642" lon="5.30211">
        <ele>432</ele>
        <time>2019-12-31T14:42:47.007Z</time>
      </trkpt>
      <trkpt lat="45.00642" lon="5.30225">
        <ele>432</ele>
        <time>2019-12-31T14:42:52.007Z</time>
      </trkpt>
      <trkpt lat="45.00642" lon="5.3024">
        <ele>433</ele>
        <time>2019-12-31T14:42:57.007Z</time>
      </trkpt>
      <trkpt lat="45.00642" lon="5.30256">
        <ele>434</ele>
        <time>2019-12-31T14:43:02.007Z</time>
      </trkpt>
      <trkpt lat="45.0064" lon="5.30271">
        <ele>434</ele>
        <time>2019-12-31T14:43:07.007Z</time>
      </trkpt>
      <trkpt lat="45.00638" lon="5.30285">
        <ele>434.4740096</ele>
        <time>2019-12-31T14:43:11.007Z</time>
      </trkpt>
      <trkpt lat="45.00635" lon="5.30298">
        <ele>436</ele>
        <time>2019-12-31T14:43:15.007Z</time>
      </trkpt>
      <trkpt lat="45.00629" lon="5.3031">
        <ele>436</ele>
        <time>2019-12-31T14:43:19.007Z</time>
      </trkpt>
      <trkpt lat="45.00626" lon="5.30324">
        <ele>438</ele>
        <time>2019-12-31T14:43:23.007Z</time>
      </trkpt>
      <trkpt lat="45.00623" lon="5.30335">
        <ele>438</ele>
        <time>2019-12-31T14:43:27.007Z</time>
      </trkpt>
      <trkpt lat="45.00616" lon="5.30346">
        <ele>438.4740096</ele>
        <time>2019-12-31T14:43:31.007Z</time>
      </trkpt>
      <trkpt lat="45.0061" lon="5.30354">
        <ele>440</ele>
        <time>2019-12-31T14:43:35.007Z</time>
      </trkpt>
      <trkpt lat="45.00601" lon="5.3036">
        <ele>443</ele>
        <time>2019-12-31T14:43:39.007Z</time>
      </trkpt>
      <trkpt lat="45.0059" lon="5.30363">
        <ele>444</ele>
        <time>2019-12-31T14:43:43.007Z</time>
      </trkpt>
      <trkpt lat="45.00581" lon="5.30364">
        <ele>445</ele>
        <time>2019-12-31T14:43:47.007Z</time>
      </trkpt>
      <trkpt lat="45.00572" lon="5.30368">
        <ele>447</ele>
        <time>2019-12-31T14:43:52.007Z</time>
      </trkpt>
      <trkpt lat="45.00564" lon="5.30372">
        <ele>447.4740096</ele>
        <time>2019-12-31T14:43:56.007Z</time>
      </trkpt>
      <trkpt lat="45.00555" lon="5.30378">
        <ele>449.4740096</ele>
        <time>2019-12-31T14:44:01.007Z</time>
      </trkpt>
      <trkpt lat="45.00545" lon="5.30386">
        <ele>451.2370048</ele>
        <time>2019-12-31T14:44:06.007Z</time>
      </trkpt>
      <trkpt lat="45.00537" lon="5.30395">
        <ele>452.4740096</ele>
        <time>2019-12-31T14:44:11.007Z</time>
      </trkpt>
      <trkpt lat="45.00532" lon="5.30407">
        <ele>454.2370048</ele>
        <time>2019-12-31T14:44:16.007Z</time>
      </trkpt>
      <trkpt lat="45.00537" lon="5.3042">
        <ele>456</ele>
        <time>2019-12-31T14:44:23.007Z</time>
      </trkpt>
      <trkpt lat="45.00547" lon="5.30426">
        <ele>456</ele>
        <time>2019-12-31T14:44:28.007Z</time>
      </trkpt>
      <trkpt lat="45.00555" lon="5.30435">
        <ele>457</ele>
        <time>2019-12-31T14:44:35.007Z</time>
      </trkpt>
      <trkpt lat="45.00564" lon="5.30444">
        <ele>457</ele>
        <time>2019-12-31T14:44:40.007Z</time>
      </trkpt>
      <trkpt lat="45.00568" lon="5.30459">
        <ele>462</ele>
        <time>2019-12-31T14:44:45.007Z</time>
      </trkpt>
      <trkpt lat="45.00564" lon="5.30475">
        <ele>463</ele>
        <time>2019-12-31T14:44:50.007Z</time>
      </trkpt>
      <trkpt lat="45.00562" lon="5.30491">
        <ele>464.2370048</ele>
        <time>2019-12-31T14:44:56.007Z</time>
      </trkpt>
      <trkpt lat="45.00557" lon="5.30506">
        <ele>467</ele>
        <time>2019-12-31T14:45:02.007Z</time>
      </trkpt>
      <trkpt lat="45.00552" lon="5.30521">
        <ele>469</ele>
        <time>2019-12-31T14:45:07.007Z</time>
      </trkpt>
      <trkpt lat="45.00549" lon="5.30536">
        <ele>469</ele>
        <time>2019-12-31T14:45:12.007Z</time>
      </trkpt>
      <trkpt lat="45.00547" lon="5.3055">
        <ele>471</ele>
        <time>2019-12-31T14:45:17.007Z</time>
      </trkpt>
      <trkpt lat="45.00547" lon="5.30565">
        <ele>473</ele>
        <time>2019-12-31T14:45:22.007Z</time>
      </trkpt>
      <trkpt lat="45.00549" lon="5.30578">
        <ele>474</ele>
        <time>2019-12-31T14:45:27.007Z</time>
      </trkpt>
      <trkpt lat="45.00557" lon="5.30588">
        <ele>475</ele>
        <time>2019-12-31T14:45:32.007Z</time>
      </trkpt>
      <trkpt lat="45.00566" lon="5.30596">
        <ele>477</ele>
        <time>2019-12-31T14:45:38.007Z</time>
      </trkpt>
      <trkpt lat="45.00575" lon="5.30607">
        <ele>478</ele>
        <time>2019-12-31T14:45:44.007Z</time>
      </trkpt>
      <trkpt lat="45.00583" lon="5.30619">
        <ele>480</ele>
        <time>2019-12-31T14:45:49.007Z</time>
      </trkpt>
      <trkpt lat="45.0059" lon="5.30629">
        <ele>481</ele>
        <time>2019-12-31T14:45:54.007Z</time>
      </trkpt>
      <trkpt lat="45.00599" lon="5.30637">
        <ele>483.45858060846</ele>
        <time>2019-12-31T14:46:01.007Z</time>
      </trkpt>
      <trkpt lat="45.00609" lon="5.30642">
        <ele>486</ele>
        <time>2019-12-31T14:46:07.007Z</time>
      </trkpt>
      <trkpt lat="45.00619" lon="5.30648">
        <ele>488</ele>
        <time>2019-12-31T14:46:13.007Z</time>
      </trkpt>
      <trkpt lat="45.00629" lon="5.30654">
        <ele>488</ele>
        <time>2019-12-31T14:46:18.007Z</time>
      </trkpt>
      <trkpt lat="45.00635" lon="5.30658">
        <ele>488.4740096</ele>
        <time>2019-12-31T14:46:21.007Z</time>
      </trkpt>
      <trkpt lat="45.00644" lon="5.30663">
        <ele>490</ele>
        <time>2019-12-31T14:46:25.007Z</time>
      </trkpt>
      <trkpt lat="45.00652" lon="5.30666">
        <ele>491</ele>
        <time>2019-12-31T14:46:29.007Z</time>
      </trkpt>
      <trkpt lat="45.00661" lon="5.30669">
        <ele>493</ele>
        <time>2019-12-31T14:46:34.007Z</time>
      </trkpt>
      <trkpt lat="45.00671" lon="5.30673">
        <ele>495</ele>
        <time>2019-12-31T14:46:40.007Z</time>
      </trkpt>
      <trkpt lat="45.00678" lon="5.30677">
        <ele>495</ele>
        <time>2019-12-31T14:46:44.007Z</time>
      </trkpt>
      <trkpt lat="45.00686" lon="5.3068">
        <ele>497</ele>
        <time>2019-12-31T14:46:50.007Z</time>
      </trkpt>
      <trkpt lat="45.00693" lon="5.30682">
        <ele>500</ele>
        <time>2019-12-31T14:47:02.007Z</time>
      </trkpt>
      <trkpt lat="45.00701" lon="5.30681">
        <ele>500</ele>
        <time>2019-12-31T14:48:02.007Z</time>
      </trkpt>
      <trkpt lat="45.00705" lon="5.30684">
        <ele>500</ele>
        <time>2019-12-31T14:48:21.007Z</time>
      </trkpt>
      <trkpt lat="45.00712" lon="5.30681">
        <ele>500</ele>
        <time>2019-12-31T14:48:49.007Z</time>
      </trkpt>
      <trkpt lat="45.0072" lon="5.30684">
        <ele>501</ele>
        <time>2019-12-31T14:48:54.007Z</time>
      </trkpt>
      <trkpt lat="45.00728" lon="5.30687">
        <ele>501</ele>
        <time>2019-12-31T14:48:59.007Z</time>
      </trkpt>
      <trkpt lat="45.00737" lon="5.3069">
        <ele>505</ele>
        <time>2019-12-31T14:49:04.007Z</time>
      </trkpt>
      <trkpt lat="45.00743" lon="5.30691">
        <ele>506</ele>
        <time>2019-12-31T14:49:07.007Z</time>
      </trkpt>
      <trkpt lat="45.00749" lon="5.30692">
        <ele>506</ele>
        <time>2019-12-31T14:49:10.007Z</time>
      </trkpt>
      <trkpt lat="45.00755" lon="5.30693">
        <ele>508</ele>
        <time>2019-12-31T14:49:13.007Z</time>
      </trkpt>
      <trkpt lat="45.0076" lon="5.30694">
        <ele>508.23465598743</ele>
        <time>2019-12-31T14:49:16.007Z</time>
      </trkpt>
      <trkpt lat="45.00767" lon="5.30695">
        <ele>509</ele>
        <time>2019-12-31T14:49:20.007Z</time>
      </trkpt>
      <trkpt lat="45.00773" lon="5.30696">
        <ele>511</ele>
        <time>2019-12-31T14:49:24.007Z</time>
      </trkpt>
      <trkpt lat="45.00781" lon="5.30697">
        <ele>512</ele>
        <time>2019-12-31T14:49:28.007Z</time>
      </trkpt>
      <trkpt lat="45.00788" lon="5.30697">
        <ele>514</ele>
        <time>2019-12-31T14:49:32.007Z</time>
      </trkpt>
      <trkpt lat="45.00794" lon="5.30696">
        <ele>514</ele>
        <time>2019-12-31T14:49:35.007Z</time>
      </trkpt>
      <trkpt lat="45.008" lon="5.30696">
        <ele>516</ele>
        <time>2019-12-31T14:49:38.007Z</time>
      </trkpt>
      <trkpt lat="45.00806" lon="5.30695">
        <ele>516.2370048</ele>
        <time>2019-12-31T14:49:41.007Z</time>
      </trkpt>
      <trkpt lat="45.0081" lon="5.30692">
        <ele>517</ele>
        <time>2019-12-31T14:49:44.007Z</time>
      </trkpt>
      <trkpt lat="45.00817" lon="5.3069">
        <ele>518</ele>
        <time>2019-12-31T14:49:48.007Z</time>
      </trkpt>
      <trkpt lat="45.00824" lon="5.30687">
        <ele>520</ele>
        <time>2019-12-31T14:49:52.007Z</time>
      </trkpt>
      <trkpt lat="45.00834" lon="5.30682">
        <ele>521</ele>
        <time>2019-12-31T14:49:57.007Z</time>
      </trkpt>
      <trkpt lat="45.00841" lon="5.30679">
        <ele>521.4740096</ele>
        <time>2019-12-31T14:50:01.007Z</time>
      </trkpt>
      <trkpt lat="45.00845" lon="5.30674">
        <ele>523</ele>
        <time>2019-12-31T14:50:04.007Z</time>
      </trkpt>
      <trkpt lat="45.00849" lon="5.30669">
        <ele>524</ele>
        <time>2019-12-31T14:50:07.007Z</time>
      </trkpt>
      <trkpt lat="45.00855" lon="5.30661">
        <ele>524</ele>
        <time>2019-12-31T14:50:12.007Z</time>
      </trkpt>
      <trkpt lat="45.00862" lon="5.30656">
        <ele>524</ele>
        <time>2019-12-31T14:50:17.007Z</time>
      </trkpt>
      <trkpt lat="45.0087" lon="5.30652">
        <ele>527</ele>
        <time>2019-12-31T14:50:22.007Z</time>
      </trkpt>
      <trkpt lat="45.00878" lon="5.30648">
        <ele>529</ele>
        <time>2019-12-31T14:50:27.007Z</time>
      </trkpt>
      <trkpt lat="45.00886" lon="5.30645">
        <ele>529</ele>
        <time>2019-12-31T14:50:32.007Z</time>
      </trkpt>
      <trkpt lat="45.00894" lon="5.30643">
        <ele>529</ele>
        <time>2019-12-31T14:50:36.007Z</time>
      </trkpt>
      <trkpt lat="45.00901" lon="5.30642">
        <ele>529</ele>
        <time>2019-12-31T14:50:40.007Z</time>
      </trkpt>
      <trkpt lat="45.00907" lon="5.30642">
        <ele>530</ele>
        <time>2019-12-31T14:50:43.007Z</time>
      </trkpt>
      <trkpt lat="45.00914" lon="5.30644">
        <ele>530</ele>
        <time>2019-12-31T14:50:47.007Z</time>
      </trkpt>
      <trkpt lat="45.00922" lon="5.30647">
        <ele>530.4740096</ele>
        <time>2019-12-31T14:50:51.007Z</time>
      </trkpt>
      <trkpt lat="45.00928" lon="5.30651">
        <ele>532</ele>
        <time>2019-12-31T14:50:54.007Z</time>
      </trkpt>
      <trkpt lat="45.00933" lon="5.30657">
        <ele>532</ele>
        <time>2019-12-31T14:50:57.007Z</time>
      </trkpt>
      <trkpt lat="45.00937" lon="5.30663">
        <ele>532</ele>
        <time>2019-12-31T14:50:59.007Z</time>
      </trkpt>
      <trkpt lat="45.00939" lon="5.30669">
        <ele>532.2370048</ele>
        <time>2019-12-31T14:51:01.007Z</time>
      </trkpt>
      <trkpt lat="45.00941" lon="5.30676">
        <ele>533</ele>
        <time>2019-12-31T14:51:03.007Z</time>
      </trkpt>
      <trkpt lat="45.00942" lon="5.30685">
        <ele>533</ele>
        <time>2019-12-31T14:51:06.007Z</time>
      </trkpt>
      <trkpt lat="45.00942" lon="5.30692">
        <ele>533</ele>
        <time>2019-12-31T14:51:08.007Z</time>
      </trkpt>
      <trkpt lat="45.00941" lon="5.30698">
        <ele>533</ele>
        <time>2019-12-31T14:51:10.007Z</time>
      </trkpt>
      <trkpt lat="45.00939" lon="5.30704">
        <ele>534</ele>
        <time>2019-12-31T14:51:12.007Z</time>
      </trkpt>
      <trkpt lat="45.00938" lon="5.3071">
        <ele>534</ele>
        <time>2019-12-31T14:51:14.007Z</time>
      </trkpt>
      <trkpt lat="45.00936" lon="5.30715">
        <ele>534</ele>
        <time>2019-12-31T14:51:16.007Z</time>
      </trkpt>
      <trkpt lat="45.00932" lon="5.30724">
        <ele>534</ele>
        <time>2019-12-31T14:51:19.007Z</time>
      </trkpt>
      <trkpt lat="45.00929" lon="5.30732">
        <ele>536</ele>
        <time>2019-12-31T14:51:22.007Z</time>
      </trkpt>
      <trkpt lat="45.00927" lon="5.30737">
        <ele>536</ele>
        <time>2019-12-31T14:51:24.007Z</time>
      </trkpt>
      <trkpt lat="45.00923" lon="5.30745">
        <ele>536</ele>
        <time>2019-12-31T14:51:27.007Z</time>
      </trkpt>
      <trkpt lat="45.00919" lon="5.30753">
        <ele>536</ele>
        <time>2019-12-31T14:51:30.007Z</time>
      </trkpt>
      <trkpt lat="45.00916" lon="5.30761">
        <ele>537</ele>
        <time>2019-12-31T14:51:33.007Z</time>
      </trkpt>
      <trkpt lat="45.00913" lon="5.30766">
        <ele>537</ele>
        <time>2019-12-31T14:51:35.007Z</time>
      </trkpt>
      <trkpt lat="45.00911" lon="5.30772">
        <ele>537</ele>
        <time>2019-12-31T14:51:37.007Z</time>
      </trkpt>
      <trkpt lat="45.0091" lon="5.30778">
        <ele>537</ele>
        <time>2019-12-31T14:51:39.007Z</time>
      </trkpt>
      <trkpt lat="45.00909" lon="5.30784">
        <ele>537.7110144</ele>
        <time>2019-12-31T14:51:41.007Z</time>
      </trkpt>
      <trkpt lat="45.00909" lon="5.3079">
        <ele>540</ele>
        <time>2019-12-31T14:51:43.007Z</time>
      </trkpt>
      <trkpt lat="45.00909" lon="5.30796">
        <ele>540</ele>
        <time>2019-12-31T14:51:45.007Z</time>
      </trkpt>
      <trkpt lat="45.00909" lon="5.30802">
        <ele>541</ele>
        <time>2019-12-31T14:51:47.007Z</time>
      </trkpt>
      <trkpt lat="45.00909" lon="5.30806">
        <ele>541</ele>
        <time>2019-12-31T14:51:48.007Z</time>
      </trkpt>
      <trkpt lat="45.00909" lon="5.30812">
        <ele>541</ele>
        <time>2019-12-31T14:51:50.007Z</time>
      </trkpt>
      <trkpt lat="45.00909" lon="5.30818">
        <ele>541</ele>
        <time>2019-12-31T14:51:52.007Z</time>
      </trkpt>
      <trkpt lat="45.00908" lon="5.30824">
        <ele>541</ele>
        <time>2019-12-31T14:51:54.007Z</time>
      </trkpt>
      <trkpt lat="45.00907" lon="5.3083">
        <ele>541</ele>
        <time>2019-12-31T14:51:56.007Z</time>
      </trkpt>
      <trkpt lat="45.00906" lon="5.30836">
        <ele>541</ele>
        <time>2019-12-31T14:51:58.007Z</time>
      </trkpt>
      <trkpt lat="45.00904" lon="5.30842">
        <ele>541</ele>
        <time>2019-12-31T14:52:00.007Z</time>
      </trkpt>
      <trkpt lat="45.00903" lon="5.30848">
        <ele>543</ele>
        <time>2019-12-31T14:52:02.007Z</time>
      </trkpt>
      <trkpt lat="45.00902" lon="5.30853">
        <ele>543</ele>
        <time>2019-12-31T14:52:04.007Z</time>
      </trkpt>
      <trkpt lat="45.009" lon="5.30864">
        <ele>543</ele>
        <time>2019-12-31T14:52:08.007Z</time>
      </trkpt>
      <trkpt lat="45.009" lon="5.30869">
        <ele>543</ele>
        <time>2019-12-31T14:52:10.007Z</time>
      </trkpt>
      <trkpt lat="45.00899" lon="5.30874">
        <ele>545</ele>
        <time>2019-12-31T14:52:12.007Z</time>
      </trkpt>
      <trkpt lat="45.00898" lon="5.30879">
        <ele>545</ele>
        <time>2019-12-31T14:52:14.007Z</time>
      </trkpt>
      <trkpt lat="45.00897" lon="5.30884">
        <ele>545.7110144</ele>
        <time>2019-12-31T14:52:16.007Z</time>
      </trkpt>
      <trkpt lat="45.00896" lon="5.30888">
        <ele>548</ele>
        <time>2019-12-31T14:52:18.007Z</time>
      </trkpt>
      <trkpt lat="45.00893" lon="5.30898">
        <ele>549</ele>
        <time>2019-12-31T14:52:22.007Z</time>
      </trkpt>
      <trkpt lat="45.00891" lon="5.30906">
        <ele>549.23465598743</ele>
        <time>2019-12-31T14:52:26.007Z</time>
      </trkpt>
      <trkpt lat="45.00889" lon="5.30916">
        <ele>550</ele>
        <time>2019-12-31T14:52:30.007Z</time>
      </trkpt>
      <trkpt lat="45.00887" lon="5.30923">
        <ele>551</ele>
        <time>2019-12-31T14:52:33.007Z</time>
      </trkpt>
      <trkpt lat="45.00886" lon="5.3093">
        <ele>551.2370048</ele>
        <time>2019-12-31T14:52:36.007Z</time>
      </trkpt>
      <trkpt lat="45.00885" lon="5.30937">
        <ele>552</ele>
        <time>2019-12-31T14:52:39.007Z</time>
      </trkpt>
      <trkpt lat="45.00885" lon="5.30942">
        <ele>552.2370048</ele>
        <time>2019-12-31T14:52:41.007Z</time>
      </trkpt>
      <trkpt lat="45.00885" lon="5.30946">
        <ele>553</ele>
        <time>2019-12-31T14:52:43.007Z</time>
      </trkpt>
      <trkpt lat="45.00885" lon="5.30951">
        <ele>553</ele>
        <time>2019-12-31T14:52:45.007Z</time>
      </trkpt>
      <trkpt lat="45.00886" lon="5.30956">
        <ele>553</ele>
        <time>2019-12-31T14:52:47.007Z</time>
      </trkpt>
      <trkpt lat="45.00886" lon="5.30961">
        <ele>553</ele>
        <time>2019-12-31T14:52:49.007Z</time>
      </trkpt>
      <trkpt lat="45.00887" lon="5.30971">
        <ele>555</ele>
        <time>2019-12-31T14:52:53.007Z</time>
      </trkpt>
      <trkpt lat="45.00887" lon="5.30982">
        <ele>555</ele>
        <time>2019-12-31T14:52:58.007Z</time>
      </trkpt>
      <trkpt lat="45.00889" lon="5.30996">
        <ele>557</ele>
        <time>2019-12-31T14:53:04.007Z</time>
      </trkpt>
      <trkpt lat="45.00889" lon="5.31011">
        <ele>557.2370048</ele>
        <time>2019-12-31T14:53:11.007Z</time>
      </trkpt>
      <trkpt lat="45.00889" lon="5.31024">
        <ele>558</ele>
        <time>2019-12-31T14:53:17.007Z</time>
      </trkpt>
      <trkpt lat="45.00892" lon="5.31038">
        <ele>561</ele>
        <time>2019-12-31T14:53:23.007Z</time>
      </trkpt>
      <trkpt lat="45.00892" lon="5.31053">
        <ele>564</ele>
        <time>2019-12-31T14:53:30.007Z</time>
      </trkpt>
      <trkpt lat="45.00892" lon="5.31066">
        <ele>565</ele>
        <time>2019-12-31T14:53:35.007Z</time>
      </trkpt>
      <trkpt lat="45.00891" lon="5.31079">
        <ele>565.45858060846</ele>
        <time>2019-12-31T14:53:41.007Z</time>
      </trkpt>
      <trkpt lat="45.0089" lon="5.31089">
        <ele>567.4740096</ele>
        <time>2019-12-31T14:53:51.007Z</time>
      </trkpt>
      <trkpt lat="45.00889" lon="5.31099">
        <ele>569.7110144</ele>
        <time>2019-12-31T14:54:01.007Z</time>
      </trkpt>
      <trkpt lat="45.00886" lon="5.31112">
        <ele>573</ele>
        <time>2019-12-31T14:54:14.007Z</time>
      </trkpt>
      <trkpt lat="45.00883" lon="5.31122">
        <ele>574</ele>
        <time>2019-12-31T14:54:25.007Z</time>
      </trkpt>
      <trkpt lat="45.0088" lon="5.31134">
        <ele>576</ele>
        <time>2019-12-31T14:54:38.007Z</time>
      </trkpt>
      <trkpt lat="45.00885" lon="5.31135">
        <ele>575</ele>
        <time>2019-12-31T14:56:09.007Z</time>
      </trkpt>
      <trkpt lat="45.00892" lon="5.31144">
        <ele>575</ele>
        <time>2019-12-31T14:56:26.007Z</time>
      </trkpt>
      <trkpt lat="45.00897" lon="5.31155">
        <ele>574</ele>
        <time>2019-12-31T14:56:32.007Z</time>
      </trkpt>
      <trkpt lat="45.00903" lon="5.31166">
        <ele>574</ele>
        <time>2019-12-31T14:56:48.007Z</time>
      </trkpt>
      <trkpt lat="45.00913" lon="5.31167">
        <ele>575</ele>
        <time>2019-12-31T14:57:10.007Z</time>
      </trkpt>
      <trkpt lat="45.00922" lon="5.31161">
        <ele>573</ele>
        <time>2019-12-31T14:57:12.007Z</time>
      </trkpt>
      <trkpt lat="45.00933" lon="5.31152">
        <ele>573</ele>
        <time>2019-12-31T14:57:14.007Z</time>
      </trkpt>
      <trkpt lat="45.00945" lon="5.31141">
        <ele>568</ele>
        <time>2019-12-31T14:57:17.007Z</time>
      </trkpt>
      <trkpt lat="45.00956" lon="5.31132">
        <ele>568</ele>
        <time>2019-12-31T14:57:20.007Z</time>
      </trkpt>
      <trkpt lat="45.00966" lon="5.31123">
        <ele>559.77070969577</ele>
        <time>2019-12-31T14:57:23.007Z</time>
      </trkpt>
      <trkpt lat="45.00977" lon="5.31116">
        <ele>557.5259904</ele>
        <time>2019-12-31T14:57:26.007Z</time>
      </trkpt>
      <trkpt lat="45.00984" lon="5.31107">
        <ele>553.7629952</ele>
        <time>2019-12-31T14:57:31.007Z</time>
      </trkpt>
      <trkpt lat="45.00995" lon="5.31102">
        <ele>551.77070969577</ele>
        <time>2019-12-31T14:57:35.007Z</time>
      </trkpt>
      <trkpt lat="45.01009" lon="5.31095">
        <ele>549.7629952</ele>
        <time>2019-12-31T14:57:38.007Z</time>
      </trkpt>
      <trkpt lat="45.0102" lon="5.31091">
        <ele>548</ele>
        <time>2019-12-31T14:57:40.007Z</time>
      </trkpt>
      <trkpt lat="45.01031" lon="5.31085">
        <ele>545.7629952</ele>
        <time>2019-12-31T14:57:42.007Z</time>
      </trkpt>
      <trkpt lat="45.01043" lon="5.31079">
        <ele>543.5259904</ele>
        <time>2019-12-31T14:57:44.007Z</time>
      </trkpt>
      <trkpt lat="45.01054" lon="5.31072">
        <ele>540.76534401257</ele>
        <time>2019-12-31T14:57:46.007Z</time>
      </trkpt>
      <trkpt lat="45.01064" lon="5.31064">
        <ele>539</ele>
        <time>2019-12-31T14:57:49.007Z</time>
      </trkpt>
      <trkpt lat="45.01074" lon="5.31053">
        <ele>534</ele>
        <time>2019-12-31T14:57:54.007Z</time>
      </trkpt>
      <trkpt lat="45.01085" lon="5.31046">
        <ele>531.76534401257</ele>
        <time>2019-12-31T14:57:58.007Z</time>
      </trkpt>
      <trkpt lat="45.01099" lon="5.31038">
        <ele>530.5259904</ele>
        <time>2019-12-31T14:58:01.007Z</time>
      </trkpt>
      <trkpt lat="45.0111" lon="5.31033">
        <ele>526.76534401257</ele>
        <time>2019-12-31T14:58:04.007Z</time>
      </trkpt>
      <trkpt lat="45.01121" lon="5.31037">
        <ele>525</ele>
        <time>2019-12-31T14:58:08.007Z</time>
      </trkpt>
      <trkpt lat="45.01131" lon="5.3104">
        <ele>521.7629952</ele>
        <time>2019-12-31T14:58:13.007Z</time>
      </trkpt>
      <trkpt lat="45.01141" lon="5.3104">
        <ele>520</ele>
        <time>2019-12-31T14:58:26.007Z</time>
      </trkpt>
      <trkpt lat="45.01138" lon="5.31035">
        <ele>519</ele>
        <time>2019-12-31T14:59:15.007Z</time>
      </trkpt>
      <trkpt lat="45.01144" lon="5.31039">
        <ele>519</ele>
        <time>2019-12-31T15:00:12.007Z</time>
      </trkpt>
      <trkpt lat="45.0115" lon="5.31041">
        <ele>519</ele>
        <time>2019-12-31T15:00:29.007Z</time>
      </trkpt>
      <trkpt lat="45.01155" lon="5.31044">
        <ele>518</ele>
        <time>2019-12-31T15:00:33.007Z</time>
      </trkpt>
      <trkpt lat="45.01165" lon="5.31045">
        <ele>518</ele>
        <time>2019-12-31T15:00:40.007Z</time>
      </trkpt>
      <trkpt lat="45.01174" lon="5.31051">
        <ele>515</ele>
        <time>2019-12-31T15:00:43.007Z</time>
      </trkpt>
      <trkpt lat="45.01182" lon="5.31059">
        <ele>514.0519808</ele>
        <time>2019-12-31T15:00:46.007Z</time>
      </trkpt>
      <trkpt lat="45.01188" lon="5.31065">
        <ele>511</ele>
        <time>2019-12-31T15:00:49.007Z</time>
      </trkpt>
      <trkpt lat="45.01195" lon="5.31072">
        <ele>504.7629952</ele>
        <time>2019-12-31T15:01:01.007Z</time>
      </trkpt>
      <trkpt lat="45.01203" lon="5.31073">
        <ele>505</ele>
        <time>2019-12-31T15:01:10.007Z</time>
      </trkpt>
      <trkpt lat="45.01207" lon="5.31061">
        <ele>503</ele>
        <time>2019-12-31T15:01:13.007Z</time>
      </trkpt>
      <trkpt lat="45.01212" lon="5.31049">
        <ele>503</ele>
        <time>2019-12-31T15:01:17.007Z</time>
      </trkpt>
      <trkpt lat="45.01215" lon="5.31034">
        <ele>502.0519808</ele>
        <time>2019-12-31T15:01:21.007Z</time>
      </trkpt>
      <trkpt lat="45.01216" lon="5.31019">
        <ele>499</ele>
        <time>2019-12-31T15:01:25.007Z</time>
      </trkpt>
      <trkpt lat="45.01219" lon="5.31003">
        <ele>495</ele>
        <time>2019-12-31T15:01:28.007Z</time>
      </trkpt>
      <trkpt lat="45.01215" lon="5.30986">
        <ele>490.7629952</ele>
        <time>2019-12-31T15:01:32.007Z</time>
      </trkpt>
      <trkpt lat="45.01215" lon="5.30971">
        <ele>488.7629952</ele>
        <time>2019-12-31T15:01:35.007Z</time>
      </trkpt>
      <trkpt lat="45.01212" lon="5.30956">
        <ele>488</ele>
        <time>2019-12-31T15:01:40.007Z</time>
      </trkpt>
      <trkpt lat="45.01205" lon="5.30947">
        <ele>488</ele>
        <time>2019-12-31T15:01:46.007Z</time>
      </trkpt>
      <trkpt lat="45.01204" lon="5.30934">
        <ele>488</ele>
        <time>2019-12-31T15:01:50.007Z</time>
      </trkpt>
      <trkpt lat="45.01206" lon="5.30917">
        <ele>487</ele>
        <time>2019-12-31T15:01:54.007Z</time>
      </trkpt>
      <trkpt lat="45.01205" lon="5.30902">
        <ele>487</ele>
        <time>2019-12-31T15:01:59.007Z</time>
      </trkpt>
      <trkpt lat="45.01205" lon="5.3089">
        <ele>484</ele>
        <time>2019-12-31T15:02:09.007Z</time>
      </trkpt>
      <trkpt lat="45.01199" lon="5.30884">
        <ele>484</ele>
        <time>2019-12-31T15:02:25.007Z</time>
      </trkpt>
      <trkpt lat="45.01201" lon="5.30876">
        <ele>484</ele>
        <time>2019-12-31T15:03:16.007Z</time>
      </trkpt>
      <trkpt lat="45.01199" lon="5.30869">
        <ele>484</ele>
        <time>2019-12-31T15:03:42.007Z</time>
      </trkpt>
      <trkpt lat="45.01194" lon="5.30867">
        <ele>485</ele>
        <time>2019-12-31T15:03:55.007Z</time>
      </trkpt>
      <trkpt lat="45.01189" lon="5.3086">
        <ele>484</ele>
        <time>2019-12-31T15:04:34.007Z</time>
      </trkpt>
      <trkpt lat="45.01186" lon="5.30851">
        <ele>483</ele>
        <time>2019-12-31T15:04:43.007Z</time>
      </trkpt>
      <trkpt lat="45.01181" lon="5.30843">
        <ele>483</ele>
        <time>2019-12-31T15:04:48.007Z</time>
      </trkpt>
      <trkpt lat="45.01173" lon="5.30835">
        <ele>481</ele>
        <time>2019-12-31T15:04:53.007Z</time>
      </trkpt>
      <trkpt lat="45.01167" lon="5.30828">
        <ele>479</ele>
        <time>2019-12-31T15:04:58.007Z</time>
      </trkpt>
      <trkpt lat="45.01162" lon="5.30819">
        <ele>478</ele>
        <time>2019-12-31T15:05:06.007Z</time>
      </trkpt>
      <trkpt lat="45.01157" lon="5.30812">
        <ele>477</ele>
        <time>2019-12-31T15:05:12.007Z</time>
      </trkpt>
      <trkpt lat="45.01152" lon="5.30804">
        <ele>477</ele>
        <time>2019-12-31T15:05:15.007Z</time>
      </trkpt>
      <trkpt lat="45.01149" lon="5.30797">
        <ele>476</ele>
        <time>2019-12-31T15:05:23.007Z</time>
      </trkpt>
      <trkpt lat="45.01149" lon="5.30787">
        <ele>475</ele>
        <time>2019-12-31T15:05:47.007Z</time>
      </trkpt>
      <trkpt lat="45.01153" lon="5.30777">
        <ele>472</ele>
        <time>2019-12-31T15:05:53.007Z</time>
      </trkpt>
      <trkpt lat="45.01159" lon="5.30767">
        <ele>469</ele>
        <time>2019-12-31T15:05:58.007Z</time>
      </trkpt>
      <trkpt lat="45.01155" lon="5.30757">
        <ele>467</ele>
        <time>2019-12-31T15:06:10.007Z</time>
      </trkpt>
      <trkpt lat="45.01151" lon="5.30745">
        <ele>466</ele>
        <time>2019-12-31T15:06:18.007Z</time>
      </trkpt>
      <trkpt lat="45.01144" lon="5.30733">
        <ele>459</ele>
        <time>2019-12-31T15:06:37.007Z</time>
      </trkpt>
      <trkpt lat="45.01137" lon="5.30724">
        <ele>458</ele>
        <time>2019-12-31T15:06:44.007Z</time>
      </trkpt>
      <trkpt lat="45.01147" lon="5.30716">
        <ele>457.2889856</ele>
        <time>2019-12-31T15:06:51.007Z</time>
      </trkpt>
      <trkpt lat="45.01148" lon="5.30702">
        <ele>452</ele>
        <time>2019-12-31T15:07:06.007Z</time>
      </trkpt>
      <trkpt lat="45.01145" lon="5.3069">
        <ele>452</ele>
        <time>2019-12-31T15:07:15.007Z</time>
      </trkpt>
      <trkpt lat="45.01145" lon="5.30677">
        <ele>449</ele>
        <time>2019-12-31T15:07:25.007Z</time>
      </trkpt>
      <trkpt lat="45.01142" lon="5.30664">
        <ele>448</ele>
        <time>2019-12-31T15:07:33.007Z</time>
      </trkpt>
      <trkpt lat="45.01138" lon="5.30652">
        <ele>447.7629952</ele>
        <time>2019-12-31T15:07:41.007Z</time>
      </trkpt>
      <trkpt lat="45.01139" lon="5.3064">
        <ele>445</ele>
        <time>2019-12-31T15:08:15.007Z</time>
      </trkpt>
      <trkpt lat="45.0114" lon="5.3063">
        <ele>443</ele>
        <time>2019-12-31T15:08:23.007Z</time>
      </trkpt>
      <trkpt lat="45.01144" lon="5.30619">
        <ele>443</ele>
        <time>2019-12-31T15:08:27.007Z</time>
      </trkpt>
      <trkpt lat="45.0114" lon="5.30609">
        <ele>442</ele>
        <time>2019-12-31T15:08:34.007Z</time>
      </trkpt>
      <trkpt lat="45.01144" lon="5.30596">
        <ele>442</ele>
        <time>2019-12-31T15:08:40.007Z</time>
      </trkpt>
      <trkpt lat="45.01141" lon="5.30586">
        <ele>438</ele>
        <time>2019-12-31T15:08:47.007Z</time>
      </trkpt>
      <trkpt lat="45.01144" lon="5.30577">
        <ele>438</ele>
        <time>2019-12-31T15:08:58.007Z</time>
      </trkpt>
      <trkpt lat="45.01147" lon="5.30567">
        <ele>431</ele>
        <time>2019-12-31T15:09:04.007Z</time>
      </trkpt>
      <trkpt lat="45.01146" lon="5.30555">
        <ele>429.7629952</ele>
        <time>2019-12-31T15:09:11.007Z</time>
      </trkpt>
      <trkpt lat="45.01148" lon="5.30542">
        <ele>429</ele>
        <time>2019-12-31T15:09:15.007Z</time>
      </trkpt>
      <trkpt lat="45.01148" lon="5.30532">
        <ele>425.2889856</ele>
        <time>2019-12-31T15:09:21.007Z</time>
      </trkpt>
      <trkpt lat="45.01149" lon="5.30523">
        <ele>420</ele>
        <time>2019-12-31T15:09:28.007Z</time>
      </trkpt>
      <trkpt lat="45.01156" lon="5.30519">
        <ele>418</ele>
        <time>2019-12-31T15:09:36.007Z</time>
      </trkpt>
      <trkpt lat="45.01162" lon="5.30515">
        <ele>416</ele>
        <time>2019-12-31T15:09:43.007Z</time>
      </trkpt>
      <trkpt lat="45.01171" lon="5.30511">
        <ele>414</ele>
        <time>2019-12-31T15:09:55.007Z</time>
      </trkpt>
      <trkpt lat="45.01165" lon="5.30505">
        <ele>410</ele>
        <time>2019-12-31T15:10:21.007Z</time>
      </trkpt>
      <trkpt lat="45.01171" lon="5.30506">
        <ele>410</ele>
        <time>2019-12-31T15:11:42.007Z</time>
      </trkpt>
      <trkpt lat="45.01176" lon="5.305">
        <ele>409</ele>
        <time>2019-12-31T15:12:14.007Z</time>
      </trkpt>
      <trkpt lat="45.01181" lon="5.30498">
        <ele>408</ele>
        <time>2019-12-31T15:12:26.007Z</time>
      </trkpt>
      <trkpt lat="45.01188" lon="5.30496">
        <ele>401</ele>
        <time>2019-12-31T15:12:58.007Z</time>
      </trkpt>
      <trkpt lat="45.01195" lon="5.30497">
        <ele>401</ele>
        <time>2019-12-31T15:13:05.007Z</time>
      </trkpt>
      <trkpt lat="45.01202" lon="5.30502">
        <ele>401</ele>
        <time>2019-12-31T15:13:08.007Z</time>
      </trkpt>
      <trkpt lat="45.01207" lon="5.30507">
        <ele>396.7629952</ele>
        <time>2019-12-31T15:13:16.007Z</time>
      </trkpt>
      <trkpt lat="45.01212" lon="5.30512">
        <ele>395</ele>
        <time>2019-12-31T15:13:27.007Z</time>
      </trkpt>
      <trkpt lat="45.0122" lon="5.30514">
        <ele>391.5259904</ele>
        <time>2019-12-31T15:13:51.007Z</time>
      </trkpt>
      <trkpt lat="45.01227" lon="5.30519">
        <ele>390.0519808</ele>
        <time>2019-12-31T15:14:01.007Z</time>
      </trkpt>
      <trkpt lat="45.0123" lon="5.30511">
        <ele>385</ele>
        <time>2019-12-31T15:14:37.007Z</time>
      </trkpt>
      <trkpt lat="45.01238" lon="5.30509">
        <ele>383</ele>
        <time>2019-12-31T15:14:43.007Z</time>
      </trkpt>
      <trkpt lat="45.01245" lon="5.30509">
        <ele>383</ele>
        <time>2019-12-31T15:14:47.007Z</time>
      </trkpt>
      <trkpt lat="45.01252" lon="5.3051">
        <ele>381</ele>
        <time>2019-12-31T15:14:54.007Z</time>
      </trkpt>
      <trkpt lat="45.01259" lon="5.30513">
        <ele>380</ele>
        <time>2019-12-31T15:14:59.007Z</time>
      </trkpt>
      <trkpt lat="45.01264" lon="5.30514">
        <ele>378</ele>
        <time>2019-12-31T15:15:02.007Z</time>
      </trkpt>
      <trkpt lat="45.01269" lon="5.30505">
        <ele>378</ele>
        <time>2019-12-31T15:15:05.007Z</time>
      </trkpt>
      <trkpt lat="45.01271" lon="5.30497">
        <ele>375</ele>
        <time>2019-12-31T15:15:07.007Z</time>
      </trkpt>
      <trkpt lat="45.01273" lon="5.30488">
        <ele>375</ele>
        <time>2019-12-31T15:15:09.007Z</time>
      </trkpt>
      <trkpt lat="45.01275" lon="5.30479">
        <ele>373.62425817463</ele>
        <time>2019-12-31T15:15:11.007Z</time>
      </trkpt>
      <trkpt lat="45.01276" lon="5.30471">
        <ele>366.7629952</ele>
        <time>2019-12-31T15:15:13.007Z</time>
      </trkpt>
      <trkpt lat="45.0128" lon="5.30462">
        <ele>363.53068802514</ele>
        <time>2019-12-31T15:15:16.007Z</time>
      </trkpt>
      <trkpt lat="45.01286" lon="5.30466">
        <ele>362</ele>
        <time>2019-12-31T15:15:50.007Z</time>
      </trkpt>
      <trkpt lat="45.0129" lon="5.30469">
        <ele>362</ele>
        <time>2019-12-31T15:15:53.007Z</time>
      </trkpt>
      <trkpt lat="45.01295" lon="5.30471">
        <ele>362</ele>
        <time>2019-12-31T15:16:03.007Z</time>
      </trkpt>
      <trkpt lat="45.01301" lon="5.30473">
        <ele>362</ele>
        <time>2019-12-31T15:16:06.007Z</time>
      </trkpt>
      <trkpt lat="45.01307" lon="5.30475">
        <ele>362</ele>
        <time>2019-12-31T15:16:09.007Z</time>
      </trkpt>
      <trkpt lat="45.01313" lon="5.30478">
        <ele>363</ele>
        <time>2019-12-31T15:16:12.007Z</time>
      </trkpt>
      <trkpt lat="45.01318" lon="5.30482">
        <ele>363</ele>
        <time>2019-12-31T15:16:14.007Z</time>
      </trkpt>
      <trkpt lat="45.01323" lon="5.30486">
        <ele>363</ele>
        <time>2019-12-31T15:16:16.007Z</time>
      </trkpt>
      <trkpt lat="45.01328" lon="5.3049">
        <ele>363</ele>
        <time>2019-12-31T15:16:18.007Z</time>
      </trkpt>
      <trkpt lat="45.01332" lon="5.30494">
        <ele>363</ele>
        <time>2019-12-31T15:16:20.007Z</time>
      </trkpt>
      <trkpt lat="45.01337" lon="5.30497">
        <ele>364</ele>
        <time>2019-12-31T15:16:22.007Z</time>
      </trkpt>
      <trkpt lat="45.01342" lon="5.305">
        <ele>364</ele>
        <time>2019-12-31T15:16:24.007Z</time>
      </trkpt>
      <trkpt lat="45.01348" lon="5.30502">
        <ele>364</ele>
        <time>2019-12-31T15:16:26.007Z</time>
      </trkpt>
      <trkpt lat="45.01354" lon="5.30504">
        <ele>364</ele>
        <time>2019-12-31T15:16:28.007Z</time>
      </trkpt>
      <trkpt lat="45.01357" lon="5.30504">
        <ele>364</ele>
        <time>2019-12-31T15:16:29.007Z</time>
      </trkpt>
      <trkpt lat="45.0136" lon="5.30505">
        <ele>364</ele>
        <time>2019-12-31T15:16:30.007Z</time>
      </trkpt>
      <trkpt lat="45.01363" lon="5.30506">
        <ele>364.4740096</ele>
        <time>2019-12-31T15:16:31.007Z</time>
      </trkpt>
      <trkpt lat="45.01366" lon="5.30507">
        <ele>366</ele>
        <time>2019-12-31T15:16:32.007Z</time>
      </trkpt>
      <trkpt lat="45.01369" lon="5.30508">
        <ele>366</ele>
        <time>2019-12-31T15:16:33.007Z</time>
      </trkpt>
      <trkpt lat="45.01371" lon="5.30508">
        <ele>366</ele>
        <time>2019-12-31T15:16:34.007Z</time>
      </trkpt>
      <trkpt lat="45.01376" lon="5.3051">
        <ele>366</ele>
        <time>2019-12-31T15:16:36.007Z</time>
      </trkpt>
      <trkpt lat="45.01381" lon="5.30513">
        <ele>366</ele>
        <time>2019-12-31T15:16:38.007Z</time>
      </trkpt>
      <trkpt lat="45.01383" lon="5.30518">
        <ele>366</ele>
        <time>2019-12-31T15:16:40.007Z</time>
      </trkpt>
      <trkpt lat="45.01385" lon="5.30525">
        <ele>369</ele>
        <time>2019-12-31T15:16:43.007Z</time>
      </trkpt>
      <trkpt lat="45.01389" lon="5.30531">
        <ele>369.2370048</ele>
        <time>2019-12-31T15:16:46.007Z</time>
      </trkpt>
      <trkpt lat="45.01394" lon="5.30539">
        <ele>370</ele>
        <time>2019-12-31T15:16:49.007Z</time>
      </trkpt>
      <trkpt lat="45.014" lon="5.30551">
        <ele>368</ele>
        <time>2019-12-31T15:16:52.007Z</time>
      </trkpt>
      <trkpt lat="45.01405" lon="5.3056">
        <ele>368</ele>
        <time>2019-12-31T15:16:54.007Z</time>
      </trkpt>
      <trkpt lat="45.0141" lon="5.3057">
        <ele>368</ele>
        <time>2019-12-31T15:16:56.007Z</time>
      </trkpt>
      <trkpt lat="45.01415" lon="5.30579">
        <ele>368</ele>
        <time>2019-12-31T15:16:58.007Z</time>
      </trkpt>
      <trkpt lat="45.01421" lon="5.30589">
        <ele>368</ele>
        <time>2019-12-31T15:17:00.007Z</time>
      </trkpt>
      <trkpt lat="45.01425" lon="5.30601">
        <ele>366</ele>
        <time>2019-12-31T15:17:02.007Z</time>
      </trkpt>
      <trkpt lat="45.0143" lon="5.30613">
        <ele>366</ele>
        <time>2019-12-31T15:17:04.007Z</time>
      </trkpt>
      <trkpt lat="45.01439" lon="5.30628">
        <ele>366</ele>
        <time>2019-12-31T15:17:06.007Z</time>
      </trkpt>
      <trkpt lat="45.01448" lon="5.30645">
        <ele>366</ele>
        <time>2019-12-31T15:17:08.007Z</time>
      </trkpt>
      <trkpt lat="45.01454" lon="5.30659">
        <ele>366</ele>
        <time>2019-12-31T15:17:10.007Z</time>
      </trkpt>
      <trkpt lat="45.01461" lon="5.30675">
        <ele>365</ele>
        <time>2019-12-31T15:17:12.007Z</time>
      </trkpt>
      <trkpt lat="45.01468" lon="5.3069">
        <ele>365</ele>
        <time>2019-12-31T15:17:14.007Z</time>
      </trkpt>
      <trkpt lat="45.01475" lon="5.30705">
        <ele>364.7629952</ele>
        <time>2019-12-31T15:17:16.007Z</time>
      </trkpt>
      <trkpt lat="45.01483" lon="5.30719">
        <ele>364</ele>
        <time>2019-12-31T15:17:18.007Z</time>
      </trkpt>
      <trkpt lat="45.01491" lon="5.30733">
        <ele>364</ele>
        <time>2019-12-31T15:17:20.007Z</time>
      </trkpt>
      <trkpt lat="45.01498" lon="5.30745">
        <ele>361</ele>
        <time>2019-12-31T15:17:22.007Z</time>
      </trkpt>
      <trkpt lat="45.01506" lon="5.30758">
        <ele>361</ele>
        <time>2019-12-31T15:17:24.007Z</time>
      </trkpt>
      <trkpt lat="45.01514" lon="5.30772">
        <ele>360.7629952</ele>
        <time>2019-12-31T15:17:26.007Z</time>
      </trkpt>
      <trkpt lat="45.0152" lon="5.30786">
        <ele>360</ele>
        <time>2019-12-31T15:17:28.007Z</time>
      </trkpt>
      <trkpt lat="45.01524" lon="5.308">
        <ele>360</ele>
        <time>2019-12-31T15:17:30.007Z</time>
      </trkpt>
      <trkpt lat="45.01528" lon="5.30812">
        <ele>358</ele>
        <time>2019-12-31T15:17:32.007Z</time>
      </trkpt>
      <trkpt lat="45.0153" lon="5.30822">
        <ele>358</ele>
        <time>2019-12-31T15:17:34.007Z</time>
      </trkpt>
      <trkpt lat="45.01532" lon="5.30831">
        <ele>357</ele>
        <time>2019-12-31T15:17:37.007Z</time>
      </trkpt>
      <trkpt lat="45.01531" lon="5.3084">
        <ele>358</ele>
        <time>2019-12-31T15:17:42.007Z</time>
      </trkpt>
      <trkpt lat="45.0153" lon="5.30848">
        <ele>358</ele>
        <time>2019-12-31T15:17:46.007Z</time>
      </trkpt>
      <trkpt lat="45.01527" lon="5.30854">
        <ele>358</ele>
        <time>2019-12-31T15:17:49.007Z</time>
      </trkpt>
      <trkpt lat="45.01521" lon="5.30861">
        <ele>360</ele>
        <time>2019-12-31T15:17:52.007Z</time>
      </trkpt>
      <trkpt lat="45.01515" lon="5.30866">
        <ele>360</ele>
        <time>2019-12-31T15:17:55.007Z</time>
      </trkpt>
      <trkpt lat="45.01511" lon="5.30874">
        <ele>360</ele>
        <time>2019-12-31T15:17:58.007Z</time>
      </trkpt>
      <trkpt lat="45.01508" lon="5.30884">
        <ele>360.7110144</ele>
        <time>2019-12-31T15:18:01.007Z</time>
      </trkpt>
      <trkpt lat="45.01506" lon="5.30893">
        <ele>363</ele>
        <time>2019-12-31T15:18:04.007Z</time>
      </trkpt>
      <trkpt lat="45.01506" lon="5.30902">
        <ele>364</ele>
        <time>2019-12-31T15:18:07.007Z</time>
      </trkpt>
      <trkpt lat="45.01506" lon="5.3091">
        <ele>364</ele>
        <time>2019-12-31T15:18:10.007Z</time>
      </trkpt>
      <trkpt lat="45.01508" lon="5.30917">
        <ele>365</ele>
        <time>2019-12-31T15:18:13.007Z</time>
      </trkpt>
      <trkpt lat="45.0151" lon="5.30924">
        <ele>365</ele>
        <time>2019-12-31T15:18:16.007Z</time>
      </trkpt>
      <trkpt lat="45.01511" lon="5.30932">
        <ele>365</ele>
        <time>2019-12-31T15:18:19.007Z</time>
      </trkpt>
      <trkpt lat="45.01513" lon="5.3094">
        <ele>366</ele>
        <time>2019-12-31T15:18:22.007Z</time>
      </trkpt>
      <trkpt lat="45.01515" lon="5.30948">
        <ele>366</ele>
        <time>2019-12-31T15:18:25.007Z</time>
      </trkpt>
      <trkpt lat="45.01516" lon="5.30955">
        <ele>366</ele>
        <time>2019-12-31T15:18:28.007Z</time>
      </trkpt>
      <trkpt lat="45.01519" lon="5.30961">
        <ele>366</ele>
        <time>2019-12-31T15:18:30.007Z</time>
      </trkpt>
      <trkpt lat="45.01522" lon="5.30969">
        <ele>369</ele>
        <time>2019-12-31T15:18:33.007Z</time>
      </trkpt>
      <trkpt lat="45.01525" lon="5.30974">
        <ele>369</ele>
        <time>2019-12-31T15:18:35.007Z</time>
      </trkpt>
      <trkpt lat="45.01529" lon="5.30981">
        <ele>370</ele>
        <time>2019-12-31T15:18:38.007Z</time>
      </trkpt>
      <trkpt lat="45.01535" lon="5.30987">
        <ele>370</ele>
        <time>2019-12-31T15:18:41.007Z</time>
      </trkpt>
      <trkpt lat="45.0154" lon="5.30995">
        <ele>370</ele>
        <time>2019-12-31T15:18:44.007Z</time>
      </trkpt>
      <trkpt lat="45.01544" lon="5.31">
        <ele>370</ele>
        <time>2019-12-31T15:18:46.007Z</time>
      </trkpt>
      <trkpt lat="45.01548" lon="5.31006">
        <ele>370</ele>
        <time>2019-12-31T15:18:48.007Z</time>
      </trkpt>
      <trkpt lat="45.01552" lon="5.31012">
        <ele>370</ele>
        <time>2019-12-31T15:18:50.007Z</time>
      </trkpt>
      <trkpt lat="45.01556" lon="5.3102">
        <ele>371</ele>
        <time>2019-12-31T15:18:52.007Z</time>
      </trkpt>
      <trkpt lat="45.01562" lon="5.31031">
        <ele>371</ele>
        <time>2019-12-31T15:18:54.007Z</time>
      </trkpt>
      <trkpt lat="45.01568" lon="5.31041">
        <ele>371</ele>
        <time>2019-12-31T15:18:56.007Z</time>
      </trkpt>
      <trkpt lat="45.01571" lon="5.31047">
        <ele>371</ele>
        <time>2019-12-31T15:18:57.007Z</time>
      </trkpt>
      <trkpt lat="45.01575" lon="5.3106">
        <ele>371</ele>
        <time>2019-12-31T15:18:59.007Z</time>
      </trkpt>
      <trkpt lat="45.0158" lon="5.31074">
        <ele>370.7629952</ele>
        <time>2019-12-31T15:19:01.007Z</time>
      </trkpt>
      <trkpt lat="45.01583" lon="5.31088">
        <ele>370</ele>
        <time>2019-12-31T15:19:03.007Z</time>
      </trkpt>
      <trkpt lat="45.01584" lon="5.31102">
        <ele>370</ele>
        <time>2019-12-31T15:19:05.007Z</time>
      </trkpt>
      <trkpt lat="45.01585" lon="5.31116">
        <ele>370</ele>
        <time>2019-12-31T15:19:07.007Z</time>
      </trkpt>
      <trkpt lat="45.01586" lon="5.3113">
        <ele>370</ele>
        <time>2019-12-31T15:19:09.007Z</time>
      </trkpt>
      <trkpt lat="45.01586" lon="5.31145">
        <ele>370</ele>
        <time>2019-12-31T15:19:11.007Z</time>
      </trkpt>
      <trkpt lat="45.01586" lon="5.31159">
        <ele>370</ele>
        <time>2019-12-31T15:19:13.007Z</time>
      </trkpt>
      <trkpt lat="45.01584" lon="5.31176">
        <ele>370</ele>
        <time>2019-12-31T15:19:16.007Z</time>
      </trkpt>
      <trkpt lat="45.01579" lon="5.3119">
        <ele>370</ele>
        <time>2019-12-31T15:19:19.007Z</time>
      </trkpt>
      <trkpt lat="45.01576" lon="5.31202">
        <ele>372</ele>
        <time>2019-12-31T15:19:22.007Z</time>
      </trkpt>
      <trkpt lat="45.01574" lon="5.31217">
        <ele>372</ele>
        <time>2019-12-31T15:19:25.007Z</time>
      </trkpt>
      <trkpt lat="45.01573" lon="5.31232">
        <ele>372</ele>
        <time>2019-12-31T15:19:28.007Z</time>
      </trkpt>
      <trkpt lat="45.01574" lon="5.31249">
        <ele>374</ele>
        <time>2019-12-31T15:19:32.007Z</time>
      </trkpt>
      <trkpt lat="45.0158" lon="5.31263">
        <ele>374</ele>
        <time>2019-12-31T15:19:35.007Z</time>
      </trkpt>
      <trkpt lat="45.01587" lon="5.31274">
        <ele>375</ele>
        <time>2019-12-31T15:19:38.007Z</time>
      </trkpt>
      <trkpt lat="45.01596" lon="5.3128">
        <ele>375.2370048</ele>
        <time>2019-12-31T15:19:41.007Z</time>
      </trkpt>
      <trkpt lat="45.01603" lon="5.31282">
        <ele>376</ele>
        <time>2019-12-31T15:19:44.007Z</time>
      </trkpt>
      <trkpt lat="45.01611" lon="5.31282">
        <ele>376</ele>
        <time>2019-12-31T15:19:47.007Z</time>
      </trkpt>
      <trkpt lat="45.01616" lon="5.31281">
        <ele>376</ele>
        <time>2019-12-31T15:19:49.007Z</time>
      </trkpt>
      <trkpt lat="45.01621" lon="5.3128">
        <ele>376.4740096</ele>
        <time>2019-12-31T15:19:51.007Z</time>
      </trkpt>
      <trkpt lat="45.01627" lon="5.31279">
        <ele>378</ele>
        <time>2019-12-31T15:19:53.007Z</time>
      </trkpt>
      <trkpt lat="45.01632" lon="5.31277">
        <ele>378</ele>
        <time>2019-12-31T15:19:55.007Z</time>
      </trkpt>
      <trkpt lat="45.01638" lon="5.31276">
        <ele>377</ele>
        <time>2019-12-31T15:19:57.007Z</time>
      </trkpt>
      <trkpt lat="45.01643" lon="5.31277">
        <ele>377</ele>
        <time>2019-12-31T15:19:59.007Z</time>
      </trkpt>
      <trkpt lat="45.01648" lon="5.3128">
        <ele>378.4220288</ele>
        <time>2019-12-31T15:20:01.007Z</time>
      </trkpt>
      <trkpt lat="45.01649" lon="5.31288">
        <ele>383.23465598743</ele>
        <time>2019-12-31T15:20:04.007Z</time>
      </trkpt>
      <trkpt lat="45.01648" lon="5.31299">
        <ele>385</ele>
        <time>2019-12-31T15:20:08.007Z</time>
      </trkpt>
      <trkpt lat="45.01646" lon="5.31308">
        <ele>387</ele>
        <time>2019-12-31T15:20:11.007Z</time>
      </trkpt>
      <trkpt lat="45.01645" lon="5.31318">
        <ele>386.7629952</ele>
        <time>2019-12-31T15:20:14.007Z</time>
      </trkpt>
      <trkpt lat="45.01643" lon="5.31327">
        <ele>388</ele>
        <time>2019-12-31T15:20:17.007Z</time>
      </trkpt>
      <trkpt lat="45.0164" lon="5.31336">
        <ele>388</ele>
        <time>2019-12-31T15:20:20.007Z</time>
      </trkpt>
      <trkpt lat="45.01639" lon="5.31346">
        <ele>389</ele>
        <time>2019-12-31T15:20:23.007Z</time>
      </trkpt>
      <trkpt lat="45.01637" lon="5.31355">
        <ele>389.2370048</ele>
        <time>2019-12-31T15:20:26.007Z</time>
      </trkpt>
      <trkpt lat="45.01635" lon="5.31364">
        <ele>390</ele>
        <time>2019-12-31T15:20:29.007Z</time>
      </trkpt>
      <trkpt lat="45.01632" lon="5.31373">
        <ele>391</ele>
        <time>2019-12-31T15:20:32.007Z</time>
      </trkpt>
      <trkpt lat="45.0163" lon="5.31382">
        <ele>391</ele>
        <time>2019-12-31T15:20:35.007Z</time>
      </trkpt>
      <trkpt lat="45.0163" lon="5.31391">
        <ele>391</ele>
        <time>2019-12-31T15:20:38.007Z</time>
      </trkpt>
      <trkpt lat="45.01631" lon="5.31399">
        <ele>391</ele>
        <time>2019-12-31T15:20:41.007Z</time>
      </trkpt>
      <trkpt lat="45.01634" lon="5.31408">
        <ele>391</ele>
        <time>2019-12-31T15:20:44.007Z</time>
      </trkpt>
      <trkpt lat="45.01637" lon="5.31416">
        <ele>391</ele>
        <time>2019-12-31T15:20:47.007Z</time>
      </trkpt>
      <trkpt lat="45.0164" lon="5.31424">
        <ele>391</ele>
        <time>2019-12-31T15:20:50.007Z</time>
      </trkpt>
      <trkpt lat="45.01644" lon="5.31434">
        <ele>392</ele>
        <time>2019-12-31T15:20:54.007Z</time>
      </trkpt>
      <trkpt lat="45.01648" lon="5.31443">
        <ele>392</ele>
        <time>2019-12-31T15:20:57.007Z</time>
      </trkpt>
      <trkpt lat="45.01653" lon="5.31454">
        <ele>392</ele>
        <time>2019-12-31T15:21:00.007Z</time>
      </trkpt>
      <trkpt lat="45.01656" lon="5.31467">
        <ele>392</ele>
        <time>2019-12-31T15:21:04.007Z</time>
      </trkpt>
      <trkpt lat="45.01658" lon="5.31478">
        <ele>392</ele>
        <time>2019-12-31T15:21:07.007Z</time>
      </trkpt>
      <trkpt lat="45.01662" lon="5.31488">
        <ele>392</ele>
        <time>2019-12-31T15:21:10.007Z</time>
      </trkpt>
      <trkpt lat="45.01664" lon="5.31501">
        <ele>394</ele>
        <time>2019-12-31T15:21:13.007Z</time>
      </trkpt>
      <trkpt lat="45.01665" lon="5.31511">
        <ele>394</ele>
        <time>2019-12-31T15:21:16.007Z</time>
      </trkpt>
      <trkpt lat="45.01668" lon="5.3152">
        <ele>394</ele>
        <time>2019-12-31T15:21:19.007Z</time>
      </trkpt>
      <trkpt lat="45.01672" lon="5.31531">
        <ele>394</ele>
        <time>2019-12-31T15:21:23.007Z</time>
      </trkpt>
      <trkpt lat="45.01675" lon="5.31542">
        <ele>394</ele>
        <time>2019-12-31T15:21:27.007Z</time>
      </trkpt>
      <trkpt lat="45.0168" lon="5.31553">
        <ele>394.7110144</ele>
        <time>2019-12-31T15:21:31.007Z</time>
      </trkpt>
      <trkpt lat="45.01683" lon="5.31563">
        <ele>397</ele>
        <time>2019-12-31T15:21:35.007Z</time>
      </trkpt>
      <trkpt lat="45.01686" lon="5.31575">
        <ele>399</ele>
        <time>2019-12-31T15:21:38.007Z</time>
      </trkpt>
      <trkpt lat="45.01686" lon="5.31585">
        <ele>399.2370048</ele>
        <time>2019-12-31T15:21:41.007Z</time>
      </trkpt>
      <trkpt lat="45.01686" lon="5.31596">
        <ele>400</ele>
        <time>2019-12-31T15:21:44.007Z</time>
      </trkpt>
      <trkpt lat="45.01684" lon="5.31607">
        <ele>400</ele>
        <time>2019-12-31T15:21:47.007Z</time>
      </trkpt>
      <trkpt lat="45.01682" lon="5.31616">
        <ele>400</ele>
        <time>2019-12-31T15:21:50.007Z</time>
      </trkpt>
      <trkpt lat="45.01678" lon="5.31625">
        <ele>400</ele>
        <time>2019-12-31T15:21:53.007Z</time>
      </trkpt>
      <trkpt lat="45.01675" lon="5.31634">
        <ele>400</ele>
        <time>2019-12-31T15:21:56.007Z</time>
      </trkpt>
      <trkpt lat="45.01673" lon="5.31641">
        <ele>400</ele>
        <time>2019-12-31T15:21:59.007Z</time>
      </trkpt>
      <trkpt lat="45.01671" lon="5.31648">
        <ele>401</ele>
        <time>2019-12-31T15:22:20.007Z</time>
      </trkpt>
      <trkpt lat="45.01668" lon="5.31655">
        <ele>402</ele>
        <time>2019-12-31T15:22:23.007Z</time>
      </trkpt>
      <trkpt lat="45.01665" lon="5.31663">
        <ele>402</ele>
        <time>2019-12-31T15:22:26.007Z</time>
      </trkpt>
      <trkpt lat="45.01663" lon="5.3167">
        <ele>402</ele>
        <time>2019-12-31T15:22:29.007Z</time>
      </trkpt>
      <trkpt lat="45.0166" lon="5.3168">
        <ele>404</ele>
        <time>2019-12-31T15:22:33.007Z</time>
      </trkpt>
      <trkpt lat="45.01656" lon="5.3169">
        <ele>405</ele>
        <time>2019-12-31T15:22:37.007Z</time>
      </trkpt>
      <trkpt lat="45.01653" lon="5.31699">
        <ele>405.22142838484</ele>
        <time>2019-12-31T15:22:41.007Z</time>
      </trkpt>
      <trkpt lat="45.01647" lon="5.31711">
        <ele>406</ele>
        <time>2019-12-31T15:22:46.007Z</time>
      </trkpt>
      <trkpt lat="45.01642" lon="5.31722">
        <ele>406.4740096</ele>
        <time>2019-12-31T15:22:51.007Z</time>
      </trkpt>
      <trkpt lat="45.01636" lon="5.3173">
        <ele>408</ele>
        <time>2019-12-31T15:22:55.007Z</time>
      </trkpt>
      <trkpt lat="45.01629" lon="5.31737">
        <ele>408</ele>
        <time>2019-12-31T15:22:59.007Z</time>
      </trkpt>
      <trkpt lat="45.01623" lon="5.31743">
        <ele>410</ele>
        <time>2019-12-31T15:23:03.007Z</time>
      </trkpt>
      <trkpt lat="45.01616" lon="5.31745">
        <ele>410.4740096</ele>
        <time>2019-12-31T15:23:06.007Z</time>
      </trkpt>
      <trkpt lat="45.01607" lon="5.31749">
        <ele>412</ele>
        <time>2019-12-31T15:23:09.007Z</time>
      </trkpt>
      <trkpt lat="45.01601" lon="5.31754">
        <ele>412</ele>
        <time>2019-12-31T15:23:11.007Z</time>
      </trkpt>
      <trkpt lat="45.01593" lon="5.31761">
        <ele>412</ele>
        <time>2019-12-31T15:23:14.007Z</time>
      </trkpt>
      <trkpt lat="45.01587" lon="5.31766">
        <ele>412</ele>
        <time>2019-12-31T15:23:17.007Z</time>
      </trkpt>
      <trkpt lat="45.01581" lon="5.31773">
        <ele>412</ele>
        <time>2019-12-31T15:23:20.007Z</time>
      </trkpt>
      <trkpt lat="45.01574" lon="5.31779">
        <ele>414</ele>
        <time>2019-12-31T15:23:23.007Z</time>
      </trkpt>
      <trkpt lat="45.01566" lon="5.31786">
        <ele>414</ele>
        <time>2019-12-31T15:23:27.007Z</time>
      </trkpt>
      <trkpt lat="45.01559" lon="5.31792">
        <ele>414</ele>
        <time>2019-12-31T15:23:31.007Z</time>
      </trkpt>
      <trkpt lat="45.01549" lon="5.318">
        <ele>414</ele>
        <time>2019-12-31T15:23:36.007Z</time>
      </trkpt>
      <trkpt lat="45.01545" lon="5.31813">
        <ele>414.22929030423</ele>
        <time>2019-12-31T15:23:41.007Z</time>
      </trkpt>
      <trkpt lat="45.01553" lon="5.31825">
        <ele>415</ele>
        <time>2019-12-31T15:23:46.007Z</time>
      </trkpt>
      <trkpt lat="45.01558" lon="5.3184">
        <ele>416</ele>
        <time>2019-12-31T15:23:52.007Z</time>
      </trkpt>
      <trkpt lat="45.01554" lon="5.31854">
        <ele>416</ele>
        <time>2019-12-31T15:23:57.007Z</time>
      </trkpt>
      <trkpt lat="45.01544" lon="5.31865">
        <ele>417</ele>
        <time>2019-12-31T15:24:02.007Z</time>
      </trkpt>
      <trkpt lat="45.01536" lon="5.31873">
        <ele>417</ele>
        <time>2019-12-31T15:24:06.007Z</time>
      </trkpt>
      <trkpt lat="45.01527" lon="5.3188">
        <ele>417</ele>
        <time>2019-12-31T15:24:10.007Z</time>
      </trkpt>
      <trkpt lat="45.0152" lon="5.31888">
        <ele>419</ele>
        <time>2019-12-31T15:24:14.007Z</time>
      </trkpt>
      <trkpt lat="45.0151" lon="5.31898">
        <ele>419</ele>
        <time>2019-12-31T15:24:18.007Z</time>
      </trkpt>
      <trkpt lat="45.01502" lon="5.3191">
        <ele>419</ele>
        <time>2019-12-31T15:24:22.007Z</time>
      </trkpt>
      <trkpt lat="45.01498" lon="5.31923">
        <ele>419</ele>
        <time>2019-12-31T15:24:26.007Z</time>
      </trkpt>
      <trkpt lat="45.01499" lon="5.31938">
        <ele>419</ele>
        <time>2019-12-31T15:24:30.007Z</time>
      </trkpt>
      <trkpt lat="45.01499" lon="5.31956">
        <ele>419</ele>
        <time>2019-12-31T15:24:34.007Z</time>
      </trkpt>
      <trkpt lat="45.01504" lon="5.31971">
        <ele>419</ele>
        <time>2019-12-31T15:24:37.007Z</time>
      </trkpt>
      <trkpt lat="45.01506" lon="5.31989">
        <ele>419</ele>
        <time>2019-12-31T15:24:40.007Z</time>
      </trkpt>
      <trkpt lat="45.01507" lon="5.32008">
        <ele>418</ele>
        <time>2019-12-31T15:24:43.007Z</time>
      </trkpt>
      <trkpt lat="45.01508" lon="5.32027">
        <ele>418</ele>
        <time>2019-12-31T15:24:46.007Z</time>
      </trkpt>
      <trkpt lat="45.01509" lon="5.32041">
        <ele>418</ele>
        <time>2019-12-31T15:24:49.007Z</time>
      </trkpt>
      <trkpt lat="45.01508" lon="5.32055">
        <ele>417</ele>
        <time>2019-12-31T15:24:52.007Z</time>
      </trkpt>
      <trkpt lat="45.01504" lon="5.3207">
        <ele>417</ele>
        <time>2019-12-31T15:24:55.007Z</time>
      </trkpt>
      <trkpt lat="45.01498" lon="5.32079">
        <ele>417</ele>
        <time>2019-12-31T15:24:57.007Z</time>
      </trkpt>
      <trkpt lat="45.01489" lon="5.32088">
        <ele>417</ele>
        <time>2019-12-31T15:24:59.007Z</time>
      </trkpt>
      <trkpt lat="45.01481" lon="5.32097">
        <ele>416.2889856</ele>
        <time>2019-12-31T15:25:01.007Z</time>
      </trkpt>
      <trkpt lat="45.01475" lon="5.32107">
        <ele>414</ele>
        <time>2019-12-31T15:25:03.007Z</time>
      </trkpt>
      <trkpt lat="45.01469" lon="5.32116">
        <ele>414</ele>
        <time>2019-12-31T15:25:05.007Z</time>
      </trkpt>
      <trkpt lat="45.01464" lon="5.32125">
        <ele>414</ele>
        <time>2019-12-31T15:25:07.007Z</time>
      </trkpt>
      <trkpt lat="45.01459" lon="5.3214">
        <ele>414</ele>
        <time>2019-12-31T15:25:10.007Z</time>
      </trkpt>
      <trkpt lat="45.01454" lon="5.32157">
        <ele>413</ele>
        <time>2019-12-31T15:25:13.007Z</time>
      </trkpt>
      <trkpt lat="45.01451" lon="5.32176">
        <ele>413</ele>
        <time>2019-12-31T15:25:16.007Z</time>
      </trkpt>
      <trkpt lat="45.01451" lon="5.3219">
        <ele>413</ele>
        <time>2019-12-31T15:25:18.007Z</time>
      </trkpt>
      <trkpt lat="45.0145" lon="5.32205">
        <ele>413</ele>
        <time>2019-12-31T15:25:20.007Z</time>
      </trkpt>
      <trkpt lat="45.0145" lon="5.3222">
        <ele>411</ele>
        <time>2019-12-31T15:25:22.007Z</time>
      </trkpt>
      <trkpt lat="45.01449" lon="5.32236">
        <ele>411</ele>
        <time>2019-12-31T15:25:24.007Z</time>
      </trkpt>
      <trkpt lat="45.01445" lon="5.3225">
        <ele>410.7629952</ele>
        <time>2019-12-31T15:25:26.007Z</time>
      </trkpt>
      <trkpt lat="45.0144" lon="5.32265">
        <ele>410</ele>
        <time>2019-12-31T15:25:28.007Z</time>
      </trkpt>
      <trkpt lat="45.01434" lon="5.32279">
        <ele>410</ele>
        <time>2019-12-31T15:25:30.007Z</time>
      </trkpt>
      <trkpt lat="45.01428" lon="5.32293">
        <ele>409</ele>
        <time>2019-12-31T15:25:32.007Z</time>
      </trkpt>
      <trkpt lat="45.01421" lon="5.32307">
        <ele>409</ele>
        <time>2019-12-31T15:25:34.007Z</time>
      </trkpt>
      <trkpt lat="45.01415" lon="5.32321">
        <ele>409</ele>
        <time>2019-12-31T15:25:36.007Z</time>
      </trkpt>
      <trkpt lat="45.01409" lon="5.32334">
        <ele>409</ele>
        <time>2019-12-31T15:25:38.007Z</time>
      </trkpt>
      <trkpt lat="45.01404" lon="5.32346">
        <ele>409</ele>
        <time>2019-12-31T15:25:40.007Z</time>
      </trkpt>
      <trkpt lat="45.01397" lon="5.32358">
        <ele>409</ele>
        <time>2019-12-31T15:25:42.007Z</time>
      </trkpt>
      <trkpt lat="45.01391" lon="5.32372">
        <ele>409</ele>
        <time>2019-12-31T15:25:44.007Z</time>
      </trkpt>
      <trkpt lat="45.01385" lon="5.32388">
        <ele>409</ele>
        <time>2019-12-31T15:25:46.007Z</time>
      </trkpt>
      <trkpt lat="45.01382" lon="5.32407">
        <ele>409</ele>
        <time>2019-12-31T15:25:48.007Z</time>
      </trkpt>
      <trkpt lat="45.0138" lon="5.32428">
        <ele>409</ele>
        <time>2019-12-31T15:25:50.007Z</time>
      </trkpt>
      <trkpt lat="45.01379" lon="5.32448">
        <ele>405</ele>
        <time>2019-12-31T15:25:52.007Z</time>
      </trkpt>
      <trkpt lat="45.01376" lon="5.32468">
        <ele>405</ele>
        <time>2019-12-31T15:25:54.007Z</time>
      </trkpt>
      <trkpt lat="45.01372" lon="5.32486">
        <ele>404.5259904</ele>
        <time>2019-12-31T15:25:56.007Z</time>
      </trkpt>
      <trkpt lat="45.01367" lon="5.32503">
        <ele>403</ele>
        <time>2019-12-31T15:25:58.007Z</time>
      </trkpt>
      <trkpt lat="45.0136" lon="5.32517">
        <ele>403</ele>
        <time>2019-12-31T15:26:00.007Z</time>
      </trkpt>
      <trkpt lat="45.01353" lon="5.3253">
        <ele>401</ele>
        <time>2019-12-31T15:26:02.007Z</time>
      </trkpt>
      <trkpt lat="45.01348" lon="5.32544">
        <ele>401</ele>
        <time>2019-12-31T15:26:04.007Z</time>
      </trkpt>
      <trkpt lat="45.01345" lon="5.32561">
        <ele>400.7629952</ele>
        <time>2019-12-31T15:26:06.007Z</time>
      </trkpt>
      <trkpt lat="45.01341" lon="5.32581">
        <ele>400</ele>
        <time>2019-12-31T15:26:08.007Z</time>
      </trkpt>
      <trkpt lat="45.01335" lon="5.32595">
        <ele>400</ele>
        <time>2019-12-31T15:26:10.007Z</time>
      </trkpt>
      <trkpt lat="45.01325" lon="5.32602">
        <ele>398</ele>
        <time>2019-12-31T15:26:12.007Z</time>
      </trkpt>
      <trkpt lat="45.01315" lon="5.32612">
        <ele>398</ele>
        <time>2019-12-31T15:26:14.007Z</time>
      </trkpt>
      <trkpt lat="45.01305" lon="5.32625">
        <ele>397.29603203772</ele>
        <time>2019-12-31T15:26:16.007Z</time>
      </trkpt>
      <trkpt lat="45.01298" lon="5.32634">
        <ele>395</ele>
        <time>2019-12-31T15:26:18.007Z</time>
      </trkpt>
      <trkpt lat="45.01291" lon="5.3264">
        <ele>394</ele>
        <time>2019-12-31T15:26:22.007Z</time>
      </trkpt>
      <trkpt lat="45.01284" lon="5.3264">
        <ele>394</ele>
        <time>2019-12-31T15:26:31.007Z</time>
      </trkpt>
      <trkpt lat="45.01276" lon="5.32639">
        <ele>394</ele>
        <time>2019-12-31T15:26:34.007Z</time>
      </trkpt>
      <trkpt lat="45.01267" lon="5.32647">
        <ele>394</ele>
        <time>2019-12-31T15:26:37.007Z</time>
      </trkpt>
      <trkpt lat="45.01262" lon="5.32659">
        <ele>394</ele>
        <time>2019-12-31T15:26:39.007Z</time>
      </trkpt>
      <trkpt lat="45.01257" lon="5.3267">
        <ele>393.7629952</ele>
        <time>2019-12-31T15:26:41.007Z</time>
      </trkpt>
      <trkpt lat="45.01248" lon="5.32681">
        <ele>393</ele>
        <time>2019-12-31T15:26:43.007Z</time>
      </trkpt>
      <trkpt lat="45.0124" lon="5.3269">
        <ele>393</ele>
        <time>2019-12-31T15:26:45.007Z</time>
      </trkpt>
      <trkpt lat="45.01232" lon="5.32699">
        <ele>393</ele>
        <time>2019-12-31T15:26:47.007Z</time>
      </trkpt>
      <trkpt lat="45.01223" lon="5.32709">
        <ele>393</ele>
        <time>2019-12-31T15:26:49.007Z</time>
      </trkpt>
      <trkpt lat="45.01215" lon="5.3272">
        <ele>392.2889856</ele>
        <time>2019-12-31T15:26:51.007Z</time>
      </trkpt>
      <trkpt lat="45.0121" lon="5.32733">
        <ele>390</ele>
        <time>2019-12-31T15:26:53.007Z</time>
      </trkpt>
      <trkpt lat="45.01214" lon="5.32747">
        <ele>389.76764381086</ele>
        <time>2019-12-31T15:26:56.007Z</time>
      </trkpt>
      <trkpt lat="45.01227" lon="5.32757">
        <ele>389</ele>
        <time>2019-12-31T15:26:59.007Z</time>
      </trkpt>
      <trkpt lat="45.01236" lon="5.32767">
        <ele>388.5259904</ele>
        <time>2019-12-31T15:27:01.007Z</time>
      </trkpt>
      <trkpt lat="45.01243" lon="5.32777">
        <ele>387</ele>
        <time>2019-12-31T15:27:03.007Z</time>
      </trkpt>
      <trkpt lat="45.01249" lon="5.32789">
        <ele>387</ele>
        <time>2019-12-31T15:27:05.007Z</time>
      </trkpt>
      <trkpt lat="45.01255" lon="5.32806">
        <ele>386</ele>
        <time>2019-12-31T15:27:08.007Z</time>
      </trkpt>
      <trkpt lat="45.01256" lon="5.32795">
        <ele>383</ele>
        <time>2019-12-31T15:27:23.007Z</time>
      </trkpt>
      <trkpt lat="45.0125" lon="5.32783">
        <ele>381</ele>
        <time>2019-12-31T15:27:56.007Z</time>
      </trkpt>
      <trkpt lat="45.01244" lon="5.32769">
        <ele>381</ele>
        <time>2019-12-31T15:28:00.007Z</time>
      </trkpt>
      <trkpt lat="45.0124" lon="5.32761">
        <ele>380</ele>
        <time>2019-12-31T15:28:02.007Z</time>
      </trkpt>
      <trkpt lat="45.01239" lon="5.32751">
        <ele>380</ele>
        <time>2019-12-31T15:28:04.007Z</time>
      </trkpt>
      <trkpt lat="45.01245" lon="5.32737">
        <ele>380</ele>
        <time>2019-12-31T15:28:07.007Z</time>
      </trkpt>
      <trkpt lat="45.01254" lon="5.3273">
        <ele>380</ele>
        <time>2019-12-31T15:28:09.007Z</time>
      </trkpt>
      <trkpt lat="45.01266" lon="5.32721">
        <ele>379.5259904</ele>
        <time>2019-12-31T15:28:11.007Z</time>
      </trkpt>
      <trkpt lat="45.01271" lon="5.32715">
        <ele>378</ele>
        <time>2019-12-31T15:28:12.007Z</time>
      </trkpt>
      <trkpt lat="45.01277" lon="5.32708">
        <ele>378</ele>
        <time>2019-12-31T15:28:13.007Z</time>
      </trkpt>
      <trkpt lat="45.01283" lon="5.32701">
        <ele>378</ele>
        <time>2019-12-31T15:28:14.007Z</time>
      </trkpt>
      <trkpt lat="45.01289" lon="5.32694">
        <ele>378</ele>
        <time>2019-12-31T15:28:15.007Z</time>
      </trkpt>
      <trkpt lat="45.013" lon="5.32683">
        <ele>378</ele>
        <time>2019-12-31T15:28:17.007Z</time>
      </trkpt>
      <trkpt lat="45.01313" lon="5.32677">
        <ele>378</ele>
        <time>2019-12-31T15:28:19.007Z</time>
      </trkpt>
      <trkpt lat="45.01327" lon="5.32671">
        <ele>376.3409664</ele>
        <time>2019-12-31T15:28:21.007Z</time>
      </trkpt>
      <trkpt lat="45.0134" lon="5.32663">
        <ele>368.77070969577</ele>
        <time>2019-12-31T15:28:23.007Z</time>
      </trkpt>
      <trkpt lat="45.01353" lon="5.32653">
        <ele>367</ele>
        <time>2019-12-31T15:28:25.007Z</time>
      </trkpt>
      <trkpt lat="45.01369" lon="5.32646">
        <ele>365.7629952</ele>
        <time>2019-12-31T15:28:27.007Z</time>
      </trkpt>
      <trkpt lat="45.01383" lon="5.32637">
        <ele>363.77070969577</ele>
        <time>2019-12-31T15:28:29.007Z</time>
      </trkpt>
      <trkpt lat="45.01397" lon="5.32621">
        <ele>362.5259904</ele>
        <time>2019-12-31T15:28:31.007Z</time>
      </trkpt>
      <trkpt lat="45.01409" lon="5.32605">
        <ele>359.7629952</ele>
        <time>2019-12-31T15:28:33.007Z</time>
      </trkpt>
      <trkpt lat="45.01419" lon="5.3259">
        <ele>359</ele>
        <time>2019-12-31T15:28:35.007Z</time>
      </trkpt>
      <trkpt lat="45.0143" lon="5.32579">
        <ele>357.7629952</ele>
        <time>2019-12-31T15:28:37.007Z</time>
      </trkpt>
      <trkpt lat="45.01439" lon="5.32566">
        <ele>355.7629952</ele>
        <time>2019-12-31T15:28:39.007Z</time>
      </trkpt>
      <trkpt lat="45.01446" lon="5.32548">
        <ele>353.77070969577</ele>
        <time>2019-12-31T15:28:41.007Z</time>
      </trkpt>
      <trkpt lat="45.01453" lon="5.3253">
        <ele>352</ele>
        <time>2019-12-31T15:28:43.007Z</time>
      </trkpt>
      <trkpt lat="45.01462" lon="5.32515">
        <ele>350.7629952</ele>
        <time>2019-12-31T15:28:45.007Z</time>
      </trkpt>
      <trkpt lat="45.01474" lon="5.32499">
        <ele>348.54141939154</ele>
        <time>2019-12-31T15:28:47.007Z</time>
      </trkpt>
      <trkpt lat="45.01487" lon="5.32484">
        <ele>346</ele>
        <time>2019-12-31T15:28:49.007Z</time>
      </trkpt>
      <trkpt lat="45.01502" lon="5.32469">
        <ele>345.5259904</ele>
        <time>2019-12-31T15:28:51.007Z</time>
      </trkpt>
      <trkpt lat="45.01511" lon="5.32461">
        <ele>343.53068802514</ele>
        <time>2019-12-31T15:28:52.007Z</time>
      </trkpt>
      <trkpt lat="45.01527" lon="5.32446">
        <ele>340.7629952</ele>
        <time>2019-12-31T15:28:54.007Z</time>
      </trkpt>
      <trkpt lat="45.01536" lon="5.32439">
        <ele>340</ele>
        <time>2019-12-31T15:28:55.007Z</time>
      </trkpt>
      <trkpt lat="45.01553" lon="5.32423">
        <ele>337</ele>
        <time>2019-12-31T15:28:57.007Z</time>
      </trkpt>
      <trkpt lat="45.01561" lon="5.32415">
        <ele>336.54598981133</ele>
        <time>2019-12-31T15:28:58.007Z</time>
      </trkpt>
      <trkpt lat="45.0157" lon="5.32407">
        <ele>334.77070969577</ele>
        <time>2019-12-31T15:28:59.007Z</time>
      </trkpt>
      <trkpt lat="45.01584" lon="5.3239">
        <ele>333</ele>
        <time>2019-12-31T15:29:01.007Z</time>
      </trkpt>
      <trkpt lat="45.01598" lon="5.3237">
        <ele>332.2370048</ele>
        <time>2019-12-31T15:29:03.007Z</time>
      </trkpt>
      <trkpt lat="45.01606" lon="5.3236">
        <ele>332.53068802514</ele>
        <time>2019-12-31T15:29:04.007Z</time>
      </trkpt>
      <trkpt lat="45.01618" lon="5.32342">
        <ele>330</ele>
        <time>2019-12-31T15:29:06.007Z</time>
      </trkpt>
      <trkpt lat="45.01631" lon="5.32328">
        <ele>328.7629952</ele>
        <time>2019-12-31T15:29:08.007Z</time>
      </trkpt>
      <trkpt lat="45.01644" lon="5.32321">
        <ele>328</ele>
        <time>2019-12-31T15:29:10.007Z</time>
      </trkpt>
      <trkpt lat="45.01658" lon="5.32313">
        <ele>326.7629952</ele>
        <time>2019-12-31T15:29:12.007Z</time>
      </trkpt>
      <trkpt lat="45.01667" lon="5.32299">
        <ele>325.7629952</ele>
        <time>2019-12-31T15:29:14.007Z</time>
      </trkpt>
      <trkpt lat="45.01671" lon="5.32284">
        <ele>325</ele>
        <time>2019-12-31T15:29:16.007Z</time>
      </trkpt>
      <trkpt lat="45.01672" lon="5.3227">
        <ele>325.2370048</ele>
        <time>2019-12-31T15:29:18.007Z</time>
      </trkpt>
      <trkpt lat="45.01674" lon="5.32252">
        <ele>325.7629952</ele>
        <time>2019-12-31T15:29:21.007Z</time>
      </trkpt>
      <trkpt lat="45.01677" lon="5.3224">
        <ele>325</ele>
        <time>2019-12-31T15:29:23.007Z</time>
      </trkpt>
      <trkpt lat="45.01682" lon="5.32224">
        <ele>325</ele>
        <time>2019-12-31T15:29:25.007Z</time>
      </trkpt>
      <trkpt lat="45.01688" lon="5.32205">
        <ele>325</ele>
        <time>2019-12-31T15:29:27.007Z</time>
      </trkpt>
      <trkpt lat="45.01697" lon="5.32191">
        <ele>325</ele>
        <time>2019-12-31T15:29:29.007Z</time>
      </trkpt>
      <trkpt lat="45.01709" lon="5.32182">
        <ele>324.54141939154</ele>
        <time>2019-12-31T15:29:31.007Z</time>
      </trkpt>
      <trkpt lat="45.01721" lon="5.32174">
        <ele>323</ele>
        <time>2019-12-31T15:29:33.007Z</time>
      </trkpt>
      <trkpt lat="45.01732" lon="5.32168">
        <ele>323</ele>
        <time>2019-12-31T15:29:35.007Z</time>
      </trkpt>
      <trkpt lat="45.01742" lon="5.3216">
        <ele>323</ele>
        <time>2019-12-31T15:29:37.007Z</time>
      </trkpt>
      <trkpt lat="45.01752" lon="5.32151">
        <ele>323</ele>
        <time>2019-12-31T15:29:39.007Z</time>
      </trkpt>
      <trkpt lat="45.01763" lon="5.32142">
        <ele>322</ele>
        <time>2019-12-31T15:29:42.007Z</time>
      </trkpt>
      <trkpt lat="45.01772" lon="5.32134">
        <ele>322</ele>
        <time>2019-12-31T15:29:44.007Z</time>
      </trkpt>
      <trkpt lat="45.01783" lon="5.32123">
        <ele>322</ele>
        <time>2019-12-31T15:29:47.007Z</time>
      </trkpt>
      <trkpt lat="45.01792" lon="5.32116">
        <ele>322</ele>
        <time>2019-12-31T15:29:50.007Z</time>
      </trkpt>
      <trkpt lat="45.01802" lon="5.32106">
        <ele>322</ele>
        <time>2019-12-31T15:29:54.007Z</time>
      </trkpt>
      <trkpt lat="45.01806" lon="5.32094">
        <ele>322</ele>
        <time>2019-12-31T15:30:49.007Z</time>
      </trkpt>
      <trkpt lat="45.01814" lon="5.32081">
        <ele>322</ele>
        <time>2019-12-31T15:30:53.007Z</time>
      </trkpt>
      <trkpt lat="45.01819" lon="5.3207">
        <ele>322</ele>
        <time>2019-12-31T15:30:55.007Z</time>
      </trkpt>
      <trkpt lat="45.01825" lon="5.32057">
        <ele>322</ele>
        <time>2019-12-31T15:30:57.007Z</time>
      </trkpt>
      <trkpt lat="45.0183" lon="5.32042">
        <ele>322</ele>
        <time>2019-12-31T15:30:59.007Z</time>
      </trkpt>
      <trkpt lat="45.01833" lon="5.32022">
        <ele>319.8669568</ele>
        <time>2019-12-31T15:31:01.007Z</time>
      </trkpt>
      <trkpt lat="45.01833" lon="5.31998">
        <ele>311.7629952</ele>
        <time>2019-12-31T15:31:03.007Z</time>
      </trkpt>
      <trkpt lat="45.01834" lon="5.31973">
        <ele>310</ele>
        <time>2019-12-31T15:31:05.007Z</time>
      </trkpt>
      <trkpt lat="45.01836" lon="5.31949">
        <ele>308.7629952</ele>
        <time>2019-12-31T15:31:07.007Z</time>
      </trkpt>
      <trkpt lat="45.01839" lon="5.31929">
        <ele>306.7629952</ele>
        <time>2019-12-31T15:31:09.007Z</time>
      </trkpt>
      <trkpt lat="45.01847" lon="5.31912">
        <ele>304.77070969577</ele>
        <time>2019-12-31T15:31:11.007Z</time>
      </trkpt>
      <trkpt lat="45.01856" lon="5.31895">
        <ele>304</ele>
        <time>2019-12-31T15:31:13.007Z</time>
      </trkpt>
      <trkpt lat="45.0186" lon="5.31876">
        <ele>303</ele>
        <time>2019-12-31T15:31:15.007Z</time>
      </trkpt>
      <trkpt lat="45.01862" lon="5.31854">
        <ele>302</ele>
        <time>2019-12-31T15:31:17.007Z</time>
      </trkpt>
      <trkpt lat="45.01862" lon="5.31832">
        <ele>300</ele>
        <time>2019-12-31T15:31:19.007Z</time>
      </trkpt>
      <trkpt lat="45.01862" lon="5.31816">
        <ele>298.7629952</ele>
        <time>2019-12-31T15:31:21.007Z</time>
      </trkpt>
      <trkpt lat="45.01866" lon="5.31801">
        <ele>297</ele>
        <time>2019-12-31T15:31:24.007Z</time>
      </trkpt>
      <trkpt lat="45.01876" lon="5.31802">
        <ele>297</ele>
        <time>2019-12-31T15:31:29.007Z</time>
      </trkpt>
      <trkpt lat="45.01882" lon="5.31808">
        <ele>297</ele>
        <time>2019-12-31T15:31:34.007Z</time>
      </trkpt>
      <trkpt lat="45.01887" lon="5.31813">
        <ele>297</ele>
        <time>2019-12-31T15:31:48.007Z</time>
      </trkpt>
      <trkpt lat="45.01892" lon="5.31818">
        <ele>297</ele>
        <time>2019-12-31T15:31:50.007Z</time>
      </trkpt>
      <trkpt lat="45.019" lon="5.31823">
        <ele>296</ele>
        <time>2019-12-31T15:31:52.007Z</time>
      </trkpt>
      <trkpt lat="45.01904" lon="5.31826">
        <ele>296</ele>
        <time>2019-12-31T15:31:53.007Z</time>
      </trkpt>
      <trkpt lat="45.01908" lon="5.31829">
        <ele>296</ele>
        <time>2019-12-31T15:31:54.007Z</time>
      </trkpt>
      <trkpt lat="45.01913" lon="5.31833">
        <ele>296</ele>
        <time>2019-12-31T15:31:55.007Z</time>
      </trkpt>
      <trkpt lat="45.01918" lon="5.31836">
        <ele>296</ele>
        <time>2019-12-31T15:31:56.007Z</time>
      </trkpt>
      <trkpt lat="45.01923" lon="5.31841">
        <ele>296</ele>
        <time>2019-12-31T15:31:57.007Z</time>
      </trkpt>
      <trkpt lat="45.01928" lon="5.31845">
        <ele>296</ele>
        <time>2019-12-31T15:31:58.007Z</time>
      </trkpt>
      <trkpt lat="45.01933" lon="5.31849">
        <ele>296</ele>
        <time>2019-12-31T15:31:59.007Z</time>
      </trkpt>
      <trkpt lat="45.01944" lon="5.31856">
        <ele>295.2889856</ele>
        <time>2019-12-31T15:32:01.007Z</time>
      </trkpt>
      <trkpt lat="45.01955" lon="5.31863">
        <ele>293</ele>
        <time>2019-12-31T15:32:03.007Z</time>
      </trkpt>
      <trkpt lat="45.01959" lon="5.31866">
        <ele>293</ele>
        <time>2019-12-31T15:32:04.007Z</time>
      </trkpt>
      <trkpt lat="45.01964" lon="5.31874">
        <ele>293</ele>
        <time>2019-12-31T15:32:06.007Z</time>
      </trkpt>
      <trkpt lat="45.01963" lon="5.31882">
        <ele>293</ele>
        <time>2019-12-31T15:32:08.007Z</time>
      </trkpt>
      <trkpt lat="45.01959" lon="5.31886">
        <ele>293</ele>
        <time>2019-12-31T15:32:10.007Z</time>
      </trkpt>
      <trkpt lat="45.01956" lon="5.31893">
        <ele>291</ele>
        <time>2019-12-31T15:32:16.007Z</time>
      </trkpt>
      <trkpt lat="45.01957" lon="5.31906">
        <ele>291</ele>
        <time>2019-12-31T15:33:31.007Z</time>
      </trkpt>
      <trkpt lat="45.0196" lon="5.31916">
        <ele>291</ele>
        <time>2019-12-31T15:33:34.007Z</time>
      </trkpt>
      <trkpt lat="45.01967" lon="5.31919">
        <ele>291</ele>
        <time>2019-12-31T15:33:37.007Z</time>
      </trkpt>
      <trkpt lat="45.01976" lon="5.3192">
        <ele>291</ele>
        <time>2019-12-31T15:33:39.007Z</time>
      </trkpt>
      <trkpt lat="45.01987" lon="5.3192">
        <ele>290.0519808</ele>
        <time>2019-12-31T15:33:41.007Z</time>
      </trkpt>
      <trkpt lat="45.01998" lon="5.31918">
        <ele>287</ele>
        <time>2019-12-31T15:33:43.007Z</time>
      </trkpt>
      <trkpt lat="45.02009" lon="5.31914">
        <ele>287</ele>
        <time>2019-12-31T15:33:45.007Z</time>
      </trkpt>
      <trkpt lat="45.02021" lon="5.31912">
        <ele>284</ele>
        <time>2019-12-31T15:33:47.007Z</time>
      </trkpt>
      <trkpt lat="45.0203" lon="5.31912">
        <ele>284</ele>
        <time>2019-12-31T15:33:49.007Z</time>
      </trkpt>
      <trkpt lat="45.02039" lon="5.3191">
        <ele>283.5259904</ele>
        <time>2019-12-31T15:33:51.007Z</time>
      </trkpt>
      <trkpt lat="45.02048" lon="5.3191">
        <ele>280.77070969577</ele>
        <time>2019-12-31T15:33:53.007Z</time>
      </trkpt>
      <trkpt lat="45.02056" lon="5.31912">
        <ele>279</ele>
        <time>2019-12-31T15:33:55.007Z</time>
      </trkpt>
      <trkpt lat="45.02064" lon="5.31918">
        <ele>279</ele>
        <time>2019-12-31T15:33:57.007Z</time>
      </trkpt>
      <trkpt lat="45.0207" lon="5.31925">
        <ele>278.77070969577</ele>
        <time>2019-12-31T15:33:59.007Z</time>
      </trkpt>
      <trkpt lat="45.02075" lon="5.31929">
        <ele>278</ele>
        <time>2019-12-31T15:34:01.007Z</time>
      </trkpt>
      <trkpt lat="45.02082" lon="5.31934">
        <ele>278</ele>
        <time>2019-12-31T15:34:03.007Z</time>
      </trkpt>
      <trkpt lat="45.0209" lon="5.31938">
        <ele>278</ele>
        <time>2019-12-31T15:34:05.007Z</time>
      </trkpt>
      <trkpt lat="45.02098" lon="5.31942">
        <ele>277</ele>
        <time>2019-12-31T15:34:07.007Z</time>
      </trkpt>
      <trkpt lat="45.02105" lon="5.31947">
        <ele>277</ele>
        <time>2019-12-31T15:34:09.007Z</time>
      </trkpt>
      <trkpt lat="45.02111" lon="5.31955">
        <ele>276.0920075777</ele>
        <time>2019-12-31T15:34:11.007Z</time>
      </trkpt>
      <trkpt lat="45.02118" lon="5.31962">
        <ele>271</ele>
        <time>2019-12-31T15:34:13.007Z</time>
      </trkpt>
      <trkpt lat="45.02126" lon="5.31965">
        <ele>269.7629952</ele>
        <time>2019-12-31T15:34:15.007Z</time>
      </trkpt>
      <trkpt lat="45.02137" lon="5.31961">
        <ele>267</ele>
        <time>2019-12-31T15:34:18.007Z</time>
      </trkpt>
      <trkpt lat="45.02147" lon="5.31951">
        <ele>265</ele>
        <time>2019-12-31T15:34:21.007Z</time>
      </trkpt>
      <trkpt lat="45.02151" lon="5.31956">
        <ele>263</ele>
        <time>2019-12-31T15:34:29.007Z</time>
      </trkpt>
      <trkpt lat="45.0215" lon="5.31966">
        <ele>264</ele>
        <time>2019-12-31T15:34:56.007Z</time>
      </trkpt>
      <trkpt lat="45.02151" lon="5.31983">
        <ele>264</ele>
        <time>2019-12-31T15:35:00.007Z</time>
      </trkpt>
      <trkpt lat="45.02161" lon="5.31986">
        <ele>254.7629952</ele>
        <time>2019-12-31T15:35:05.007Z</time>
      </trkpt>
      <trkpt lat="45.02168" lon="5.31995">
        <ele>253</ele>
        <time>2019-12-31T15:35:09.007Z</time>
      </trkpt>
      <trkpt lat="45.02164" lon="5.32004">
        <ele>252</ele>
        <time>2019-12-31T15:35:12.007Z</time>
      </trkpt>
      <trkpt lat="45.02163" lon="5.32015">
        <ele>249.7629952</ele>
        <time>2019-12-31T15:35:15.007Z</time>
      </trkpt>
      <trkpt lat="45.02168" lon="5.32027">
        <ele>247.77069973107</ele>
        <time>2019-12-31T15:35:18.007Z</time>
      </trkpt>
      <trkpt lat="45.02164" lon="5.3204">
        <ele>244.76534401257</ele>
        <time>2019-12-31T15:35:22.007Z</time>
      </trkpt>
      <trkpt lat="45.02154" lon="5.32049">
        <ele>242</ele>
        <time>2019-12-31T15:35:25.007Z</time>
      </trkpt>
      <trkpt lat="45.02147" lon="5.32057">
        <ele>241.7629952</ele>
        <time>2019-12-31T15:35:27.007Z</time>
      </trkpt>
      <trkpt lat="45.0214" lon="5.32065">
        <ele>242</ele>
        <time>2019-12-31T15:35:29.007Z</time>
      </trkpt>
      <trkpt lat="45.02147" lon="5.32073">
        <ele>242</ele>
        <time>2019-12-31T15:35:43.007Z</time>
      </trkpt>
      <trkpt lat="45.02152" lon="5.32076">
        <ele>242</ele>
        <time>2019-12-31T15:36:24.007Z</time>
      </trkpt>
      <trkpt lat="45.02156" lon="5.32085">
        <ele>241</ele>
        <time>2019-12-31T15:36:58.007Z</time>
      </trkpt>
      <trkpt lat="45.02155" lon="5.32096">
        <ele>242</ele>
        <time>2019-12-31T15:37:30.007Z</time>
      </trkpt>
      <trkpt lat="45.02151" lon="5.32108">
        <ele>242</ele>
        <time>2019-12-31T15:37:40.007Z</time>
      </trkpt>
      <trkpt lat="45.02144" lon="5.32113">
        <ele>243</ele>
        <time>2019-12-31T15:37:51.007Z</time>
      </trkpt>
      <trkpt lat="45.02135" lon="5.32122">
        <ele>245</ele>
        <time>2019-12-31T15:38:22.007Z</time>
      </trkpt>
      <trkpt lat="45.02129" lon="5.32128">
        <ele>247</ele>
        <time>2019-12-31T15:38:37.007Z</time>
      </trkpt>
      <trkpt lat="45.02127" lon="5.32142">
        <ele>248</ele>
        <time>2019-12-31T15:38:46.007Z</time>
      </trkpt>
      <trkpt lat="45.02123" lon="5.32152">
        <ele>249</ele>
        <time>2019-12-31T15:38:53.007Z</time>
      </trkpt>
      <trkpt lat="45.02118" lon="5.3216">
        <ele>251</ele>
        <time>2019-12-31T15:39:04.007Z</time>
      </trkpt>
      <trkpt lat="45.02113" lon="5.32169">
        <ele>253</ele>
        <time>2019-12-31T15:39:15.007Z</time>
      </trkpt>
      <trkpt lat="45.02109" lon="5.32177">
        <ele>255</ele>
        <time>2019-12-31T15:39:25.007Z</time>
      </trkpt>
      <trkpt lat="45.02105" lon="5.32186">
        <ele>256</ele>
        <time>2019-12-31T15:39:35.007Z</time>
      </trkpt>
      <trkpt lat="45.02109" lon="5.32195">
        <ele>260</ele>
        <time>2019-12-31T15:39:48.007Z</time>
      </trkpt>
      <trkpt lat="45.02111" lon="5.32186">
        <ele>261</ele>
        <time>2019-12-31T15:40:33.007Z</time>
      </trkpt>
      <trkpt lat="45.02118" lon="5.32181">
        <ele>261</ele>
        <time>2019-12-31T15:40:37.007Z</time>
      </trkpt>
      <trkpt lat="45.02124" lon="5.32174">
        <ele>261.22929030423</ele>
        <time>2019-12-31T15:40:41.007Z</time>
      </trkpt>
      <trkpt lat="45.02132" lon="5.32171">
        <ele>262</ele>
        <time>2019-12-31T15:40:44.007Z</time>
      </trkpt>
      <trkpt lat="45.0214" lon="5.32169">
        <ele>262</ele>
        <time>2019-12-31T15:40:47.007Z</time>
      </trkpt>
      <trkpt lat="45.02147" lon="5.32167">
        <ele>262</ele>
        <time>2019-12-31T15:40:50.007Z</time>
      </trkpt>
      <trkpt lat="45.02154" lon="5.32165">
        <ele>263</ele>
        <time>2019-12-31T15:40:53.007Z</time>
      </trkpt>
      <trkpt lat="45.02162" lon="5.32165">
        <ele>263</ele>
        <time>2019-12-31T15:40:56.007Z</time>
      </trkpt>
      <trkpt lat="45.02167" lon="5.32163">
        <ele>263</ele>
        <time>2019-12-31T15:40:58.007Z</time>
      </trkpt>
      <trkpt lat="45.02171" lon="5.32162">
        <ele>263</ele>
        <time>2019-12-31T15:41:00.007Z</time>
      </trkpt>
      <trkpt lat="45.02176" lon="5.32161">
        <ele>266</ele>
        <time>2019-12-31T15:41:02.007Z</time>
      </trkpt>
      <trkpt lat="45.02181" lon="5.32159">
        <ele>266</ele>
        <time>2019-12-31T15:41:04.007Z</time>
      </trkpt>
      <trkpt lat="45.02187" lon="5.32155">
        <ele>267</ele>
        <time>2019-12-31T15:41:07.007Z</time>
      </trkpt>
      <trkpt lat="45.02193" lon="5.3215">
        <ele>267</ele>
        <time>2019-12-31T15:41:10.007Z</time>
      </trkpt>
      <trkpt lat="45.022" lon="5.32143">
        <ele>269</ele>
        <time>2019-12-31T15:41:14.007Z</time>
      </trkpt>
      <trkpt lat="45.02205" lon="5.32137">
        <ele>270</ele>
        <time>2019-12-31T15:41:17.007Z</time>
      </trkpt>
      <trkpt lat="45.02212" lon="5.32131">
        <ele>270</ele>
        <time>2019-12-31T15:41:20.007Z</time>
      </trkpt>
      <trkpt lat="45.02217" lon="5.32126">
        <ele>271</ele>
        <time>2019-12-31T15:41:23.007Z</time>
      </trkpt>
      <trkpt lat="45.02223" lon="5.3212">
        <ele>271.2370048</ele>
        <time>2019-12-31T15:41:26.007Z</time>
      </trkpt>
      <trkpt lat="45.02229" lon="5.32116">
        <ele>272</ele>
        <time>2019-12-31T15:41:29.007Z</time>
      </trkpt>
      <trkpt lat="45.02235" lon="5.3211">
        <ele>274</ele>
        <time>2019-12-31T15:41:32.007Z</time>
      </trkpt>
      <trkpt lat="45.02242" lon="5.32107">
        <ele>274</ele>
        <time>2019-12-31T15:41:35.007Z</time>
      </trkpt>
      <trkpt lat="45.02249" lon="5.32103">
        <ele>275</ele>
        <time>2019-12-31T15:41:38.007Z</time>
      </trkpt>
      <trkpt lat="45.02256" lon="5.321">
        <ele>275.2346589613</ele>
        <time>2019-12-31T15:41:41.007Z</time>
      </trkpt>
      <trkpt lat="45.02263" lon="5.32096">
        <ele>276</ele>
        <time>2019-12-31T15:41:44.007Z</time>
      </trkpt>
      <trkpt lat="45.0227" lon="5.32093">
        <ele>277</ele>
        <time>2019-12-31T15:41:47.007Z</time>
      </trkpt>
      <trkpt lat="45.02277" lon="5.32089">
        <ele>277.4740096</ele>
        <time>2019-12-31T15:41:51.007Z</time>
      </trkpt>
      <trkpt lat="45.02273" lon="5.32098">
        <ele>279</ele>
        <time>2019-12-31T15:41:56.007Z</time>
      </trkpt>
      <trkpt lat="45.02266" lon="5.32105">
        <ele>279</ele>
        <time>2019-12-31T15:42:00.007Z</time>
      </trkpt>
      <trkpt lat="45.02262" lon="5.32111">
        <ele>280</ele>
        <time>2019-12-31T15:42:03.007Z</time>
      </trkpt>
      <trkpt lat="45.02257" lon="5.32117">
        <ele>280</ele>
        <time>2019-12-31T15:42:06.007Z</time>
      </trkpt>
      <trkpt lat="45.02253" lon="5.32124">
        <ele>279</ele>
        <time>2019-12-31T15:42:09.007Z</time>
      </trkpt>
      <trkpt lat="45.02249" lon="5.32132">
        <ele>281</ele>
        <time>2019-12-31T15:42:13.007Z</time>
      </trkpt>
      <trkpt lat="45.02244" lon="5.32141">
        <ele>281</ele>
        <time>2019-12-31T15:42:17.007Z</time>
      </trkpt>
      <trkpt lat="45.0224" lon="5.32148">
        <ele>281</ele>
        <time>2019-12-31T15:42:20.007Z</time>
      </trkpt>
      <trkpt lat="45.02237" lon="5.32152">
        <ele>283</ele>
        <time>2019-12-31T15:42:22.007Z</time>
      </trkpt>
      <trkpt lat="45.02233" lon="5.32159">
        <ele>283</ele>
        <time>2019-12-31T15:42:25.007Z</time>
      </trkpt>
      <trkpt lat="45.02227" lon="5.32166">
        <ele>283</ele>
        <time>2019-12-31T15:42:28.007Z</time>
      </trkpt>
      <trkpt lat="45.02224" lon="5.32171">
        <ele>283</ele>
        <time>2019-12-31T15:42:30.007Z</time>
      </trkpt>
      <trkpt lat="45.02221" lon="5.32179">
        <ele>282</ele>
        <time>2019-12-31T15:42:33.007Z</time>
      </trkpt>
      <trkpt lat="45.0222" lon="5.32187">
        <ele>282</ele>
        <time>2019-12-31T15:42:36.007Z</time>
      </trkpt>
      <trkpt lat="45.02221" lon="5.32196">
        <ele>282</ele>
        <time>2019-12-31T15:42:39.007Z</time>
      </trkpt>
      <trkpt lat="45.02224" lon="5.32202">
        <ele>283</ele>
        <time>2019-12-31T15:42:42.007Z</time>
      </trkpt>
      <trkpt lat="45.02229" lon="5.32205">
        <ele>283</ele>
        <time>2019-12-31T15:42:45.007Z</time>
      </trkpt>
      <trkpt lat="45.02234" lon="5.32207">
        <ele>283</ele>
        <time>2019-12-31T15:42:48.007Z</time>
      </trkpt>
      <trkpt lat="45.0224" lon="5.32208">
        <ele>284.2370048</ele>
        <time>2019-12-31T15:43:11.007Z</time>
      </trkpt>
      <trkpt lat="45.02246" lon="5.32211">
        <ele>285</ele>
        <time>2019-12-31T15:43:14.007Z</time>
      </trkpt>
      <trkpt lat="45.02253" lon="5.32215">
        <ele>285</ele>
        <time>2019-12-31T15:43:17.007Z</time>
      </trkpt>
      <trkpt lat="45.02257" lon="5.32218">
        <ele>285</ele>
        <time>2019-12-31T15:43:19.007Z</time>
      </trkpt>
      <trkpt lat="45.02262" lon="5.32221">
        <ele>285.4740096</ele>
        <time>2019-12-31T15:43:21.007Z</time>
      </trkpt>
      <trkpt lat="45.02267" lon="5.32225">
        <ele>287</ele>
        <time>2019-12-31T15:43:23.007Z</time>
      </trkpt>
      <trkpt lat="45.02271" lon="5.32229">
        <ele>287</ele>
        <time>2019-12-31T15:43:25.007Z</time>
      </trkpt>
      <trkpt lat="45.02275" lon="5.32233">
        <ele>287</ele>
        <time>2019-12-31T15:43:27.007Z</time>
      </trkpt>
      <trkpt lat="45.0228" lon="5.32238">
        <ele>286.7629952</ele>
        <time>2019-12-31T15:43:29.007Z</time>
      </trkpt>
      <trkpt lat="45.02284" lon="5.32243">
        <ele>286</ele>
        <time>2019-12-31T15:43:31.007Z</time>
      </trkpt>
      <trkpt lat="45.02289" lon="5.32248">
        <ele>286</ele>
        <time>2019-12-31T15:43:33.007Z</time>
      </trkpt>
      <trkpt lat="45.02293" lon="5.32254">
        <ele>286</ele>
        <time>2019-12-31T15:43:35.007Z</time>
      </trkpt>
      <trkpt lat="45.02297" lon="5.32259">
        <ele>286</ele>
        <time>2019-12-31T15:43:37.007Z</time>
      </trkpt>
      <trkpt lat="45.02302" lon="5.32263">
        <ele>286</ele>
        <time>2019-12-31T15:43:39.007Z</time>
      </trkpt>
      <trkpt lat="45.02307" lon="5.32268">
        <ele>286.2370048</ele>
        <time>2019-12-31T15:43:41.007Z</time>
      </trkpt>
      <trkpt lat="45.02312" lon="5.32273">
        <ele>287</ele>
        <time>2019-12-31T15:43:43.007Z</time>
      </trkpt>
      <trkpt lat="45.02318" lon="5.32278">
        <ele>287</ele>
        <time>2019-12-31T15:43:45.007Z</time>
      </trkpt>
      <trkpt lat="45.02323" lon="5.32283">
        <ele>287</ele>
        <time>2019-12-31T15:43:47.007Z</time>
      </trkpt>
      <trkpt lat="45.02327" lon="5.32289">
        <ele>287</ele>
        <time>2019-12-31T15:43:49.007Z</time>
      </trkpt>
      <trkpt lat="45.02331" lon="5.32295">
        <ele>287.2370048</ele>
        <time>2019-12-31T15:43:51.007Z</time>
      </trkpt>
      <trkpt lat="45.02334" lon="5.32302">
        <ele>288</ele>
        <time>2019-12-31T15:43:53.007Z</time>
      </trkpt>
      <trkpt lat="45.02336" lon="5.3231">
        <ele>288</ele>
        <time>2019-12-31T15:43:55.007Z</time>
      </trkpt>
      <trkpt lat="45.02337" lon="5.32318">
        <ele>288</ele>
        <time>2019-12-31T15:43:57.007Z</time>
      </trkpt>
      <trkpt lat="45.02337" lon="5.32326">
        <ele>288</ele>
        <time>2019-12-31T15:43:59.007Z</time>
      </trkpt>
      <trkpt lat="45.02337" lon="5.32333">
        <ele>288</ele>
        <time>2019-12-31T15:44:01.007Z</time>
      </trkpt>
      <trkpt lat="45.02338" lon="5.32343">
        <ele>288</ele>
        <time>2019-12-31T15:44:04.007Z</time>
      </trkpt>
      <trkpt lat="45.02341" lon="5.32351">
        <ele>288</ele>
        <time>2019-12-31T15:44:07.007Z</time>
      </trkpt>
      <trkpt lat="45.02346" lon="5.32354">
        <ele>288</ele>
        <time>2019-12-31T15:44:10.007Z</time>
      </trkpt>
      <trkpt lat="45.02353" lon="5.32355">
        <ele>291</ele>
        <time>2019-12-31T15:44:13.007Z</time>
      </trkpt>
      <trkpt lat="45.02359" lon="5.32354">
        <ele>291.4740096</ele>
        <time>2019-12-31T15:44:16.007Z</time>
      </trkpt>
      <trkpt lat="45.02365" lon="5.32353">
        <ele>293</ele>
        <time>2019-12-31T15:44:19.007Z</time>
      </trkpt>
      <trkpt lat="45.02372" lon="5.3235">
        <ele>294</ele>
        <time>2019-12-31T15:44:23.007Z</time>
      </trkpt>
      <trkpt lat="45.02378" lon="5.32352">
        <ele>294.4740096</ele>
        <time>2019-12-31T15:44:26.007Z</time>
      </trkpt>
      <trkpt lat="45.02383" lon="5.32356">
        <ele>296</ele>
        <time>2019-12-31T15:44:29.007Z</time>
      </trkpt>
      <trkpt lat="45.02387" lon="5.3236">
        <ele>297</ele>
        <time>2019-12-31T15:44:32.007Z</time>
      </trkpt>
      <trkpt lat="45.02391" lon="5.32363">
        <ele>297</ele>
        <time>2019-12-31T15:44:35.007Z</time>
      </trkpt>
      <trkpt lat="45.02396" lon="5.32364">
        <ele>299</ele>
        <time>2019-12-31T15:44:38.007Z</time>
      </trkpt>
      <trkpt lat="45.02402" lon="5.32365">
        <ele>300</ele>
        <time>2019-12-31T15:44:42.007Z</time>
      </trkpt>
      <trkpt lat="45.02407" lon="5.32366">
        <ele>300.2370048</ele>
        <time>2019-12-31T15:44:46.007Z</time>
      </trkpt>
      <trkpt lat="45.0241" lon="5.32363">
        <ele>301</ele>
        <time>2019-12-31T15:44:50.007Z</time>
      </trkpt>
      <trkpt lat="45.02414" lon="5.32362">
        <ele>302</ele>
        <time>2019-12-31T15:45:19.007Z</time>
      </trkpt>
      <trkpt lat="45.02418" lon="5.32358">
        <ele>302</ele>
        <time>2019-12-31T15:45:21.007Z</time>
      </trkpt>
      <trkpt lat="45.02421" lon="5.32353">
        <ele>302</ele>
        <time>2019-12-31T15:45:23.007Z</time>
      </trkpt>
      <trkpt lat="45.02425" lon="5.32349">
        <ele>302</ele>
        <time>2019-12-31T15:45:25.007Z</time>
      </trkpt>
      <trkpt lat="45.02429" lon="5.32344">
        <ele>302</ele>
        <time>2019-12-31T15:45:27.007Z</time>
      </trkpt>
      <trkpt lat="45.02434" lon="5.32341">
        <ele>302</ele>
        <time>2019-12-31T15:45:29.007Z</time>
      </trkpt>
      <trkpt lat="45.02438" lon="5.32336">
        <ele>302.2370048</ele>
        <time>2019-12-31T15:45:31.007Z</time>
      </trkpt>
      <trkpt lat="45.02442" lon="5.32331">
        <ele>303</ele>
        <time>2019-12-31T15:45:33.007Z</time>
      </trkpt>
      <trkpt lat="45.02448" lon="5.32325">
        <ele>303</ele>
        <time>2019-12-31T15:45:36.007Z</time>
      </trkpt>
      <trkpt lat="45.02454" lon="5.32318">
        <ele>303</ele>
        <time>2019-12-31T15:45:39.007Z</time>
      </trkpt>
      <trkpt lat="45.02461" lon="5.32313">
        <ele>304</ele>
        <time>2019-12-31T15:45:42.007Z</time>
      </trkpt>
      <trkpt lat="45.02466" lon="5.3231">
        <ele>304</ele>
        <time>2019-12-31T15:45:44.007Z</time>
      </trkpt>
      <trkpt lat="45.02473" lon="5.32304">
        <ele>304</ele>
        <time>2019-12-31T15:45:47.007Z</time>
      </trkpt>
      <trkpt lat="45.02479" lon="5.32302">
        <ele>304</ele>
        <time>2019-12-31T15:45:49.007Z</time>
      </trkpt>
      <trkpt lat="45.02483" lon="5.32298">
        <ele>304</ele>
        <time>2019-12-31T15:45:51.007Z</time>
      </trkpt>
      <trkpt lat="45.02488" lon="5.32294">
        <ele>304</ele>
        <time>2019-12-31T15:45:53.007Z</time>
      </trkpt>
      <trkpt lat="45.02494" lon="5.32292">
        <ele>304</ele>
        <time>2019-12-31T15:45:55.007Z</time>
      </trkpt>
      <trkpt lat="45.02499" lon="5.3229">
        <ele>304</ele>
        <time>2019-12-31T15:45:57.007Z</time>
      </trkpt>
      <trkpt lat="45.02505" lon="5.32288">
        <ele>304</ele>
        <time>2019-12-31T15:45:59.007Z</time>
      </trkpt>
      <trkpt lat="45.02513" lon="5.32284">
        <ele>306</ele>
        <time>2019-12-31T15:46:02.007Z</time>
      </trkpt>
      <trkpt lat="45.02519" lon="5.32281">
        <ele>306</ele>
        <time>2019-12-31T15:46:04.007Z</time>
      </trkpt>
      <trkpt lat="45.02521" lon="5.32279">
        <ele>306</ele>
        <time>2019-12-31T15:46:05.007Z</time>
      </trkpt>
      <trkpt lat="45.02524" lon="5.32277">
        <ele>306</ele>
        <time>2019-12-31T15:46:06.007Z</time>
      </trkpt>
      <trkpt lat="45.02529" lon="5.32275">
        <ele>306</ele>
        <time>2019-12-31T15:46:08.007Z</time>
      </trkpt>
      <trkpt lat="45.02535" lon="5.32272">
        <ele>306</ele>
        <time>2019-12-31T15:46:10.007Z</time>
      </trkpt>
      <trkpt lat="45.0254" lon="5.32269">
        <ele>306</ele>
        <time>2019-12-31T15:46:12.007Z</time>
      </trkpt>
      <trkpt lat="45.02545" lon="5.32266">
        <ele>306</ele>
        <time>2019-12-31T15:46:14.007Z</time>
      </trkpt>
      <trkpt lat="45.0255" lon="5.32263">
        <ele>306</ele>
        <time>2019-12-31T15:46:16.007Z</time>
      </trkpt>
      <trkpt lat="45.02555" lon="5.3226">
        <ele>306</ele>
        <time>2019-12-31T15:46:18.007Z</time>
      </trkpt>
      <trkpt lat="45.0256" lon="5.32255">
        <ele>306</ele>
        <time>2019-12-31T15:46:20.007Z</time>
      </trkpt>
      <trkpt lat="45.02564" lon="5.3225">
        <ele>308</ele>
        <time>2019-12-31T15:46:22.007Z</time>
      </trkpt>
      <trkpt lat="45.02568" lon="5.32248">
        <ele>308</ele>
        <time>2019-12-31T15:46:24.007Z</time>
      </trkpt>
      <trkpt lat="45.02571" lon="5.32254">
        <ele>308</ele>
        <time>2019-12-31T15:46:26.007Z</time>
      </trkpt>
      <trkpt lat="45.02567" lon="5.32261">
        <ele>308</ele>
        <time>2019-12-31T15:46:29.007Z</time>
      </trkpt>
      <trkpt lat="45.02563" lon="5.32265">
        <ele>308.4740096</ele>
        <time>2019-12-31T15:46:31.007Z</time>
      </trkpt>
      <trkpt lat="45.02559" lon="5.32269">
        <ele>310</ele>
        <time>2019-12-31T15:46:33.007Z</time>
      </trkpt>
      <trkpt lat="45.02555" lon="5.32273">
        <ele>310</ele>
        <time>2019-12-31T15:46:35.007Z</time>
      </trkpt>
      <trkpt lat="45.02552" lon="5.32277">
        <ele>310</ele>
        <time>2019-12-31T15:46:37.007Z</time>
      </trkpt>
      <trkpt lat="45.02548" lon="5.3228">
        <ele>310</ele>
        <time>2019-12-31T15:46:39.007Z</time>
      </trkpt>
      <trkpt lat="45.02543" lon="5.32283">
        <ele>310.4740096</ele>
        <time>2019-12-31T15:46:41.007Z</time>
      </trkpt>
      <trkpt lat="45.02539" lon="5.32287">
        <ele>312</ele>
        <time>2019-12-31T15:46:43.007Z</time>
      </trkpt>
      <trkpt lat="45.02536" lon="5.32291">
        <ele>312</ele>
        <time>2019-12-31T15:46:45.007Z</time>
      </trkpt>
      <trkpt lat="45.02532" lon="5.32295">
        <ele>314</ele>
        <time>2019-12-31T15:46:47.007Z</time>
      </trkpt>
      <trkpt lat="45.02528" lon="5.32302">
        <ele>314</ele>
        <time>2019-12-31T15:46:50.007Z</time>
      </trkpt>
      <trkpt lat="45.02525" lon="5.32307">
        <ele>314</ele>
        <time>2019-12-31T15:46:52.007Z</time>
      </trkpt>
      <trkpt lat="45.02521" lon="5.32313">
        <ele>314</ele>
        <time>2019-12-31T15:46:55.007Z</time>
      </trkpt>
      <trkpt lat="45.02518" lon="5.32321">
        <ele>314</ele>
        <time>2019-12-31T15:46:58.007Z</time>
      </trkpt>
      <trkpt lat="45.02513" lon="5.32327">
        <ele>314.4740096</ele>
        <time>2019-12-31T15:47:01.007Z</time>
      </trkpt>
      <trkpt lat="45.02508" lon="5.32332">
        <ele>316</ele>
        <time>2019-12-31T15:47:04.007Z</time>
      </trkpt>
      <trkpt lat="45.02504" lon="5.32338">
        <ele>316</ele>
        <time>2019-12-31T15:47:07.007Z</time>
      </trkpt>
      <trkpt lat="45.02502" lon="5.32342">
        <ele>316</ele>
        <time>2019-12-31T15:47:09.007Z</time>
      </trkpt>
      <trkpt lat="45.02499" lon="5.32349">
        <ele>318</ele>
        <time>2019-12-31T15:47:12.007Z</time>
      </trkpt>
      <trkpt lat="45.02498" lon="5.32357">
        <ele>318</ele>
        <time>2019-12-31T15:47:16.007Z</time>
      </trkpt>
      <trkpt lat="45.02497" lon="5.32368">
        <ele>318.4740096</ele>
        <time>2019-12-31T15:47:21.007Z</time>
      </trkpt>
      <trkpt lat="45.02502" lon="5.32376">
        <ele>320.4740096</ele>
        <time>2019-12-31T15:47:26.007Z</time>
      </trkpt>
      <trkpt lat="45.02508" lon="5.32381">
        <ele>322</ele>
        <time>2019-12-31T15:47:30.007Z</time>
      </trkpt>
      <trkpt lat="45.02513" lon="5.32379">
        <ele>321</ele>
        <time>2019-12-31T15:47:53.007Z</time>
      </trkpt>
      <trkpt lat="45.02521" lon="5.32384">
        <ele>321</ele>
        <time>2019-12-31T15:47:56.007Z</time>
      </trkpt>
      <trkpt lat="45.02528" lon="5.32392">
        <ele>321</ele>
        <time>2019-12-31T15:47:59.007Z</time>
      </trkpt>
      <trkpt lat="45.02533" lon="5.32396">
        <ele>321.2370048</ele>
        <time>2019-12-31T15:48:01.007Z</time>
      </trkpt>
      <trkpt lat="45.02541" lon="5.32403">
        <ele>321.7629952</ele>
        <time>2019-12-31T15:48:04.007Z</time>
      </trkpt>
      <trkpt lat="45.02549" lon="5.32409">
        <ele>321</ele>
        <time>2019-12-31T15:48:07.007Z</time>
      </trkpt>
      <trkpt lat="45.02558" lon="5.32407">
        <ele>321</ele>
        <time>2019-12-31T15:48:10.007Z</time>
      </trkpt>
      <trkpt lat="45.02566" lon="5.32399">
        <ele>321</ele>
        <time>2019-12-31T15:48:13.007Z</time>
      </trkpt>
      <trkpt lat="45.02573" lon="5.32391">
        <ele>321</ele>
        <time>2019-12-31T15:48:15.007Z</time>
      </trkpt>
      <trkpt lat="45.02579" lon="5.32383">
        <ele>321</ele>
        <time>2019-12-31T15:48:17.007Z</time>
      </trkpt>
      <trkpt lat="45.02586" lon="5.32375">
        <ele>321</ele>
        <time>2019-12-31T15:48:19.007Z</time>
      </trkpt>
      <trkpt lat="45.02592" lon="5.32366">
        <ele>321</ele>
        <time>2019-12-31T15:48:21.007Z</time>
      </trkpt>
      <trkpt lat="45.02599" lon="5.32358">
        <ele>321</ele>
        <time>2019-12-31T15:48:23.007Z</time>
      </trkpt>
      <trkpt lat="45.02606" lon="5.32351">
        <ele>321</ele>
        <time>2019-12-31T15:48:25.007Z</time>
      </trkpt>
      <trkpt lat="45.02615" lon="5.3235">
        <ele>321</ele>
        <time>2019-12-31T15:48:27.007Z</time>
      </trkpt>
      <trkpt lat="45.02622" lon="5.32354">
        <ele>321</ele>
        <time>2019-12-31T15:48:29.007Z</time>
      </trkpt>
      <trkpt lat="45.0263" lon="5.32365">
        <ele>321</ele>
        <time>2019-12-31T15:48:32.007Z</time>
      </trkpt>
      <trkpt lat="45.02635" lon="5.32371">
        <ele>321</ele>
        <time>2019-12-31T15:48:35.007Z</time>
      </trkpt>
      <trkpt lat="45.02639" lon="5.32376">
        <ele>321</ele>
        <time>2019-12-31T15:48:38.007Z</time>
      </trkpt>
      <trkpt lat="45.02646" lon="5.32385">
        <ele>320</ele>
        <time>2019-12-31T15:48:42.007Z</time>
      </trkpt>
      <trkpt lat="45.02652" lon="5.32393">
        <ele>320</ele>
        <time>2019-12-31T15:48:46.007Z</time>
      </trkpt>
      <trkpt lat="45.02658" lon="5.32399">
        <ele>321</ele>
        <time>2019-12-31T15:49:12.007Z</time>
      </trkpt>
      <trkpt lat="45.02665" lon="5.32406">
        <ele>321</ele>
        <time>2019-12-31T15:49:15.007Z</time>
      </trkpt>
      <trkpt lat="45.02669" lon="5.32411">
        <ele>321</ele>
        <time>2019-12-31T15:49:17.007Z</time>
      </trkpt>
      <trkpt lat="45.02674" lon="5.32416">
        <ele>321</ele>
        <time>2019-12-31T15:49:19.007Z</time>
      </trkpt>
      <trkpt lat="45.02679" lon="5.32422">
        <ele>320.7629952</ele>
        <time>2019-12-31T15:49:21.007Z</time>
      </trkpt>
      <trkpt lat="45.02685" lon="5.32427">
        <ele>320</ele>
        <time>2019-12-31T15:49:23.007Z</time>
      </trkpt>
      <trkpt lat="45.0269" lon="5.32436">
        <ele>320</ele>
        <time>2019-12-31T15:49:25.007Z</time>
      </trkpt>
      <trkpt lat="45.02694" lon="5.32444">
        <ele>320</ele>
        <time>2019-12-31T15:49:27.007Z</time>
      </trkpt>
      <trkpt lat="45.02699" lon="5.32453">
        <ele>320</ele>
        <time>2019-12-31T15:49:29.007Z</time>
      </trkpt>
      <trkpt lat="45.02703" lon="5.3246">
        <ele>319.7629952</ele>
        <time>2019-12-31T15:49:31.007Z</time>
      </trkpt>
      <trkpt lat="45.0271" lon="5.32454">
        <ele>319</ele>
        <time>2019-12-31T15:49:34.007Z</time>
      </trkpt>
      <trkpt lat="45.02716" lon="5.32447">
        <ele>319</ele>
        <time>2019-12-31T15:49:36.007Z</time>
      </trkpt>
      <trkpt lat="45.02722" lon="5.32439">
        <ele>319</ele>
        <time>2019-12-31T15:49:38.007Z</time>
      </trkpt>
      <trkpt lat="45.02729" lon="5.32433">
        <ele>319</ele>
        <time>2019-12-31T15:49:40.007Z</time>
      </trkpt>
      <trkpt lat="45.02736" lon="5.32427">
        <ele>318</ele>
        <time>2019-12-31T15:49:42.007Z</time>
      </trkpt>
      <trkpt lat="45.02744" lon="5.32426">
        <ele>318</ele>
        <time>2019-12-31T15:49:44.007Z</time>
      </trkpt>
      <trkpt lat="45.02751" lon="5.32427">
        <ele>318</ele>
        <time>2019-12-31T15:49:46.007Z</time>
      </trkpt>
      <trkpt lat="45.02759" lon="5.32428">
        <ele>318</ele>
        <time>2019-12-31T15:49:48.007Z</time>
      </trkpt>
      <trkpt lat="45.02766" lon="5.32427">
        <ele>318</ele>
        <time>2019-12-31T15:49:50.007Z</time>
      </trkpt>
      <trkpt lat="45.0277" lon="5.32428">
        <ele>318</ele>
        <time>2019-12-31T15:49:52.007Z</time>
      </trkpt>
      <trkpt lat="45.02771" lon="5.32437">
        <ele>318</ele>
        <time>2019-12-31T15:49:55.007Z</time>
      </trkpt>
      <trkpt lat="45.02771" lon="5.32446">
        <ele>318</ele>
        <time>2019-12-31T15:49:57.007Z</time>
      </trkpt>
      <trkpt lat="45.02773" lon="5.32455">
        <ele>318</ele>
        <time>2019-12-31T15:49:59.007Z</time>
      </trkpt>
      <trkpt lat="45.02777" lon="5.32465">
        <ele>318</ele>
        <time>2019-12-31T15:50:01.007Z</time>
      </trkpt>
      <trkpt lat="45.02779" lon="5.32477">
        <ele>318</ele>
        <time>2019-12-31T15:50:03.007Z</time>
      </trkpt>
      <trkpt lat="45.02781" lon="5.32488">
        <ele>318</ele>
        <time>2019-12-31T15:50:05.007Z</time>
      </trkpt>
      <trkpt lat="45.02784" lon="5.325">
        <ele>318</ele>
        <time>2019-12-31T15:50:07.007Z</time>
      </trkpt>
      <trkpt lat="45.02786" lon="5.32505">
        <ele>318</ele>
        <time>2019-12-31T15:50:08.007Z</time>
      </trkpt>
      <trkpt lat="45.02787" lon="5.32511">
        <ele>318</ele>
        <time>2019-12-31T15:50:09.007Z</time>
      </trkpt>
      <trkpt lat="45.02789" lon="5.32517">
        <ele>318</ele>
        <time>2019-12-31T15:50:10.007Z</time>
      </trkpt>
      <trkpt lat="45.0279" lon="5.32523">
        <ele>318</ele>
        <time>2019-12-31T15:50:11.007Z</time>
      </trkpt>
      <trkpt lat="45.02794" lon="5.32536">
        <ele>318</ele>
        <time>2019-12-31T15:50:13.007Z</time>
      </trkpt>
      <trkpt lat="45.02796" lon="5.32543">
        <ele>318</ele>
        <time>2019-12-31T15:50:14.007Z</time>
      </trkpt>
      <trkpt lat="45.02799" lon="5.32555">
        <ele>318</ele>
        <time>2019-12-31T15:50:16.007Z</time>
      </trkpt>
      <trkpt lat="45.02801" lon="5.32561">
        <ele>318</ele>
        <time>2019-12-31T15:50:17.007Z</time>
      </trkpt>
      <trkpt lat="45.02803" lon="5.32568">
        <ele>318</ele>
        <time>2019-12-31T15:50:18.007Z</time>
      </trkpt>
      <trkpt lat="45.02806" lon="5.3258">
        <ele>318</ele>
        <time>2019-12-31T15:50:20.007Z</time>
      </trkpt>
      <trkpt lat="45.02807" lon="5.32594">
        <ele>318</ele>
        <time>2019-12-31T15:50:22.007Z</time>
      </trkpt>
      <trkpt lat="45.02804" lon="5.32606">
        <ele>318</ele>
        <time>2019-12-31T15:50:24.007Z</time>
      </trkpt>
      <trkpt lat="45.028" lon="5.32618">
        <ele>318</ele>
        <time>2019-12-31T15:50:26.007Z</time>
      </trkpt>
      <trkpt lat="45.02794" lon="5.32628">
        <ele>318</ele>
        <time>2019-12-31T15:50:28.007Z</time>
      </trkpt>
      <trkpt lat="45.02788" lon="5.32637">
        <ele>318</ele>
        <time>2019-12-31T15:50:30.007Z</time>
      </trkpt>
      <trkpt lat="45.02785" lon="5.32641">
        <ele>318.2370048</ele>
        <time>2019-12-31T15:50:31.007Z</time>
      </trkpt>
      <trkpt lat="45.02782" lon="5.32646">
        <ele>319</ele>
        <time>2019-12-31T15:50:32.007Z</time>
      </trkpt>
      <trkpt lat="45.02779" lon="5.3265">
        <ele>319</ele>
        <time>2019-12-31T15:50:33.007Z</time>
      </trkpt>
      <trkpt lat="45.02776" lon="5.32654">
        <ele>319</ele>
        <time>2019-12-31T15:50:34.007Z</time>
      </trkpt>
      <trkpt lat="45.02774" lon="5.32659">
        <ele>319</ele>
        <time>2019-12-31T15:50:35.007Z</time>
      </trkpt>
      <trkpt lat="45.02773" lon="5.32664">
        <ele>319</ele>
        <time>2019-12-31T15:50:36.007Z</time>
      </trkpt>
      <trkpt lat="45.02771" lon="5.32669">
        <ele>319</ele>
        <time>2019-12-31T15:50:37.007Z</time>
      </trkpt>
      <trkpt lat="45.0277" lon="5.3268">
        <ele>319</ele>
        <time>2019-12-31T15:50:39.007Z</time>
      </trkpt>
      <trkpt lat="45.02769" lon="5.32692">
        <ele>319.2370048</ele>
        <time>2019-12-31T15:50:41.007Z</time>
      </trkpt>
      <trkpt lat="45.02768" lon="5.32703">
        <ele>320</ele>
        <time>2019-12-31T15:50:43.007Z</time>
      </trkpt>
      <trkpt lat="45.02766" lon="5.32714">
        <ele>320</ele>
        <time>2019-12-31T15:50:45.007Z</time>
      </trkpt>
      <trkpt lat="45.02763" lon="5.32725">
        <ele>320</ele>
        <time>2019-12-31T15:50:47.007Z</time>
      </trkpt>
      <trkpt lat="45.02761" lon="5.32736">
        <ele>320</ele>
        <time>2019-12-31T15:50:49.007Z</time>
      </trkpt>
      <trkpt lat="45.02759" lon="5.32748">
        <ele>320.4740096</ele>
        <time>2019-12-31T15:50:51.007Z</time>
      </trkpt>
      <trkpt lat="45.02756" lon="5.32759">
        <ele>322</ele>
        <time>2019-12-31T15:50:53.007Z</time>
      </trkpt>
      <trkpt lat="45.02754" lon="5.3277">
        <ele>322</ele>
        <time>2019-12-31T15:50:55.007Z</time>
      </trkpt>
      <trkpt lat="45.02751" lon="5.3278">
        <ele>322</ele>
        <time>2019-12-31T15:50:57.007Z</time>
      </trkpt>
      <trkpt lat="45.02749" lon="5.32791">
        <ele>322</ele>
        <time>2019-12-31T15:50:59.007Z</time>
      </trkpt>
      <trkpt lat="45.02746" lon="5.32801">
        <ele>322.4740096</ele>
        <time>2019-12-31T15:51:01.007Z</time>
      </trkpt>
      <trkpt lat="45.02744" lon="5.32811">
        <ele>324</ele>
        <time>2019-12-31T15:51:03.007Z</time>
      </trkpt>
      <trkpt lat="45.02741" lon="5.32821">
        <ele>324</ele>
        <time>2019-12-31T15:51:05.007Z</time>
      </trkpt>
      <trkpt lat="45.02738" lon="5.3283">
        <ele>324</ele>
        <time>2019-12-31T15:51:07.007Z</time>
      </trkpt>
      <trkpt lat="45.02736" lon="5.32839">
        <ele>324</ele>
        <time>2019-12-31T15:51:09.007Z</time>
      </trkpt>
      <trkpt lat="45.02733" lon="5.32847">
        <ele>324.2370048</ele>
        <time>2019-12-31T15:51:11.007Z</time>
      </trkpt>
      <trkpt lat="45.02729" lon="5.32856">
        <ele>325</ele>
        <time>2019-12-31T15:51:13.007Z</time>
      </trkpt>
      <trkpt lat="45.02726" lon="5.32864">
        <ele>325</ele>
        <time>2019-12-31T15:51:15.007Z</time>
      </trkpt>
      <trkpt lat="45.02723" lon="5.32871">
        <ele>325</ele>
        <time>2019-12-31T15:51:17.007Z</time>
      </trkpt>
      <trkpt lat="45.02718" lon="5.32878">
        <ele>325</ele>
        <time>2019-12-31T15:51:19.007Z</time>
      </trkpt>
      <trkpt lat="45.02713" lon="5.32885">
        <ele>325.4740096</ele>
        <time>2019-12-31T15:51:21.007Z</time>
      </trkpt>
      <trkpt lat="45.0271" lon="5.32896">
        <ele>327</ele>
        <time>2019-12-31T15:51:24.007Z</time>
      </trkpt>
      <trkpt lat="45.02709" lon="5.32904">
        <ele>327</ele>
        <time>2019-12-31T15:51:26.007Z</time>
      </trkpt>
      <trkpt lat="45.02708" lon="5.32915">
        <ele>327</ele>
        <time>2019-12-31T15:51:29.007Z</time>
      </trkpt>
      <trkpt lat="45.02705" lon="5.32925">
        <ele>330</ele>
        <time>2019-12-31T15:51:32.007Z</time>
      </trkpt>
      <trkpt lat="45.02703" lon="5.32931">
        <ele>330</ele>
        <time>2019-12-31T15:51:34.007Z</time>
      </trkpt>
      <trkpt lat="45.027" lon="5.32941">
        <ele>330</ele>
        <time>2019-12-31T15:51:37.007Z</time>
      </trkpt>
      <trkpt lat="45.02697" lon="5.3295">
        <ele>330</ele>
        <time>2019-12-31T15:51:40.007Z</time>
      </trkpt>
      <trkpt lat="45.02695" lon="5.32959">
        <ele>332</ele>
        <time>2019-12-31T15:51:43.007Z</time>
      </trkpt>
      <trkpt lat="45.02691" lon="5.32968">
        <ele>332.2370048</ele>
        <time>2019-12-31T15:51:46.007Z</time>
      </trkpt>
      <trkpt lat="45.02688" lon="5.32978">
        <ele>333</ele>
        <time>2019-12-31T15:51:49.007Z</time>
      </trkpt>
      <trkpt lat="45.02685" lon="5.32984">
        <ele>333.2370048</ele>
        <time>2019-12-31T15:51:51.007Z</time>
      </trkpt>
      <trkpt lat="45.02683" lon="5.32991">
        <ele>334</ele>
        <time>2019-12-31T15:51:53.007Z</time>
      </trkpt>
      <trkpt lat="45.02681" lon="5.32997">
        <ele>334</ele>
        <time>2019-12-31T15:51:55.007Z</time>
      </trkpt>
      <trkpt lat="45.02679" lon="5.33004">
        <ele>334</ele>
        <time>2019-12-31T15:51:57.007Z</time>
      </trkpt>
      <trkpt lat="45.02677" lon="5.3301">
        <ele>334</ele>
        <time>2019-12-31T15:51:59.007Z</time>
      </trkpt>
      <trkpt lat="45.02674" lon="5.3302">
        <ele>335</ele>
        <time>2019-12-31T15:52:02.007Z</time>
      </trkpt>
      <trkpt lat="45.02671" lon="5.33029">
        <ele>335</ele>
        <time>2019-12-31T15:52:05.007Z</time>
      </trkpt>
      <trkpt lat="45.02672" lon="5.3304">
        <ele>335</ele>
        <time>2019-12-31T15:52:09.007Z</time>
      </trkpt>
      <trkpt lat="45.02677" lon="5.3305">
        <ele>337</ele>
        <time>2019-12-31T15:52:15.007Z</time>
      </trkpt>
      <trkpt lat="45.02682" lon="5.33057">
        <ele>337</ele>
        <time>2019-12-31T15:52:20.007Z</time>
      </trkpt>
      <trkpt lat="45.02687" lon="5.33064">
        <ele>337</ele>
        <time>2019-12-31T15:52:22.007Z</time>
      </trkpt>
      <trkpt lat="45.02692" lon="5.33072">
        <ele>337</ele>
        <time>2019-12-31T15:52:24.007Z</time>
      </trkpt>
      <trkpt lat="45.02699" lon="5.33081">
        <ele>337</ele>
        <time>2019-12-31T15:52:26.007Z</time>
      </trkpt>
      <trkpt lat="45.02703" lon="5.3309">
        <ele>337</ele>
        <time>2019-12-31T15:52:28.007Z</time>
      </trkpt>
      <trkpt lat="45.02708" lon="5.33099">
        <ele>337</ele>
        <time>2019-12-31T15:52:30.007Z</time>
      </trkpt>
      <trkpt lat="45.02712" lon="5.33108">
        <ele>337</ele>
        <time>2019-12-31T15:52:32.007Z</time>
      </trkpt>
      <trkpt lat="45.02716" lon="5.33117">
        <ele>337</ele>
        <time>2019-12-31T15:52:34.007Z</time>
      </trkpt>
      <trkpt lat="45.0272" lon="5.33126">
        <ele>337</ele>
        <time>2019-12-31T15:52:36.007Z</time>
      </trkpt>
      <trkpt lat="45.02725" lon="5.33135">
        <ele>337</ele>
        <time>2019-12-31T15:52:38.007Z</time>
      </trkpt>
      <trkpt lat="45.02728" lon="5.33145">
        <ele>337</ele>
        <time>2019-12-31T15:52:40.007Z</time>
      </trkpt>
      <trkpt lat="45.02732" lon="5.33155">
        <ele>338</ele>
        <time>2019-12-31T15:52:42.007Z</time>
      </trkpt>
      <trkpt lat="45.02735" lon="5.33164">
        <ele>338</ele>
        <time>2019-12-31T15:52:44.007Z</time>
      </trkpt>
      <trkpt lat="45.02739" lon="5.33174">
        <ele>338</ele>
        <time>2019-12-31T15:52:46.007Z</time>
      </trkpt>
      <trkpt lat="45.02742" lon="5.33183">
        <ele>338</ele>
        <time>2019-12-31T15:52:48.007Z</time>
      </trkpt>
      <trkpt lat="45.02746" lon="5.33192">
        <ele>338</ele>
        <time>2019-12-31T15:52:50.007Z</time>
      </trkpt>
      <trkpt lat="45.02749" lon="5.33202">
        <ele>339</ele>
        <time>2019-12-31T15:52:52.007Z</time>
      </trkpt>
      <trkpt lat="45.02751" lon="5.33212">
        <ele>339</ele>
        <time>2019-12-31T15:52:54.007Z</time>
      </trkpt>
      <trkpt lat="45.02754" lon="5.33223">
        <ele>339</ele>
        <time>2019-12-31T15:52:56.007Z</time>
      </trkpt>
      <trkpt lat="45.02756" lon="5.33233">
        <ele>339</ele>
        <time>2019-12-31T15:52:58.007Z</time>
      </trkpt>
      <trkpt lat="45.02759" lon="5.33243">
        <ele>339</ele>
        <time>2019-12-31T15:53:00.007Z</time>
      </trkpt>
      <trkpt lat="45.02762" lon="5.33253">
        <ele>341</ele>
        <time>2019-12-31T15:53:02.007Z</time>
      </trkpt>
      <trkpt lat="45.02765" lon="5.33262">
        <ele>341</ele>
        <time>2019-12-31T15:53:04.007Z</time>
      </trkpt>
      <trkpt lat="45.02769" lon="5.33272">
        <ele>341</ele>
        <time>2019-12-31T15:53:06.007Z</time>
      </trkpt>
      <trkpt lat="45.02775" lon="5.33281">
        <ele>341</ele>
        <time>2019-12-31T15:53:08.007Z</time>
      </trkpt>
      <trkpt lat="45.02782" lon="5.33288">
        <ele>341</ele>
        <time>2019-12-31T15:53:10.007Z</time>
      </trkpt>
      <trkpt lat="45.02791" lon="5.33293">
        <ele>341</ele>
        <time>2019-12-31T15:53:12.007Z</time>
      </trkpt>
      <trkpt lat="45.028" lon="5.33298">
        <ele>341</ele>
        <time>2019-12-31T15:53:14.007Z</time>
      </trkpt>
      <trkpt lat="45.02809" lon="5.33305">
        <ele>341</ele>
        <time>2019-12-31T15:53:16.007Z</time>
      </trkpt>
      <trkpt lat="45.02817" lon="5.33312">
        <ele>341</ele>
        <time>2019-12-31T15:53:18.007Z</time>
      </trkpt>
      <trkpt lat="45.02826" lon="5.33321">
        <ele>341</ele>
        <time>2019-12-31T15:53:20.007Z</time>
      </trkpt>
      <trkpt lat="45.0283" lon="5.33326">
        <ele>341</ele>
        <time>2019-12-31T15:53:21.007Z</time>
      </trkpt>
      <trkpt lat="45.02834" lon="5.33331">
        <ele>341</ele>
        <time>2019-12-31T15:53:22.007Z</time>
      </trkpt>
      <trkpt lat="45.02837" lon="5.33336">
        <ele>341</ele>
        <time>2019-12-31T15:53:23.007Z</time>
      </trkpt>
      <trkpt lat="45.02841" lon="5.3334">
        <ele>341</ele>
        <time>2019-12-31T15:53:24.007Z</time>
      </trkpt>
      <trkpt lat="45.02844" lon="5.33344">
        <ele>341</ele>
        <time>2019-12-31T15:53:25.007Z</time>
      </trkpt>
      <trkpt lat="45.02847" lon="5.33349">
        <ele>341</ele>
        <time>2019-12-31T15:53:26.007Z</time>
      </trkpt>
      <trkpt lat="45.02851" lon="5.33353">
        <ele>341</ele>
        <time>2019-12-31T15:53:27.007Z</time>
      </trkpt>
      <trkpt lat="45.02857" lon="5.3336">
        <ele>341</ele>
        <time>2019-12-31T15:53:29.007Z</time>
      </trkpt>
      <trkpt lat="45.02865" lon="5.33371">
        <ele>342</ele>
        <time>2019-12-31T15:53:32.007Z</time>
      </trkpt>
      <trkpt lat="45.02871" lon="5.3338">
        <ele>342</ele>
        <time>2019-12-31T15:53:34.007Z</time>
      </trkpt>
      <trkpt lat="45.02877" lon="5.33389">
        <ele>342</ele>
        <time>2019-12-31T15:53:36.007Z</time>
      </trkpt>
      <trkpt lat="45.02882" lon="5.33399">
        <ele>342</ele>
        <time>2019-12-31T15:53:38.007Z</time>
      </trkpt>
      <trkpt lat="45.02887" lon="5.3341">
        <ele>342</ele>
        <time>2019-12-31T15:53:40.007Z</time>
      </trkpt>
      <trkpt lat="45.0289" lon="5.33417">
        <ele>342</ele>
        <time>2019-12-31T15:53:41.007Z</time>
      </trkpt>
      <trkpt lat="45.02894" lon="5.33423">
        <ele>342</ele>
        <time>2019-12-31T15:53:42.007Z</time>
      </trkpt>
      <trkpt lat="45.02898" lon="5.3343">
        <ele>342</ele>
        <time>2019-12-31T15:53:43.007Z</time>
      </trkpt>
      <trkpt lat="45.02904" lon="5.33434">
        <ele>342</ele>
        <time>2019-12-31T15:53:44.007Z</time>
      </trkpt>
      <trkpt lat="45.0291" lon="5.33436">
        <ele>342</ele>
        <time>2019-12-31T15:53:45.007Z</time>
      </trkpt>
      <trkpt lat="45.02917" lon="5.33437">
        <ele>342</ele>
        <time>2019-12-31T15:53:46.007Z</time>
      </trkpt>
      <trkpt lat="45.02924" lon="5.33438">
        <ele>342</ele>
        <time>2019-12-31T15:53:47.007Z</time>
      </trkpt>
      <trkpt lat="45.02937" lon="5.3344">
        <ele>342</ele>
        <time>2019-12-31T15:53:49.007Z</time>
      </trkpt>
      <trkpt lat="45.02949" lon="5.3344">
        <ele>342</ele>
        <time>2019-12-31T15:53:51.007Z</time>
      </trkpt>
      <trkpt lat="45.0296" lon="5.33441">
        <ele>342</ele>
        <time>2019-12-31T15:53:53.007Z</time>
      </trkpt>
      <trkpt lat="45.02965" lon="5.33443">
        <ele>342</ele>
        <time>2019-12-31T15:53:54.007Z</time>
      </trkpt>
      <trkpt lat="45.02975" lon="5.33447">
        <ele>342</ele>
        <time>2019-12-31T15:53:56.007Z</time>
      </trkpt>
      <trkpt lat="45.02985" lon="5.33453">
        <ele>342</ele>
        <time>2019-12-31T15:53:58.007Z</time>
      </trkpt>
      <trkpt lat="45.02994" lon="5.3346">
        <ele>342</ele>
        <time>2019-12-31T15:54:00.007Z</time>
      </trkpt>
      <trkpt lat="45.03004" lon="5.33467">
        <ele>341</ele>
        <time>2019-12-31T15:54:02.007Z</time>
      </trkpt>
      <trkpt lat="45.03014" lon="5.33472">
        <ele>341</ele>
        <time>2019-12-31T15:54:04.007Z</time>
      </trkpt>
      <trkpt lat="45.03025" lon="5.33476">
        <ele>341</ele>
        <time>2019-12-31T15:54:06.007Z</time>
      </trkpt>
      <trkpt lat="45.03037" lon="5.33479">
        <ele>341</ele>
        <time>2019-12-31T15:54:08.007Z</time>
      </trkpt>
      <trkpt lat="45.03042" lon="5.33481">
        <ele>341</ele>
        <time>2019-12-31T15:54:09.007Z</time>
      </trkpt>
      <trkpt lat="45.03049" lon="5.33483">
        <ele>341</ele>
        <time>2019-12-31T15:54:10.007Z</time>
      </trkpt>
      <trkpt lat="45.03055" lon="5.33485">
        <ele>340.7629952</ele>
        <time>2019-12-31T15:54:11.007Z</time>
      </trkpt>
      <trkpt lat="45.03061" lon="5.33487">
        <ele>340</ele>
        <time>2019-12-31T15:54:12.007Z</time>
      </trkpt>
      <trkpt lat="45.03067" lon="5.33491">
        <ele>340</ele>
        <time>2019-12-31T15:54:13.007Z</time>
      </trkpt>
      <trkpt lat="45.03072" lon="5.33495">
        <ele>340</ele>
        <time>2019-12-31T15:54:14.007Z</time>
      </trkpt>
      <trkpt lat="45.03077" lon="5.33501">
        <ele>340</ele>
        <time>2019-12-31T15:54:15.007Z</time>
      </trkpt>
      <trkpt lat="45.03082" lon="5.33506">
        <ele>340</ele>
        <time>2019-12-31T15:54:16.007Z</time>
      </trkpt>
      <trkpt lat="45.03087" lon="5.33512">
        <ele>340</ele>
        <time>2019-12-31T15:54:17.007Z</time>
      </trkpt>
      <trkpt lat="45.03091" lon="5.33518">
        <ele>340</ele>
        <time>2019-12-31T15:54:18.007Z</time>
      </trkpt>
      <trkpt lat="45.03096" lon="5.33524">
        <ele>340</ele>
        <time>2019-12-31T15:54:19.007Z</time>
      </trkpt>
      <trkpt lat="45.031" lon="5.3353">
        <ele>340</ele>
        <time>2019-12-31T15:54:20.007Z</time>
      </trkpt>
      <trkpt lat="45.03105" lon="5.33536">
        <ele>339.7629952</ele>
        <time>2019-12-31T15:54:21.007Z</time>
      </trkpt>
      <trkpt lat="45.0311" lon="5.33541">
        <ele>339</ele>
        <time>2019-12-31T15:54:22.007Z</time>
      </trkpt>
      <trkpt lat="45.03115" lon="5.33546">
        <ele>339</ele>
        <time>2019-12-31T15:54:23.007Z</time>
      </trkpt>
      <trkpt lat="45.03126" lon="5.33557">
        <ele>339</ele>
        <time>2019-12-31T15:54:25.007Z</time>
      </trkpt>
      <trkpt lat="45.03131" lon="5.33563">
        <ele>339</ele>
        <time>2019-12-31T15:54:26.007Z</time>
      </trkpt>
      <trkpt lat="45.03136" lon="5.33568">
        <ele>339</ele>
        <time>2019-12-31T15:54:27.007Z</time>
      </trkpt>
      <trkpt lat="45.03142" lon="5.33574">
        <ele>339</ele>
        <time>2019-12-31T15:54:28.007Z</time>
      </trkpt>
      <trkpt lat="45.03147" lon="5.3358">
        <ele>339</ele>
        <time>2019-12-31T15:54:29.007Z</time>
      </trkpt>
      <trkpt lat="45.03152" lon="5.33586">
        <ele>339</ele>
        <time>2019-12-31T15:54:30.007Z</time>
      </trkpt>
      <trkpt lat="45.03158" lon="5.33593">
        <ele>338.7629952</ele>
        <time>2019-12-31T15:54:31.007Z</time>
      </trkpt>
      <trkpt lat="45.03163" lon="5.336">
        <ele>338</ele>
        <time>2019-12-31T15:54:32.007Z</time>
      </trkpt>
      <trkpt lat="45.03168" lon="5.33607">
        <ele>338</ele>
        <time>2019-12-31T15:54:33.007Z</time>
      </trkpt>
      <trkpt lat="45.03173" lon="5.33614">
        <ele>338</ele>
        <time>2019-12-31T15:54:34.007Z</time>
      </trkpt>
      <trkpt lat="45.03179" lon="5.33622">
        <ele>338</ele>
        <time>2019-12-31T15:54:35.007Z</time>
      </trkpt>
      <trkpt lat="45.03184" lon="5.3363">
        <ele>338</ele>
        <time>2019-12-31T15:54:36.007Z</time>
      </trkpt>
      <trkpt lat="45.0319" lon="5.33637">
        <ele>338</ele>
        <time>2019-12-31T15:54:37.007Z</time>
      </trkpt>
      <trkpt lat="45.03195" lon="5.33645">
        <ele>338</ele>
        <time>2019-12-31T15:54:38.007Z</time>
      </trkpt>
      <trkpt lat="45.03201" lon="5.33652">
        <ele>338</ele>
        <time>2019-12-31T15:54:39.007Z</time>
      </trkpt>
      <trkpt lat="45.03207" lon="5.33659">
        <ele>338</ele>
        <time>2019-12-31T15:54:40.007Z</time>
      </trkpt>
      <trkpt lat="45.03213" lon="5.33665">
        <ele>337.2889856</ele>
        <time>2019-12-31T15:54:41.007Z</time>
      </trkpt>
      <trkpt lat="45.0322" lon="5.33671">
        <ele>335</ele>
        <time>2019-12-31T15:54:42.007Z</time>
      </trkpt>
      <trkpt lat="45.03226" lon="5.33676">
        <ele>335</ele>
        <time>2019-12-31T15:54:43.007Z</time>
      </trkpt>
      <trkpt lat="45.03233" lon="5.3368">
        <ele>335</ele>
        <time>2019-12-31T15:54:44.007Z</time>
      </trkpt>
      <trkpt lat="45.0324" lon="5.33684">
        <ele>335</ele>
        <time>2019-12-31T15:54:45.007Z</time>
      </trkpt>
      <trkpt lat="45.03247" lon="5.33688">
        <ele>334.29603203772</ele>
        <time>2019-12-31T15:54:46.007Z</time>
      </trkpt>
      <trkpt lat="45.03253" lon="5.33691">
        <ele>332</ele>
        <time>2019-12-31T15:54:47.007Z</time>
      </trkpt>
      <trkpt lat="45.0326" lon="5.33695">
        <ele>332</ele>
        <time>2019-12-31T15:54:48.007Z</time>
      </trkpt>
      <trkpt lat="45.03267" lon="5.337">
        <ele>332</ele>
        <time>2019-12-31T15:54:49.007Z</time>
      </trkpt>
      <trkpt lat="45.03275" lon="5.33705">
        <ele>332</ele>
        <time>2019-12-31T15:54:50.007Z</time>
      </trkpt>
      <trkpt lat="45.03282" lon="5.3371">
        <ele>331.2889856</ele>
        <time>2019-12-31T15:54:51.007Z</time>
      </trkpt>
      <trkpt lat="45.03289" lon="5.33715">
        <ele>328.53068802514</ele>
        <time>2019-12-31T15:54:52.007Z</time>
      </trkpt>
      <trkpt lat="45.03296" lon="5.33718">
        <ele>327</ele>
        <time>2019-12-31T15:54:53.007Z</time>
      </trkpt>
      <trkpt lat="45.03301" lon="5.33721">
        <ele>326.7629952</ele>
        <time>2019-12-31T15:54:54.007Z</time>
      </trkpt>
      <trkpt lat="45.03306" lon="5.33722">
        <ele>325.7629952</ele>
        <time>2019-12-31T15:54:55.007Z</time>
      </trkpt>
      <trkpt lat="45.03312" lon="5.33719">
        <ele>325</ele>
        <time>2019-12-31T15:54:57.007Z</time>
      </trkpt>
      <trkpt lat="45.03315" lon="5.33709">
        <ele>324.7629952</ele>
        <time>2019-12-31T15:54:59.007Z</time>
      </trkpt>
      <trkpt lat="45.03321" lon="5.33698">
        <ele>324</ele>
        <time>2019-12-31T15:55:01.007Z</time>
      </trkpt>
      <trkpt lat="45.03325" lon="5.33691">
        <ele>324</ele>
        <time>2019-12-31T15:55:02.007Z</time>
      </trkpt>
      <trkpt lat="45.03329" lon="5.33685">
        <ele>323.7629952</ele>
        <time>2019-12-31T15:55:03.007Z</time>
      </trkpt>
      <trkpt lat="45.03333" lon="5.33678">
        <ele>323</ele>
        <time>2019-12-31T15:55:04.007Z</time>
      </trkpt>
      <trkpt lat="45.03338" lon="5.33669">
        <ele>322.7653410387</ele>
        <time>2019-12-31T15:55:05.007Z</time>
      </trkpt>
      <trkpt lat="45.03343" lon="5.33661">
        <ele>321.77069973107</ele>
        <time>2019-12-31T15:55:06.007Z</time>
      </trkpt>
      <trkpt lat="45.03348" lon="5.33651">
        <ele>320.7629952</ele>
        <time>2019-12-31T15:55:07.007Z</time>
      </trkpt>
      <trkpt lat="45.03353" lon="5.33641">
        <ele>320</ele>
        <time>2019-12-31T15:55:08.007Z</time>
      </trkpt>
      <trkpt lat="45.03358" lon="5.33631">
        <ele>320</ele>
        <time>2019-12-31T15:55:09.007Z</time>
      </trkpt>
      <trkpt lat="45.03364" lon="5.33619">
        <ele>319.53068802514</ele>
        <time>2019-12-31T15:55:10.007Z</time>
      </trkpt>
      <trkpt lat="45.0337" lon="5.33607">
        <ele>317.77070969577</ele>
        <time>2019-12-31T15:55:11.007Z</time>
      </trkpt>
      <trkpt lat="45.03376" lon="5.33595">
        <ele>316.7629952</ele>
        <time>2019-12-31T15:55:12.007Z</time>
      </trkpt>
      <trkpt lat="45.03381" lon="5.33582">
        <ele>315.7629952</ele>
        <time>2019-12-31T15:55:13.007Z</time>
      </trkpt>
      <trkpt lat="45.03386" lon="5.3357">
        <ele>314.7629952</ele>
        <time>2019-12-31T15:55:14.007Z</time>
      </trkpt>
      <trkpt lat="45.0339" lon="5.33558">
        <ele>313.7629952</ele>
        <time>2019-12-31T15:55:15.007Z</time>
      </trkpt>
      <trkpt lat="45.03393" lon="5.33547">
        <ele>312.76534401257</ele>
        <time>2019-12-31T15:55:16.007Z</time>
      </trkpt>
      <trkpt lat="45.03396" lon="5.33539">
        <ele>311.77070969577</ele>
        <time>2019-12-31T15:55:17.007Z</time>
      </trkpt>
      <trkpt lat="45.03401" lon="5.33531">
        <ele>310</ele>
        <time>2019-12-31T15:55:19.007Z</time>
      </trkpt>
      <trkpt lat="45.03407" lon="5.33535">
        <ele>310</ele>
        <time>2019-12-31T15:55:21.007Z</time>
      </trkpt>
      <trkpt lat="45.03414" lon="5.33541">
        <ele>310.2370048</ele>
        <time>2019-12-31T15:55:23.007Z</time>
      </trkpt>
      <trkpt lat="45.03418" lon="5.33545">
        <ele>311</ele>
        <time>2019-12-31T15:55:24.007Z</time>
      </trkpt>
      <trkpt lat="45.03422" lon="5.33549">
        <ele>310.7629952</ele>
        <time>2019-12-31T15:55:25.007Z</time>
      </trkpt>
      <trkpt lat="45.03429" lon="5.33556">
        <ele>311</ele>
        <time>2019-12-31T15:55:27.007Z</time>
      </trkpt>
      <trkpt lat="45.03433" lon="5.33561">
        <ele>311</ele>
        <time>2019-12-31T15:55:28.007Z</time>
      </trkpt>
      <trkpt lat="45.03436" lon="5.33566">
        <ele>311</ele>
        <time>2019-12-31T15:55:29.007Z</time>
      </trkpt>
      <trkpt lat="45.03438" lon="5.3357">
        <ele>310.7629952</ele>
        <time>2019-12-31T15:55:30.007Z</time>
      </trkpt>
      <trkpt lat="45.03442" lon="5.33574">
        <ele>310</ele>
        <time>2019-12-31T15:55:31.007Z</time>
      </trkpt>
      <trkpt lat="45.03445" lon="5.33577">
        <ele>310</ele>
        <time>2019-12-31T15:55:32.007Z</time>
      </trkpt>
      <trkpt lat="45.03448" lon="5.33581">
        <ele>310</ele>
        <time>2019-12-31T15:55:33.007Z</time>
      </trkpt>
      <trkpt lat="45.03452" lon="5.33585">
        <ele>310</ele>
        <time>2019-12-31T15:55:34.007Z</time>
      </trkpt>
      <trkpt lat="45.03455" lon="5.33589">
        <ele>310</ele>
        <time>2019-12-31T15:55:35.007Z</time>
      </trkpt>
      <trkpt lat="45.03459" lon="5.33594">
        <ele>310</ele>
        <time>2019-12-31T15:55:36.007Z</time>
      </trkpt>
      <trkpt lat="45.03462" lon="5.33599">
        <ele>310</ele>
        <time>2019-12-31T15:55:37.007Z</time>
      </trkpt>
      <trkpt lat="45.03466" lon="5.33604">
        <ele>310</ele>
        <time>2019-12-31T15:55:38.007Z</time>
      </trkpt>
      <trkpt lat="45.03469" lon="5.3361">
        <ele>310</ele>
        <time>2019-12-31T15:55:39.007Z</time>
      </trkpt>
      <trkpt lat="45.03472" lon="5.33615">
        <ele>310</ele>
        <time>2019-12-31T15:55:40.007Z</time>
      </trkpt>
      <trkpt lat="45.03476" lon="5.33621">
        <ele>310</ele>
        <time>2019-12-31T15:55:41.007Z</time>
      </trkpt>
      <trkpt lat="45.03479" lon="5.33627">
        <ele>310</ele>
        <time>2019-12-31T15:55:42.007Z</time>
      </trkpt>
      <trkpt lat="45.03482" lon="5.33633">
        <ele>310</ele>
        <time>2019-12-31T15:55:43.007Z</time>
      </trkpt>
      <trkpt lat="45.03485" lon="5.33638">
        <ele>310</ele>
        <time>2019-12-31T15:55:44.007Z</time>
      </trkpt>
      <trkpt lat="45.03488" lon="5.33644">
        <ele>310</ele>
        <time>2019-12-31T15:55:45.007Z</time>
      </trkpt>
      <trkpt lat="45.03491" lon="5.3365">
        <ele>310</ele>
        <time>2019-12-31T15:55:46.007Z</time>
      </trkpt>
      <trkpt lat="45.03494" lon="5.33656">
        <ele>310</ele>
        <time>2019-12-31T15:55:47.007Z</time>
      </trkpt>
      <trkpt lat="45.03497" lon="5.33662">
        <ele>310</ele>
        <time>2019-12-31T15:55:48.007Z</time>
      </trkpt>
      <trkpt lat="45.035" lon="5.33668">
        <ele>310</ele>
        <time>2019-12-31T15:55:49.007Z</time>
      </trkpt>
      <trkpt lat="45.03503" lon="5.33674">
        <ele>310</ele>
        <time>2019-12-31T15:55:50.007Z</time>
      </trkpt>
      <trkpt lat="45.03506" lon="5.3368">
        <ele>309.7629952</ele>
        <time>2019-12-31T15:55:51.007Z</time>
      </trkpt>
      <trkpt lat="45.03509" lon="5.33686">
        <ele>309</ele>
        <time>2019-12-31T15:55:52.007Z</time>
      </trkpt>
      <trkpt lat="45.03512" lon="5.33692">
        <ele>309</ele>
        <time>2019-12-31T15:55:53.007Z</time>
      </trkpt>
      <trkpt lat="45.03514" lon="5.33697">
        <ele>309</ele>
        <time>2019-12-31T15:55:54.007Z</time>
      </trkpt>
      <trkpt lat="45.03516" lon="5.33701">
        <ele>309</ele>
        <time>2019-12-31T15:55:55.007Z</time>
      </trkpt>
      <trkpt lat="45.03518" lon="5.33704">
        <ele>309</ele>
        <time>2019-12-31T15:55:56.007Z</time>
      </trkpt>
      <trkpt lat="45.03521" lon="5.33702">
        <ele>309</ele>
        <time>2019-12-31T15:55:58.007Z</time>
      </trkpt>
      <trkpt lat="45.03524" lon="5.33696">
        <ele>309</ele>
        <time>2019-12-31T15:56:00.007Z</time>
      </trkpt>
      <trkpt lat="45.03526" lon="5.33692">
        <ele>308.2889856</ele>
        <time>2019-12-31T15:56:01.007Z</time>
      </trkpt>
      <trkpt lat="45.03528" lon="5.33688">
        <ele>306</ele>
        <time>2019-12-31T15:56:02.007Z</time>
      </trkpt>
      <trkpt lat="45.0353" lon="5.33684">
        <ele>306</ele>
        <time>2019-12-31T15:56:03.007Z</time>
      </trkpt>
      <trkpt lat="45.03531" lon="5.33681">
        <ele>306</ele>
        <time>2019-12-31T15:56:04.007Z</time>
      </trkpt>
      <trkpt lat="45.03532" lon="5.33677">
        <ele>306</ele>
        <time>2019-12-31T15:56:05.007Z</time>
      </trkpt>
      <trkpt lat="45.03534" lon="5.33674">
        <ele>306</ele>
        <time>2019-12-31T15:56:06.007Z</time>
      </trkpt>
      <trkpt lat="45.03537" lon="5.3367">
        <ele>306</ele>
        <time>2019-12-31T15:56:09.007Z</time>
      </trkpt>
      <trkpt lat="45.03539" lon="5.33666">
        <ele>305.7653410387</ele>
        <time>2019-12-31T15:56:11.007Z</time>
      </trkpt>
      <trkpt lat="45.0354" lon="5.33661">
        <ele>305</ele>
        <time>2019-12-31T15:56:13.007Z</time>
      </trkpt>
      <trkpt lat="45.03543" lon="5.33656">
        <ele>305</ele>
        <time>2019-12-31T15:56:15.007Z</time>
      </trkpt>
      <trkpt lat="45.03544" lon="5.33652">
        <ele>305</ele>
        <time>2019-12-31T15:56:16.007Z</time>
      </trkpt>
      <trkpt lat="45.03546" lon="5.33648">
        <ele>305</ele>
        <time>2019-12-31T15:56:17.007Z</time>
      </trkpt>
      <trkpt lat="45.03548" lon="5.33644">
        <ele>305</ele>
        <time>2019-12-31T15:56:18.007Z</time>
      </trkpt>
      <trkpt lat="45.0355" lon="5.3364">
        <ele>305</ele>
        <time>2019-12-31T15:56:19.007Z</time>
      </trkpt>
      <trkpt lat="45.03552" lon="5.33636">
        <ele>305</ele>
        <time>2019-12-31T15:56:20.007Z</time>
      </trkpt>
      <trkpt lat="45.03554" lon="5.33631">
        <ele>304.5259904</ele>
        <time>2019-12-31T15:56:21.007Z</time>
      </trkpt>
      <trkpt lat="45.03557" lon="5.33626">
        <ele>303</ele>
        <time>2019-12-31T15:56:22.007Z</time>
      </trkpt>
      <trkpt lat="45.03559" lon="5.33621">
        <ele>303</ele>
        <time>2019-12-31T15:56:23.007Z</time>
      </trkpt>
      <trkpt lat="45.03561" lon="5.33616">
        <ele>303</ele>
        <time>2019-12-31T15:56:24.007Z</time>
      </trkpt>
      <trkpt lat="45.03564" lon="5.33611">
        <ele>303</ele>
        <time>2019-12-31T15:56:25.007Z</time>
      </trkpt>
      <trkpt lat="45.03566" lon="5.33606">
        <ele>303</ele>
        <time>2019-12-31T15:56:26.007Z</time>
      </trkpt>
      <trkpt lat="45.03568" lon="5.33601">
        <ele>303</ele>
        <time>2019-12-31T15:56:27.007Z</time>
      </trkpt>
      <trkpt lat="45.03571" lon="5.33597">
        <ele>303</ele>
        <time>2019-12-31T15:56:28.007Z</time>
      </trkpt>
      <trkpt lat="45.03573" lon="5.33593">
        <ele>303</ele>
        <time>2019-12-31T15:56:29.007Z</time>
      </trkpt>
      <trkpt lat="45.03575" lon="5.33589">
        <ele>303</ele>
        <time>2019-12-31T15:56:30.007Z</time>
      </trkpt>
      <trkpt lat="45.0358" lon="5.3358">
        <ele>300</ele>
        <time>2019-12-31T15:56:32.007Z</time>
      </trkpt>
      <trkpt lat="45.03582" lon="5.33575">
        <ele>300</ele>
        <time>2019-12-31T15:56:33.007Z</time>
      </trkpt>
      <trkpt lat="45.03585" lon="5.3357">
        <ele>300</ele>
        <time>2019-12-31T15:56:34.007Z</time>
      </trkpt>
      <trkpt lat="45.03587" lon="5.33565">
        <ele>300</ele>
        <time>2019-12-31T15:56:35.007Z</time>
      </trkpt>
      <trkpt lat="45.03589" lon="5.3356">
        <ele>299.7629952</ele>
        <time>2019-12-31T15:56:36.007Z</time>
      </trkpt>
      <trkpt lat="45.03592" lon="5.33554">
        <ele>299</ele>
        <time>2019-12-31T15:56:37.007Z</time>
      </trkpt>
      <trkpt lat="45.03594" lon="5.33549">
        <ele>299</ele>
        <time>2019-12-31T15:56:38.007Z</time>
      </trkpt>
      <trkpt lat="45.03597" lon="5.33544">
        <ele>299</ele>
        <time>2019-12-31T15:56:39.007Z</time>
      </trkpt>
      <trkpt lat="45.03599" lon="5.33539">
        <ele>299</ele>
        <time>2019-12-31T15:56:40.007Z</time>
      </trkpt>
      <trkpt lat="45.03601" lon="5.33534">
        <ele>298.7629952</ele>
        <time>2019-12-31T15:56:41.007Z</time>
      </trkpt>
      <trkpt lat="45.03604" lon="5.3353">
        <ele>298</ele>
        <time>2019-12-31T15:56:42.007Z</time>
      </trkpt>
      <trkpt lat="45.03606" lon="5.33525">
        <ele>298</ele>
        <time>2019-12-31T15:56:43.007Z</time>
      </trkpt>
      <trkpt lat="45.03608" lon="5.3352">
        <ele>298</ele>
        <time>2019-12-31T15:56:44.007Z</time>
      </trkpt>
      <trkpt lat="45.0361" lon="5.33515">
        <ele>298</ele>
        <time>2019-12-31T15:56:45.007Z</time>
      </trkpt>
      <trkpt lat="45.03612" lon="5.3351">
        <ele>298</ele>
        <time>2019-12-31T15:56:46.007Z</time>
      </trkpt>
      <trkpt lat="45.03617" lon="5.335">
        <ele>298</ele>
        <time>2019-12-31T15:56:48.007Z</time>
      </trkpt>
      <trkpt lat="45.03621" lon="5.3349">
        <ele>298</ele>
        <time>2019-12-31T15:56:50.007Z</time>
      </trkpt>
      <trkpt lat="45.03626" lon="5.3348">
        <ele>298</ele>
        <time>2019-12-31T15:56:52.007Z</time>
      </trkpt>
      <trkpt lat="45.03628" lon="5.33475">
        <ele>298</ele>
        <time>2019-12-31T15:56:53.007Z</time>
      </trkpt>
      <trkpt lat="45.0363" lon="5.3347">
        <ele>298</ele>
        <time>2019-12-31T15:56:54.007Z</time>
      </trkpt>
      <trkpt lat="45.03633" lon="5.33465">
        <ele>298</ele>
        <time>2019-12-31T15:56:55.007Z</time>
      </trkpt>
      <trkpt lat="45.03636" lon="5.33461">
        <ele>298</ele>
        <time>2019-12-31T15:56:56.007Z</time>
      </trkpt>
      <trkpt lat="45.03638" lon="5.33456">
        <ele>298</ele>
        <time>2019-12-31T15:56:57.007Z</time>
      </trkpt>
      <trkpt lat="45.03641" lon="5.33452">
        <ele>298</ele>
        <time>2019-12-31T15:56:58.007Z</time>
      </trkpt>
      <trkpt lat="45.03643" lon="5.33447">
        <ele>298</ele>
        <time>2019-12-31T15:56:59.007Z</time>
      </trkpt>
      <trkpt lat="45.03646" lon="5.33442">
        <ele>298</ele>
        <time>2019-12-31T15:57:00.007Z</time>
      </trkpt>
      <trkpt lat="45.03648" lon="5.33437">
        <ele>297.7629952</ele>
        <time>2019-12-31T15:57:01.007Z</time>
      </trkpt>
      <trkpt lat="45.03651" lon="5.33433">
        <ele>297</ele>
        <time>2019-12-31T15:57:02.007Z</time>
      </trkpt>
      <trkpt lat="45.03653" lon="5.33428">
        <ele>297</ele>
        <time>2019-12-31T15:57:03.007Z</time>
      </trkpt>
      <trkpt lat="45.03655" lon="5.33423">
        <ele>297</ele>
        <time>2019-12-31T15:57:04.007Z</time>
      </trkpt>
      <trkpt lat="45.03658" lon="5.33419">
        <ele>297</ele>
        <time>2019-12-31T15:57:05.007Z</time>
      </trkpt>
      <trkpt lat="45.0366" lon="5.33415">
        <ele>297</ele>
        <time>2019-12-31T15:57:06.007Z</time>
      </trkpt>
      <trkpt lat="45.03662" lon="5.33411">
        <ele>297</ele>
        <time>2019-12-31T15:57:07.007Z</time>
      </trkpt>
      <trkpt lat="45.03664" lon="5.33407">
        <ele>297</ele>
        <time>2019-12-31T15:57:08.007Z</time>
      </trkpt>
      <trkpt lat="45.03666" lon="5.33403">
        <ele>297</ele>
        <time>2019-12-31T15:57:09.007Z</time>
      </trkpt>
      <trkpt lat="45.03667" lon="5.33399">
        <ele>297</ele>
        <time>2019-12-31T15:57:10.007Z</time>
      </trkpt>
      <trkpt lat="45.03669" lon="5.33396">
        <ele>296.7629952</ele>
        <time>2019-12-31T15:57:11.007Z</time>
      </trkpt>
      <trkpt lat="45.0367" lon="5.33392">
        <ele>296</ele>
        <time>2019-12-31T15:57:12.007Z</time>
      </trkpt>
      <trkpt lat="45.03672" lon="5.33389">
        <ele>296</ele>
        <time>2019-12-31T15:57:13.007Z</time>
      </trkpt>
      <trkpt lat="45.03673" lon="5.33385">
        <ele>296</ele>
        <time>2019-12-31T15:57:14.007Z</time>
      </trkpt>
      <trkpt lat="45.03674" lon="5.33381">
        <ele>296</ele>
        <time>2019-12-31T15:57:15.007Z</time>
      </trkpt>
      <trkpt lat="45.03676" lon="5.33377">
        <ele>296</ele>
        <time>2019-12-31T15:57:16.007Z</time>
      </trkpt>
      <trkpt lat="45.03678" lon="5.33373">
        <ele>296</ele>
        <time>2019-12-31T15:57:17.007Z</time>
      </trkpt>
      <trkpt lat="45.03679" lon="5.33369">
        <ele>296</ele>
        <time>2019-12-31T15:57:18.007Z</time>
      </trkpt>
      <trkpt lat="45.03681" lon="5.33366">
        <ele>296</ele>
        <time>2019-12-31T15:57:19.007Z</time>
      </trkpt>
      <trkpt lat="45.03683" lon="5.33362">
        <ele>296</ele>
        <time>2019-12-31T15:57:20.007Z</time>
      </trkpt>
      <trkpt lat="45.03685" lon="5.33358">
        <ele>295.7629952</ele>
        <time>2019-12-31T15:57:21.007Z</time>
      </trkpt>
      <trkpt lat="45.03687" lon="5.33354">
        <ele>295</ele>
        <time>2019-12-31T15:57:22.007Z</time>
      </trkpt>
      <trkpt lat="45.03689" lon="5.3335">
        <ele>295</ele>
        <time>2019-12-31T15:57:23.007Z</time>
      </trkpt>
      <trkpt lat="45.0369" lon="5.33346">
        <ele>295</ele>
        <time>2019-12-31T15:57:24.007Z</time>
      </trkpt>
      <trkpt lat="45.03692" lon="5.33343">
        <ele>295</ele>
        <time>2019-12-31T15:57:25.007Z</time>
      </trkpt>
      <trkpt lat="45.03695" lon="5.33338">
        <ele>295</ele>
        <time>2019-12-31T15:57:27.007Z</time>
      </trkpt>
      <trkpt lat="45.03696" lon="5.33335">
        <ele>295</ele>
        <time>2019-12-31T15:57:28.007Z</time>
      </trkpt>
      <trkpt lat="45.03698" lon="5.33331">
        <ele>295</ele>
        <time>2019-12-31T15:57:30.007Z</time>
      </trkpt>
      <trkpt lat="45.03701" lon="5.33329">
        <ele>295</ele>
        <time>2019-12-31T15:57:32.007Z</time>
      </trkpt>
      <trkpt lat="45.03704" lon="5.3333">
        <ele>295</ele>
        <time>2019-12-31T15:57:42.007Z</time>
      </trkpt>
      <trkpt lat="45.03708" lon="5.33333">
        <ele>295</ele>
        <time>2019-12-31T15:57:45.007Z</time>
      </trkpt>
      <trkpt lat="45.03713" lon="5.33338">
        <ele>295</ele>
        <time>2019-12-31T15:57:47.007Z</time>
      </trkpt>
      <trkpt lat="45.03716" lon="5.33341">
        <ele>295</ele>
        <time>2019-12-31T15:57:48.007Z</time>
      </trkpt>
      <trkpt lat="45.03719" lon="5.33344">
        <ele>295</ele>
        <time>2019-12-31T15:57:49.007Z</time>
      </trkpt>
      <trkpt lat="45.03722" lon="5.33348">
        <ele>295</ele>
        <time>2019-12-31T15:57:50.007Z</time>
      </trkpt>
      <trkpt lat="45.03726" lon="5.33352">
        <ele>294.77070969577</ele>
        <time>2019-12-31T15:57:51.007Z</time>
      </trkpt>
      <trkpt lat="45.0373" lon="5.33356">
        <ele>294</ele>
        <time>2019-12-31T15:57:52.007Z</time>
      </trkpt>
      <trkpt lat="45.03734" lon="5.33361">
        <ele>294</ele>
        <time>2019-12-31T15:57:53.007Z</time>
      </trkpt>
      <trkpt lat="45.03738" lon="5.33365">
        <ele>294</ele>
        <time>2019-12-31T15:57:54.007Z</time>
      </trkpt>
      <trkpt lat="45.03742" lon="5.33369">
        <ele>294</ele>
        <time>2019-12-31T15:57:55.007Z</time>
      </trkpt>
      <trkpt lat="45.03747" lon="5.33374">
        <ele>294</ele>
        <time>2019-12-31T15:57:56.007Z</time>
      </trkpt>
      <trkpt lat="45.03751" lon="5.33379">
        <ele>294</ele>
        <time>2019-12-31T15:57:57.007Z</time>
      </trkpt>
      <trkpt lat="45.03755" lon="5.33384">
        <ele>294</ele>
        <time>2019-12-31T15:57:58.007Z</time>
      </trkpt>
      <trkpt lat="45.03759" lon="5.33389">
        <ele>294</ele>
        <time>2019-12-31T15:57:59.007Z</time>
      </trkpt>
      <trkpt lat="45.03764" lon="5.33394">
        <ele>294</ele>
        <time>2019-12-31T15:58:00.007Z</time>
      </trkpt>
      <trkpt lat="45.03768" lon="5.334">
        <ele>294</ele>
        <time>2019-12-31T15:58:01.007Z</time>
      </trkpt>
      <trkpt lat="45.03773" lon="5.33405">
        <ele>294</ele>
        <time>2019-12-31T15:58:02.007Z</time>
      </trkpt>
      <trkpt lat="45.03778" lon="5.33411">
        <ele>294</ele>
        <time>2019-12-31T15:58:03.007Z</time>
      </trkpt>
      <trkpt lat="45.03782" lon="5.33417">
        <ele>294</ele>
        <time>2019-12-31T15:58:04.007Z</time>
      </trkpt>
      <trkpt lat="45.03787" lon="5.33423">
        <ele>294</ele>
        <time>2019-12-31T15:58:05.007Z</time>
      </trkpt>
      <trkpt lat="45.03792" lon="5.33429">
        <ele>294</ele>
        <time>2019-12-31T15:58:06.007Z</time>
      </trkpt>
      <trkpt lat="45.03797" lon="5.33435">
        <ele>294</ele>
        <time>2019-12-31T15:58:07.007Z</time>
      </trkpt>
      <trkpt lat="45.03802" lon="5.33441">
        <ele>294</ele>
        <time>2019-12-31T15:58:08.007Z</time>
      </trkpt>
      <trkpt lat="45.03806" lon="5.33447">
        <ele>294</ele>
        <time>2019-12-31T15:58:09.007Z</time>
      </trkpt>
      <trkpt lat="45.03811" lon="5.33453">
        <ele>294</ele>
        <time>2019-12-31T15:58:10.007Z</time>
      </trkpt>
      <trkpt lat="45.03816" lon="5.3346">
        <ele>294</ele>
        <time>2019-12-31T15:58:11.007Z</time>
      </trkpt>
      <trkpt lat="45.0382" lon="5.33467">
        <ele>294</ele>
        <time>2019-12-31T15:58:12.007Z</time>
      </trkpt>
      <trkpt lat="45.03824" lon="5.33474">
        <ele>294</ele>
        <time>2019-12-31T15:58:13.007Z</time>
      </trkpt>
      <trkpt lat="45.03828" lon="5.33481">
        <ele>294</ele>
        <time>2019-12-31T15:58:14.007Z</time>
      </trkpt>
      <trkpt lat="45.03832" lon="5.33489">
        <ele>294</ele>
        <time>2019-12-31T15:58:15.007Z</time>
      </trkpt>
      <trkpt lat="45.03836" lon="5.33497">
        <ele>294</ele>
        <time>2019-12-31T15:58:16.007Z</time>
      </trkpt>
      <trkpt lat="45.03839" lon="5.33506">
        <ele>294</ele>
        <time>2019-12-31T15:58:17.007Z</time>
      </trkpt>
      <trkpt lat="45.03842" lon="5.33514">
        <ele>294</ele>
        <time>2019-12-31T15:58:18.007Z</time>
      </trkpt>
      <trkpt lat="45.03845" lon="5.33522">
        <ele>294</ele>
        <time>2019-12-31T15:58:19.007Z</time>
      </trkpt>
      <trkpt lat="45.03848" lon="5.33531">
        <ele>294</ele>
        <time>2019-12-31T15:58:20.007Z</time>
      </trkpt>
      <trkpt lat="45.03851" lon="5.3354">
        <ele>294</ele>
        <time>2019-12-31T15:58:21.007Z</time>
      </trkpt>
      <trkpt lat="45.03853" lon="5.33548">
        <ele>294</ele>
        <time>2019-12-31T15:58:22.007Z</time>
      </trkpt>
      <trkpt lat="45.03856" lon="5.33557">
        <ele>294</ele>
        <time>2019-12-31T15:58:23.007Z</time>
      </trkpt>
      <trkpt lat="45.03858" lon="5.33565">
        <ele>294</ele>
        <time>2019-12-31T15:58:24.007Z</time>
      </trkpt>
      <trkpt lat="45.03861" lon="5.33574">
        <ele>294</ele>
        <time>2019-12-31T15:58:25.007Z</time>
      </trkpt>
      <trkpt lat="45.03863" lon="5.33582">
        <ele>294</ele>
        <time>2019-12-31T15:58:26.007Z</time>
      </trkpt>
      <trkpt lat="45.03867" lon="5.3359">
        <ele>294</ele>
        <time>2019-12-31T15:58:27.007Z</time>
      </trkpt>
      <trkpt lat="45.0387" lon="5.33598">
        <ele>294</ele>
        <time>2019-12-31T15:58:28.007Z</time>
      </trkpt>
      <trkpt lat="45.03874" lon="5.33606">
        <ele>294</ele>
        <time>2019-12-31T15:58:29.007Z</time>
      </trkpt>
      <trkpt lat="45.03879" lon="5.33613">
        <ele>294</ele>
        <time>2019-12-31T15:58:30.007Z</time>
      </trkpt>
      <trkpt lat="45.03883" lon="5.33619">
        <ele>294</ele>
        <time>2019-12-31T15:58:31.007Z</time>
      </trkpt>
      <trkpt lat="45.03888" lon="5.33626">
        <ele>294</ele>
        <time>2019-12-31T15:58:32.007Z</time>
      </trkpt>
      <trkpt lat="45.03894" lon="5.33632">
        <ele>294</ele>
        <time>2019-12-31T15:58:33.007Z</time>
      </trkpt>
      <trkpt lat="45.03899" lon="5.33638">
        <ele>294</ele>
        <time>2019-12-31T15:58:34.007Z</time>
      </trkpt>
      <trkpt lat="45.03904" lon="5.33644">
        <ele>294</ele>
        <time>2019-12-31T15:58:35.007Z</time>
      </trkpt>
      <trkpt lat="45.03909" lon="5.33651">
        <ele>294</ele>
        <time>2019-12-31T15:58:36.007Z</time>
      </trkpt>
      <trkpt lat="45.03914" lon="5.33657">
        <ele>294</ele>
        <time>2019-12-31T15:58:37.007Z</time>
      </trkpt>
      <trkpt lat="45.0392" lon="5.33662">
        <ele>294</ele>
        <time>2019-12-31T15:58:38.007Z</time>
      </trkpt>
      <trkpt lat="45.03925" lon="5.33668">
        <ele>294</ele>
        <time>2019-12-31T15:58:39.007Z</time>
      </trkpt>
      <trkpt lat="45.03931" lon="5.33673">
        <ele>294</ele>
        <time>2019-12-31T15:58:40.007Z</time>
      </trkpt>
      <trkpt lat="45.03937" lon="5.33678">
        <ele>294</ele>
        <time>2019-12-31T15:58:41.007Z</time>
      </trkpt>
      <trkpt lat="45.03943" lon="5.33683">
        <ele>294</ele>
        <time>2019-12-31T15:58:42.007Z</time>
      </trkpt>
      <trkpt lat="45.03949" lon="5.33687">
        <ele>294</ele>
        <time>2019-12-31T15:58:43.007Z</time>
      </trkpt>
      <trkpt lat="45.03955" lon="5.33691">
        <ele>294</ele>
        <time>2019-12-31T15:58:44.007Z</time>
      </trkpt>
      <trkpt lat="45.03962" lon="5.33694">
        <ele>294</ele>
        <time>2019-12-31T15:58:45.007Z</time>
      </trkpt>
      <trkpt lat="45.03968" lon="5.33697">
        <ele>294</ele>
        <time>2019-12-31T15:58:46.007Z</time>
      </trkpt>
      <trkpt lat="45.03975" lon="5.33699">
        <ele>294</ele>
        <time>2019-12-31T15:58:47.007Z</time>
      </trkpt>
      <trkpt lat="45.03982" lon="5.33702">
        <ele>294</ele>
        <time>2019-12-31T15:58:48.007Z</time>
      </trkpt>
      <trkpt lat="45.03988" lon="5.33704">
        <ele>294</ele>
        <time>2019-12-31T15:58:49.007Z</time>
      </trkpt>
      <trkpt lat="45.03995" lon="5.33706">
        <ele>294</ele>
        <time>2019-12-31T15:58:50.007Z</time>
      </trkpt>
      <trkpt lat="45.04002" lon="5.33708">
        <ele>294</ele>
        <time>2019-12-31T15:58:51.007Z</time>
      </trkpt>
      <trkpt lat="45.04009" lon="5.3371">
        <ele>294</ele>
        <time>2019-12-31T15:58:52.007Z</time>
      </trkpt>
      <trkpt lat="45.04015" lon="5.33712">
        <ele>294</ele>
        <time>2019-12-31T15:58:53.007Z</time>
      </trkpt>
      <trkpt lat="45.04022" lon="5.33714">
        <ele>294</ele>
        <time>2019-12-31T15:58:54.007Z</time>
      </trkpt>
      <trkpt lat="45.04029" lon="5.33716">
        <ele>294</ele>
        <time>2019-12-31T15:58:55.007Z</time>
      </trkpt>
      <trkpt lat="45.04036" lon="5.33718">
        <ele>294</ele>
        <time>2019-12-31T15:58:56.007Z</time>
      </trkpt>
      <trkpt lat="45.04042" lon="5.33719">
        <ele>294</ele>
        <time>2019-12-31T15:58:57.007Z</time>
      </trkpt>
      <trkpt lat="45.04049" lon="5.33721">
        <ele>294</ele>
        <time>2019-12-31T15:58:58.007Z</time>
      </trkpt>
      <trkpt lat="45.04056" lon="5.33723">
        <ele>294</ele>
        <time>2019-12-31T15:58:59.007Z</time>
      </trkpt>
      <trkpt lat="45.04062" lon="5.33725">
        <ele>294</ele>
        <time>2019-12-31T15:59:00.007Z</time>
      </trkpt>
      <trkpt lat="45.04069" lon="5.33727">
        <ele>293.5259904</ele>
        <time>2019-12-31T15:59:01.007Z</time>
      </trkpt>
      <trkpt lat="45.04075" lon="5.33729">
        <ele>292</ele>
        <time>2019-12-31T15:59:02.007Z</time>
      </trkpt>
      <trkpt lat="45.04082" lon="5.33731">
        <ele>292</ele>
        <time>2019-12-31T15:59:03.007Z</time>
      </trkpt>
      <trkpt lat="45.04088" lon="5.33732">
        <ele>292</ele>
        <time>2019-12-31T15:59:04.007Z</time>
      </trkpt>
      <trkpt lat="45.04095" lon="5.33734">
        <ele>292</ele>
        <time>2019-12-31T15:59:05.007Z</time>
      </trkpt>
      <trkpt lat="45.04101" lon="5.33735">
        <ele>292</ele>
        <time>2019-12-31T15:59:06.007Z</time>
      </trkpt>
      <trkpt lat="45.04108" lon="5.33737">
        <ele>292</ele>
        <time>2019-12-31T15:59:07.007Z</time>
      </trkpt>
      <trkpt lat="45.04114" lon="5.33738">
        <ele>292</ele>
        <time>2019-12-31T15:59:08.007Z</time>
      </trkpt>
      <trkpt lat="45.04121" lon="5.3374">
        <ele>292</ele>
        <time>2019-12-31T15:59:09.007Z</time>
      </trkpt>
      <trkpt lat="45.04127" lon="5.33742">
        <ele>292</ele>
        <time>2019-12-31T15:59:10.007Z</time>
      </trkpt>
      <trkpt lat="45.04134" lon="5.33744">
        <ele>292.2370048</ele>
        <time>2019-12-31T15:59:11.007Z</time>
      </trkpt>
      <trkpt lat="45.0414" lon="5.33746">
        <ele>293</ele>
        <time>2019-12-31T15:59:12.007Z</time>
      </trkpt>
      <trkpt lat="45.04147" lon="5.33748">
        <ele>293</ele>
        <time>2019-12-31T15:59:13.007Z</time>
      </trkpt>
      <trkpt lat="45.04153" lon="5.3375">
        <ele>293</ele>
        <time>2019-12-31T15:59:14.007Z</time>
      </trkpt>
      <trkpt lat="45.04159" lon="5.33752">
        <ele>293</ele>
        <time>2019-12-31T15:59:15.007Z</time>
      </trkpt>
      <trkpt lat="45.04166" lon="5.33755">
        <ele>293</ele>
        <time>2019-12-31T15:59:16.007Z</time>
      </trkpt>
      <trkpt lat="45.04172" lon="5.33758">
        <ele>293</ele>
        <time>2019-12-31T15:59:17.007Z</time>
      </trkpt>
      <trkpt lat="45.04178" lon="5.3376">
        <ele>293</ele>
        <time>2019-12-31T15:59:18.007Z</time>
      </trkpt>
      <trkpt lat="45.04184" lon="5.33763">
        <ele>293</ele>
        <time>2019-12-31T15:59:19.007Z</time>
      </trkpt>
      <trkpt lat="45.0419" lon="5.33767">
        <ele>293</ele>
        <time>2019-12-31T15:59:20.007Z</time>
      </trkpt>
      <trkpt lat="45.04196" lon="5.3377">
        <ele>293.2370048</ele>
        <time>2019-12-31T15:59:21.007Z</time>
      </trkpt>
      <trkpt lat="45.04202" lon="5.33773">
        <ele>294</ele>
        <time>2019-12-31T15:59:22.007Z</time>
      </trkpt>
      <trkpt lat="45.04208" lon="5.33777">
        <ele>294</ele>
        <time>2019-12-31T15:59:23.007Z</time>
      </trkpt>
      <trkpt lat="45.04213" lon="5.3378">
        <ele>294</ele>
        <time>2019-12-31T15:59:24.007Z</time>
      </trkpt>
      <trkpt lat="45.04219" lon="5.33784">
        <ele>294</ele>
        <time>2019-12-31T15:59:25.007Z</time>
      </trkpt>
      <trkpt lat="45.04225" lon="5.33788">
        <ele>294</ele>
        <time>2019-12-31T15:59:26.007Z</time>
      </trkpt>
      <trkpt lat="45.04231" lon="5.33791">
        <ele>294</ele>
        <time>2019-12-31T15:59:27.007Z</time>
      </trkpt>
      <trkpt lat="45.04236" lon="5.33795">
        <ele>294</ele>
        <time>2019-12-31T15:59:28.007Z</time>
      </trkpt>
      <trkpt lat="45.04242" lon="5.33799">
        <ele>294</ele>
        <time>2019-12-31T15:59:29.007Z</time>
      </trkpt>
      <trkpt lat="45.04248" lon="5.33802">
        <ele>294</ele>
        <time>2019-12-31T15:59:30.007Z</time>
      </trkpt>
      <trkpt lat="45.04253" lon="5.33806">
        <ele>294</ele>
        <time>2019-12-31T15:59:31.007Z</time>
      </trkpt>
      <trkpt lat="45.04259" lon="5.33809">
        <ele>294</ele>
        <time>2019-12-31T15:59:32.007Z</time>
      </trkpt>
      <trkpt lat="45.04264" lon="5.33813">
        <ele>294</ele>
        <time>2019-12-31T15:59:33.007Z</time>
      </trkpt>
      <trkpt lat="45.0427" lon="5.33816">
        <ele>294</ele>
        <time>2019-12-31T15:59:34.007Z</time>
      </trkpt>
      <trkpt lat="45.04276" lon="5.3382">
        <ele>294</ele>
        <time>2019-12-31T15:59:35.007Z</time>
      </trkpt>
      <trkpt lat="45.04287" lon="5.33826">
        <ele>294</ele>
        <time>2019-12-31T15:59:37.007Z</time>
      </trkpt>
      <trkpt lat="45.04293" lon="5.3383">
        <ele>294</ele>
        <time>2019-12-31T15:59:38.007Z</time>
      </trkpt>
      <trkpt lat="45.04298" lon="5.33833">
        <ele>294</ele>
        <time>2019-12-31T15:59:39.007Z</time>
      </trkpt>
      <trkpt lat="45.04304" lon="5.33836">
        <ele>294</ele>
        <time>2019-12-31T15:59:40.007Z</time>
      </trkpt>
      <trkpt lat="45.0431" lon="5.33838">
        <ele>294.2370048</ele>
        <time>2019-12-31T15:59:41.007Z</time>
      </trkpt>
      <trkpt lat="45.04315" lon="5.33841">
        <ele>295</ele>
        <time>2019-12-31T15:59:42.007Z</time>
      </trkpt>
      <trkpt lat="45.04321" lon="5.33844">
        <ele>295</ele>
        <time>2019-12-31T15:59:43.007Z</time>
      </trkpt>
      <trkpt lat="45.04327" lon="5.33846">
        <ele>295</ele>
        <time>2019-12-31T15:59:44.007Z</time>
      </trkpt>
      <trkpt lat="45.04332" lon="5.33849">
        <ele>295</ele>
        <time>2019-12-31T15:59:45.007Z</time>
      </trkpt>
      <trkpt lat="45.04338" lon="5.33851">
        <ele>295</ele>
        <time>2019-12-31T15:59:46.007Z</time>
      </trkpt>
      <trkpt lat="45.04344" lon="5.33854">
        <ele>295</ele>
        <time>2019-12-31T15:59:47.007Z</time>
      </trkpt>
      <trkpt lat="45.0435" lon="5.33856">
        <ele>295</ele>
        <time>2019-12-31T15:59:48.007Z</time>
      </trkpt>
      <trkpt lat="45.04355" lon="5.33858">
        <ele>295</ele>
        <time>2019-12-31T15:59:49.007Z</time>
      </trkpt>
      <trkpt lat="45.04361" lon="5.3386">
        <ele>295</ele>
        <time>2019-12-31T15:59:50.007Z</time>
      </trkpt>
      <trkpt lat="45.04367" lon="5.33862">
        <ele>295.2370048</ele>
        <time>2019-12-31T15:59:51.007Z</time>
      </trkpt>
      <trkpt lat="45.04372" lon="5.33865">
        <ele>296</ele>
        <time>2019-12-31T15:59:52.007Z</time>
      </trkpt>
      <trkpt lat="45.04378" lon="5.33867">
        <ele>296</ele>
        <time>2019-12-31T15:59:53.007Z</time>
      </trkpt>
      <trkpt lat="45.04384" lon="5.33869">
        <ele>296</ele>
        <time>2019-12-31T15:59:54.007Z</time>
      </trkpt>
      <trkpt lat="45.04389" lon="5.33871">
        <ele>296</ele>
        <time>2019-12-31T15:59:55.007Z</time>
      </trkpt>
      <trkpt lat="45.04395" lon="5.33873">
        <ele>296</ele>
        <time>2019-12-31T15:59:56.007Z</time>
      </trkpt>
      <trkpt lat="45.044" lon="5.33874">
        <ele>296</ele>
        <time>2019-12-31T15:59:57.007Z</time>
      </trkpt>
      <trkpt lat="45.04406" lon="5.33876">
        <ele>296</ele>
        <time>2019-12-31T15:59:58.007Z</time>
      </trkpt>
      <trkpt lat="45.04411" lon="5.33879">
        <ele>296</ele>
        <time>2019-12-31T15:59:59.007Z</time>
      </trkpt>
      <trkpt lat="45.04414" lon="5.33884">
        <ele>296</ele>
        <time>2019-12-31T16:00:00.007Z</time>
      </trkpt>
      <trkpt lat="45.04416" lon="5.33891">
        <ele>296</ele>
        <time>2019-12-31T16:00:01.007Z</time>
      </trkpt>
      <trkpt lat="45.04413" lon="5.33905">
        <ele>296</ele>
        <time>2019-12-31T16:00:03.007Z</time>
      </trkpt>
      <trkpt lat="45.04411" lon="5.33912">
        <ele>296</ele>
        <time>2019-12-31T16:00:04.007Z</time>
      </trkpt>
      <trkpt lat="45.04409" lon="5.33919">
        <ele>296</ele>
        <time>2019-12-31T16:00:05.007Z</time>
      </trkpt>
      <trkpt lat="45.04406" lon="5.33926">
        <ele>296</ele>
        <time>2019-12-31T16:00:06.007Z</time>
      </trkpt>
      <trkpt lat="45.04404" lon="5.33932">
        <ele>296</ele>
        <time>2019-12-31T16:00:07.007Z</time>
      </trkpt>
      <trkpt lat="45.04398" lon="5.33946">
        <ele>296</ele>
        <time>2019-12-31T16:00:09.007Z</time>
      </trkpt>
      <trkpt lat="45.04396" lon="5.33953">
        <ele>296</ele>
        <time>2019-12-31T16:00:10.007Z</time>
      </trkpt>
      <trkpt lat="45.04394" lon="5.3396">
        <ele>296.2370048</ele>
        <time>2019-12-31T16:00:11.007Z</time>
      </trkpt>
      <trkpt lat="45.04391" lon="5.33967">
        <ele>297</ele>
        <time>2019-12-31T16:00:12.007Z</time>
      </trkpt>
      <trkpt lat="45.04389" lon="5.33974">
        <ele>297</ele>
        <time>2019-12-31T16:00:13.007Z</time>
      </trkpt>
      <trkpt lat="45.04386" lon="5.33981">
        <ele>297</ele>
        <time>2019-12-31T16:00:14.007Z</time>
      </trkpt>
      <trkpt lat="45.04384" lon="5.33989">
        <ele>297</ele>
        <time>2019-12-31T16:00:15.007Z</time>
      </trkpt>
      <trkpt lat="45.04382" lon="5.33996">
        <ele>297</ele>
        <time>2019-12-31T16:00:16.007Z</time>
      </trkpt>
      <trkpt lat="45.04379" lon="5.34003">
        <ele>297</ele>
        <time>2019-12-31T16:00:17.007Z</time>
      </trkpt>
      <trkpt lat="45.04377" lon="5.34009">
        <ele>297</ele>
        <time>2019-12-31T16:00:18.007Z</time>
      </trkpt>
      <trkpt lat="45.04374" lon="5.34016">
        <ele>297</ele>
        <time>2019-12-31T16:00:19.007Z</time>
      </trkpt>
      <trkpt lat="45.04372" lon="5.34023">
        <ele>297</ele>
        <time>2019-12-31T16:00:20.007Z</time>
      </trkpt>
      <trkpt lat="45.04369" lon="5.34029">
        <ele>297.2370048</ele>
        <time>2019-12-31T16:00:21.007Z</time>
      </trkpt>
      <trkpt lat="45.04367" lon="5.34036">
        <ele>298</ele>
        <time>2019-12-31T16:00:22.007Z</time>
      </trkpt>
      <trkpt lat="45.04364" lon="5.34043">
        <ele>298</ele>
        <time>2019-12-31T16:00:23.007Z</time>
      </trkpt>
      <trkpt lat="45.04362" lon="5.34049">
        <ele>298</ele>
        <time>2019-12-31T16:00:24.007Z</time>
      </trkpt>
      <trkpt lat="45.04359" lon="5.34055">
        <ele>298</ele>
        <time>2019-12-31T16:00:25.007Z</time>
      </trkpt>
      <trkpt lat="45.04356" lon="5.34062">
        <ele>298</ele>
        <time>2019-12-31T16:00:26.007Z</time>
      </trkpt>
      <trkpt lat="45.04354" lon="5.34068">
        <ele>298</ele>
        <time>2019-12-31T16:00:27.007Z</time>
      </trkpt>
      <trkpt lat="45.04348" lon="5.34079">
        <ele>298</ele>
        <time>2019-12-31T16:00:29.007Z</time>
      </trkpt>
      <trkpt lat="45.04343" lon="5.34091">
        <ele>298.7110144</ele>
        <time>2019-12-31T16:00:31.007Z</time>
      </trkpt>
      <trkpt lat="45.04339" lon="5.34101">
        <ele>301</ele>
        <time>2019-12-31T16:00:33.007Z</time>
      </trkpt>
      <trkpt lat="45.04336" lon="5.34106">
        <ele>301</ele>
        <time>2019-12-31T16:00:34.007Z</time>
      </trkpt>
      <trkpt lat="45.04332" lon="5.34116">
        <ele>301.70396796228</ele>
        <time>2019-12-31T16:00:36.007Z</time>
      </trkpt>
      <trkpt lat="45.0433" lon="5.3412">
        <ele>304</ele>
        <time>2019-12-31T16:00:37.007Z</time>
      </trkpt>
      <trkpt lat="45.04328" lon="5.34125">
        <ele>304</ele>
        <time>2019-12-31T16:00:38.007Z</time>
      </trkpt>
      <trkpt lat="45.04326" lon="5.34129">
        <ele>304</ele>
        <time>2019-12-31T16:00:39.007Z</time>
      </trkpt>
      <trkpt lat="45.04324" lon="5.34134">
        <ele>304</ele>
        <time>2019-12-31T16:00:40.007Z</time>
      </trkpt>
      <trkpt lat="45.04322" lon="5.34138">
        <ele>304.4740096</ele>
        <time>2019-12-31T16:00:41.007Z</time>
      </trkpt>
      <trkpt lat="45.0432" lon="5.34142">
        <ele>306.4740096</ele>
        <time>2019-12-31T16:00:42.007Z</time>
      </trkpt>
      <trkpt lat="45.04317" lon="5.3415">
        <ele>309</ele>
        <time>2019-12-31T16:00:44.007Z</time>
      </trkpt>
      <trkpt lat="45.04315" lon="5.34157">
        <ele>310.2370048</ele>
        <time>2019-12-31T16:00:46.007Z</time>
      </trkpt>
      <trkpt lat="45.04314" lon="5.34165">
        <ele>312</ele>
        <time>2019-12-31T16:00:48.007Z</time>
      </trkpt>
      <trkpt lat="45.04315" lon="5.34178">
        <ele>312</ele>
        <time>2019-12-31T16:00:51.007Z</time>
      </trkpt>
      <trkpt lat="45.04316" lon="5.34186">
        <ele>312.2370048</ele>
        <time>2019-12-31T16:00:53.007Z</time>
      </trkpt>
      <trkpt lat="45.04318" lon="5.34194">
        <ele>313.2370048</ele>
        <time>2019-12-31T16:00:55.007Z</time>
      </trkpt>
      <trkpt lat="45.0432" lon="5.34201">
        <ele>314.2370048</ele>
        <time>2019-12-31T16:00:57.007Z</time>
      </trkpt>
      <trkpt lat="45.04324" lon="5.34208">
        <ele>314.77070969577</ele>
        <time>2019-12-31T16:00:59.007Z</time>
      </trkpt>
      <trkpt lat="45.04328" lon="5.34214">
        <ele>315</ele>
        <time>2019-12-31T16:01:01.007Z</time>
      </trkpt>
      <trkpt lat="45.04331" lon="5.34217">
        <ele>315</ele>
        <time>2019-12-31T16:01:02.007Z</time>
      </trkpt>
      <trkpt lat="45.04334" lon="5.3422">
        <ele>315</ele>
        <time>2019-12-31T16:01:03.007Z</time>
      </trkpt>
      <trkpt lat="45.04336" lon="5.34222">
        <ele>315</ele>
        <time>2019-12-31T16:01:04.007Z</time>
      </trkpt>
      <trkpt lat="45.04339" lon="5.34225">
        <ele>315</ele>
        <time>2019-12-31T16:01:05.007Z</time>
      </trkpt>
      <trkpt lat="45.04345" lon="5.3423">
        <ele>315</ele>
        <time>2019-12-31T16:01:07.007Z</time>
      </trkpt>
      <trkpt lat="45.04352" lon="5.34234">
        <ele>315</ele>
        <time>2019-12-31T16:01:09.007Z</time>
      </trkpt>
      <trkpt lat="45.04361" lon="5.34236">
        <ele>315</ele>
        <time>2019-12-31T16:01:11.007Z</time>
      </trkpt>
      <trkpt lat="45.04371" lon="5.34237">
        <ele>315</ele>
        <time>2019-12-31T16:01:13.007Z</time>
      </trkpt>
      <trkpt lat="45.04376" lon="5.34237">
        <ele>315</ele>
        <time>2019-12-31T16:01:14.007Z</time>
      </trkpt>
      <trkpt lat="45.04382" lon="5.34237">
        <ele>315</ele>
        <time>2019-12-31T16:01:15.007Z</time>
      </trkpt>
      <trkpt lat="45.04387" lon="5.34238">
        <ele>315</ele>
        <time>2019-12-31T16:01:16.007Z</time>
      </trkpt>
      <trkpt lat="45.04393" lon="5.34238">
        <ele>315</ele>
        <time>2019-12-31T16:01:17.007Z</time>
      </trkpt>
      <trkpt lat="45.04399" lon="5.34239">
        <ele>315</ele>
        <time>2019-12-31T16:01:18.007Z</time>
      </trkpt>
      <trkpt lat="45.04406" lon="5.34239">
        <ele>315</ele>
        <time>2019-12-31T16:01:19.007Z</time>
      </trkpt>
      <trkpt lat="45.04412" lon="5.3424">
        <ele>315</ele>
        <time>2019-12-31T16:01:20.007Z</time>
      </trkpt>
      <trkpt lat="45.04418" lon="5.3424">
        <ele>313.814976</ele>
        <time>2019-12-31T16:01:21.007Z</time>
      </trkpt>
      <trkpt lat="45.04424" lon="5.34241">
        <ele>310</ele>
        <time>2019-12-31T16:01:22.007Z</time>
      </trkpt>
      <trkpt lat="45.04429" lon="5.34242">
        <ele>310</ele>
        <time>2019-12-31T16:01:23.007Z</time>
      </trkpt>
      <trkpt lat="45.04433" lon="5.34243">
        <ele>308</ele>
        <time>2019-12-31T16:01:28.007Z</time>
      </trkpt>
      <trkpt lat="45.04433" lon="5.34243">
        <ele>308.00062415828</ele>
        <time>2019-12-31T16:01:30.007Z</time>
      </trkpt>
    </trkseg>
  </trk>
</gpx>